# Wetter Temperatur Luftdruck Luftfeuchtigkeit Sichtweite Windgeschwindigkeit Windrichtung Zeit
1 Clouds 25 1024 78 10000 2.57 110 15:55 01.02.2023
2 Clouds 19 1023 94 10000 0 0 13:42 01.02.2023
3 Clouds 19 1023 94 10000 0 0 13:19 01.02.2023
4 Clouds 19 1022 94 10000 1.03 0 12:26 01.02.2023
5 Clouds 21 1022 94 10000 0.51 0 09:42 01.02.2023
6 Clouds 23 1024 83 10000 2.06 90 03:45 01.02.2023
7 Clouds 27 1021 61 10000 3.09 150 22:21 31.01.2023
8 Clouds 28 1022 57 10000 2.57 130 20:29 31.01.2023
9 Clouds 28 1023 57 10000 3.6 130 19:24 31.01.2023
10 Clouds 27 1024 61 10000 4.12 140 16:34 31.01.2023
11 Clouds 25 1023 73 10000 2.57 130 15:36 31.01.2023
12 Clouds 25 1023 73 10000 2.57 130 15:18 31.01.2023
13 Clouds 19 1021 94 10000 1.03 140 12:33 31.01.2023
14 Clouds 21 1021 88 10000 1.54 120 11:21 31.01.2023
15 Clouds 25 1020 69 10000 6.53 115 09:54 31.01.2023
16 Clouds 25 1020 69 10000 6.74 114 09:20 31.01.2023
17 Clouds 23 1022 83 10000 1.54 100 08:35 31.01.2023
18 Clouds 24 1023 73 10000 3.09 90 05:46 31.01.2023
19 Clouds 26 1021 65 10000 4.63 100 23:59 30.01.2023
20 Clouds 26 1021 65 10000 4.63 100 23:23 30.01.2023
21 Clouds 27 1021 61 10000 5.14 140 22:32 30.01.2023
22 Clouds 28 1021 57 10000 5.14 130 21:23 30.01.2023
23 Clouds 28 1021 57 10000 5.66 130 20:35 30.01.2023
24 Clouds 27 1024 65 10000 5.66 130 17:54 30.01.2023
25 Clouds 27 1024 65 10000 5.14 120 16:34 30.01.2023
26 Clouds 23 1023 88 10000 0 0 14:28 30.01.2023
27 Clouds 23 1021 88 10000 2.06 120 12:45 30.01.2023
28 Clouds 23 1021 88 10000 2.57 100 11:28 30.01.2023
29 Clouds 23 1021 88 10000 3.6 110 09:54 30.01.2023
30 Clouds 23 1022 88 10000 3.09 110 08:57 30.01.2023
31 Clouds 24 1022 83 10000 3.6 110 07:29 30.01.2023
32 Clouds 24 1023 83 10000 3.6 90 01:42 30.01.2023
33 Clouds 26 1022 69 10000 5.14 110 23:35 29.01.2023
34 Clouds 26 1022 69 10000 7.2 110 22:37 29.01.2023
35 Clouds 25 1022 73 10000 5.14 80 21:41 29.01.2023
36 Clouds 26 1022 73 10000 5.14 110 20:41 29.01.2023
37 Clouds 27 1023 69 10000 3.6 120 19:48 29.01.2023
38 Clouds 27 1023 69 10000 3.6 120 19:27 29.01.2023
39 Clouds 26 1025 69 10000 5.66 100 17:49 29.01.2023
40 Clouds 25 1025 78 10000 6.69 110 16:21 29.01.2023
41 Clouds 23 1024 88 10000 5.14 90 14:48 29.01.2023
42 Clouds 23 1023 83 10000 4.63 90 13:30 29.01.2023
43 Clouds 23 1023 83 10000 5.14 80 12:42 29.01.2023
44 Clouds 23 1023 83 10000 5.14 80 12:22 29.01.2023
45 Clouds 23 1023 78 10000 4.12 90 11:48 29.01.2023
46 Clouds 23 1023 78 10000 4.12 90 11:26 29.01.2023
47 Clouds 23 1023 78 10000 4.63 70 09:37 29.01.2023
48 Clouds 23 1024 78 10000 6.17 70 07:19 29.01.2023
49 Clouds 23 1025 73 10000 5.14 90 03:39 29.01.2023
50 Clouds 24 1023 73 10000 6.17 80 23:27 28.01.2023
51 Clouds 25 1023 69 10000 7.72 70 20:38 28.01.2023
52 Clouds 25 1024 69 10000 8.23 70 19:52 28.01.2023
53 Clouds 25 1025 69 10000 6.69 70 18:27 28.01.2023
54 Clouds 24 1026 78 10000 7.2 60 16:59 28.01.2023
55 Clouds 24 1026 78 10000 7.2 60 16:20 28.01.2023
56 Clouds 24 1026 78 10000 7.2 60 16:20 28.01.2023
57 Clouds 24 1025 78 10000 6.69 60 15:49 28.01.2023
58 Clouds 24 1025 73 10000 6.69 70 14:26 28.01.2023
59 Clouds 23 1023 83 10000 6.69 70 12:50 28.01.2023
60 Clouds 23 1023 83 10000 6.69 70 11:54 28.01.2023
61 Clouds 23 1023 83 10000 6.17 70 10:34 28.01.2023
62 Clouds 23 1023 83 10000 5.14 70 07:21 28.01.2023
63 Clouds 24 1022 79 10000 10.12 49 01:40 28.01.2023
64 Clouds 24 1022 78 10000 6.17 50 00:25 28.01.2023
65 Clouds 25 1021 78 10000 7.2 60 20:59 27.01.2023
66 Clouds 25 1022 83 10000 6.17 50 18:25 27.01.2023
67 Clouds 24 1022 81 10000 6.93 35 17:57 27.01.2023
68 Clouds 24 1023 80 10000 5.92 38 17:18 27.01.2023
69 Clouds 25 1023 83 10000 5.14 50 16:34 27.01.2023
70 Rain 24 1022 83 10000 3.6 40 14:55 27.01.2023
71 Clouds 24 1022 83 10000 3.6 40 14:24 27.01.2023
72 Clouds 24 1020 88 10000 2.57 50 12:49 27.01.2023
73 Clouds 21 1020 94 10000 0.51 0 08:41 27.01.2023
74 Clouds 23 1021 94 10000 1.03 0 04:55 27.01.2023
75 Clouds 27 1018 74 10000 3.6 230 22:54 26.01.2023
76 Clouds 29 1018 65 10000 2.57 200 21:39 26.01.2023
77 Clear 25 1018 77 10000 2.73 152 20:35 26.01.2023
78 Clouds 28 1019 69 10000 3.6 230 18:28 26.01.2023
79 Clouds 27 1020 74 10000 4.63 220 17:42 26.01.2023
80 Clouds 27 1020 74 10000 5.66 220 16:27 26.01.2023
81 Clouds 26 1020 78 10000 4.63 230 15:53 26.01.2023
82 Clouds 26 1020 78 10000 4.63 230 15:30 26.01.2023
83 Clouds 24 1019 88 10000 3.6 210 14:49 26.01.2023
84 Clouds 22 1018 100 10000 1.03 190 12:48 26.01.2023
85 Clouds 23 1018 94 10000 2.57 190 11:26 26.01.2023
86 Clouds 23 1018 88 10000 2.06 190 10:29 26.01.2023
87 Clear 25 1017 78 10000 6.24 174 09:44 26.01.2023
88 Clouds 23 1018 94 10000 2.57 180 08:25 26.01.2023
89 Clouds 23 1018 94 10000 2.57 180 08:25 26.01.2023
90 Clouds 26 1017 73 10000 5.66 170 23:59 25.01.2023
91 Clouds 26 1017 73 10000 5.66 170 23:38 25.01.2023
92 Clouds 27 1017 69 10000 7.2 180 21:57 25.01.2023
93 Clouds 27 1017 69 10000 7.2 180 21:21 25.01.2023
94 Clouds 28 1019 69 10000 7.72 170 18:57 25.01.2023
95 Clouds 28 1019 69 10000 7.72 170 18:22 25.01.2023
96 Clouds 26 1020 78 10000 7.2 150 15:50 25.01.2023
97 Clouds 22 1019 94 10000 1.54 130 12:59 25.01.2023
98 Clouds 22 1019 94 10000 2.57 150 11:21 25.01.2023
99 Clouds 24 1018 88 10000 4.12 110 09:48 25.01.2023
100 Clouds 24 1019 83 10000 4.63 110 07:45 25.01.2023
101 Clouds 23 1021 83 10000 4.12 90 01:36 25.01.2023
102 Clouds 24 1021 78 10000 4.12 90 00:23 25.01.2023
103 Clouds 25 1020 73 10000 6.69 80 21:34 24.01.2023
104 Clouds 24 1019 79 10000 8.49 68 20:19 24.01.2023
105 Clouds 24 1019 79 10000 8.49 68 20:19 24.01.2023
106 Clouds 25 1022 73 10000 5.66 90 18:46 24.01.2023
107 Clouds 24 1022 78 10000 8.71 62 17:31 24.01.2023
108 Clouds 24 1022 79 10000 8.94 62 16:53 24.01.2023
109 Clouds 24 1022 78 10000 5.14 80 15:50 24.01.2023
110 Clouds 23 1021 88 10000 5.14 70 13:41 24.01.2023
111 Clouds 23 1020 88 10000 5.14 60 11:30 24.01.2023
112 Clear 24 1020 82 10000 7.55 24 08:24 24.01.2023
113 Clouds 23 1021 94 10000 2.06 20 07:56 24.01.2023
114 Clouds 23 1021 94 10000 2.06 20 07:26 24.01.2023
115 Clouds 22 1020 94 10000 0.51 0 02:38 24.01.2023
116 Clouds 25 1019 83 10000 2.57 200 00:35 24.01.2023
117 Clouds 26 1018 78 10000 3.09 190 22:28 23.01.2023
118 Clouds 27 1018 74 10000 5.66 220 19:55 23.01.2023
119 Clouds 27 1019 78 10000 4.29 182 18:51 23.01.2023
120 Clouds 26 1020 83 10000 4.12 160 16:40 23.01.2023
121 Clouds 25 1020 88 10000 4.12 170 15:26 23.01.2023
122 Clouds 21 1019 100 10000 2.57 150 13:55 23.01.2023
123 Clouds 21 1018 100 10000 2.57 170 12:55 23.01.2023
124 Clouds 22 1018 94 10000 2.06 180 11:45 23.01.2023
125 Clouds 22 1018 94 10000 1.54 160 10:40 23.01.2023
126 Clouds 22 1018 94 10000 2.57 160 08:23 23.01.2023
127 Clouds 25 1016 83 10000 5.66 180 23:51 22.01.2023
128 Clouds 25 1015 82 10000 7.55 175 21:49 22.01.2023
129 Clouds 27 1016 69 10000 7.72 180 20:58 22.01.2023
130 Clouds 25 1016 83 10000 7.28 173 19:54 22.01.2023
131 Clouds 25 1016 83 10000 7.28 173 19:20 22.01.2023
132 Clouds 27 1018 69 10000 7.72 180 18:23 22.01.2023
133 Clouds 26 1018 69 10000 7.72 180 17:55 22.01.2023
134 Clouds 26 1018 69 10000 7.72 180 17:23 22.01.2023
135 Clouds 25 1019 83 10000 5.66 170 15:23 22.01.2023
136 Clouds 23 1018 94 10000 2.57 170 14:20 22.01.2023
137 Clouds 23 1018 94 10000 3.09 140 13:26 22.01.2023
138 Clouds 22 1017 94 10000 2.57 140 12:28 22.01.2023
139 Clouds 22 1017 88 10000 2.06 120 10:40 22.01.2023
140 Clouds 24 1016 83 10000 6.23 103 08:51 22.01.2023
141 Clouds 21 1019 83 10000 3.6 120 02:56 22.01.2023
142 Clouds 25 1019 61 10000 3.6 90 23:43 21.01.2023
143 Clouds 27 1019 54 10000 3.6 80 22:48 21.01.2023
144 Clouds 27 1018 54 10000 4.12 140 20:59 21.01.2023
145 Clouds 26 1020 53 10000 3.09 140 18:49 21.01.2023
146 Clouds 24 1021 73 10000 2.57 130 15:27 21.01.2023
147 Clouds 17 1020 94 10000 1.03 0 13:31 21.01.2023
148 Clouds 16 1020 94 10000 0 0 12:43 21.01.2023
149 Clouds 16 1019 94 10000 0 0 11:28 21.01.2023
150 Clouds 17 1019 94 10000 0 0 10:47 21.01.2023
151 Clouds 24 1020 65 10000 2.47 53 06:48 21.01.2023
152 Clouds 24 1020 69 10000 1.54 30 00:27 21.01.2023
153 Clouds 26 1019 61 10000 2.57 10 22:26 20.01.2023
154 Clouds 27 1019 57 10000 3.09 360 21:36 20.01.2023
155 Clouds 27 1019 57 10000 2.57 10 20:42 20.01.2023
156 Clouds 28 1021 51 10000 1.03 0 18:29 20.01.2023
157 Clouds 22 1022 83 10000 1.03 0 15:45 20.01.2023
158 Clouds 21 1021 94 10000 1.03 0 14:33 20.01.2023
159 Clouds 16 1021 94 10000 0.51 0 12:24 20.01.2023
160 Clouds 18 1020 94 10000 1.03 0 08:59 20.01.2023
161 Clouds 18 1021 94 10000 1.03 0 07:43 20.01.2023
162 Clouds 22 1021 73 10000 1.03 0 02:33 20.01.2023
163 Clouds 26 1020 50 10000 3.6 170 22:38 19.01.2023
164 Clouds 26 1020 50 10000 3.6 170 22:38 19.01.2023
165 Clouds 26 1020 50 10000 3.6 170 22:18 19.01.2023
166 Clouds 27 1020 50 10000 5.66 200 20:21 19.01.2023
167 Clouds 26 1022 53 10000 5.66 170 18:57 19.01.2023
168 Clouds 23 1022 83 10000 3.09 150 15:34 19.01.2023
169 Clouds 20 1019 94 10000 2.57 120 10:52 19.01.2023
170 Clouds 20 1020 88 10000 2.57 110 08:59 19.01.2023
171 Clouds 24 1019 64 10000 4.12 130 23:30 18.01.2023
172 Clouds 26 1019 57 10000 5.14 130 20:54 18.01.2023
173 Clouds 26 1019 57 10000 5.14 130 20:18 18.01.2023
174 Clouds 26 1020 57 10000 4.63 150 19:36 18.01.2023
175 Clouds 26 1021 53 10000 5.14 140 17:32 18.01.2023
176 Clouds 21 1021 73 10000 2.06 100 14:41 18.01.2023
177 Clouds 17 1020 88 10000 1.03 0 13:18 18.01.2023
178 Clouds 17 1019 88 10000 1.03 0 10:29 18.01.2023
179 Clouds 17 1020 88 10000 1.03 0 07:57 18.01.2023
180 Clear 19 1018 77 10000 2.57 120 01:26 18.01.2023
181 Clouds 23 1017 56 10000 4.12 140 22:49 17.01.2023
182 Clouds 24 1018 53 10000 4.12 150 20:31 17.01.2023
183 Clouds 24 1019 50 10000 2.57 150 19:25 17.01.2023
184 Clear 21 1019 59 10000 3.51 128 17:53 17.01.2023
185 Clouds 21 1021 60 10000 1.03 90 15:38 17.01.2023
186 Clouds 16 1020 88 10000 0.51 0 14:52 17.01.2023
187 Clear 21 1019 58 10000 3.2 112 13:34 17.01.2023
188 Clouds 12 1018 87 10000 0 0 11:51 17.01.2023
189 Clouds 13 1018 88 10000 1.03 0 10:49 17.01.2023
190 Clouds 13 1018 88 10000 0 0 09:31 17.01.2023
191 Clouds 14 1019 82 10000 0 0 07:50 17.01.2023
192 Clouds 16 1020 67 10000 1.03 180 03:52 17.01.2023
193 Clouds 20 1019 56 10000 1.54 50 00:54 17.01.2023
194 Clouds 20 1019 56 10000 1.54 0 22:58 16.01.2023
195 Clouds 21 1019 52 10000 3.09 130 21:47 16.01.2023
196 Clouds 21 1020 52 10000 3.6 340 19:59 16.01.2023
197 Clouds 21 1020 52 10000 3.6 340 19:26 16.01.2023
198 Clouds 22 1021 49 10000 3.09 10 18:49 16.01.2023
199 Clouds 22 1021 49 10000 3.09 10 18:19 16.01.2023
200 Clouds 22 1022 49 10000 2.06 20 17:20 16.01.2023
201 Clouds 17 1021 67 10000 1.03 0 14:28 16.01.2023
202 Clouds 13 1020 82 10000 1.03 0 13:37 16.01.2023
203 Clouds 18 1019 59 10000 2.06 50 10:27 16.01.2023
204 Clouds 19 1019 55 10000 2.57 40 08:44 16.01.2023
205 Clouds 19 1019 52 10000 5.66 340 22:58 15.01.2023
206 Clouds 20 1020 49 10000 5.66 340 21:25 15.01.2023
207 Clouds 20 1020 49 10000 6.17 340 20:31 15.01.2023
208 Clouds 20 1020 49 10000 6.17 330 19:34 15.01.2023
209 Clouds 20 1022 49 10000 6.17 330 17:38 15.01.2023
210 Clouds 17 1020 55 10000 7.72 350 14:59 15.01.2023
211 Clear 18 1019 58 10000 9.94 325 12:25 15.01.2023
212 Clear 18 1019 58 10000 10.52 319 11:29 15.01.2023
213 Clear 18 1018 58 10000 10.6 314 10:27 15.01.2023
214 Clear 18 1018 56 10000 10.63 307 08:29 15.01.2023
215 Clear 16 1018 60 10000 12.55 305 23:56 14.01.2023
216 Clouds 16 1017 51 10000 9.77 320 22:44 14.01.2023
217 Clouds 16 1017 48 10000 10.29 320 21:54 14.01.2023
218 Clouds 16 1017 48 10000 10.29 320 21:36 14.01.2023
219 Clouds 16 1017 48 10000 10.29 320 21:36 14.01.2023
220 Clouds 16 1017 48 10000 10.29 320 21:18 14.01.2023
221 Clouds 16 1017 48 10000 10.29 320 21:18 14.01.2023
222 Clear 16 1016 63 10000 13.9 298 20:28 14.01.2023
223 Clouds 16 1018 48 10000 11.83 310 18:18 14.01.2023
224 Clouds 17 1017 59 10000 10.8 310 15:41 14.01.2023
225 Clouds 17 1017 59 10000 10.8 310 15:23 14.01.2023
226 Clouds 18 1016 55 10000 10.8 310 14:19 14.01.2023
227 Clouds 18 1015 55 10000 10.8 310 12:50 14.01.2023
228 Clouds 18 1013 59 10000 10.8 300 10:50 14.01.2023
229 Clouds 19 1013 68 10000 9.77 320 08:41 14.01.2023
230 Clouds 23 1012 78 10000 3.09 250 02:36 14.01.2023
231 Clouds 26 1012 65 10000 5.66 270 22:59 13.01.2023
232 Clouds 26 1012 65 10000 5.66 270 22:41 13.01.2023
233 Clouds 27 1012 57 10000 6.69 240 21:58 13.01.2023
234 Clouds 27 1012 69 10000 6.17 220 20:35 13.01.2023
235 Clouds 25 1014 73 10000 5.66 230 19:27 13.01.2023
236 Clouds 23 1017 83 10000 2.06 190 17:40 13.01.2023
237 Clouds 21 1017 88 10000 1.54 130 14:58 13.01.2023
238 Clouds 17 1016 94 10000 0.51 0 12:25 13.01.2023
239 Clouds 17 1017 94 10000 0.51 0 10:41 13.01.2023
240 Clouds 17 1017 94 10000 0.51 0 10:23 13.01.2023
241 Clouds 18 1017 88 10000 0 0 09:44 13.01.2023
242 Clouds 18 1018 88 10000 0 0 08:51 13.01.2023
243 Clouds 19 1019 88 10000 0 0 06:57 13.01.2023
244 Clouds 19 1019 88 10000 0 0 06:27 13.01.2023
245 Clouds 21 1020 73 10000 3.09 110 02:20 13.01.2023
246 Clouds 25 1019 57 10000 4.63 140 22:52 12.01.2023
247 Clouds 26 1020 50 10000 5.14 120 21:56 12.01.2023
248 Clouds 26 1020 50 10000 5.66 140 20:52 12.01.2023
249 Clouds 25 1022 53 10000 4.63 110 18:26 12.01.2023
250 Clouds 24 1023 50 10000 4.63 100 16:59 12.01.2023
251 Clouds 18 1023 88 10000 0 0 14:58 12.01.2023
252 Clouds 18 1023 88 10000 0 0 14:38 12.01.2023
253 Clouds 18 1023 88 10000 0 0 14:18 12.01.2023
254 Clouds 17 1021 82 10000 1.03 0 12:19 12.01.2023
255 Clouds 17 1021 94 10000 1.54 90 10:26 12.01.2023
256 Clear 23 1020 62 10000 4.47 83 07:27 12.01.2023
257 Clouds 22 1021 68 10000 2.06 120 00:32 12.01.2023
258 Clouds 24 1020 60 10000 1.54 50 23:57 11.01.2023
259 Clouds 24 1020 60 10000 1.54 50 23:37 11.01.2023
260 Clouds 24 1020 60 10000 1.54 50 23:19 11.01.2023
261 Clouds 25 1020 53 10000 2.57 360 21:22 11.01.2023
262 Clouds 26 1021 50 10000 3.09 20 18:51 11.01.2023
263 Clouds 25 1022 50 10000 2.57 30 17:37 11.01.2023
264 Clouds 23 1022 68 10000 1.54 140 15:43 11.01.2023
265 Clear 23 1020 56 10000 2.26 21 13:57 11.01.2023
266 Clear 17 1019 88 10000 1.03 0 12:33 11.01.2023
267 Clear 17 1019 88 10000 0 0 11:24 11.01.2023
268 Clouds 17 1019 88 10000 1.03 0 08:50 11.01.2023
269 Clear 17 1020 94 10000 0.51 0 07:29 11.01.2023
270 Clear 18 1020 88 10000 0.51 0 06:23 11.01.2023
271 Clouds 24 1018 64 10000 3.09 70 23:44 10.01.2023
272 Clouds 24 1018 64 10000 3.6 50 22:18 10.01.2023
273 Clouds 24 1018 64 10000 4.63 50 21:18 10.01.2023
274 Clouds 24 1019 64 10000 4.63 20 19:53 10.01.2023
275 Clouds 25 1020 65 10000 4.63 30 18:50 10.01.2023
276 Clouds 25 1020 65 10000 4.63 30 18:27 10.01.2023
277 Clouds 25 1020 61 10000 3.6 40 17:20 10.01.2023
278 Clouds 24 1019 57 10000 3.09 60 15:33 10.01.2023
279 Clouds 21 1019 73 10000 1.03 0 14:47 10.01.2023
280 Clouds 22 1018 68 10000 2.06 30 12:54 10.01.2023
281 Clouds 22 1018 73 10000 1.54 30 09:43 10.01.2023
282 Clouds 22 1018 73 10000 3.09 40 08:37 10.01.2023
283 Clouds 23 1018 68 10000 3.6 60 07:55 10.01.2023
284 Clouds 23 1019 73 10000 3.09 30 05:33 10.01.2023
285 Clouds 24 1018 73 10000 4.63 10 00:19 10.01.2023
286 Rain 24 1018 78 10000 3.6 350 21:57 09.01.2023
287 Clouds 24 1018 78 10000 2.57 90 20:50 09.01.2023
288 Clouds 26 1019 73 10000 4.12 290 19:54 09.01.2023
289 Rain 26 1019 73 10000 4.12 290 18:23 09.01.2023
290 Clouds 27 1020 74 10000 4.12 240 17:49 09.01.2023
291 Clouds 27 1020 74 10000 3.09 190 16:34 09.01.2023
292 Clouds 25 1020 83 10000 2.57 170 15:31 09.01.2023
293 Clouds 21 1020 94 10000 0.51 0 14:53 09.01.2023
294 Clouds 21 1020 94 10000 0.51 0 14:21 09.01.2023
295 Clouds 19 1019 94 10000 0.51 0 12:49 09.01.2023
296 Clouds 19 1019 94 10000 0.51 0 11:45 09.01.2023
297 Clouds 19 1019 94 10000 0.51 0 11:19 09.01.2023
298 Rain 23 1021 88 10000 3.6 110 06:53 09.01.2023
299 Clouds 24 1022 78 10000 3.6 90 02:55 09.01.2023
300 Clouds 24 1021 78 10000 4.12 100 00:50 09.01.2023
301 Clouds 25 1021 73 10000 5.14 90 21:43 08.01.2023
302 Clouds 25 1021 73 10000 5.14 90 21:20 08.01.2023
303 Clouds 25 1021 73 10000 5.14 80 20:31 08.01.2023
304 Clouds 26 1024 69 10000 5.14 70 17:56 08.01.2023
305 Clouds 26 1024 69 10000 5.14 70 17:21 08.01.2023
306 Clouds 24 1023 73 10000 4.63 100 15:47 08.01.2023
307 Clouds 24 1023 73 10000 4.63 100 15:24 08.01.2023
308 Clouds 22 1022 83 10000 2.57 80 13:57 08.01.2023
309 Clouds 22 1022 83 10000 2.57 80 13:29 08.01.2023
310 Clouds 22 1022 78 10000 3.09 90 12:20 08.01.2023
311 Clouds 23 1023 73 10000 4.63 70 09:39 08.01.2023
312 Clouds 23 1023 73 10000 4.63 70 09:18 08.01.2023
313 Clouds 22 1023 78 10000 4.12 70 07:41 08.01.2023
314 Clouds 24 1022 73 10000 4.12 40 23:58 07.01.2023
315 Clouds 25 1022 69 10000 5.14 60 22:46 07.01.2023
316 Clouds 25 1022 69 10000 5.14 60 22:22 07.01.2023
317 Clouds 24 1021 73 10000 6.17 50 21:40 07.01.2023
318 Clouds 25 1021 69 10000 5.66 50 20:31 07.01.2023
319 Clouds 25 1022 69 10000 5.66 50 19:28 07.01.2023
320 Clouds 25 1023 73 10000 6.17 60 18:22 07.01.2023
321 Clouds 25 1023 73 10000 5.66 50 17:43 07.01.2023
322 Clouds 25 1023 73 10000 5.14 50 16:54 07.01.2023
323 Clouds 25 1023 73 10000 5.14 50 16:29 07.01.2023
324 Clouds 25 1023 73 10000 5.14 50 16:29 07.01.2023
325 Clouds 25 1023 73 10000 5.14 60 15:40 07.01.2023
326 Clouds 25 1023 73 10000 5.14 60 15:22 07.01.2023
327 Clouds 24 1023 78 10000 4.63 60 14:25 07.01.2023
328 Clouds 24 1022 78 10000 3.6 50 13:43 07.01.2023
329 Clouds 24 1022 78 10000 3.6 50 13:19 07.01.2023
330 Clouds 23 1021 83 10000 3.6 60 12:21 07.01.2023
331 Clouds 24 1021 78 10000 3.6 70 10:29 07.01.2023
332 Clouds 24 1020 74 10000 6.74 37 09:50 07.01.2023
333 Clouds 24 1021 83 10000 4.63 40 08:18 07.01.2023
334 Clouds 24 1022 83 10000 4.63 50 07:42 07.01.2023
335 Clouds 24 1022 83 10000 4.63 30 06:31 07.01.2023
336 Clouds 25 1021 73 10000 4.63 20 23:34 06.01.2023
337 Clouds 27 1020 69 10000 4.63 20 22:21 06.01.2023
338 Clouds 26 1020 69 10000 4.12 30 21:50 06.01.2023
339 Clouds 27 1021 65 10000 4.12 30 20:38 06.01.2023
340 Clouds 26 1021 73 10000 4.12 40 19:55 06.01.2023
341 Clouds 26 1021 73 10000 4.12 40 19:37 06.01.2023
342 Clouds 26 1021 73 10000 4.12 40 19:19 06.01.2023
343 Clouds 27 1022 61 10000 3.6 50 17:55 06.01.2023
344 Clouds 27 1023 65 10000 3.09 50 16:52 06.01.2023
345 Clouds 27 1023 65 10000 3.09 50 16:22 06.01.2023
346 Clouds 25 1022 83 10000 2.06 110 15:51 06.01.2023
347 Clouds 25 1022 83 10000 2.06 110 15:29 06.01.2023
348 Clouds 22 1021 94 10000 1.54 80 13:42 06.01.2023
349 Clouds 21 1020 94 10000 1.03 0 11:50 06.01.2023
350 Clouds 25 1020 74 10000 2.73 21 10:34 06.01.2023
351 Clear 25 1020 74 10000 1.89 6 08:42 06.01.2023
352 Clear 22 1022 94 10000 1.03 0 05:20 06.01.2023
353 Clouds 27 1020 69 10000 3.6 160 22:56 05.01.2023
354 Clouds 27 1020 69 10000 3.6 160 22:20 05.01.2023
355 Clouds 27 1021 69 10000 4.12 170 20:24 05.01.2023
356 Clouds 27 1023 74 10000 6.17 150 17:30 05.01.2023
357 Clouds 27 1023 74 10000 5.66 130 16:37 05.01.2023
358 Clouds 26 1023 78 10000 4.63 130 15:48 05.01.2023
359 Clouds 24 1022 88 10000 3.09 110 14:56 05.01.2023
360 Clouds 21 1022 94 10000 1.03 0 13:28 05.01.2023
361 Clear 21 1022 94 10000 1.03 0 12:38 05.01.2023
362 Clear 20 1022 100 10000 1.54 150 09:57 05.01.2023
363 Clear 20 1022 100 10000 1.54 150 09:33 05.01.2023
364 Clouds 22 1023 88 10000 0 0 07:21 05.01.2023
365 Clouds 23 1023 83 10000 1.03 0 06:37 05.01.2023
366 Clouds 24 1021 83 10000 1.54 170 00:27 05.01.2023
367 Clouds 27 1020 69 10000 5.66 170 22:18 04.01.2023
368 Clouds 27 1020 69 10000 5.14 160 21:29 04.01.2023
369 Clouds 27 1021 69 10000 6.69 160 19:57 04.01.2023
370 Clouds 27 1021 69 10000 6.69 160 19:34 04.01.2023
371 Clouds 27 1022 69 10000 6.17 160 18:59 04.01.2023
372 Clouds 27 1023 74 10000 5.66 160 16:32 04.01.2023
373 Clouds 27 1023 74 10000 5.66 160 16:32 04.01.2023
374 Clouds 25 1023 83 10000 3.09 120 15:56 04.01.2023
375 Clouds 24 1022 88 10000 2.57 120 14:47 04.01.2023
376 Clouds 23 1021 88 10000 3.09 110 11:43 04.01.2023
377 Clouds 23 1021 88 10000 3.09 110 11:21 04.01.2023
378 Clouds 23 1020 88 10000 3.09 130 10:43 04.01.2023
379 Clouds 23 1020 88 10000 3.09 130 10:23 04.01.2023
380 Clear 23 1021 88 10000 2.57 120 08:52 04.01.2023
381 Clouds 23 1022 88 10000 3.09 120 05:35 04.01.2023
382 Clouds 25 1020 78 10000 3.6 140 00:32 04.01.2023
383 Clouds 26 1020 69 10000 4.63 140 23:35 03.01.2023
384 Clouds 27 1020 65 10000 5.14 140 22:44 03.01.2023
385 Clouds 27 1021 65 10000 5.66 120 20:53 03.01.2023
386 Clouds 25 1020 72 10000 7.54 113 19:23 03.01.2023
387 Clouds 27 1023 65 10000 5.14 130 17:36 03.01.2023
388 Clouds 26 1023 78 10000 4.12 110 15:54 03.01.2023
389 Clouds 23 1022 88 10000 2.06 100 13:55 03.01.2023
390 Clouds 23 1022 88 10000 2.06 100 13:30 03.01.2023
391 Clouds 23 1022 88 10000 2.06 100 13:30 03.01.2023
392 Clouds 23 1022 88 10000 2.06 80 12:57 03.01.2023
393 Clouds 23 1022 88 10000 2.06 80 12:29 03.01.2023
394 Clouds 23 1021 88 10000 2.06 100 10:32 03.01.2023
395 Clear 25 1021 74 10000 8.14 86 06:41 03.01.2023
396 Clouds 23 1023 88 10000 4.12 100 04:18 03.01.2023
397 Clouds 24 1023 83 10000 3.09 100 03:42 03.01.2023
398 Clouds 24 1021 78 10000 4.12 90 00:36 03.01.2023
399 Clouds 26 1021 69 10000 5.14 80 22:41 02.01.2023
400 Clouds 26 1021 69 10000 5.14 80 21:55 02.01.2023
401 Clouds 27 1021 65 10000 5.14 80 20:39 02.01.2023
402 Clouds 27 1022 61 10000 5.14 90 19:28 02.01.2023
403 Clouds 26 1023 73 10000 5.14 80 16:56 02.01.2023
404 Clouds 24 1022 83 10000 2.57 110 14:46 02.01.2023
405 Clouds 21 1022 94 10000 2.06 90 13:23 02.01.2023
406 Clouds 23 1021 88 10000 2.06 100 11:40 02.01.2023
407 Clouds 23 1021 88 10000 1.54 100 09:49 02.01.2023
408 Clear 25 1020 75 10000 4.48 85 07:32 02.01.2023
409 Clouds 24 1021 83 10000 2.06 70 00:40 02.01.2023
410 Clouds 26 1020 73 10000 4.12 50 21:55 01.01.2023
411 Clouds 26 1020 73 10000 4.12 50 21:22 01.01.2023
412 Clouds 26 1020 73 10000 4.12 40 20:45 01.01.2023
413 Clouds 26 1020 73 10000 3.6 40 19:42 01.01.2023
414 Clouds 26 1022 73 10000 2.57 40 17:53 01.01.2023
415 Clouds 26 1022 73 10000 2.57 40 17:20 01.01.2023
416 Clouds 27 1022 65 10000 2.06 120 16:31 01.01.2023
417 Clouds 25 1021 70 10000 3.26 113 14:37 01.01.2023
418 Clouds 20 1020 94 10000 0.51 0 13:21 01.01.2023
419 Clear 21 1019 94 10000 0.51 0 12:29 01.01.2023
420 Clouds 20 1019 100 10000 0 0 11:35 01.01.2023
421 Clear 21 1019 94 10000 0.51 0 09:49 01.01.2023
422 Clear 22 1020 94 10000 1.03 0 08:45 01.01.2023
423 Clear 22 1020 94 10000 1.03 0 08:18 01.01.2023
424 Clouds 22 1021 94 10000 0.51 0 06:51 01.01.2023
425 Clouds 25 1021 78 10000 2.06 150 00:19 01.01.2023
426 Clouds 26 1020 73 10000 3.09 160 23:39 31.12.2022
427 Clouds 26 1020 73 10000 2.06 100 22:30 31.12.2022
428 Clouds 26 1020 73 10000 7.2 150 21:25 31.12.2022
429 Clouds 28 1020 69 10000 5.14 170 20:33 31.12.2022
430 Clouds 28 1021 69 10000 4.63 150 18:57 31.12.2022
431 Clear 25 1020 74 10000 3.68 115 18:38 31.12.2022
432 Clouds 27 1022 69 10000 5.14 150 17:58 31.12.2022
433 Clouds 27 1022 69 10000 5.14 150 17:34 31.12.2022
434 Clouds 27 1022 69 10000 4.12 150 16:32 31.12.2022
435 Clouds 26 1022 78 10000 2.57 130 15:37 31.12.2022
436 Clouds 22 1021 94 10000 1.03 0 13:59 31.12.2022
437 Clouds 22 1021 94 10000 1.03 0 13:27 31.12.2022
438 Clouds 22 1020 94 10000 1.03 0 12:24 31.12.2022
439 Clouds 23 1020 94 10000 1.03 0 11:55 31.12.2022
440 Clouds 23 1020 94 10000 1.03 0 11:37 31.12.2022
441 Clear 25 1019 78 10000 5.2 128 09:57 31.12.2022
442 Clear 25 1019 78 10000 5.2 128 09:39 31.12.2022
443 Clouds 22 1020 94 10000 0 0 08:22 31.12.2022
444 Clear 24 1020 94 10000 2.06 90 02:26 31.12.2022
445 Clouds 25 1019 83 10000 2.57 110 00:33 31.12.2022
446 Clouds 25 1018 80 10000 4.97 122 23:20 30.12.2022
447 Clouds 27 1019 74 10000 4.12 150 22:18 30.12.2022
448 Clear 28 1019 69 10000 5.66 160 21:38 30.12.2022
449 Clear 28 1019 69 10000 5.66 160 21:18 30.12.2022
450 Clouds 25 1021 79 10000 4.5 127 18:28 30.12.2022
451 Clouds 27 1022 74 10000 4.63 160 17:34 30.12.2022
452 Clouds 27 1022 74 10000 4.63 160 17:34 30.12.2022
453 Clouds 27 1022 74 10000 3.6 130 16:46 30.12.2022
454 Clouds 24 1022 94 10000 1.03 0 14:55 30.12.2022
455 Clouds 20 1021 100 10000 1.03 0 12:54 30.12.2022
456 Clouds 22 1021 94 10000 1.54 90 08:24 30.12.2022
457 Clear 24 1022 88 10000 3.09 100 03:55 30.12.2022
458 Clear 23 1021 94 10000 2.57 90 02:26 30.12.2022
459 Clouds 26 1020 73 10000 2.57 120 23:45 29.12.2022
460 Clouds 27 1020 69 10000 3.09 120 21:55 29.12.2022
461 Clouds 25 1021 83 10000 3.6 60 20:54 29.12.2022
462 Clouds 25 1021 83 10000 3.6 60 20:34 29.12.2022
463 Clouds 27 1022 74 10000 5.14 80 18:38 29.12.2022
464 Clouds 26 1023 78 10000 3.6 60 17:53 29.12.2022
465 Clouds 26 1023 78 10000 3.6 60 17:20 29.12.2022
466 Clouds 24 1023 83 10000 3.09 100 16:54 29.12.2022
467 Clouds 24 1023 88 10000 5.14 70 15:47 29.12.2022
468 Clouds 22 1022 94 10000 6.17 70 13:34 29.12.2022
469 Clouds 23 1021 88 10000 4.12 80 11:48 29.12.2022
470 Clouds 23 1021 83 10000 4.63 80 09:29 29.12.2022
471 Clouds 24 1022 78 10000 5.66 80 02:31 29.12.2022
472 Clouds 23 1021 78 10000 6.17 60 23:28 28.12.2022
473 Clouds 24 1021 73 10000 6.69 50 21:49 28.12.2022
474 Clouds 24 1021 73 10000 6.69 50 21:19 28.12.2022
475 Clouds 24 1022 73 10000 7.2 60 19:47 28.12.2022
476 Clouds 23 1023 78 10000 6.69 70 16:58 28.12.2022
477 Clouds 22 1023 83 10000 7.72 60 15:38 28.12.2022
478 Clouds 22 1021 78 10000 7.2 60 12:59 28.12.2022
479 Clouds 22 1021 78 10000 7.2 60 12:24 28.12.2022
480 Clouds 22 1020 83 10000 7.72 60 11:29 28.12.2022
481 Clouds 22 1020 88 10000 6.69 50 09:18 28.12.2022
482 Clouds 22 1020 88 10000 5.66 40 07:27 28.12.2022
483 Clouds 23 1021 78 10000 5.14 20 06:43 28.12.2022
484 Rain 23 1019 83 10000 3.6 20 23:36 27.12.2022
485 Rain 23 1019 83 10000 2.06 40 20:30 27.12.2022
486 Rain 23 1020 83 10000 2.06 50 19:31 27.12.2022
487 Clouds 23 1020 83 10000 2.06 50 19:31 27.12.2022
488 Rain 25 1020 69 10000 3.09 50 17:28 27.12.2022
489 Clouds 23 1021 83 10000 2.57 100 16:43 27.12.2022
490 Clouds 23 1021 78 10000 2.57 90 15:30 27.12.2022
491 Clouds 24 1018 72 10000 1.75 286 12:35 27.12.2022
492 Clouds 20 1019 83 10000 5.66 70 11:29 27.12.2022
493 Clouds 24 1017 80 10000 4.6 45 09:46 27.12.2022
494 Clouds 23 1018 83 10000 5.89 51 09:23 27.12.2022
495 Clouds 22 1020 88 10000 6.17 70 06:50 27.12.2022
496 Clouds 23 1021 88 10000 4.63 60 04:30 27.12.2022
497 Clouds 24 1019 73 10000 4.63 60 22:26 26.12.2022
498 Clouds 24 1019 73 10000 4.63 60 20:56 26.12.2022
499 Clouds 24 1019 73 10000 4.63 60 20:34 26.12.2022
500 Clouds 24 1021 73 10000 5.66 60 18:44 26.12.2022
501 Clouds 25 1022 69 10000 5.66 60 17:44 26.12.2022
502 Clouds 22 1022 78 10000 5.66 50 16:20 26.12.2022
503 Clouds 21 1022 83 10000 4.63 50 13:46 26.12.2022
504 Clouds 21 1021 83 10000 6.17 30 11:56 26.12.2022
505 Clouds 21 1021 78 10000 3.6 40 07:28 26.12.2022
506 Clouds 19 1020 88 10000 4.12 40 23:48 25.12.2022
507 Clouds 19 1020 88 10000 4.12 40 23:22 25.12.2022
508 Clouds 20 1020 83 10000 4.12 40 22:26 25.12.2022
509 Clouds 20 1020 83 10000 4.63 40 21:35 25.12.2022
510 Rain 20 1022 77 10000 4.63 30 18:32 25.12.2022
511 Clouds 21 1022 73 10000 3.6 30 17:51 25.12.2022
512 Clouds 21 1022 73 10000 3.6 30 17:33 25.12.2022
513 Clouds 21 1021 78 10000 4.63 40 14:47 25.12.2022
514 Clouds 20 1019 77 10000 3.09 50 11:49 25.12.2022
515 Clouds 20 1021 77 10000 3.09 50 06:20 25.12.2022
516 Clouds 20 1020 77 10000 5.66 10 23:22 24.12.2022
517 Clouds 21 1020 78 10000 5.66 10 21:18 24.12.2022
518 Clouds 22 1021 83 10000 5.14 20 17:56 24.12.2022
519 Clouds 22 1021 83 10000 5.14 20 16:27 24.12.2022
520 Clouds 23 1019 73 10000 4.63 10 14:37 24.12.2022
521 Clouds 24 1018 73 10000 4.63 10 12:41 24.12.2022
522 Clouds 24 1017 78 10000 5.14 360 10:31 24.12.2022
523 Clouds 24 1017 83 10000 6.17 350 09:55 24.12.2022
524 Clouds 24 1017 83 10000 6.17 350 09:36 24.12.2022
525 Clouds 23 1018 94 10000 2.57 290 03:52 24.12.2022
526 Clouds 26 1017 75 10000 5.61 256 00:52 24.12.2022
527 Clouds 26 1016 75 10000 5.87 255 23:31 23.12.2022
528 Clouds 27 1016 74 10000 3.6 250 21:53 23.12.2022
529 Clouds 27 1016 74 10000 4.12 270 20:20 23.12.2022
530 Clouds 26 1017 78 10000 4.63 240 19:39 23.12.2022
531 Clouds 26 1016 75 10000 5.76 227 19:21 23.12.2022
532 Clouds 26 1018 78 10000 5.14 240 18:38 23.12.2022
533 Clouds 26 1018 78 10000 5.14 240 18:18 23.12.2022
534 Clouds 25 1019 78 10000 4.12 240 15:55 23.12.2022
535 Clouds 24 1018 88 10000 4.63 220 14:37 23.12.2022
536 Clouds 20 1017 100 10000 2.06 230 10:34 23.12.2022
537 Clouds 21 1017 100 10000 1.03 0 09:36 23.12.2022
538 Clouds 25 1016 79 10000 4.16 215 07:43 23.12.2022
539 Clouds 22 1018 94 10000 1.03 0 06:50 23.12.2022
540 Clouds 25 1018 83 10000 2.06 250 02:45 23.12.2022
541 Clouds 26 1016 78 10000 3.09 210 23:20 22.12.2022
542 Clouds 28 1015 65 10000 5.14 210 21:56 22.12.2022
543 Clouds 27 1016 74 10000 4.12 230 19:56 22.12.2022
544 Clouds 27 1016 74 10000 4.12 230 19:22 22.12.2022
545 Clouds 26 1018 73 10000 5.14 230 17:59 22.12.2022
546 Clouds 26 1018 73 10000 4.12 240 16:54 22.12.2022
547 Clear 25 1018 83 10000 2.06 240 15:48 22.12.2022
548 Clear 25 1018 83 10000 2.06 240 15:29 22.12.2022
549 Clear 22 1017 94 10000 0.51 0 14:28 22.12.2022
550 Clear 20 1017 94 10000 0 0 13:20 22.12.2022
551 Clear 19 1017 100 10000 0.51 0 12:29 22.12.2022
552 Clear 24 1016 78 10000 2.32 205 10:31 22.12.2022
553 Clear 21 1016 100 10000 1.03 130 09:24 22.12.2022
554 Clear 24 1015 78 10000 1.23 216 08:53 22.12.2022
555 Clear 21 1016 94 10000 1.54 130 07:52 22.12.2022
556 Clouds 25 1017 78 10000 2.94 287 04:19 22.12.2022
557 Clouds 25 1016 78 10000 2.57 300 00:46 22.12.2022
558 Clouds 27 1015 69 10000 1.03 0 22:29 21.12.2022
559 Rain 27 1015 69 10000 3.09 260 21:46 21.12.2022
560 Clouds 27 1015 74 10000 4.63 250 20:59 21.12.2022
561 Clouds 27 1015 74 10000 4.63 250 20:31 21.12.2022
562 Clouds 27 1016 74 10000 4.63 240 19:47 21.12.2022
563 Clouds 27 1016 74 10000 4.63 240 19:28 21.12.2022
564 Clouds 27 1017 74 10000 6.17 230 18:51 21.12.2022
565 Clouds 27 1017 74 10000 6.17 230 18:33 21.12.2022
566 Clouds 25 1018 83 10000 5.14 220 15:50 21.12.2022
567 Clouds 22 1017 88 10000 3.09 220 13:52 21.12.2022
568 Clouds 21 1016 100 9000 1.54 210 11:48 21.12.2022
569 Clouds 21 1016 100 9000 1.54 210 11:20 21.12.2022
570 Clouds 21 1016 100 9000 2.06 220 09:50 21.12.2022
571 Clouds 22 1017 94 9000 4.63 50 08:48 21.12.2022
572 Clouds 23 1019 94 9000 3.6 70 06:29 21.12.2022
573 Rain 23 1019 88 10000 4.63 90 00:22 21.12.2022
574 Clouds 24 1019 83 10000 5.66 100 21:47 20.12.2022
575 Clouds 24 1019 83 10000 6.69 110 20:33 20.12.2022
576 Clouds 25 1020 78 10000 6.69 90 19:42 20.12.2022
577 Clouds 24 1021 83 10000 6.69 100 18:38 20.12.2022
578 Clouds 24 1021 83 10000 6.69 100 18:19 20.12.2022
579 Clouds 26 1022 69 10000 7.72 80 17:46 20.12.2022
580 Clouds 26 1022 69 10000 7.2 80 16:53 20.12.2022
581 Clouds 25 1022 78 10000 5.66 70 15:47 20.12.2022
582 Clouds 25 1021 78 10000 5.14 80 14:50 20.12.2022
583 Clouds 25 1021 78 10000 5.14 80 14:29 20.12.2022
584 Clouds 24 1020 78 10000 4.12 70 12:59 20.12.2022
585 Clouds 24 1020 78 10000 4.12 70 12:31 20.12.2022
586 Clouds 24 1020 78 10000 4.63 70 11:37 20.12.2022
587 Clouds 23 1020 83 10000 4.12 80 08:49 20.12.2022
588 Clouds 24 1021 78 10000 4.63 80 03:40 20.12.2022
589 Clouds 25 1020 73 10000 6.17 60 22:42 19.12.2022
590 Clouds 25 1020 73 10000 5.66 60 21:56 19.12.2022
591 Clouds 26 1021 69 10000 5.66 70 19:58 19.12.2022
592 Clouds 26 1021 69 10000 5.66 70 19:39 19.12.2022
593 Clouds 25 1022 73 10000 6.17 70 18:33 19.12.2022
594 Clouds 25 1022 73 10000 6.17 70 16:47 19.12.2022
595 Clouds 24 1020 73 10000 4.12 80 13:28 19.12.2022
596 Clouds 24 1019 78 10000 4.63 70 11:56 19.12.2022
597 Clouds 24 1019 73 10000 4.63 70 10:45 19.12.2022
598 Clouds 24 1019 78 10000 5.14 70 07:43 19.12.2022
599 Clouds 24 1019 88 10000 3.6 20 03:42 19.12.2022
600 Rain 25 1016 78 10000 2.57 270 22:35 18.12.2022
601 Rain 25 1015 83 10000 1.54 210 21:46 18.12.2022
602 Rain 25 1015 83 10000 1.54 210 21:22 18.12.2022
603 Clouds 26 1016 73 10000 5.14 220 19:52 18.12.2022
604 Clouds 26 1016 73 10000 5.14 220 19:34 18.12.2022
605 Clouds 25 1017 71 10000 4.99 249 17:53 18.12.2022
606 Clouds 26 1018 78 10000 4.63 210 16:32 18.12.2022
607 Clouds 26 1018 83 10000 3.6 220 15:40 18.12.2022
608 Clouds 26 1018 83 10000 3.6 220 15:40 18.12.2022
609 Clouds 26 1018 83 10000 3.6 220 15:19 18.12.2022
610 Clouds 20 1017 100 10000 1.03 0 13:40 18.12.2022
611 Clouds 21 1016 94 10000 0 0 12:53 18.12.2022
612 Clouds 21 1016 94 10000 0 0 12:19 18.12.2022
613 Clouds 25 1015 76 10000 5.2 203 10:22 18.12.2022
614 Clouds 21 1016 100 10000 0 0 08:47 18.12.2022
615 Clouds 22 1016 94 10000 1.03 0 07:21 18.12.2022
616 Clouds 22 1017 100 10000 0 0 06:21 18.12.2022
617 Clouds 23 1017 94 10000 1.03 180 03:40 18.12.2022
618 Clouds 24 1016 83 10000 1.54 280 00:34 18.12.2022
619 Clouds 26 1014 78 10000 3.09 220 21:54 17.12.2022
620 Clouds 25 1015 76 10000 3.14 199 19:27 17.12.2022
621 Clouds 26 1017 78 10000 2.06 120 16:49 17.12.2022
622 Clouds 24 1016 94 10000 1.03 0 14:30 17.12.2022
623 Clear 22 1015 100 10000 0.51 0 11:38 17.12.2022
624 Clear 25 1014 77 10000 4.02 204 10:47 17.12.2022
625 Clear 25 1014 77 10000 4.11 201 09:46 17.12.2022
626 Clouds 22 1016 100 10000 1.03 0 07:28 17.12.2022
627 Clouds 21 1016 100 10000 1.03 0 06:45 17.12.2022
628 Rain 26 1015 78 10000 1.54 210 23:49 16.12.2022
629 Clouds 28 1015 69 10000 3.6 220 20:56 16.12.2022
630 Clouds 28 1015 65 10000 5.14 210 19:36 16.12.2022
631 Clouds 26 1017 73 10000 5.14 210 15:43 16.12.2022
632 Clouds 25 1017 78 10000 3.09 220 14:47 16.12.2022
633 Clear 25 1016 70 10000 5.08 187 13:44 16.12.2022
634 Clouds 21 1015 94 10000 2.06 130 11:58 16.12.2022
635 Clouds 22 1015 88 10000 1.54 180 09:53 16.12.2022
636 Clouds 22 1015 88 10000 1.54 180 09:24 16.12.2022
637 Clouds 22 1016 100 10000 2.57 170 07:55 16.12.2022
638 Clouds 22 1016 100 10000 2.57 170 07:31 16.12.2022
639 Clouds 25 1016 78 10000 5.14 170 23:30 15.12.2022
640 Clouds 26 1015 69 10000 5.66 170 22:20 15.12.2022
641 Clouds 27 1016 65 10000 6.17 170 20:33 15.12.2022
642 Clouds 27 1016 65 10000 6.69 170 19:36 15.12.2022
643 Clouds 26 1018 65 10000 7.2 170 17:59 15.12.2022
644 Clouds 26 1018 65 10000 7.2 170 17:20 15.12.2022
645 Clouds 24 1018 78 10000 5.14 160 14:58 15.12.2022
646 Clouds 21 1018 88 10000 2.57 150 13:18 15.12.2022
647 Clouds 20 1018 88 10000 1.54 150 12:25 15.12.2022
648 Clouds 22 1018 88 10000 4.12 150 09:32 15.12.2022
649 Clouds 22 1018 88 10000 3.6 150 08:49 15.12.2022
650 Clouds 23 1018 83 10000 2.57 130 05:48 15.12.2022
651 Clouds 22 1018 88 10000 2.06 140 02:38 15.12.2022
652 Clouds 27 1017 61 10000 6.17 140 21:25 14.12.2022
653 Clouds 27 1017 61 10000 6.69 140 20:57 14.12.2022
654 Clouds 27 1017 61 10000 6.69 140 20:18 14.12.2022
655 Clouds 26 1019 65 10000 6.69 130 17:52 14.12.2022
656 Clouds 26 1019 65 10000 5.14 120 16:57 14.12.2022
657 Clouds 24 1019 73 10000 5.14 130 15:30 14.12.2022
658 Clouds 22 1018 78 10000 3.6 110 13:40 14.12.2022
659 Clouds 22 1017 78 10000 4.12 110 11:20 14.12.2022
660 Clouds 22 1017 78 10000 4.12 110 11:20 14.12.2022
661 Clouds 22 1017 78 10000 4.12 100 10:25 14.12.2022
662 Clouds 22 1018 78 10000 5.14 110 08:48 14.12.2022
663 Clouds 25 1017 65 10000 2.57 90 22:46 13.12.2022
664 Clouds 25 1016 61 10000 1.03 0 21:46 13.12.2022
665 Clouds 26 1017 61 10000 2.06 340 20:48 13.12.2022
666 Clouds 26 1017 61 10000 1.54 110 19:51 13.12.2022
667 Clear 24 1018 70 10000 4.77 79 16:42 13.12.2022
668 Clouds 20 1017 83 10000 1.03 0 14:59 13.12.2022
669 Clouds 18 1016 88 10000 0 0 13:54 13.12.2022
670 Clouds 22 1015 73 10000 2.06 340 10:55 13.12.2022
671 Clouds 22 1015 73 10000 2.06 340 10:35 13.12.2022
672 Clouds 21 1016 78 10000 1.54 330 08:45 13.12.2022
673 Clouds 26 1015 65 10000 4.12 320 22:42 12.12.2022
674 Clouds 26 1015 65 10000 4.12 320 22:20 12.12.2022
675 Clouds 27 1015 57 10000 4.63 330 20:41 12.12.2022
676 Clouds 27 1015 57 10000 4.63 330 20:41 12.12.2022
677 Clouds 26 1017 65 10000 4.63 10 18:31 12.12.2022
678 Clouds 26 1017 69 10000 3.09 360 15:46 12.12.2022
679 Clouds 23 1017 88 10000 3.09 340 14:26 12.12.2022
680 Clouds 23 1017 88 10000 3.09 340 14:26 12.12.2022
681 Clear 24 1015 69 10000 2.59 294 09:56 12.12.2022
682 Clear 24 1015 68 10000 2.01 276 09:18 12.12.2022
683 Clear 21 1018 88 10000 2.57 340 04:52 12.12.2022
684 Clouds 22 1017 88 10000 2.06 330 01:51 12.12.2022
685 Clouds 25 1016 73 10000 1.54 60 22:18 11.12.2022
686 Clear 24 1016 71 10000 1.02 278 20:40 11.12.2022
687 Clouds 23 1017 88 10000 1.54 240 19:39 11.12.2022
688 Clouds 25 1018 78 10000 1.03 0 18:55 11.12.2022
689 Clear 24 1018 70 10000 0.95 219 17:55 11.12.2022
690 Clear 24 1018 70 10000 1.01 211 17:26 11.12.2022
691 Clouds 24 1019 78 10000 4.12 130 16:49 11.12.2022
692 Clouds 25 1019 73 10000 4.12 340 15:45 11.12.2022
693 Clouds 22 1018 88 10000 1.03 0 13:39 11.12.2022
694 Clouds 22 1018 88 10000 1.54 230 12:42 11.12.2022
695 Clouds 20 1018 88 10000 0 0 10:44 11.12.2022
696 Clouds 21 1019 83 10000 1.54 10 03:38 11.12.2022
697 Clouds 24 1018 73 10000 2.57 20 00:28 11.12.2022
698 Clouds 26 1018 61 10000 4.12 10 22:38 10.12.2022
699 Clouds 26 1018 61 10000 4.12 10 22:19 10.12.2022
700 Clouds 27 1018 61 10000 4.12 10 21:18 10.12.2022
701 Clouds 26 1018 61 10000 4.12 20 20:20 10.12.2022
702 Clouds 27 1019 61 10000 4.12 40 17:54 10.12.2022
703 Clouds 27 1020 61 10000 4.63 30 16:47 10.12.2022
704 Clouds 26 1020 69 10000 4.12 40 15:52 10.12.2022
705 Clouds 26 1020 69 10000 4.12 40 15:33 10.12.2022
706 Clouds 24 1019 73 10000 3.09 40 13:44 10.12.2022
707 Clouds 24 1018 73 10000 3.09 30 12:23 10.12.2022
708 Clouds 24 1018 73 10000 2.57 20 10:57 10.12.2022
709 Clouds 24 1018 73 10000 3.09 30 09:46 10.12.2022
710 Clouds 24 1018 73 10000 2.57 40 07:23 10.12.2022
711 Clouds 24 1018 78 10000 3.09 40 06:53 10.12.2022
712 Clouds 25 1018 69 10000 2.57 30 23:43 09.12.2022
713 Clouds 25 1018 69 10000 3.6 10 22:42 09.12.2022
714 Clouds 26 1018 65 10000 3.6 20 21:34 09.12.2022
715 Clouds 25 1018 65 10000 3.09 20 20:59 09.12.2022
716 Clouds 27 1018 57 10000 3.09 20 19:46 09.12.2022
717 Clouds 27 1020 57 10000 3.6 60 17:56 09.12.2022
718 Clouds 27 1020 57 10000 3.6 60 17:18 09.12.2022
719 Clouds 26 1020 61 10000 3.09 60 16:18 09.12.2022
720 Clouds 25 1019 65 10000 3.6 50 15:29 09.12.2022
721 Clouds 23 1018 73 10000 1.54 70 12:41 09.12.2022
722 Clouds 23 1018 73 10000 2.57 60 10:50 09.12.2022
723 Clouds 23 1018 73 10000 2.57 60 10:20 09.12.2022
724 Clouds 24 1021 64 10000 3.09 70 05:37 09.12.2022
725 Clouds 24 1021 69 10000 4.12 60 03:18 09.12.2022
726 Clouds 25 1019 61 10000 4.63 80 22:48 08.12.2022
727 Clouds 26 1019 61 10000 4.63 50 20:51 08.12.2022
728 Clouds 26 1021 61 10000 5.14 80 18:55 08.12.2022
729 Clouds 25 1022 65 10000 5.14 70 16:23 08.12.2022
730 Clouds 24 1022 60 10000 3.6 70 14:29 08.12.2022
731 Clouds 24 1021 57 10000 5.14 70 11:47 08.12.2022
732 Clear 24 1020 64 10000 8.11 55 10:23 08.12.2022
733 Clouds 24 1021 60 10000 3.6 70 09:28 08.12.2022
734 Clouds 24 1023 64 10000 4.63 80 06:47 08.12.2022
735 Clouds 25 1022 57 10000 6.17 60 22:19 07.12.2022
736 Clouds 26 1022 53 10000 6.17 60 21:51 07.12.2022
737 Clouds 26 1022 53 10000 6.17 60 21:31 07.12.2022
738 Clouds 27 1023 54 10000 5.14 60 19:47 07.12.2022
739 Clouds 27 1024 57 10000 5.14 80 17:41 07.12.2022
740 Clouds 24 1023 64 10000 5.14 80 14:41 07.12.2022
741 Clouds 23 1022 73 10000 4.12 80 12:38 07.12.2022
742 Clouds 25 1021 66 10000 8.7 53 10:44 07.12.2022
743 Clear 25 1020 66 10000 8.38 55 09:54 07.12.2022
744 Clear 25 1020 66 10000 8.18 58 08:47 07.12.2022
745 Clouds 24 1022 73 10000 3.09 90 06:48 07.12.2022
746 Clouds 24 1022 78 10000 3.09 90 05:23 07.12.2022
747 Clouds 26 1020 61 10000 4.63 60 22:41 06.12.2022
748 Clouds 26 1020 61 10000 5.14 70 20:48 06.12.2022
749 Clouds 27 1021 61 10000 4.12 90 18:21 06.12.2022
750 Clouds 26 1021 61 10000 4.63 70 16:42 06.12.2022
751 Clouds 23 1020 83 10000 3.6 70 15:52 06.12.2022
752 Clouds 23 1020 83 10000 3.6 70 15:33 06.12.2022
753 Clouds 23 1020 83 10000 2.06 120 14:28 06.12.2022
754 Clouds 19 1019 94 10000 0.51 0 12:58 06.12.2022
755 Clouds 19 1019 94 10000 0.51 0 12:40 06.12.2022
756 Clouds 20 1019 94 10000 0 0 08:44 06.12.2022
757 Clouds 21 1019 94 10000 1.03 0 05:57 06.12.2022
758 Clouds 24 1018 73 10000 2.06 80 01:26 06.12.2022
759 Clouds 26 1017 65 10000 3.09 30 22:34 05.12.2022
760 Clouds 26 1017 65 10000 4.12 40 20:55 05.12.2022
761 Clouds 26 1017 65 10000 4.12 40 20:55 05.12.2022
762 Clouds 26 1017 65 10000 4.12 40 20:26 05.12.2022
763 Clouds 26 1017 65 10000 4.12 30 19:44 05.12.2022
764 Clouds 26 1019 65 10000 3.6 60 17:44 05.12.2022
765 Clouds 26 1019 61 10000 3.09 30 16:42 05.12.2022
766 Clouds 25 1019 65 10000 2.06 120 15:22 05.12.2022
767 Clouds 23 1017 68 10000 2.57 70 12:59 05.12.2022
768 Clouds 23 1017 68 10000 2.57 70 12:40 05.12.2022
769 Clouds 24 1017 60 10000 3.09 80 11:51 05.12.2022
770 Clouds 24 1017 67 10000 5.44 40 10:58 05.12.2022
771 Clouds 23 1018 64 10000 3.6 50 00:20 05.12.2022
772 Clouds 25 1018 61 10000 4.63 50 22:45 04.12.2022
773 Clouds 25 1018 61 10000 4.63 50 22:20 04.12.2022
774 Clouds 25 1018 61 10000 4.63 50 22:20 04.12.2022
775 Clouds 25 1018 61 10000 5.14 50 21:53 04.12.2022
776 Clouds 26 1019 57 10000 5.14 50 20:30 04.12.2022
777 Clouds 26 1019 57 10000 4.63 40 19:27 04.12.2022
778 Clouds 26 1020 57 10000 4.63 50 18:40 04.12.2022
779 Clouds 26 1021 57 10000 5.14 70 17:23 04.12.2022
780 Clouds 25 1021 61 10000 4.63 60 16:37 04.12.2022
781 Clouds 25 1021 61 10000 4.63 60 16:19 04.12.2022
782 Clouds 24 1021 64 10000 4.12 80 15:57 04.12.2022
783 Clouds 24 1020 64 10000 3.6 80 14:43 04.12.2022
784 Clear 25 1020 61 10000 7.54 56 13:26 04.12.2022
785 Clouds 24 1020 64 10000 4.63 70 12:42 04.12.2022
786 Clouds 23 1020 68 10000 4.12 80 11:46 04.12.2022
787 Clouds 25 1020 61 10000 4.63 80 09:20 04.12.2022
788 Clouds 25 1021 61 10000 4.63 80 07:21 04.12.2022
789 Clouds 25 1022 69 10000 4.63 80 00:44 04.12.2022
790 Clouds 25 1021 69 10000 5.66 70 23:30 03.12.2022
791 Clouds 26 1021 62 10000 9.58 66 21:55 03.12.2022
792 Clouds 26 1021 61 10000 9.67 66 21:19 03.12.2022
793 Clouds 26 1023 57 10000 5.66 90 19:28 03.12.2022
794 Clouds 26 1024 57 10000 7.2 90 18:39 03.12.2022
795 Clouds 25 1025 61 10000 6.17 100 15:53 03.12.2022
796 Clouds 24 1023 64 10000 7.2 90 13:54 03.12.2022
797 Clouds 24 1023 69 10000 5.66 100 12:53 03.12.2022
798 Clouds 24 1023 69 10000 5.66 100 12:22 03.12.2022
799 Clouds 24 1022 69 10000 6.17 100 10:20 03.12.2022
800 Clouds 25 1024 61 10000 7.2 90 06:53 03.12.2022
801 Clouds 25 1022 69 10000 8.75 70 00:23 03.12.2022
802 Clouds 25 1022 73 10000 8.23 70 22:20 02.12.2022
803 Clouds 26 1022 69 10000 9.26 60 20:53 02.12.2022
804 Clouds 26 1023 65 10000 8.75 60 18:21 02.12.2022
805 Clouds 26 1024 69 10000 7.72 60 15:58 02.12.2022
806 Clouds 25 1023 69 10000 7.72 70 14:38 02.12.2022
807 Clouds 25 1023 69 10000 7.72 70 14:19 02.12.2022
808 Clouds 25 1022 73 10000 5.66 70 12:51 02.12.2022
809 Clouds 25 1021 73 10000 7.2 70 11:31 02.12.2022
810 Clouds 26 1020 73 10000 10.33 61 08:19 02.12.2022
811 Clouds 25 1022 73 10000 5.66 90 07:23 02.12.2022
812 Clouds 27 1020 69 10000 5.66 70 22:54 01.12.2022
813 Clouds 27 1020 69 10000 6.69 70 21:44 01.12.2022
814 Clouds 27 1020 69 10000 6.69 70 21:22 01.12.2022
815 Clouds 27 1021 78 10000 5.14 40 19:19 01.12.2022
816 Clouds 25 1022 88 10000 4.12 30 17:31 01.12.2022
817 Clouds 25 1021 88 10000 2.06 70 14:47 01.12.2022
818 Clouds 22 1019 100 10000 0.51 0 11:22 01.12.2022
819 Clouds 22 1018 94 10000 0 0 09:55 01.12.2022
820 Clouds 22 1018 94 10000 0 0 09:37 01.12.2022
821 Clouds 24 1020 94 10000 2.57 110 06:59 01.12.2022
822 Clouds 26 1018 83 10000 2.06 140 23:46 30.11.2022
823 Clouds 27 1018 78 10000 2.06 130 21:54 30.11.2022
824 Clouds 27 1018 78 10000 2.06 130 21:19 30.11.2022
825 Clouds 27 1018 78 10000 3.6 200 20:23 30.11.2022
826 Rain 28 1018 74 10000 1.03 0 19:28 30.11.2022
827 Rain 27 1018 78 10000 5.66 160 18:32 30.11.2022
828 Clouds 26 1020 89 10000 3.6 90 16:53 30.11.2022
829 Clouds 25 1019 88 10000 2.57 80 14:46 30.11.2022
830 Clouds 25 1019 88 10000 2.57 80 14:26 30.11.2022
831 Rain 26 1018 76 10000 7.07 93 12:21 30.11.2022
832 Clouds 26 1017 75 10000 7.66 92 09:44 30.11.2022
833 Clouds 25 1018 88 10000 4.12 100 08:30 30.11.2022
834 Clouds 26 1018 83 10000 4.63 90 06:42 30.11.2022
835 Clouds 27 1018 74 10000 6.17 70 23:29 29.11.2022
836 Clouds 27 1018 74 10000 6.17 70 23:29 29.11.2022
837 Clouds 27 1018 74 10000 6.69 60 22:19 29.11.2022
838 Clouds 27 1018 78 10000 6.69 60 20:52 29.11.2022
839 Clouds 27 1018 78 10000 6.69 60 20:28 29.11.2022
840 Clouds 28 1019 74 10000 6.69 70 18:41 29.11.2022
841 Clouds 27 1020 74 10000 5.66 70 16:47 29.11.2022
842 Clouds 28 1019 69 10000 5.66 70 15:34 29.11.2022
843 Clouds 27 1019 78 10000 3.09 90 14:47 29.11.2022
844 Clouds 25 1017 88 10000 2.06 90 12:38 29.11.2022
845 Clouds 26 1017 83 10000 1.54 80 11:31 29.11.2022
846 Clouds 26 1017 83 10000 2.06 90 10:28 29.11.2022
847 Clouds 25 1017 88 10000 2.06 90 09:28 29.11.2022
848 Clouds 27 1018 78 10000 3.6 60 07:19 29.11.2022
849 Clouds 27 1016 75 10000 5.43 11 00:28 29.11.2022
850 Clouds 27 1017 74 10000 2.57 20 23:25 28.11.2022
851 Clouds 28 1016 74 10000 3.6 360 21:57 28.11.2022
852 Clouds 28 1016 74 10000 3.6 360 21:39 28.11.2022
853 Clouds 28 1016 69 10000 3.6 350 20:24 28.11.2022
854 Clouds 29 1017 70 10000 4.12 350 19:25 28.11.2022
855 Clouds 28 1017 74 10000 4.12 310 18:28 28.11.2022
856 Clouds 30 1018 62 10000 3.6 310 17:23 28.11.2022
857 Clouds 27 1018 78 10000 1.54 270 14:57 28.11.2022
858 Clouds 24 1017 94 10000 1.03 0 13:54 28.11.2022
859 Clouds 24 1017 94 10000 1.03 0 13:18 28.11.2022
860 Clouds 24 1016 88 10000 0.51 0 11:32 28.11.2022
861 Clouds 25 1017 88 10000 1.03 0 07:55 28.11.2022
862 Clouds 25 1017 88 10000 1.54 160 04:55 28.11.2022
863 Clouds 25 1017 88 10000 1.54 160 04:36 28.11.2022
864 Clouds 25 1017 88 10000 3.09 160 03:21 28.11.2022
865 Clouds 27 1016 74 10000 3.09 150 23:44 27.11.2022
866 Clouds 29 1016 70 10000 3.6 170 21:54 27.11.2022
867 Clouds 29 1016 70 10000 3.6 180 20:42 27.11.2022
868 Clouds 29 1018 70 10000 3.6 170 18:25 27.11.2022
869 Clouds 28 1019 74 10000 4.63 160 15:40 27.11.2022
870 Clouds 23 1018 94 10000 0.51 0 13:37 27.11.2022
871 Clouds 23 1017 94 10000 1.03 0 11:31 27.11.2022
872 Clouds 27 1016 75 10000 4.79 132 08:57 27.11.2022
873 Clouds 24 1019 94 10000 3.09 120 05:20 27.11.2022
874 Clouds 26 1016 78 10000 2.06 90 22:39 26.11.2022
875 Clouds 27 1017 78 10000 2.06 190 20:56 26.11.2022
876 Clouds 25 1018 88 10000 2.06 210 19:37 26.11.2022
877 Clouds 28 1018 74 10000 3.09 10 18:26 26.11.2022
878 Clouds 28 1019 74 10000 2.57 120 16:25 26.11.2022
879 Clouds 22 1018 100 10000 0 0 13:51 26.11.2022
880 Clouds 22 1018 94 10000 0.51 0 12:23 26.11.2022
881 Clouds 22 1017 100 10000 0 0 10:51 26.11.2022
882 Clouds 23 1017 94 10000 0 0 09:31 26.11.2022
883 Clouds 23 1018 100 10000 0 0 07:21 26.11.2022
884 Clouds 27 1016 83 10000 2.57 30 21:47 25.11.2022
885 Clouds 27 1016 83 10000 2.57 30 21:27 25.11.2022
886 Clouds 30 1017 66 10000 3.6 180 19:57 25.11.2022
887 Clouds 29 1019 70 10000 3.09 120 16:50 25.11.2022
888 Clouds 26 1018 83 10000 2.06 100 14:37 25.11.2022
889 Clear 27 1016 76 10000 5.58 97 09:24 25.11.2022
890 Clear 25 1017 88 10000 1.54 100 08:41 25.11.2022
891 Clouds 26 1018 83 10000 3.09 100 06:55 25.11.2022
892 Clouds 26 1018 83 10000 3.09 100 06:24 25.11.2022
893 Clouds 26 1017 89 10000 2.06 80 23:55 24.11.2022
894 Clouds 27 1016 83 10000 3.09 80 22:51 24.11.2022
895 Clouds 27 1016 83 10000 2.06 60 21:59 24.11.2022
896 Clouds 25 1016 94 10000 2.06 80 20:33 24.11.2022
897 Clouds 29 1017 70 10000 3.6 90 18:54 24.11.2022
898 Clouds 28 1018 69 10000 4.63 60 17:43 24.11.2022
899 Clouds 28 1018 69 10000 4.63 60 17:20 24.11.2022
900 Clouds 28 1018 78 10000 3.09 100 15:18 24.11.2022
901 Clouds 26 1018 83 10000 2.57 110 13:49 24.11.2022
902 Clouds 25 1016 94 10000 1.54 120 11:55 24.11.2022
903 Clouds 26 1016 89 10000 2.06 110 10:36 24.11.2022
904 Clouds 26 1017 89 10000 1.54 100 07:53 24.11.2022
905 Clouds 26 1018 89 10000 1.54 80 03:22 24.11.2022
906 Clouds 27 1016 83 10000 2.06 160 23:45 23.11.2022
907 Clouds 29 1015 70 10000 3.6 150 21:56 23.11.2022
908 Clouds 29 1015 70 10000 3.6 150 21:23 23.11.2022
909 Clouds 30 1016 66 10000 4.12 180 19:59 23.11.2022
910 Clouds 29 1017 65 10000 4.63 160 18:58 23.11.2022
911 Clouds 29 1017 65 10000 4.63 160 18:35 23.11.2022
912 Clouds 29 1018 74 10000 3.6 160 16:24 23.11.2022
913 Clouds 24 1017 94 10000 1.03 0 13:27 23.11.2022
914 Clouds 24 1017 94 10000 2.06 120 12:58 23.11.2022
915 Clouds 24 1016 100 10000 0 0 11:55 23.11.2022
916 Clouds 24 1016 100 10000 0 0 11:19 23.11.2022
917 Clouds 25 1017 88 10000 1.54 110 10:42 23.11.2022
918 Clouds 25 1017 94 10000 1.54 80 09:41 23.11.2022
919 Clouds 27 1015 79 10000 4.6 116 09:23 23.11.2022
920 Clouds 25 1017 94 10000 1.54 80 08:36 23.11.2022
921 Clouds 25 1017 94 10000 1.54 80 08:36 23.11.2022
922 Clouds 26 1018 89 10000 2.06 100 05:21 23.11.2022
923 Clouds 26 1018 83 10000 3.09 90 02:36 23.11.2022
924 Clouds 28 1018 74 10000 5.14 110 22:38 22.11.2022
925 Clouds 29 1018 70 10000 5.14 110 21:53 22.11.2022
926 Clouds 29 1018 70 10000 5.14 110 21:32 22.11.2022
927 Clouds 29 1018 65 10000 4.12 110 20:45 22.11.2022
928 Clouds 30 1018 62 10000 4.63 110 19:52 22.11.2022
929 Clouds 29 1020 70 10000 4.63 100 17:54 22.11.2022
930 Clouds 28 1021 74 10000 4.12 100 16:48 22.11.2022
931 Clouds 26 1020 89 10000 2.57 90 14:55 22.11.2022
932 Clouds 24 1019 94 10000 2.06 90 12:56 22.11.2022
933 Clouds 27 1017 69 10000 7.34 100 09:42 22.11.2022
934 Clouds 27 1018 70 10000 7.22 102 08:58 22.11.2022
935 Clear 24 1020 94 10000 1.54 100 06:45 22.11.2022
936 Clouds 24 1019 94 10000 1.03 0 01:35 22.11.2022
937 Clouds 25 1018 83 10000 2.57 70 23:23 21.11.2022
938 Clouds 25 1018 83 10000 2.06 40 22:26 21.11.2022
939 Clouds 26 1018 78 10000 3.6 170 21:33 21.11.2022
940 Rain 25 1018 83 10000 3.09 110 20:34 21.11.2022
941 Clouds 25 1019 88 10000 1.54 100 19:39 21.11.2022
942 Rain 24 1020 94 10000 1.54 130 18:52 21.11.2022
943 Clouds 27 1018 76 10000 7.96 99 17:32 21.11.2022
944 Clouds 27 1021 78 10000 7.2 80 16:43 21.11.2022
945 Clouds 27 1021 78 10000 7.2 80 16:19 21.11.2022
946 Clouds 27 1020 78 10000 6.17 80 15:23 21.11.2022
947 Clouds 25 1019 88 10000 4.63 80 13:54 21.11.2022
948 Clouds 27 1018 73 10000 6.57 102 13:18 21.11.2022
949 Clouds 25 1018 88 10000 5.14 60 09:43 21.11.2022
950 Clouds 26 1018 83 10000 4.63 80 07:52 21.11.2022
951 Clouds 26 1017 83 10000 2.06 80 00:50 21.11.2022
952 Clouds 29 1016 70 10000 4.12 130 21:47 20.11.2022
953 Clouds 29 1016 65 10000 4.12 120 20:47 20.11.2022
954 Clouds 29 1017 70 10000 3.6 130 19:21 20.11.2022
955 Clouds 29 1019 70 10000 4.12 110 17:24 20.11.2022
956 Clouds 27 1019 78 10000 3.6 100 15:50 20.11.2022
957 Clouds 27 1019 78 10000 3.6 100 15:23 20.11.2022
958 Clouds 26 1018 89 10000 2.57 90 14:18 20.11.2022
959 Clouds 25 1018 88 10000 2.57 90 13:32 20.11.2022
960 Clouds 24 1017 94 10000 2.57 90 11:46 20.11.2022
961 Clouds 24 1017 94 10000 1.54 60 10:58 20.11.2022
962 Clear 23 1017 94 10000 1.54 80 09:44 20.11.2022
963 Clear 23 1017 94 10000 1.54 80 09:44 20.11.2022
964 Clouds 23 1018 94 10000 1.54 110 08:55 20.11.2022
965 Clouds 23 1018 94 10000 1.54 110 08:20 20.11.2022
966 Clouds 27 1018 75 10000 5.28 90 07:26 20.11.2022
967 Clouds 25 1018 88 10000 2.57 90 01:28 20.11.2022
968 Clouds 25 1018 88 10000 2.57 90 00:48 20.11.2022
969 Clouds 25 1018 88 10000 2.57 90 00:29 20.11.2022
970 Clouds 25 1018 83 10000 3.09 110 23:59 19.11.2022
971 Clouds 25 1018 83 10000 3.09 110 23:26 19.11.2022
972 Clouds 26 1017 89 10000 3.6 90 22:44 19.11.2022
973 Clouds 26 1017 89 10000 3.6 90 22:44 19.11.2022
974 Clouds 28 1017 74 10000 4.12 0 21:51 19.11.2022
975 Clouds 28 1017 74 10000 4.12 0 21:25 19.11.2022
976 Clouds 28 1018 74 10000 3.09 80 20:41 19.11.2022
977 Clouds 28 1019 74 10000 4.63 100 19:48 19.11.2022
978 Clouds 28 1019 74 10000 5.14 80 18:19 19.11.2022
979 Clouds 28 1020 69 10000 4.12 100 17:38 19.11.2022
980 Clouds 28 1020 69 10000 4.12 100 17:18 19.11.2022
981 Clouds 24 1020 94 10000 3.6 100 14:47 19.11.2022
982 Clouds 24 1020 94 10000 2.57 80 13:21 19.11.2022
983 Clouds 25 1019 88 10000 3.6 90 11:52 19.11.2022
984 Clouds 24 1018 94 10000 2.57 80 09:45 19.11.2022
985 Clouds 25 1019 83 10000 4.63 70 07:52 19.11.2022
986 Clouds 26 1020 73 10000 6.17 60 04:44 19.11.2022
987 Clouds 25 1018 78 10000 7.2 60 00:46 19.11.2022
988 Clouds 24 1018 88 10000 6.69 50 23:30 18.11.2022
989 Clouds 24 1018 88 10000 6.69 50 23:30 18.11.2022
990 Clouds 25 1018 83 10000 6.69 50 22:23 18.11.2022
991 Clouds 26 1018 78 10000 6.17 50 21:35 18.11.2022
992 Clouds 26 1018 78 10000 6.69 50 20:57 18.11.2022
993 Clouds 26 1018 78 10000 6.69 50 20:21 18.11.2022
994 Clouds 26 1018 83 10000 6.69 50 19:36 18.11.2022
995 Clouds 27 1019 78 10000 4.63 40 17:45 18.11.2022
996 Clouds 25 1019 83 10000 5.14 60 14:47 18.11.2022
997 Clouds 25 1017 83 10000 3.6 90 11:52 18.11.2022
998 Clouds 24 1017 88 10000 4.63 110 10:22 18.11.2022
999 Clouds 26 1018 78 10000 5.14 50 07:52 18.11.2022
1000 Clouds 26 1019 78 10000 5.66 50 05:27 18.11.2022
1001 Clouds 26 1018 89 10000 5.66 30 02:25 18.11.2022
1002 Clouds 27 1017 74 10000 4.63 20 22:56 17.11.2022
1003 Clouds 28 1017 74 10000 3.6 60 20:48 17.11.2022
1004 Clouds 28 1018 78 9000 1.54 140 19:51 17.11.2022
1005 Clouds 28 1018 78 9000 1.54 140 19:20 17.11.2022
1006 Rain 28 1018 78 10000 1.54 70 18:27 17.11.2022
1007 Clear 27 1017 71 10000 3.96 22 17:30 17.11.2022
1008 Clouds 27 1019 83 10000 2.06 110 15:42 17.11.2022
1009 Clouds 23 1018 100 10000 0.51 0 12:19 17.11.2022
1010 Clouds 24 1018 94 10000 0.51 0 10:28 17.11.2022
1011 Clouds 24 1019 94 10000 0 0 06:19 17.11.2022
1012 Clouds 26 1018 83 10000 2.57 80 00:50 17.11.2022
1013 Clouds 28 1017 78 10000 3.6 70 22:44 16.11.2022
1014 Clouds 28 1018 78 10000 3.09 90 21:49 16.11.2022
1015 Clouds 27 1018 83 10000 2.06 30 20:22 16.11.2022
1016 Clouds 28 1020 74 10000 4.12 60 18:48 16.11.2022
1017 Clouds 28 1020 74 10000 3.6 60 17:58 16.11.2022
1018 Clouds 27 1020 83 10000 1.54 110 14:41 16.11.2022
1019 Clouds 25 1019 88 10000 1.54 80 10:53 16.11.2022
1020 Clouds 25 1020 88 10000 1.54 100 06:48 16.11.2022
1021 Clouds 26 1019 89 10000 2.57 110 01:35 16.11.2022
1022 Clear 27 1018 75 10000 4.34 80 22:54 15.11.2022
1023 Clear 27 1017 75 10000 4.35 83 21:23 15.11.2022
1024 Clouds 30 1018 62 10000 5.14 140 19:42 15.11.2022
1025 Clouds 30 1019 62 10000 3.6 100 18:51 15.11.2022
1026 Clouds 28 1020 69 10000 4.12 90 17:35 15.11.2022
1027 Clouds 28 1021 74 10000 3.6 80 16:20 15.11.2022
1028 Clouds 28 1021 74 10000 3.6 80 16:20 15.11.2022
1029 Clouds 28 1020 74 10000 3.09 90 15:22 15.11.2022
1030 Clouds 25 1019 83 10000 2.06 80 13:39 15.11.2022
1031 Clear 24 1018 94 10000 1.03 0 12:26 15.11.2022
1032 Clear 22 1018 100 10000 1.03 0 11:21 15.11.2022
1033 Clouds 25 1017 83 10000 2.06 100 09:28 15.11.2022
1034 Clouds 26 1017 83 10000 3.09 90 00:40 15.11.2022
1035 Clouds 26 1017 83 10000 3.09 90 00:18 15.11.2022
1036 Clouds 28 1016 69 10000 3.6 50 21:48 14.11.2022
1037 Clouds 28 1016 69 10000 4.12 40 20:42 14.11.2022
1038 Clouds 28 1018 69 10000 4.63 50 18:57 14.11.2022
1039 Clouds 28 1018 69 10000 3.6 60 16:56 14.11.2022
1040 Clouds 25 1016 83 10000 2.57 50 12:55 14.11.2022
1041 Clear 26 1015 75 10000 4.56 40 11:42 14.11.2022
1042 Clouds 26 1014 75 10000 4.98 44 09:32 14.11.2022
1043 Clear 26 1014 75 10000 5.24 41 07:54 14.11.2022
1044 Clouds 23 1015 94 10000 1.03 0 06:43 14.11.2022
1045 Rain 23 1016 94 6000 1.54 350 00:19 14.11.2022
1046 Rain 25 1014 88 10000 3.6 110 21:58 13.11.2022
1047 Rain 25 1014 88 10000 3.6 110 21:40 13.11.2022
1048 Clouds 27 1015 74 10000 2.06 60 19:45 13.11.2022
1049 Clouds 30 1016 62 10000 3.09 20 18:24 13.11.2022
1050 Clouds 30 1016 66 10000 3.09 170 17:44 13.11.2022
1051 Thunderstorm 28 1017 74 10000 1.03 0 14:58 13.11.2022
1052 Thunderstorm 28 1017 74 10000 1.03 0 14:23 13.11.2022
1053 Clouds 24 1016 94 10000 0 0 12:38 13.11.2022
1054 Clouds 24 1016 94 10000 0.51 0 11:20 13.11.2022
1055 Clouds 24 1015 94 10000 0 0 08:56 13.11.2022
1056 Clouds 26 1016 83 10000 1.03 0 02:24 13.11.2022
1057 Rain 28 1015 78 10000 2.57 200 22:57 12.11.2022
1058 Clouds 27 1014 67 10000 1.25 84 21:24 12.11.2022
1059 Clouds 29 1015 70 10000 3.6 230 20:21 12.11.2022
1060 Clouds 28 1017 78 10000 5.14 170 18:18 12.11.2022
1061 Clouds 30 1018 66 10000 3.09 160 16:26 12.11.2022
1062 Clouds 28 1018 78 10000 2.06 140 15:23 12.11.2022
1063 Clouds 23 1016 100 10000 0 0 12:28 12.11.2022
1064 Clouds 24 1015 100 10000 1.03 0 09:24 12.11.2022
1065 Clouds 25 1016 94 10000 0 0 05:55 12.11.2022
1066 Clouds 28 1014 78 10000 3.09 180 22:31 11.11.2022
1067 Clouds 28 1014 78 10000 4.12 200 20:51 11.11.2022
1068 Clouds 31 1014 66 10000 4.63 200 19:44 11.11.2022
1069 Clouds 31 1014 66 10000 4.63 200 19:20 11.11.2022
1070 Clouds 28 1016 78 10000 4.63 200 17:56 11.11.2022
1071 Clouds 28 1016 74 10000 3.6 210 16:28 11.11.2022
1072 Clouds 27 1015 83 10000 1.03 0 14:21 11.11.2022
1073 Clouds 25 1014 88 10000 2.57 190 13:29 11.11.2022
1074 Clouds 25 1013 88 10000 3.09 160 09:49 11.11.2022
1075 Clouds 23 1013 83 6000 7.72 240 08:27 11.11.2022
1076 Clouds 24 1013 83 9000 5.14 200 06:26 11.11.2022
1077 Clouds 27 1011 83 10000 3.6 180 23:38 10.11.2022
1078 Clouds 29 1011 74 10000 5.14 210 22:38 10.11.2022
1079 Rain 27 1011 83 10000 5.66 220 21:34 10.11.2022
1080 Clouds 28 1011 74 10000 6.17 220 20:52 10.11.2022
1081 Clouds 28 1011 74 10000 6.17 220 20:22 10.11.2022
1082 Clouds 29 1011 65 10000 7.2 210 19:43 10.11.2022
1083 Clouds 29 1012 70 10000 7.72 200 18:32 10.11.2022
1084 Clouds 28 1012 78 10000 7.72 210 16:26 10.11.2022
1085 Clouds 26 1009 83 10000 6.69 200 13:59 10.11.2022
1086 Clouds 26 1008 89 10000 6.17 200 12:50 10.11.2022
1087 Clouds 25 1006 94 10000 5.14 210 08:50 10.11.2022
1088 Clouds 26 1003 83 10000 5.66 230 01:35 10.11.2022
1089 Clouds 26 1002 83 10000 4.12 250 23:45 09.11.2022
1090 Clouds 27 1001 78 10000 6.69 270 22:38 09.11.2022
1091 Clouds 27 1002 83 10000 6.69 290 20:48 09.11.2022
1092 Clouds 27 1002 83 10000 6.69 290 20:29 09.11.2022
1093 Clouds 25 1003 83 10000 8.75 320 19:43 09.11.2022
1094 Clouds 25 1003 83 10000 8.75 320 19:18 09.11.2022
1095 Clouds 27 1005 78 10000 8.75 330 16:31 09.11.2022
1096 Clouds 26 1005 83 10000 8.23 340 14:48 09.11.2022
1097 Clouds 26 1005 83 10000 8.23 340 14:25 09.11.2022
1098 Clouds 26 1005 83 10000 8.23 340 13:31 09.11.2022
1099 Clouds 26 1004 80 9692 10.19 329 12:34 09.11.2022
1100 Clouds 26 1006 83 10000 8.75 360 08:44 09.11.2022
1101 Clouds 26 1006 83 10000 8.75 360 07:46 09.11.2022
1102 Clouds 26 1006 83 10000 8.75 360 07:46 09.11.2022
1103 Clouds 25 1009 83 10000 7.2 20 01:44 09.11.2022
1104 Clouds 27 1009 74 9000 8.23 10 21:49 08.11.2022
1105 Clouds 27 1009 74 9000 8.23 10 21:31 08.11.2022
1106 Rain 27 1010 74 9000 7.72 10 20:41 08.11.2022
1107 Clouds 28 1011 69 9000 8.23 10 19:40 08.11.2022
1108 Clouds 28 1012 69 9000 9.77 10 18:57 08.11.2022
1109 Clouds 28 1012 65 9000 8.23 20 17:26 08.11.2022
1110 Clouds 27 1012 69 10000 8.75 20 14:56 08.11.2022
1111 Clouds 26 1012 78 10000 8.23 10 13:44 08.11.2022
1112 Clouds 26 1012 78 10000 8.23 10 13:25 08.11.2022
1113 Clouds 26 1012 78 10000 6.69 20 09:46 08.11.2022
1114 Clouds 26 1011 72 10000 12.07 9 07:25 08.11.2022
1115 Clouds 25 1013 88 10000 5.66 70 00:34 08.11.2022
1116 Clouds 28 1012 69 10000 6.17 30 22:44 07.11.2022
1117 Clouds 29 1012 65 10000 6.17 30 21:32 07.11.2022
1118 Clouds 29 1013 61 10000 6.69 40 20:40 07.11.2022
1119 Clouds 29 1014 65 10000 7.2 40 18:53 07.11.2022
1120 Clouds 28 1015 65 10000 6.69 40 17:28 07.11.2022
1121 Clouds 28 1015 65 10000 6.69 40 15:35 07.11.2022
1122 Clouds 27 1014 69 10000 6.69 50 14:49 07.11.2022
1123 Clouds 26 1014 69 10000 6.69 60 12:55 07.11.2022
1124 Clouds 26 1013 69 10000 6.17 70 11:44 07.11.2022
1125 Clear 27 1012 69 10000 10.64 39 09:49 07.11.2022
1126 Clouds 26 1014 73 10000 6.69 70 07:53 07.11.2022
1127 Clouds 27 1015 69 10000 7.2 80 04:27 07.11.2022
1128 Clouds 27 1014 74 10000 6.17 90 01:29 07.11.2022
1129 Clouds 27 1013 78 10000 4.63 90 22:26 06.11.2022
1130 Clouds 29 1013 65 10000 6.69 70 21:20 06.11.2022
1131 Clouds 29 1013 65 10000 7.2 80 20:32 06.11.2022
1132 Clouds 30 1014 62 10000 6.17 110 19:55 06.11.2022
1133 Clouds 29 1014 65 10000 6.17 100 18:41 06.11.2022
1134 Clouds 29 1014 65 10000 6.17 100 18:41 06.11.2022
1135 Clouds 29 1014 65 10000 6.17 100 18:19 06.11.2022
1136 Clouds 29 1015 65 10000 6.17 80 17:21 06.11.2022
1137 Clouds 29 1015 61 10000 6.17 100 16:40 06.11.2022
1138 Clouds 28 1015 69 10000 5.66 100 15:43 06.11.2022
1139 Clouds 25 1013 78 10000 3.09 100 12:49 06.11.2022
1140 Clouds 25 1013 78 10000 3.09 100 12:28 06.11.2022
1141 Clouds 25 1013 78 10000 2.57 100 10:46 06.11.2022
1142 Clouds 25 1013 78 10000 3.09 100 08:29 06.11.2022
1143 Clear 27 1013 70 10000 8.05 88 00:50 06.11.2022
1144 Clouds 27 1012 69 10000 4.12 90 23:18 05.11.2022
1145 Clouds 28 1013 61 10000 4.63 80 19:37 05.11.2022
1146 Clouds 28 1015 57 10000 5.66 110 17:45 05.11.2022
1147 Clear 27 1014 65 10000 6.97 89 15:53 05.11.2022
1148 Clear 27 1014 63 10000 7.21 87 14:33 05.11.2022
1149 Clouds 23 1013 88 10000 1.54 80 12:51 05.11.2022
1150 Clouds 24 1013 78 10000 2.06 110 10:31 05.11.2022
1151 Clouds 24 1013 78 10000 2.57 100 08:24 05.11.2022
1152 Clouds 25 1014 73 10000 3.09 100 06:57 05.11.2022
1153 Clouds 25 1015 73 10000 1.54 80 02:35 05.11.2022
1154 Clouds 27 1014 65 10000 4.12 50 23:34 04.11.2022
1155 -273 0 0 0 0 0 22:21 04.11.2022
1156 -273 0 0 0 0 0 19:54 04.11.2022
1157 Clouds 29 1015 58 10000 6.17 40 19:53 04.11.2022
1158 Clouds 25 1017 65 10000 5.66 60 17:45 04.11.2022
1159 Clouds 28 1017 57 10000 5.66 50 16:30 04.11.2022
1160 Clear 26 1015 68 10000 7.47 17 13:24 04.11.2022
1161 Clear 26 1015 68 10000 7.45 13 12:21 04.11.2022
1162 Clear 26 1015 67 10000 7.35 8 09:31 04.11.2022
1163 Clear 26 1015 68 10000 6.7 4 08:21 04.11.2022
1164 Clear 26 1016 68 10000 6.55 8 06:57 04.11.2022
1165 Clouds 27 1017 74 10000 3.6 40 00:57 04.11.2022
1166 Clouds 29 1017 61 10000 3.6 40 21:52 03.11.2022
1167 Clouds 29 1017 65 10000 4.12 50 20:47 03.11.2022
1168 Clouds 27 1016 73 10000 3.61 37 19:42 03.11.2022
1169 Clouds 30 1019 66 10000 4.12 40 18:27 03.11.2022
1170 Clouds 29 1019 65 10000 4.12 60 17:37 03.11.2022
1171 Clouds 29 1020 70 10000 3.09 60 15:24 03.11.2022
1172 Clouds 24 1019 94 10000 1.54 90 13:33 03.11.2022
1173 Clouds 23 1018 100 10000 0.51 0 12:35 03.11.2022
1174 Clouds 25 1018 88 10000 1.54 90 11:36 03.11.2022
1175 Clouds 26 1019 83 10000 2.06 120 07:48 03.11.2022
1176 Clouds 29 1019 70 10000 4.12 70 22:29 02.11.2022
1177 Clouds 30 1019 62 10000 4.63 70 20:56 02.11.2022
1178 Clouds 30 1019 62 10000 4.63 70 20:24 02.11.2022
1179 Clouds 31 1020 62 10000 4.12 90 18:28 02.11.2022
1180 Clouds 29 1021 70 10000 4.63 100 16:28 02.11.2022
1181 Clouds 29 1021 74 10000 4.63 90 15:30 02.11.2022
1182 Clouds 25 1020 94 10000 2.06 90 12:52 02.11.2022
1183 Clouds 25 1020 94 10000 2.06 90 12:22 02.11.2022
1184 Clear 26 1019 89 10000 1.54 90 09:50 02.11.2022
1185 Clear 28 1018 75 10000 6.34 90 08:18 02.11.2022
1186 Clouds 28 1019 83 10000 3.6 90 01:46 02.11.2022
1187 Clouds 30 1018 74 10000 4.63 100 22:21 01.11.2022
1188 Clouds 29 1018 74 10000 4.63 100 21:42 01.11.2022
1189 Clouds 31 1018 66 10000 5.14 130 20:28 01.11.2022
1190 Clouds 32 1018 62 10000 6.17 140 19:59 01.11.2022
1191 Clouds 32 1018 62 10000 6.17 140 19:40 01.11.2022
1192 Clouds 30 1018 70 10000 6.17 140 18:21 01.11.2022
1193 Clouds 30 1019 70 10000 6.17 140 16:23 01.11.2022
1194 Clouds 30 1019 70 10000 6.17 140 16:23 01.11.2022
1195 Clouds 28 1019 83 10000 4.63 120 14:35 01.11.2022
1196 Clouds 26 1018 94 10000 3.09 110 12:33 01.11.2022
1197 Clouds 25 1017 100 10000 2.57 110 11:38 01.11.2022
1198 Clouds 25 1017 100 10000 2.57 110 11:20 01.11.2022
1199 Clouds 25 1017 100 10000 2.57 110 11:20 01.11.2022
1200 Clear 28 1016 77 10000 6.59 116 08:51 01.11.2022
1201 Clouds 27 1017 83 10000 2.57 110 07:48 01.11.2022
1202 Clouds 27 1017 83 10000 2.57 110 07:26 01.11.2022
1203 Clouds 27 1017 83 10000 3.6 120 06:45 01.11.2022
1204 Clouds 27 1017 89 10000 4.63 110 03:57 01.11.2022
1205 Clouds 29 1014 74 10000 4.12 100 22:22 31.10.2022
1206 Clouds 29 1014 74 10000 4.12 110 21:26 31.10.2022
1207 Clouds 30 1014 70 10000 4.63 110 19:56 31.10.2022
1208 Clouds 29 1015 74 10000 5.14 80 18:28 31.10.2022
1209 Clouds 29 1016 70 10000 4.63 110 16:43 31.10.2022
1210 Clouds 28 1016 78 10000 2.57 110 14:20 31.10.2022
1211 Clouds 24 1014 94 10000 2.57 110 11:57 31.10.2022
1212 Clouds 25 1013 88 10000 1.54 100 09:28 31.10.2022
1213 Clouds 26 1015 89 10000 4.12 120 05:39 31.10.2022
1214 Clouds 26 1014 89 10000 3.6 110 02:30 31.10.2022
1215 Clouds 27 1013 83 10000 4.63 110 23:19 30.10.2022
1216 Clouds 29 1013 65 10000 4.63 70 21:44 30.10.2022
1217 Clouds 29 1013 65 10000 4.63 90 20:37 30.10.2022
1218 Clouds 29 1015 70 10000 4.12 80 18:40 30.10.2022
1219 Clouds 29 1016 70 10000 4.63 70 16:18 30.10.2022
1220 Clouds 27 1015 83 10000 3.09 100 14:22 30.10.2022
1221 Clouds 26 1015 83 10000 2.06 80 13:21 30.10.2022
1222 Clouds 25 1014 88 10000 2.06 90 11:47 30.10.2022
1223 Clouds 26 1014 83 10000 3.6 110 09:38 30.10.2022
1224 Clouds 26 1015 83 10000 2.57 90 08:39 30.10.2022
1225 Clouds 26 1017 83 10000 5.14 100 03:58 30.10.2022
1226 Clouds 27 1016 78 10000 3.09 60 00:28 30.10.2022
1227 Clouds 28 1016 74 10000 5.66 80 23:45 29.10.2022
1228 Clouds 29 1016 74 10000 4.63 50 21:27 29.10.2022
1229 Clouds 28 1018 69 10000 5.66 80 18:21 29.10.2022
1230 Clouds 28 1018 69 10000 5.14 80 17:20 29.10.2022
1231 Clouds 28 1018 69 10000 3.6 100 15:38 29.10.2022
1232 Clouds 25 1017 83 10000 2.06 90 14:48 29.10.2022
1233 Clouds 26 1016 78 10000 3.09 80 12:35 29.10.2022
1234 Clouds 26 1016 78 10000 3.09 80 11:32 29.10.2022
1235 Clear 27 1016 64 10000 6.23 54 07:38 29.10.2022
1236 Clear 27 1016 64 10000 6.23 54 07:38 29.10.2022
1237 Clouds 27 1018 61 10000 4.12 70 05:56 29.10.2022
1238 Clouds 27 1018 65 10000 3.6 70 04:19 29.10.2022
1239 Clouds 28 1016 61 10000 5.14 50 23:42 28.10.2022
1240 Clear 27 1016 66 10000 6.42 43 20:56 28.10.2022
1241 Clouds 29 1018 65 10000 6.17 60 19:29 28.10.2022
1242 Clouds 29 1018 61 10000 5.66 80 18:31 28.10.2022
1243 Clouds 26 1017 73 10000 3.6 80 15:37 28.10.2022
1244 Clouds 26 1017 73 10000 3.6 80 14:43 28.10.2022
1245 Clouds 24 1016 78 10000 2.57 80 12:57 28.10.2022
1246 Clear 26 1015 69 10000 5.66 48 11:35 28.10.2022
1247 Clear 26 1014 67 10000 5.85 50 10:59 28.10.2022
1248 Clear 27 1014 66 10000 5.95 51 09:48 28.10.2022
1249 Clouds 26 1016 73 10000 2.06 90 08:29 28.10.2022
1250 Clouds 27 1016 65 10000 3.09 50 03:51 28.10.2022
1251 Clouds 27 1016 65 10000 3.09 50 03:51 28.10.2022
1252 Clouds 27 1016 65 10000 3.09 50 03:51 28.10.2022
1253 Clouds 28 1014 57 10000 3.6 50 23:49 27.10.2022
1254 Clouds 28 1014 57 10000 3.6 30 22:41 27.10.2022
1255 Clouds 28 1014 57 10000 3.6 40 21:55 27.10.2022
1256 Clouds 28 1014 57 10000 4.12 40 20:30 27.10.2022
1257 Clouds 28 1015 57 10000 3.09 40 18:23 27.10.2022
1258 Clear 26 1014 65 10000 2.57 50 14:30 27.10.2022
1259 Clear 23 1013 78 10000 1.03 0 11:29 27.10.2022
1260 Clouds 25 1013 73 10000 2.57 40 07:29 27.10.2022
1261 Clouds 27 1012 69 10000 3.09 20 00:22 27.10.2022
1262 Clouds 27 1012 69 10000 2.57 30 23:44 26.10.2022
1263 Clouds 27 1012 69 10000 2.57 30 22:37 26.10.2022
1264 Clouds 27 1014 78 10000 1.03 30 19:57 26.10.2022
1265 Clouds 23 1014 88 10000 3.6 120 16:52 26.10.2022
1266 Clouds 24 1013 88 10000 2.06 150 14:52 26.10.2022
1267 Clouds 23 1012 88 10000 2.06 40 12:39 26.10.2022
1268 Clouds 22 1012 94 10000 1.03 0 11:26 26.10.2022
1269 Clouds 24 1013 88 10000 1.54 120 08:54 26.10.2022
1270 Clouds 24 1013 88 10000 1.54 120 08:36 26.10.2022
1271 Clouds 27 1013 74 10000 3.6 40 00:46 26.10.2022
1272 Clouds 27 1013 74 10000 3.6 40 00:23 26.10.2022
1273 Clouds 29 1013 65 10000 4.12 30 21:54 25.10.2022
1274 Clouds 29 1013 65 10000 4.12 30 21:24 25.10.2022
1275 Clouds 28 1015 65 10000 3.09 50 19:43 25.10.2022
1276 Clear 26 1015 69 10000 2.67 37 18:28 25.10.2022
1277 Clouds 25 1015 78 10000 1.03 0 14:56 25.10.2022
1278 Clouds 23 1013 83 10000 0 0 11:39 25.10.2022
1279 Clouds 23 1013 83 10000 0 0 10:38 25.10.2022
1280 Clouds 25 1014 73 10000 1.54 30 09:53 25.10.2022
1281 Clouds 25 1015 78 10000 4.12 50 08:19 25.10.2022
1282 Clouds 26 1015 73 10000 3.6 40 07:54 25.10.2022
1283 Clouds 26 1016 65 10000 3.6 40 06:56 25.10.2022
1284 Clouds 26 1016 69 10000 2.57 40 03:46 25.10.2022
1285 Clouds 27 1015 69 10000 2.06 40 00:37 25.10.2022
1286 Clouds 27 1015 65 10000 3.6 30 23:49 24.10.2022
1287 Clouds 28 1015 61 10000 4.63 60 22:24 24.10.2022
1288 Clouds 28 1016 61 10000 5.14 60 21:33 24.10.2022
1289 Clouds 27 1016 65 10000 7.2 80 20:42 24.10.2022
1290 Clouds 28 1018 57 10000 5.14 60 18:52 24.10.2022
1291 Clouds 29 1018 58 10000 4.12 40 17:45 24.10.2022
1292 Clouds 28 1018 61 10000 4.12 50 16:34 24.10.2022
1293 Clear 27 1016 58 10000 5.41 44 14:22 24.10.2022
1294 Clear 27 1016 58 10000 5.41 44 13:34 24.10.2022
1295 Clear 27 1015 58 10000 5.08 43 11:41 24.10.2022
1296 Clear 27 1015 56 10000 4.31 61 07:57 24.10.2022
1297 Clouds 28 1016 57 10000 4.12 60 00:50 24.10.2022
1298 Clouds 29 1017 58 10000 4.63 60 20:43 23.10.2022
1299 Clouds 29 1018 58 10000 5.66 50 19:42 23.10.2022
1300 Clouds 28 1018 57 10000 5.14 50 17:42 23.10.2022
1301 Clouds 28 1018 57 10000 5.14 50 17:42 23.10.2022
1302 Clouds 28 1018 57 10000 5.14 50 17:21 23.10.2022
1303 Clouds 27 1017 65 10000 3.6 40 15:19 23.10.2022
1304 Clear 26 1015 66 10000 5.47 12 12:58 23.10.2022
1305 Clear 26 1014 67 10000 4.81 12 10:58 23.10.2022
1306 Clear 26 1014 67 10000 4.53 17 07:53 23.10.2022
1307 Clouds 28 1014 65 10000 5.14 40 23:39 22.10.2022
1308 Clouds 28 1014 69 10000 5.14 20 22:31 22.10.2022
1309 Clouds 27 1013 69 10000 6 0 21:41 22.10.2022
1310 Clouds 28 1015 69 10000 5.66 30 20:36 22.10.2022
1311 Clouds 26 1014 72 10000 4.46 357 19:32 22.10.2022
1312 Clouds 28 1016 65 10000 5.66 30 18:46 22.10.2022
1313 Clouds 28 1016 69 10000 4.12 30 17:31 22.10.2022
1314 Clouds 26 1015 78 10000 4.12 20 15:26 22.10.2022
1315 Clouds 26 1014 78 10000 3.6 30 14:36 22.10.2022
1316 Clouds 23 1013 88 10000 2.06 220 12:42 22.10.2022
1317 Clouds 24 1013 83 10000 1.54 250 09:50 22.10.2022
1318 Clear 26 1012 75 10000 2.81 258 08:51 22.10.2022
1319 Clouds 27 1013 69 10000 2.6 198 06:30 22.10.2022
1320 Clouds 26 1013 72 10000 2.84 228 01:44 22.10.2022
1321 Clouds 25 1012 77 10000 3.52 238 23:33 21.10.2022
1322 Clouds 27 1012 68 10000 4.54 251 21:34 21.10.2022
1323 Clouds 28 1013 65 10000 4.12 290 20:49 21.10.2022
1324 Clouds 27 1014 68 10000 4.4 256 18:32 21.10.2022
1325 Clouds 24 1013 78 10000 3.09 260 14:47 21.10.2022
1326 Clouds 26 1013 74 10000 5.16 236 13:43 21.10.2022
1327 Clouds 24 1012 83 10000 3.09 250 11:55 21.10.2022
1328 Clouds 26 1012 75 10000 5.61 242 10:26 21.10.2022
1329 Clouds 26 1012 75 10000 5.61 242 09:33 21.10.2022
1330 Clouds 24 1013 88 10000 1.54 250 08:26 21.10.2022
1331 Clouds 24 1014 88 10000 1.03 0 05:56 21.10.2022
1332 Clouds 26 1012 78 10000 1.54 20 23:53 20.10.2022
1333 Clouds 25 1012 81 10000 4.37 333 21:21 20.10.2022
1334 Rain 26 1013 79 10000 4.69 342 19:44 20.10.2022
1335 Rain 25 1015 88 10000 3.09 30 18:50 20.10.2022
1336 Clouds 26 1014 75 10000 4.49 340 17:44 20.10.2022
1337 Clouds 25 1014 94 10000 0 0 15:24 20.10.2022
1338 Clouds 24 1014 94 10000 1.03 0 12:33 20.10.2022
1339 Clouds 25 1013 79 4896 2.42 26 11:36 20.10.2022
1340 Clouds 25 1013 88 10000 1.54 20 10:53 20.10.2022
1341 Rain 25 1013 94 10000 1.54 330 09:34 20.10.2022
1342 Clouds 25 1015 94 10000 1.03 0 07:23 20.10.2022
1343 Clouds 26 1014 83 10000 2.57 40 02:23 20.10.2022
1344 Clouds 28 1013 74 10000 3.6 330 23:41 19.10.2022
1345 Clouds 29 1013 74 10000 3.6 320 22:25 19.10.2022
1346 Clouds 28 1013 78 10000 4.12 330 21:31 19.10.2022
1347 Clouds 28 1014 78 10000 4.12 320 20:19 19.10.2022
1348 Clouds 28 1014 78 10000 3.6 280 17:52 19.10.2022
1349 Clouds 25 1014 94 10000 2.57 220 16:25 19.10.2022
1350 Clouds 27 1013 83 10000 3.09 250 14:34 19.10.2022
1351 Clouds 26 1012 89 10000 2.06 230 12:21 19.10.2022
1352 Clouds 28 1011 75 10000 5.66 224 08:52 19.10.2022
1353 Clouds 24 1012 94 10000 1.54 230 07:24 19.10.2022
1354 Clouds 27 1011 83 10000 1.54 290 01:33 19.10.2022
1355 Clouds 28 1010 78 10000 4.63 310 23:25 18.10.2022
1356 Clouds 28 1011 78 10000 3.6 270 21:49 18.10.2022
1357 Clouds 28 1011 78 10000 3.6 270 21:31 18.10.2022
1358 Clouds 27 1012 83 10000 4.12 270 20:27 18.10.2022
1359 Clouds 23 1013 100 6000 6.17 270 18:58 18.10.2022
1360 Thunderstorm 27 1013 78 10000 4.12 220 16:57 18.10.2022
1361 Clouds 27 1012 78 10000 3.6 210 15:22 18.10.2022
1362 Clear 26 1011 78 10000 2.57 200 13:39 18.10.2022
1363 Clear 25 1010 83 10000 1.54 200 11:47 18.10.2022
1364 Clouds 28 1010 69 10000 5.3 159 10:29 18.10.2022
1365 Clouds 28 1010 70 10000 5.44 151 09:25 18.10.2022
1366 Clouds 26 1013 83 10000 1.54 130 05:54 18.10.2022
1367 Clouds 29 1012 65 10000 3.6 150 23:35 17.10.2022
1368 Clouds 30 1012 66 10000 3.6 150 21:31 17.10.2022
1369 Clouds 28 1013 69 10000 3.6 150 20:47 17.10.2022
1370 Clouds 28 1013 69 10000 3.6 150 20:27 17.10.2022
1371 Clouds 30 1014 62 10000 3.6 160 19:41 17.10.2022
1372 Clouds 28 1015 65 10000 3.09 120 17:47 17.10.2022
1373 Clouds 27 1015 69 10000 3.09 90 15:55 17.10.2022
1374 Clouds 26 1014 73 10000 1.54 90 14:36 17.10.2022
1375 Clouds 24 1014 83 10000 0.51 90 12:48 17.10.2022
1376 Clouds 26 1015 73 10000 2.06 100 08:52 17.10.2022
1377 Clouds 27 1015 74 10000 5.66 70 01:25 17.10.2022
1378 Clear 28 1013 67 10000 7.86 61 22:34 16.10.2022
1379 Clouds 29 1014 74 10000 5.66 70 21:21 16.10.2022
1380 Clouds 29 1016 74 10000 6.69 70 19:51 16.10.2022
1381 Clouds 29 1016 74 10000 6.69 70 19:24 16.10.2022
1382 Clouds 29 1017 65 10000 6.17 80 17:44 16.10.2022
1383 Clouds 28 1017 74 10000 4.63 80 16:26 16.10.2022
1384 Clouds 27 1016 83 10000 3.6 90 15:53 16.10.2022
1385 Rain 27 1015 78 10000 3.6 90 12:25 16.10.2022
1386 Clouds 27 1015 78 10000 3.09 80 11:22 16.10.2022
1387 Clouds 27 1015 78 10000 2.57 90 10:26 16.10.2022
1388 Clouds 28 1016 74 10000 3.09 70 04:51 16.10.2022
1389 Clouds 30 1015 66 10000 4.63 50 23:42 15.10.2022
1390 Clouds 30 1015 70 10000 4.63 50 21:30 15.10.2022
1391 Clouds 30 1016 66 10000 4.12 40 20:57 15.10.2022
1392 Clouds 30 1016 66 10000 4.12 70 19:30 15.10.2022
1393 Clouds 29 1017 70 10000 4.12 60 17:23 15.10.2022
1394 Clouds 28 1016 78 10000 1.54 120 15:45 15.10.2022
1395 Clouds 28 1014 73 10000 3.22 77 13:26 15.10.2022
1396 Clouds 25 1014 94 10000 1.03 0 11:43 15.10.2022
1397 Clouds 26 1014 89 10000 2.06 40 09:28 15.10.2022
1398 Clouds 25 1015 94 10000 0.51 0 07:33 15.10.2022
1399 Rain 25 1013 94 10000 2.06 250 00:40 15.10.2022
1400 Rain 27 1012 89 10000 2.57 310 22:41 14.10.2022
1401 Rain 27 1012 89 10000 2.57 310 22:22 14.10.2022
1402 Clouds 30 1013 62 10000 3.6 210 20:46 14.10.2022
1403 Clouds 29 1014 74 10000 3.6 230 18:39 14.10.2022
1404 Clouds 28 1014 78 10000 0.51 0 15:32 14.10.2022
1405 Clouds 25 1012 94 10000 1.54 140 12:47 14.10.2022
1406 Clouds 25 1012 88 10000 4.63 170 10:54 14.10.2022
1407 Clouds 28 1012 69 10000 5.23 142 08:25 14.10.2022
1408 Clouds 24 1014 94 10000 4.12 100 06:45 14.10.2022
1409 Clouds 24 1014 94 10000 4.12 100 06:18 14.10.2022
1410 Rain 24 1014 100 10000 5.66 70 05:41 14.10.2022
1411 Rain 28 1011 78 10000 2.57 170 01:46 14.10.2022
1412 Clouds 29 1011 79 10000 4.63 190 23:22 13.10.2022
1413 Clouds 28 1011 75 10000 4.8 188 21:32 13.10.2022
1414 Clouds 28 1012 74 10000 5.89 178 20:22 13.10.2022
1415 Clouds 31 1013 70 10000 6.69 200 19:42 13.10.2022
1416 Clouds 31 1013 66 10000 6.17 200 18:45 13.10.2022
1417 Clouds 31 1014 66 10000 6.69 190 17:53 13.10.2022
1418 Clouds 29 1013 74 10000 5.66 190 15:49 13.10.2022
1419 Clouds 28 1014 78 10000 4.12 180 14:59 13.10.2022
1420 Clouds 27 1014 78 10000 4.63 180 13:49 13.10.2022
1421 Clouds 27 1013 78 10000 4.12 180 11:45 13.10.2022
1422 Clouds 28 1013 73 10000 6.09 147 09:57 13.10.2022
1423 Clouds 26 1015 89 10000 2.57 160 08:33 13.10.2022
1424 Clouds 26 1016 89 10000 2.06 120 07:36 13.10.2022
1425 Clouds 28 1017 83 10000 3.09 110 03:23 13.10.2022
1426 Clouds 28 1016 75 10000 5.23 106 01:38 13.10.2022
1427 Thunderstorm 29 1015 74 10000 4.12 130 23:20 12.10.2022
1428 Clouds 29 1016 79 10000 7.2 170 22:43 12.10.2022
1429 Clouds 30 1016 74 10000 6.69 180 21:25 12.10.2022
1430 Clouds 30 1017 70 10000 6.17 150 20:54 12.10.2022
1431 Clouds 30 1017 70 10000 6.17 150 20:25 12.10.2022
1432 Clouds 31 1018 70 10000 4.63 130 18:40 12.10.2022
1433 Clouds 30 1019 70 10000 4.63 120 17:54 12.10.2022
1434 Clouds 30 1018 70 10000 5.14 130 16:18 12.10.2022
1435 Clouds 27 1018 89 10000 2.06 100 13:57 12.10.2022
1436 Clouds 27 1018 89 10000 2.06 100 13:29 12.10.2022
1437 Clouds 27 1018 83 10000 2.57 100 09:48 12.10.2022
1438 Clouds 28 1019 83 10000 2.57 90 07:59 12.10.2022
1439 Clouds 28 1019 83 10000 2.57 90 07:41 12.10.2022
1440 Clouds 28 1019 78 10000 2.57 90 06:43 12.10.2022
1441 Clouds 28 1018 78 10000 3.09 80 01:34 12.10.2022
1442 Clouds 31 1018 66 10000 4.12 80 22:40 11.10.2022
1443 Clouds 32 1019 66 10000 4.63 130 20:55 11.10.2022
1444 Clouds 31 1019 66 10000 4.63 130 19:56 11.10.2022
1445 Clouds 31 1020 70 10000 4.63 140 17:28 11.10.2022
1446 Clouds 28 1019 83 10000 3.09 110 14:48 11.10.2022
1447 Clouds 27 1018 83 10000 2.57 100 13:23 11.10.2022
1448 Clouds 27 1018 89 10000 2.57 110 10:29 11.10.2022
1449 Clouds 27 1018 89 10000 2.06 100 09:36 11.10.2022
1450 Clouds 27 1019 89 10000 2.57 110 07:53 11.10.2022
1451 Clouds 29 1017 79 10000 3.09 90 02:35 11.10.2022
1452 Clear 29 1016 74 10000 5.63 88 00:31 11.10.2022
1453 Clouds 31 1017 66 10000 4.12 150 21:37 10.10.2022
1454 Clouds 31 1018 66 10000 4.63 140 20:30 10.10.2022
1455 Clouds 31 1019 66 10000 5.14 140 18:38 10.10.2022
1456 Clouds 31 1019 66 10000 5.14 130 17:23 10.10.2022
1457 Clouds 29 1018 74 10000 4.12 120 15:58 10.10.2022
1458 Clouds 27 1017 83 10000 3.09 120 12:54 10.10.2022
1459 Clouds 27 1016 83 10000 2.57 90 11:56 10.10.2022
1460 Clouds 28 1016 71 10000 7.42 104 09:21 10.10.2022
1461 Clouds 28 1018 78 10000 3.09 110 05:43 10.10.2022
1462 Clouds 28 1018 78 10000 3.6 100 04:57 10.10.2022
1463 Clouds 29 1016 74 10000 4.63 110 00:34 10.10.2022
1464 Clouds 30 1016 70 10000 4.63 130 23:31 09.10.2022
1465 Clouds 31 1016 66 10000 5.66 140 22:19 09.10.2022
1466 Clouds 30 1017 70 10000 5.14 130 21:26 09.10.2022
1467 Clouds 31 1017 66 10000 6.17 140 20:24 09.10.2022
1468 Clouds 31 1017 66 10000 6.17 140 20:24 09.10.2022
1469 Clouds 31 1018 66 10000 4.12 140 19:45 09.10.2022
1470 Clouds 31 1018 66 10000 5.14 130 18:43 09.10.2022
1471 Clouds 30 1018 70 10000 4.63 130 16:56 09.10.2022
1472 Clouds 30 1018 70 10000 4.63 130 16:37 09.10.2022
1473 Clouds 29 1017 79 10000 4.12 110 15:38 09.10.2022
1474 Clouds 27 1017 89 10000 2.06 80 14:31 09.10.2022
1475 Clouds 26 1017 94 10000 1.54 60 13:34 09.10.2022
1476 Clouds 26 1016 94 10000 2.57 110 12:35 09.10.2022
1477 Clouds 26 1016 89 10000 3.09 110 10:49 09.10.2022
1478 Clouds 26 1017 83 10000 1.03 0 08:31 09.10.2022
1479 Rain 24 1017 100 6000 2.57 100 03:40 09.10.2022
1480 Thunderstorm 25 1017 94 4800 6.69 100 02:52 09.10.2022
1481 Clouds 26 1016 94 10000 6.17 120 00:38 09.10.2022
1482 Clouds 30 1015 70 10000 6.17 80 22:56 08.10.2022
1483 Clouds 30 1015 70 10000 6.17 80 22:19 08.10.2022
1484 Clear 28 1015 77 10000 6.98 84 20:29 08.10.2022
1485 Clouds 30 1017 66 10000 4.63 110 18:56 08.10.2022
1486 Clouds 29 1017 74 10000 4.12 110 16:52 08.10.2022
1487 Clouds 26 1016 89 10000 2.57 90 14:55 08.10.2022
1488 Clouds 25 1016 94 10000 2.06 100 13:30 08.10.2022
1489 Clouds 25 1016 88 10000 1.54 190 10:40 08.10.2022
1490 Clouds 25 1016 88 10000 1.54 190 10:21 08.10.2022
1491 Clouds 26 1017 83 10000 2.06 110 08:48 08.10.2022
1492 Clouds 27 1017 83 10000 4.12 80 03:59 08.10.2022
1493 Clouds 28 1016 78 10000 5.66 60 00:43 08.10.2022
1494 Clouds 28 1016 74 10000 4.63 50 23:27 07.10.2022
1495 Clouds 28 1016 74 10000 5.14 60 22:50 07.10.2022
1496 Clouds 29 1016 70 10000 5.66 80 21:38 07.10.2022
1497 Clouds 29 1018 74 10000 7.2 70 19:42 07.10.2022
1498 Clouds 28 1019 74 10000 6.69 50 17:48 07.10.2022
1499 Clouds 28 1019 74 10000 6.17 40 16:41 07.10.2022
1500 Clouds 27 1018 74 10000 4.63 40 14:59 07.10.2022
1501 Clouds 27 1017 69 10000 4.63 40 13:23 07.10.2022
1502 Clouds 27 1016 70 10000 5.89 37 10:29 07.10.2022
1503 Clouds 27 1017 65 10000 3.09 70 09:24 07.10.2022
1504 Clouds 27 1018 69 10000 3.6 70 08:18 07.10.2022
1505 Clouds 26 1017 78 10000 5.66 90 01:54 07.10.2022
1506 Clouds 29 1016 61 10000 5.66 70 22:52 06.10.2022
1507 Clouds 29 1016 65 10000 5.66 60 21:48 06.10.2022
1508 Clouds 29 1016 65 10000 5.66 60 21:29 06.10.2022
1509 Clouds 30 1016 62 10000 4.63 90 20:36 06.10.2022
1510 Clouds 27 1018 78 10000 5.14 70 18:46 06.10.2022
1511 Clouds 27 1018 78 10000 5.14 70 18:19 06.10.2022
1512 Clouds 28 1017 65 10000 4.12 50 15:33 06.10.2022
1513 Clouds 24 1015 88 10000 1.54 70 12:29 06.10.2022
1514 Clouds 26 1016 78 10000 3.09 70 08:20 06.10.2022
1515 Clouds 26 1016 83 10000 4.12 40 03:39 06.10.2022
1516 Clouds 28 1014 69 10000 5.14 10 00:39 06.10.2022
1517 Clouds 30 1014 62 10000 4.12 20 21:52 05.10.2022
1518 Clouds 29 1015 65 10000 3.09 30 19:31 05.10.2022
1519 Clouds 29 1016 61 10000 3.6 20 17:36 05.10.2022
1520 Clouds 28 1015 65 10000 3.6 30 16:20 05.10.2022
1521 Clouds 25 1015 78 10000 1.54 40 14:48 05.10.2022
1522 Clouds 25 1015 78 10000 1.54 40 14:19 05.10.2022
1523 Clouds 26 1014 73 10000 1.54 30 12:26 05.10.2022
1524 Clouds 26 1013 73 10000 3.09 20 09:51 05.10.2022
1525 Clouds 26 1014 73 10000 3.6 20 07:51 05.10.2022
1526 Clouds 26 1014 73 10000 3.6 20 06:21 05.10.2022
1527 Clouds 27 1015 65 10000 3.6 10 04:27 05.10.2022
1528 Clouds 28 1013 65 10000 4.12 360 00:53 05.10.2022
1529 Clouds 28 1013 65 10000 4.12 360 00:27 05.10.2022
1530 Clouds 29 1012 61 10000 4.63 360 22:39 04.10.2022
1531 Clouds 30 1013 58 10000 4.12 340 20:40 04.10.2022
1532 Clouds 29 1014 58 10000 4.63 360 19:42 04.10.2022
1533 Clouds 29 1014 61 10000 3.6 360 18:39 04.10.2022
1534 Clouds 29 1014 61 10000 3.09 40 17:50 04.10.2022
1535 Clouds 29 1014 61 10000 3.09 20 16:36 04.10.2022
1536 Clouds 27 1012 69 10000 3.69 354 13:19 04.10.2022
1537 Clouds 27 1011 70 10000 5.09 8 09:47 04.10.2022
1538 Clouds 27 1012 72 10000 5.83 13 07:24 04.10.2022
1539 Clouds 28 1012 65 10000 4.63 10 02:27 04.10.2022
1540 Clouds 29 1012 65 10000 4.63 10 23:41 03.10.2022
1541 Clouds 30 1012 66 10000 4.12 350 21:53 03.10.2022
1542 Clouds 30 1012 66 10000 4.12 350 21:23 03.10.2022
1543 Clouds 30 1013 66 10000 4.12 350 20:19 03.10.2022
1544 Clouds 29 1014 65 10000 4.12 350 18:28 03.10.2022
1545 Clouds 29 1014 70 10000 5.14 340 17:25 03.10.2022
1546 Clouds 28 1013 74 10000 4.12 290 15:47 03.10.2022
1547 Clouds 26 1012 83 10000 2.57 250 13:51 03.10.2022
1548 Clouds 24 1012 94 10000 1.54 210 12:28 03.10.2022
1549 Clear 27 1011 71 10000 3.44 227 10:39 03.10.2022
1550 Clear 27 1011 70 10000 3.51 227 09:37 03.10.2022
1551 Clear 25 1013 94 10000 1.03 0 06:30 03.10.2022
1552 Clouds 27 1012 83 10000 2.06 170 02:52 03.10.2022
1553 Clouds 30 1012 66 10000 2.57 310 22:29 02.10.2022
1554 Clouds 30 1012 66 10000 3.09 300 20:50 02.10.2022
1555 Clouds 29 1013 70 10000 4.12 290 18:42 02.10.2022
1556 Clouds 29 1013 70 10000 4.12 280 17:52 02.10.2022
1557 Clouds 28 1013 78 10000 3.09 280 16:33 02.10.2022
1558 Clouds 27 1013 89 10000 1.54 250 15:50 02.10.2022
1559 Clouds 24 1012 100 10000 1.03 0 13:51 02.10.2022
1560 Clouds 24 1012 100 10000 1.03 0 13:21 02.10.2022
1561 Clouds 24 1011 100 10000 1.54 240 12:28 02.10.2022
1562 Clouds 25 1011 94 10000 1.03 0 11:37 02.10.2022
1563 Clouds 26 1010 89 10000 0 0 10:37 02.10.2022
1564 Clouds 26 1011 94 10000 0 0 09:27 02.10.2022
1565 Clear 28 1010 72 10000 2.4 256 07:39 02.10.2022
1566 Rain 27 1011 89 10000 1.54 70 02:55 02.10.2022
1567 Clouds 26 1010 89 10000 2.57 80 00:46 02.10.2022
1568 Clouds 26 1010 89 10000 2.57 80 00:20 02.10.2022
1569 Clouds 30 1009 70 10000 3.09 10 22:37 01.10.2022
1570 Clouds 30 1009 66 10000 3.09 300 20:34 01.10.2022
1571 Clouds 29 1011 74 10000 3.09 310 18:30 01.10.2022
1572 Clouds 28 1011 78 10000 2.06 240 16:35 01.10.2022
1573 Clouds 25 1009 88 10000 0 0 14:35 01.10.2022
1574 Clouds 25 1009 88 10000 0.51 0 13:31 01.10.2022
1575 Clouds 24 1008 100 10000 0 0 12:32 01.10.2022
1576 Clouds 24 1008 100 10000 0 0 11:19 01.10.2022
1577 Clouds 25 1008 94 10000 0 0 10:31 01.10.2022
1578 Clouds 25 1008 94 10000 0 0 09:27 01.10.2022
1579 Clouds 25 1008 94 10000 1.03 0 08:57 01.10.2022
1580 Clouds 28 1008 75 10000 1.62 113 04:27 01.10.2022
1581 Clouds 28 1008 75 10000 1.62 113 03:31 01.10.2022
1582 Clouds 28 1007 74 10000 4.12 110 23:59 30.09.2022
1583 Clouds 28 1007 74 10000 4.63 110 22:37 30.09.2022
1584 Clouds 29 1007 74 10000 3.09 10 21:28 30.09.2022
1585 Clouds 29 1007 74 10000 3.09 10 21:28 30.09.2022
1586 Clouds 29 1008 74 10000 3.6 360 20:44 30.09.2022
1587 Clouds 29 1008 70 10000 2.06 310 19:49 30.09.2022
1588 Clouds 30 1009 62 10000 2.57 230 17:31 30.09.2022
1589 Clouds 28 1008 78 10000 1.54 250 15:56 30.09.2022
1590 Clouds 24 1008 94 10000 0.51 0 13:30 30.09.2022
1591 Clouds 24 1007 94 10000 1.54 250 11:57 30.09.2022
1592 Clouds 28 1007 75 10000 7.11 183 10:30 30.09.2022
1593 Clouds 26 1007 89 10000 1.54 240 08:24 30.09.2022
1594 Clouds 27 1008 78 10000 2.06 250 05:47 30.09.2022
1595 Clouds 28 1007 83 10000 3.6 240 02:31 30.09.2022
1596 Clouds 30 1008 74 10000 5.66 210 22:26 29.09.2022
1597 Clouds 30 1008 74 10000 5.66 220 21:26 29.09.2022
1598 Clouds 28 1008 83 10000 5.14 230 20:35 29.09.2022
1599 Clouds 27 1009 78 10000 6.69 250 18:32 29.09.2022
1600 Clouds 28 1010 82 10000 9.43 186 17:22 29.09.2022
1601 Clouds 28 1010 83 10000 9.34 185 16:28 29.09.2022
1602 Clouds 28 1009 83 10000 6.17 220 15:35 29.09.2022
1603 Clouds 28 1009 83 10000 7.2 200 14:24 29.09.2022
1604 Clouds 26 1009 89 10000 7.2 180 09:21 29.09.2022
1605 Rain 25 1012 94 6000 6.69 200 05:42 29.09.2022
1606 Clouds 28 1010 84 10000 9.41 160 02:45 29.09.2022
1607 Clouds 28 1009 84 10000 8.74 154 23:54 28.09.2022
1608 Clouds 31 1010 74 10000 8.23 190 22:32 28.09.2022
1609 Clouds 31 1011 74 10000 8.23 190 21:28 28.09.2022
1610 Clouds 31 1011 74 10000 8.23 200 20:18 28.09.2022
1611 Clouds 30 1012 74 10000 7.2 170 18:20 28.09.2022
1612 Clouds 27 1012 83 10000 6.17 180 14:50 28.09.2022
1613 Thunderstorm 26 1012 94 5000 10.29 210 12:40 28.09.2022
1614 Rain 28 1011 83 10000 7.72 160 10:24 28.09.2022
1615 Clouds 28 1012 83 10000 8.23 160 08:25 28.09.2022
1616 Clouds 28 1013 83 10000 6.69 150 06:42 28.09.2022
1617 Clouds 27 1012 89 10000 3.09 110 01:51 28.09.2022
1618 Clouds 27 1012 89 10000 3.09 110 01:30 28.09.2022
1619 Rain 26 1011 89 10000 5.14 140 22:54 27.09.2022
1620 Rain 26 1013 89 9000 4.12 140 21:24 27.09.2022
1621 Rain 25 1013 94 9000 5.14 140 20:37 27.09.2022
1622 Rain 26 1015 94 9000 4.12 170 19:47 27.09.2022
1623 Rain 25 1015 100 9000 4.12 190 18:25 27.09.2022
1624 Rain 27 1014 89 9000 4.63 140 17:42 27.09.2022
1625 Clouds 26 1013 89 10000 4.63 120 15:27 27.09.2022
1626 Clouds 25 1013 94 10000 5.14 110 14:33 27.09.2022
1627 Rain 24 1013 94 10000 3.09 100 12:40 27.09.2022
1628 Thunderstorm 24 1013 94 10000 2.06 280 10:53 27.09.2022
1629 Rain 27 1012 89 10000 3.09 150 08:46 27.09.2022
1630 Clouds 27 1013 78 10000 3.09 120 05:49 27.09.2022
1631 Clouds 29 1012 74 10000 3.6 170 01:43 27.09.2022
1632 Clouds 29 1011 79 10000 4.12 170 00:32 27.09.2022
1633 Clouds 30 1011 70 10000 5.66 180 23:25 26.09.2022
1634 Clouds 31 1011 74 10000 7.2 170 21:44 26.09.2022
1635 Clouds 30 1012 74 10000 8.23 160 20:26 26.09.2022
1636 Clouds 30 1013 74 10000 6.69 170 19:24 26.09.2022
1637 Clouds 30 1013 74 10000 7.2 160 18:30 26.09.2022
1638 Clouds 28 1013 83 10000 4.63 130 15:49 26.09.2022
1639 Rain 26 1012 89 10000 3.09 90 13:25 26.09.2022
1640 Rain 25 1011 94 10000 1.03 0 11:28 26.09.2022
1641 Rain 25 1012 88 10000 2.06 130 10:36 26.09.2022
1642 Rain 25 1012 88 10000 2.06 130 10:18 26.09.2022
1643 Rain 24 1012 94 10000 1.03 0 09:52 26.09.2022
1644 Rain 24 1012 94 10000 1.03 0 09:22 26.09.2022
1645 Thunderstorm 25 1014 88 10000 5.14 160 05:50 26.09.2022
1646 Rain 29 1012 79 10000 2.06 180 02:35 26.09.2022
1647 Clouds 31 1011 66 10000 5.66 140 23:25 25.09.2022
1648 Clouds 31 1012 66 10000 5.66 150 21:48 25.09.2022
1649 Clouds 31 1012 66 10000 5.66 150 21:25 25.09.2022
1650 Clouds 31 1013 62 10000 6.69 150 20:37 25.09.2022
1651 Clouds 31 1013 62 10000 6.17 140 19:25 25.09.2022
1652 Clouds 31 1014 66 10000 7.2 160 18:29 25.09.2022
1653 Clouds 31 1014 66 10000 6.17 150 17:29 25.09.2022
1654 Clouds 31 1013 70 10000 4.12 120 16:21 25.09.2022
1655 Clouds 28 1012 83 10000 2.06 90 14:54 25.09.2022
1656 Clouds 28 1012 83 10000 2.06 90 14:19 25.09.2022
1657 Clouds 27 1012 89 10000 1.54 90 11:34 25.09.2022
1658 Clouds 28 1013 78 10000 2.57 120 09:48 25.09.2022
1659 Clouds 29 1014 79 10000 2.57 110 07:43 25.09.2022
1660 Clouds 28 1015 78 10000 1.54 80 05:25 25.09.2022
1661 Clouds 31 1013 66 10000 5.66 70 23:37 24.09.2022
1662 Clouds 31 1013 66 10000 4.63 60 21:25 24.09.2022
1663 Clouds 31 1014 66 10000 5.66 50 20:32 24.09.2022
1664 Clear 29 1014 68 10000 5.76 72 19:20 24.09.2022
1665 Clouds 30 1015 70 10000 4.12 60 16:56 24.09.2022
1666 Clouds 30 1015 74 10000 4.63 60 15:29 24.09.2022
1667 Clouds 28 1014 78 10000 3.09 50 14:37 24.09.2022
1668 Clouds 26 1014 89 10000 1.54 80 13:22 24.09.2022
1669 Clouds 25 1013 94 10000 1.03 0 12:25 24.09.2022
1670 Clouds 26 1013 89 10000 0 0 09:59 24.09.2022
1671 Clouds 27 1014 89 10000 0.51 0 08:58 24.09.2022
1672 Clouds 27 1014 89 10000 0 0 07:41 24.09.2022
1673 Clouds 29 1015 74 10000 2.57 120 04:53 24.09.2022
1674 Clouds 29 1015 74 10000 2.57 120 04:21 24.09.2022
1675 Clouds 31 1013 66 10000 3.6 20 22:58 23.09.2022
1676 Clouds 31 1013 66 10000 4.63 30 21:37 23.09.2022
1677 Clouds 31 1013 66 10000 4.63 30 21:19 23.09.2022
1678 Clouds 32 1014 66 10000 4.63 10 20:43 23.09.2022
1679 Clouds 31 1014 70 10000 5.14 10 19:19 23.09.2022
1680 Clouds 30 1014 70 10000 3.6 330 16:23 23.09.2022
1681 Clouds 27 1012 83 10000 1.54 260 12:52 23.09.2022
1682 Clear 28 1010 69 10000 3.03 290 09:36 23.09.2022
1683 Clouds 27 1012 83 10000 2.06 250 06:51 23.09.2022
1684 Clouds 30 1009 70 10000 4.12 330 00:44 23.09.2022
1685 Clouds 30 1009 70 10000 4.12 330 23:28 22.09.2022
1686 Clouds 31 1009 66 10000 5.14 330 22:27 22.09.2022
1687 Clouds 31 1009 70 10000 5.14 330 21:23 22.09.2022
1688 Clouds 31 1011 70 10000 5.14 330 19:58 22.09.2022
1689 Clouds 31 1011 66 10000 5.14 330 17:41 22.09.2022
1690 Clouds 28 1010 78 10000 3.09 340 14:48 22.09.2022
1691 Clouds 27 1008 83 10000 2.57 350 10:37 22.09.2022
1692 Clouds 27 1008 83 10000 2.57 350 10:18 22.09.2022
1693 Clouds 29 1009 70 10000 3.09 20 07:36 22.09.2022
1694 Clouds 29 1010 74 10000 3.09 40 04:37 22.09.2022
1695 Clouds 31 1009 70 10000 5.66 30 23:33 21.09.2022
1696 Clouds 31 1009 70 10000 6.17 20 21:52 21.09.2022
1697 Clouds 31 1009 70 10000 5.66 20 20:53 21.09.2022
1698 Clouds 30 1011 74 10000 5.14 10 17:55 21.09.2022
1699 Clouds 30 1011 74 10000 5.14 10 17:21 21.09.2022
1700 Clouds 28 1010 83 10000 1.54 70 14:52 21.09.2022
1701 Clouds 28 1009 78 10000 4.63 40 13:24 21.09.2022
1702 Clouds 28 1008 78 10000 3.6 40 11:30 21.09.2022
1703 Clouds 28 1009 78 10000 4.12 50 10:34 21.09.2022
1704 Clouds 29 1009 74 10000 3.6 50 09:36 21.09.2022
1705 Clear 29 1009 74 10000 7.02 42 07:58 21.09.2022
1706 Clouds 29 1012 74 10000 4.12 50 02:51 21.09.2022
1707 Clouds 29 1012 74 10000 4.12 50 02:29 21.09.2022
1708 Clear 28 1011 76 10000 6.4 41 00:57 21.09.2022
1709 Clouds 30 1011 70 10000 5.14 40 23:19 20.09.2022
1710 Clouds 31 1012 62 10000 5.14 50 21:21 20.09.2022
1711 Clouds 31 1013 70 10000 5.66 60 19:43 20.09.2022
1712 Clouds 30 1014 70 10000 3.6 60 16:41 20.09.2022
1713 Clouds 29 1013 74 10000 1.54 80 14:51 20.09.2022
1714 Clouds 27 978 83 10000 1.54 80 13:48 20.09.2022
1715 Clouds 28 1012 78 10000 2.06 90 10:33 20.09.2022
1716 Clouds 28 1013 78 10000 2.06 100 08:28 20.09.2022
1717 Clouds 29 1014 74 10000 2.57 100 05:48 20.09.2022
1718 Clouds 29 1014 74 10000 3.6 120 04:27 20.09.2022
1719 Clouds 31 1013 66 10000 5.14 150 22:59 19.09.2022
1720 Clouds 31 1013 66 10000 5.14 150 22:23 19.09.2022
1721 Clouds 31 1014 62 10000 4.63 140 20:57 19.09.2022
1722 Clouds 31 1014 62 10000 4.63 140 20:38 19.09.2022
1723 Clouds 31 1015 62 10000 4.12 130 17:46 19.09.2022
1724 Clouds 30 1014 74 10000 3.09 120 15:37 19.09.2022
1725 Clouds 28 1013 78 10000 2.57 120 13:33 19.09.2022
1726 Clouds 27 1013 83 10000 1.54 90 11:28 19.09.2022
1727 Clouds 28 1014 78 10000 2.06 180 08:51 19.09.2022
1728 Clouds 28 1014 78 10000 2.57 150 07:25 19.09.2022
1729 Clouds 29 1014 79 10000 3.6 130 01:58 19.09.2022
1730 Clouds 30 1014 70 10000 5.66 150 23:22 18.09.2022
1731 Clouds 32 1014 55 10000 6.17 140 21:45 18.09.2022
1732 Clouds 32 1015 62 10000 5.14 140 20:29 18.09.2022
1733 Clouds 32 1016 58 10000 3.6 140 18:33 18.09.2022
1734 Clouds 31 1016 66 10000 3.6 120 17:39 18.09.2022
1735 Clouds 30 1015 70 10000 3.6 130 15:46 18.09.2022
1736 Clouds 25 1014 88 10000 0.51 0 13:51 18.09.2022
1737 Clouds 26 1014 89 10000 1.03 0 12:35 18.09.2022
1738 Clouds 26 1014 89 10000 0.51 40 11:24 18.09.2022
1739 Clouds 28 1017 74 10000 3.09 130 04:28 18.09.2022
1740 Clouds 29 1015 74 10000 3.6 130 01:26 18.09.2022
1741 Clouds 30 1015 70 10000 4.63 140 00:24 18.09.2022
1742 Clouds 30 1016 70 10000 5.14 120 21:44 17.09.2022
1743 Clouds 32 1017 62 10000 6.17 130 19:44 17.09.2022
1744 Clouds 31 1017 66 10000 5.66 120 18:59 17.09.2022
1745 Clouds 31 1017 66 10000 5.14 110 16:22 17.09.2022
1746 Clouds 27 1016 83 10000 2.06 100 13:56 17.09.2022
1747 Clouds 27 1016 83 10000 1.54 100 11:31 17.09.2022
1748 Clouds 28 1016 83 10000 2.06 90 09:27 17.09.2022
1749 Clouds 28 1018 83 10000 1.54 70 06:25 17.09.2022
1750 Clouds 28 1016 83 10000 1.03 0 01:51 17.09.2022
1751 Rain 31 1016 66 10000 4.63 140 22:54 16.09.2022
1752 Clouds 32 1017 66 10000 5.14 150 21:23 16.09.2022
1753 Clouds 32 1018 62 10000 5.14 140 19:51 16.09.2022
1754 Clouds 31 1018 66 10000 5.66 130 16:56 16.09.2022
1755 Clouds 30 1018 74 10000 5.14 140 15:26 16.09.2022
1756 Clouds 27 1016 89 10000 4.12 110 13:57 16.09.2022
1757 Clouds 27 1016 89 10000 3.09 110 11:31 16.09.2022
1758 Clouds 27 1018 83 10000 4.12 90 08:19 16.09.2022
1759 Clouds 29 1017 68 10000 4.68 112 07:18 16.09.2022
1760 Clouds 28 1019 83 10000 2.06 70 06:35 16.09.2022
1761 Clouds 26 1017 83 10000 1.03 0 02:38 16.09.2022
1762 Rain 31 1016 70 10000 4.12 180 22:43 15.09.2022
1763 Clouds 32 1017 66 10000 6.69 160 20:57 15.09.2022
1764 Clouds 31 1017 70 10000 4.63 170 19:48 15.09.2022
1765 Clouds 28 1018 83 10000 3.6 170 18:29 15.09.2022
1766 Clouds 30 1018 74 10000 3.6 160 17:31 15.09.2022
1767 Clouds 28 1018 78 10000 5.66 150 16:37 15.09.2022
1768 Clouds 29 1017 69 10000 5.24 157 14:30 15.09.2022
1769 Clouds 25 1017 94 9000 0 0 12:20 15.09.2022
1770 Clouds 25 1016 94 9000 1.54 170 09:53 15.09.2022
1771 Thunderstorm 24 1018 83 9000 2.57 60 07:50 15.09.2022
1772 Clouds 27 1016 83 10000 1.03 0 03:52 15.09.2022
1773 Clouds 30 1015 66 10000 4.12 200 23:43 14.09.2022
1774 Clouds 31 1014 70 10000 5.14 190 21:30 14.09.2022
1775 Clouds 31 1015 70 10000 6.17 190 19:34 14.09.2022
1776 Clouds 31 1015 66 10000 7.72 180 18:32 14.09.2022
1777 Clouds 30 1015 89 10000 5.66 180 16:44 14.09.2022
1778 Clouds 27 1015 89 10000 3.09 170 15:29 14.09.2022
1779 Rain 29 1014 70 10000 5.43 162 13:36 14.09.2022
1780 Clear 24 1013 94 10000 1.03 0 10:52 14.09.2022
1781 Clear 25 1013 94 10000 0.51 0 09:41 14.09.2022
1782 Clouds 25 1014 94 10000 1.03 0 06:51 14.09.2022
1783 Clouds 25 1014 94 10000 1.03 0 06:33 14.09.2022
1784 Rain 26 1014 89 10000 1.03 70 03:54 14.09.2022
1785 Clouds 26 1013 89 10000 1.54 310 01:43 14.09.2022
1786 Rain 26 1013 89 10000 1.54 310 01:20 14.09.2022
1787 Clouds 26 1013 89 8000 2.06 220 23:55 13.09.2022
1788 Clouds 26 1013 89 8000 2.06 220 23:37 13.09.2022
1789 Clouds 26 1013 89 8000 2.06 220 23:19 13.09.2022
1790 Clouds 27 1013 78 8000 1.54 240 22:43 13.09.2022
1791 Clouds 27 1013 78 8000 1.54 240 22:43 13.09.2022
1792 Clouds 25 1014 94 6000 2.06 170 21:42 13.09.2022
1793 Rain 27 1015 89 10000 3.09 200 19:32 13.09.2022
1794 Clouds 30 1014 70 10000 1.54 170 16:45 13.09.2022
1795 Clouds 29 1014 79 10000 2.06 100 15:53 13.09.2022
1796 Clouds 26 1013 94 10000 1.03 0 13:54 13.09.2022
1797 Clouds 26 1013 94 10000 0 0 12:28 13.09.2022
1798 Clear 25 1014 94 10000 1.03 210 08:32 13.09.2022
1799 Clouds 27 1015 94 10000 1.03 0 04:24 13.09.2022
1800 Clouds 27 1014 89 10000 4.12 160 23:23 12.09.2022
1801 Clouds 27 1014 89 10000 2.57 220 22:46 12.09.2022
1802 Clouds 25 1015 88 10000 4.12 200 21:35 12.09.2022
1803 Clouds 31 1015 70 10000 2.57 90 20:24 12.09.2022
1804 Clouds 28 1017 78 10000 2.06 80 18:41 12.09.2022
1805 Clouds 30 1017 70 10000 3.09 40 16:20 12.09.2022
1806 Clouds 25 1016 94 10000 0 0 13:24 12.09.2022
1807 Clear 28 1016 83 10000 1.54 100 10:56 12.09.2022
1808 Clear 27 1016 89 10000 0 0 09:33 12.09.2022
1809 Clouds 28 1018 83 10000 0.51 0 04:42 12.09.2022
1810 Clouds 30 1017 70 10000 2.06 120 02:57 12.09.2022
1811 Clouds 32 1017 66 10000 4.12 170 22:51 11.09.2022
1812 Clouds 32 1018 66 10000 5.14 130 21:40 11.09.2022
1813 Clouds 32 1019 66 10000 5.14 150 20:44 11.09.2022
1814 Clouds 32 1019 58 10000 3.6 150 19:45 11.09.2022
1815 Clouds 32 1019 58 10000 3.6 150 19:21 11.09.2022
1816 Clouds 32 1020 58 10000 5.14 110 17:47 11.09.2022
1817 Clouds 31 1020 66 10000 4.12 100 16:23 11.09.2022
1818 Clouds 30 1019 74 10000 3.09 100 14:18 11.09.2022
1819 Clouds 27 1019 89 10000 0.51 0 12:31 11.09.2022
1820 Clouds 28 1019 78 10000 3.6 110 08:25 11.09.2022
1821 Clouds 29 1020 79 10000 3.09 110 05:55 11.09.2022
1822 Clouds 32 1017 58 10000 3.6 140 00:34 11.09.2022
1823 Clouds 32 1017 66 10000 4.63 190 22:23 10.09.2022
1824 Clouds 32 1018 62 10000 5.14 180 20:35 10.09.2022
1825 Clouds 32 1018 62 10000 5.14 180 20:35 10.09.2022
1826 Clouds 32 1018 66 10000 5.66 160 19:45 10.09.2022
1827 Clouds 32 1018 66 10000 5.66 160 19:25 10.09.2022
1828 Clouds 31 1018 70 10000 6.17 170 17:51 10.09.2022
1829 Clouds 31 1017 70 10000 5.14 150 15:37 10.09.2022
1830 Clouds 26 1017 89 10000 0.51 0 13:55 10.09.2022
1831 Clouds 26 1016 83 10000 2.06 180 12:52 10.09.2022
1832 Clouds 27 1015 94 10000 7.72 160 10:34 10.09.2022
1833 Clouds 27 1016 94 10000 4.42 128 08:42 10.09.2022
1834 Clouds 27 1016 94 10000 3.76 137 08:22 10.09.2022
1835 Clouds 29 1015 79 10000 1.54 180 04:55 10.09.2022
1836 Clouds 33 1012 62 10000 5.66 190 23:38 09.09.2022
1837 Clouds 33 1012 58 10000 4.63 180 22:36 09.09.2022
1838 Clouds 32 1012 58 10000 3.6 200 20:59 09.09.2022
1839 Clouds 32 1012 58 10000 3.6 200 20:20 09.09.2022
1840 Clouds 32 1013 58 10000 4.63 210 19:23 09.09.2022
1841 Clouds 31 1013 70 10000 4.63 210 17:29 09.09.2022
1842 Clouds 30 1012 74 10000 4.63 210 15:19 09.09.2022
1843 Clouds 26 1010 89 10000 2.06 190 13:31 09.09.2022
1844 Clouds 26 1010 89 10000 1.54 240 10:42 09.09.2022
1845 Clouds 26 1010 89 10000 1.54 240 10:42 09.09.2022
1846 Clouds 27 1010 83 10000 0.51 0 07:45 09.09.2022
1847 Clear 30 1010 67 10000 2.8 140 03:37 09.09.2022
1848 Clouds 30 1008 74 10000 2.06 50 22:40 08.09.2022
1849 Clouds 31 1009 70 10000 0.51 0 21:51 08.09.2022
1850 Clouds 28 1010 78 10000 3.09 90 20:49 08.09.2022
1851 Clouds 28 1010 78 10000 3.09 90 20:25 08.09.2022
1852 Clouds 30 1011 70 10000 1.54 0 18:43 08.09.2022
1853 Clouds 30 1011 70 10000 3.6 310 17:23 08.09.2022
1854 Clouds 30 1011 70 10000 2.57 280 15:18 08.09.2022
1855 Clouds 25 1011 94 10000 0.51 0 13:28 08.09.2022
1856 Clear 26 1010 89 10000 1.03 0 12:39 08.09.2022
1857 Clear 28 1009 72 10000 0.79 314 10:59 08.09.2022
1858 Clear 28 1009 72 10000 0.69 326 09:26 08.09.2022
1859 Clouds 27 1012 89 10000 0.51 0 06:43 08.09.2022
1860 Clouds 29 1012 79 10000 1.54 30 03:18 08.09.2022
1861 Clear 29 1011 71 10000 2.52 41 02:36 08.09.2022
1862 Clear 29 1011 70 10000 2.47 28 02:18 08.09.2022
1863 Clouds 31 1012 66 10000 4.12 360 22:55 07.09.2022
1864 Clouds 31 1013 70 10000 4.12 360 21:44 07.09.2022
1865 Clouds 31 1013 70 10000 4.12 360 21:20 07.09.2022
1866 Clouds 31 1014 70 10000 4.12 350 20:19 07.09.2022
1867 Clouds 31 1015 66 10000 3.09 20 18:40 07.09.2022
1868 Clouds 29 1015 74 10000 0.51 0 15:41 07.09.2022
1869 Clear 25 1015 88 10000 0.51 0 10:51 07.09.2022
1870 Clear 25 1015 88 10000 0.51 0 10:30 07.09.2022
1871 Clouds 25 1017 88 10000 0 0 07:43 07.09.2022
1872 Clouds 29 1017 70 10000 1.03 0 04:46 07.09.2022
1873 Clouds 30 1016 66 10000 3.6 70 00:26 07.09.2022
1874 Clouds 30 1017 66 10000 3.6 50 21:47 06.09.2022
1875 Clouds 30 1017 66 10000 3.6 50 21:27 06.09.2022
1876 Clouds 31 1018 66 10000 1.54 0 18:55 06.09.2022
1877 Clouds 31 1018 66 10000 1.54 0 18:27 06.09.2022
1878 Clouds 30 1018 70 10000 2.57 40 17:23 06.09.2022
1879 Clouds 30 1018 70 10000 1.54 60 16:38 06.09.2022
1880 Clouds 30 1017 70 10000 2.06 90 15:23 06.09.2022
1881 Clouds 26 1016 89 10000 0 0 13:46 06.09.2022
1882 Clouds 26 1016 89 10000 0 0 13:25 06.09.2022
1883 Clouds 26 1016 94 10000 1.54 100 12:31 06.09.2022
1884 Clear 29 1015 73 10000 3.4 96 10:46 06.09.2022
1885 Clouds 25 1017 88 10000 5.66 180 08:53 06.09.2022
1886 Clouds 28 1017 83 10000 2.06 90 07:49 06.09.2022
1887 Clouds 29 1017 74 10000 2.57 90 03:41 06.09.2022
1888 Clouds 32 1015 62 10000 4.12 160 23:28 05.09.2022
1889 Clouds 32 1015 66 10000 3.6 140 22:29 05.09.2022
1890 Clouds 32 1016 66 10000 4.12 160 20:43 05.09.2022
1891 Clouds 32 1017 62 10000 4.63 150 19:26 05.09.2022
1892 Clouds 32 1017 62 10000 4.63 140 18:46 05.09.2022
1893 Clouds 32 1017 62 10000 4.63 140 18:21 05.09.2022
1894 Clouds 31 1017 66 10000 4.12 150 16:43 05.09.2022
1895 Clouds 30 1017 70 10000 2.57 130 15:47 05.09.2022
1896 Clouds 26 1016 89 10000 0.51 0 13:26 05.09.2022
1897 Clouds 26 1015 89 10000 0 0 12:28 05.09.2022
1898 Clouds 28 1014 78 10000 2.06 100 09:44 05.09.2022
1899 Clouds 29 1015 74 10000 2.06 100 06:42 05.09.2022
1900 Clouds 29 1014 74 10000 2.57 90 02:19 05.09.2022
1901 Clear 29 1013 72 10000 4.22 70 23:18 04.09.2022
1902 Clouds 30 1014 74 10000 4.63 50 22:27 04.09.2022
1903 Thunderstorm 32 1015 66 10000 5.14 50 20:50 04.09.2022
1904 Clouds 31 1016 66 10000 4.63 70 19:32 04.09.2022
1905 Clouds 31 1017 66 10000 3.09 80 17:55 04.09.2022
1906 Clouds 30 1017 70 10000 4.12 110 16:42 04.09.2022
1907 Clouds 28 1016 78 10000 0.51 0 14:29 04.09.2022
1908 Clouds 29 1014 69 10000 4.52 69 13:28 04.09.2022
1909 Clouds 29 1014 69 10000 4.52 69 13:28 04.09.2022
1910 Clouds 25 1015 94 10000 0.51 0 11:52 04.09.2022
1911 Clouds 27 1015 89 10000 1.54 100 10:28 04.09.2022
1912 Clouds 28 1016 78 10000 2.57 110 07:29 04.09.2022
1913 Clouds 29 1016 74 10000 3.6 100 04:44 04.09.2022
1914 Clouds 31 1016 66 10000 5.66 60 00:42 04.09.2022
1915 Clouds 31 1016 66 10000 6.69 80 22:21 03.09.2022
1916 Clouds 31 1017 66 10000 5.14 90 21:23 03.09.2022
1917 Clouds 31 1017 66 10000 5.14 90 21:23 03.09.2022
1918 Clouds 31 1018 62 10000 6.17 100 18:59 03.09.2022
1919 Clouds 32 1018 66 10000 5.66 110 17:25 03.09.2022
1920 Clouds 31 1018 70 10000 5.66 110 16:26 03.09.2022
1921 Clouds 28 1017 78 10000 3.6 90 14:44 03.09.2022
1922 Clouds 27 1017 83 10000 3.09 100 13:55 03.09.2022
1923 Clear 27 1017 83 10000 2.57 90 11:51 03.09.2022
1924 Clear 29 1015 71 10000 6.63 82 09:56 03.09.2022
1925 Clouds 27 1018 89 10000 1.54 130 07:57 03.09.2022
1926 Clouds 29 1018 74 10000 2.06 70 04:57 03.09.2022
1927 Clouds 29 1017 72 10000 7.28 88 03:57 03.09.2022
1928 Clouds 31 1016 62 10000 5.14 100 23:49 02.09.2022
1929 Clouds 32 1016 55 10000 5.66 90 22:34 02.09.2022
1930 Clouds 32 1017 62 10000 6.17 90 20:57 02.09.2022
1931 Clouds 32 1017 62 10000 6.17 90 20:23 02.09.2022
1932 Clouds 31 1018 66 10000 5.66 70 18:51 02.09.2022
1933 Clouds 31 1018 66 10000 5.66 70 18:26 02.09.2022
1934 Clouds 31 1018 66 10000 5.66 100 17:28 02.09.2022
1935 Clouds 30 1018 70 10000 5.14 90 16:44 02.09.2022
1936 Clouds 28 1016 78 10000 2.06 80 13:50 02.09.2022
1937 Clouds 28 1016 83 10000 2.06 100 11:36 02.09.2022
1938 Clouds 28 1016 83 10000 1.54 100 09:46 02.09.2022
1939 Clouds 28 1016 83 10000 1.54 80 08:47 02.09.2022
1940 Clouds 29 1017 79 10000 1.54 80 06:48 02.09.2022
1941 Clouds 29 1017 79 10000 1.54 80 06:22 02.09.2022
1942 Clouds 31 1015 66 10000 3.6 120 00:26 02.09.2022
1943 Clouds 32 1016 62 10000 4.63 150 22:21 01.09.2022
1944 Clouds 32 1016 62 10000 4.12 160 21:38 01.09.2022
1945 Clouds 32 1016 62 10000 4.12 160 21:19 01.09.2022
1946 Clouds 32 1017 66 10000 4.12 140 20:23 01.09.2022
1947 Clouds 32 1017 62 10000 4.63 140 18:20 01.09.2022
1948 Clouds 31 1018 70 10000 2.06 110 16:54 01.09.2022
1949 Clouds 27 1017 89 10000 1.03 0 14:52 01.09.2022
1950 Clouds 27 1016 89 10000 1.03 0 13:23 01.09.2022
1951 Clouds 28 1016 74 10000 1.54 60 12:50 01.09.2022
1952 Clouds 27 1015 83 10000 0.51 360 11:51 01.09.2022
1953 Clouds 27 1015 83 10000 0.51 360 11:19 01.09.2022
1954 Clouds 26 1015 94 10000 0 0 09:31 01.09.2022
1955 Clouds 27 1016 83 10000 0.51 0 06:31 01.09.2022
1956 Clouds 28 1016 83 10000 1.54 230 02:33 01.09.2022
1957 Clouds 30 1016 70 10000 2.57 250 01:29 01.09.2022
1958 Clouds 32 1016 66 10000 5.14 210 22:22 31.08.2022
1959 Clouds 32 1017 62 10000 3.09 180 20:27 31.08.2022
1960 Clouds 31 1017 66 10000 2.57 220 18:32 31.08.2022
1961 Clouds 29 1017 74 10000 1.03 0 16:35 31.08.2022
1962 Clouds 29 1017 79 10000 0.51 0 15:18 31.08.2022
1963 Clouds 26 1016 94 10000 1.03 0 12:30 31.08.2022
1964 Clouds 27 1016 89 10000 1.03 0 11:38 31.08.2022
1965 Clouds 26 1016 89 10000 1.03 0 09:25 31.08.2022
1966 Clouds 27 1017 83 10000 1.03 0 06:35 31.08.2022
1967 Clouds 30 1015 70 10000 5.14 120 01:57 31.08.2022
1968 Clouds 31 1016 66 10000 3.09 110 21:49 30.08.2022
1969 Clouds 31 1016 66 10000 3.09 110 21:21 30.08.2022
1970 Clouds 31 1017 66 10000 3.6 110 18:53 30.08.2022
1971 Clouds 29 1018 74 10000 3.6 110 15:43 30.08.2022
1972 Clouds 27 1017 83 10000 4.12 120 13:25 30.08.2022
1973 Clouds 28 1016 78 10000 2.06 110 11:22 30.08.2022
1974 Clouds 28 1016 78 10000 2.57 130 10:57 30.08.2022
1975 Clouds 28 1017 83 10000 2.57 140 08:46 30.08.2022
1976 Clouds 29 1018 79 10000 4.12 150 03:33 30.08.2022
1977 Clouds 31 1016 66 10000 6.69 140 23:28 29.08.2022
1978 Clouds 31 1016 70 10000 6.69 170 22:32 29.08.2022
1979 Clouds 31 1017 70 10000 6.17 170 21:27 29.08.2022
1980 Clouds 31 1017 70 10000 6.17 170 21:27 29.08.2022
1981 Clouds 31 1018 70 10000 5.66 180 20:19 29.08.2022
1982 Clouds 28 1018 83 10000 6.69 160 17:58 29.08.2022
1983 Clouds 28 1018 83 10000 6.69 160 17:25 29.08.2022
1984 Clouds 27 1018 89 10000 3.6 140 16:40 29.08.2022
1985 Rain 26 1017 89 10000 2.57 70 15:18 29.08.2022
1986 Clouds 26 1016 89 10000 3.09 160 13:23 29.08.2022
1987 Clouds 24 1015 94 10000 4.63 190 11:20 29.08.2022
1988 Clouds 25 1015 88 10000 3.09 150 10:19 29.08.2022
1989 Clear 27 1016 83 10000 3.09 140 08:37 29.08.2022
1990 Clouds 28 1016 83 10000 3.09 120 05:35 29.08.2022
1991 Clouds 30 1014 54 10000 4.12 180 00:22 29.08.2022
1992 Clouds 29 1014 65 10000 4.63 140 22:41 28.08.2022
1993 Clear 29 1013 74 10000 5.96 128 21:44 28.08.2022
1994 Rain 27 1016 89 10000 6.69 160 20:55 28.08.2022
1995 Clouds 29 1016 74 10000 5.14 140 19:23 28.08.2022
1996 Rain 27 1017 83 10000 4.12 160 18:20 28.08.2022
1997 Rain 26 1016 89 10000 2.57 210 16:58 28.08.2022
1998 Rain 26 1016 89 10000 2.57 210 16:22 28.08.2022
1999 Clouds 29 1015 79 10000 3.09 120 14:36 28.08.2022
2000 Clouds 26 1014 94 10000 0 0 12:32 28.08.2022
2001 Rain 27 1014 89 10000 2.06 80 10:42 28.08.2022
2002 Clouds 27 1014 89 10000 2.57 90 09:42 28.08.2022
2003 Clouds 27 1015 83 10000 2.57 90 08:37 28.08.2022
2004 Clouds 26 1015 89 10000 2.06 100 07:42 28.08.2022
2005 Clouds 28 1014 74 10000 2.57 110 02:31 28.08.2022
2006 Clouds 29 1014 70 10000 4.63 150 00:25 28.08.2022
2007 Clouds 29 1014 65 10000 2.57 130 22:32 27.08.2022
2008 Clouds 29 1014 68 10000 2.03 106 21:24 27.08.2022
2009 Clouds 26 1017 89 10000 2.57 220 19:39 27.08.2022
2010 Clouds 30 1016 66 10000 3.09 170 16:42 27.08.2022
2011 Clouds 29 1015 66 10000 2.54 130 15:39 27.08.2022
2012 Clouds 29 1015 66 10000 2.54 128 14:35 27.08.2022
2013 Clouds 29 1014 71 10000 3.78 121 12:22 27.08.2022
2014 Clouds 29 1014 72 10000 3.88 119 10:33 27.08.2022
2015 Clouds 29 1014 72 10000 3.62 113 09:40 27.08.2022
2016 Clouds 29 1015 72 10000 3.01 95 06:55 27.08.2022
2017 Clouds 28 1015 74 10000 4.16 86 02:31 27.08.2022
2018 Clouds 30 1014 71 10000 0.89 346 23:53 26.08.2022
2019 Clouds 30 1014 71 10000 0.89 55 22:24 26.08.2022
2020 Clouds 32 1015 63 10000 2.06 340 20:25 26.08.2022
2021 Clouds 30 1018 74 10000 1.03 0 18:59 26.08.2022
2022 Clouds 31 1017 67 10000 3.09 120 16:42 26.08.2022
2023 Clouds 30 1016 71 10000 2.57 100 15:26 26.08.2022
2024 Clouds 27 1016 82 10000 2.57 120 13:26 26.08.2022
2025 Clouds 27 1015 84 10000 1.54 110 12:34 26.08.2022
2026 Clouds 26 1015 85 10000 1.54 80 11:22 26.08.2022
2027 Clouds 26 1015 85 10000 1.03 0 09:59 26.08.2022
2028 Clouds 28 1017 78 10000 3.09 150 04:56 26.08.2022
2029 Clouds 31 1015 67 10000 4.12 140 00:55 26.08.2022
2030 Clouds 32 1016 59 10000 4.12 150 22:45 25.08.2022
2031 Clouds 32 1018 55 10000 4.12 140 20:59 25.08.2022
2032 Clouds 32 1018 62 10000 3.6 90 19:47 25.08.2022
2033 Clouds 32 1018 62 10000 4.12 160 18:36 25.08.2022
2034 Clouds 32 1017 66 10000 3.6 130 17:32 25.08.2022
2035 Clouds 32 1018 62 10000 4.12 170 16:46 25.08.2022
2036 Clouds 31 1017 67 10000 4.12 150 15:37 25.08.2022
2037 Clouds 29 1016 74 10000 2.57 120 14:30 25.08.2022
2038 Clouds 27 1014 81 10000 2.06 180 11:34 25.08.2022
2039 Clouds 27 1015 81 10000 1.54 160 10:45 25.08.2022
2040 Clouds 27 1016 80 10000 2.57 130 07:55 25.08.2022
2041 Clouds 28 1016 75 10000 3.09 120 03:54 25.08.2022
2042 Clouds 31 1015 66 10000 4.63 140 23:38 24.08.2022
2043 Clouds 31 1015 66 10000 4.63 140 23:18 24.08.2022
2044 Clouds 32 1016 66 10000 4.63 160 21:56 24.08.2022
2045 Clouds 32 1016 66 10000 4.63 160 21:30 24.08.2022
2046 Clouds 33 1016 62 10000 4.12 150 19:56 24.08.2022
2047 Clouds 31 1015 65 10000 5.14 160 17:28 24.08.2022
2048 Clouds 31 1015 69 10000 4.63 140 15:54 24.08.2022
2049 Clouds 31 1014 68 10000 4.63 140 15:28 24.08.2022
2050 Clouds 26 1014 85 10000 1.03 0 12:52 24.08.2022
2051 Clear 26 1013 87 10000 0 0 11:19 24.08.2022
2052 Clouds 27 1013 83 10000 1.03 0 08:45 24.08.2022
2053 Clouds 28 1014 77 10000 1.54 70 06:23 24.08.2022
2054 Clouds 30 1012 25 10000 3.09 40 00:53 24.08.2022
2055 Clouds 31 1012 31 10000 3.09 60 22:41 23.08.2022
2056 Clouds 31 1012 36 10000 4.12 50 21:55 23.08.2022
2057 Clouds 32 1013 36 10000 6.17 10 20:47 23.08.2022
2058 Clouds 32 1015 62 10000 4.12 140 19:18 23.08.2022
2059 Clouds 31 1015 66 10000 4.63 140 17:59 23.08.2022
2060 Clouds 31 1015 66 10000 4.63 140 17:22 23.08.2022
2061 Clouds 31 1013 71 10000 4.63 140 16:24 23.08.2022
2062 Clouds 29 1013 77 10000 2.57 110 14:30 23.08.2022
2063 Clouds 27 1012 82 10000 1.54 100 12:46 23.08.2022
2064 Clouds 27 1012 83 10000 1.54 90 10:57 23.08.2022
2065 Clear 27 1013 82 10000 0.45 32 10:33 23.08.2022
2066 Clouds 27 1013 84 10000 1.54 60 08:58 23.08.2022
2067 Clouds 27 1013 84 10000 1.54 60 08:38 23.08.2022
2068 Clouds 27 1013 85 10000 1.54 60 08:18 23.08.2022
2069 Clouds 27 1014 79 10000 2.06 110 07:25 23.08.2022
2070 Clouds 28 1015 78 10000 1.54 60 06:22 23.08.2022
2071 Clouds 29 1013 76 10000 1.03 0 01:44 23.08.2022
2072 Clouds 30 1013 70 10000 1.54 300 00:26 23.08.2022
2073 Clouds 27 1015 89 10000 2.06 250 23:32 22.08.2022
2074 Clouds 30 1015 70 10000 2.06 120 22:19 22.08.2022
2075 Clouds 26 1016 94 10000 3.6 120 20:29 22.08.2022
2076 Clouds 30 1017 70 10000 4.12 70 19:41 22.08.2022
2077 Clouds 30 1017 79 10000 4.12 50 18:36 22.08.2022
2078 Clouds 31 1016 71 10000 3.09 100 15:45 22.08.2022
2079 Clouds 29 1015 73 10000 3.09 100 15:18 22.08.2022
2080 Clouds 27 1014 84 10000 1.54 80 11:39 22.08.2022
2081 Clear 27 1015 84 10000 0.89 333 09:24 22.08.2022
2082 Clouds 26 1016 86 10000 4.12 110 05:44 22.08.2022
2083 Clouds 30 1016 71 10000 5.14 100 00:56 22.08.2022
2084 Clouds 30 1016 72 10000 5.14 100 00:36 22.08.2022
2085 Clouds 31 1018 66 10000 5.66 90 22:57 21.08.2022
2086 Clouds 32 1018 58 10000 5.66 100 21:50 21.08.2022
2087 Clouds 32 1018 58 10000 5.66 100 21:18 21.08.2022
2088 Clouds 31 1019 66 10000 5.66 120 19:40 21.08.2022
2089 Clouds 31 1020 70 10000 5.14 120 18:28 21.08.2022
2090 Clouds 31 1018 69 10000 5.66 110 16:29 21.08.2022
2091 Clouds 31 1018 73 10000 4.63 100 15:46 21.08.2022
2092 Clouds 30 1018 74 10000 2.06 90 14:35 21.08.2022
2093 Clouds 29 1018 76 10000 2.57 80 13:43 21.08.2022
2094 Clouds 28 1017 78 10000 1.54 80 12:47 21.08.2022
2095 Clouds 28 1016 80 10000 1.34 280 09:56 21.08.2022
2096 Clouds 28 1017 80 10000 0.89 313 08:56 21.08.2022
2097 Clouds 27 1017 82 10000 2.57 110 08:38 21.08.2022
2098 Clouds 28 1018 79 10000 2.57 90 07:28 21.08.2022
2099 Clouds 29 1018 74 10000 4.63 90 04:26 21.08.2022
2100 Clouds 30 1017 74 10000 4.63 90 00:53 21.08.2022
2101 Clouds 32 1017 66 10000 5.66 70 22:59 20.08.2022
2102 Clouds 32 1019 62 10000 5.14 140 21:45 20.08.2022
2103 Clouds 33 1020 58 10000 5.66 140 20:48 20.08.2022
2104 Clouds 32 1020 66 10000 6.17 130 19:41 20.08.2022
2105 Clouds 32 1019 66 10000 6.69 120 18:35 20.08.2022
2106 Clouds 32 1019 68 10000 6.69 120 17:58 20.08.2022
2107 Clouds 32 1019 67 10000 6.69 120 17:18 20.08.2022
2108 Clouds 31 1019 69 10000 6.69 120 15:50 20.08.2022
2109 Clouds 28 1018 82 10000 4.12 120 13:39 20.08.2022
2110 Clouds 28 1018 82 10000 2.57 90 11:53 20.08.2022
2111 Clouds 28 1017 85 10000 4.12 110 10:36 20.08.2022
2112 Clouds 28 1017 83 10000 3.09 100 08:53 20.08.2022
2113 Clouds 29 1018 78 10000 4.12 110 05:58 20.08.2022
2114 Clouds 29 1017 76 10000 4.12 120 03:28 20.08.2022
2115 Clouds 31 1016 72 10000 4.63 120 00:51 20.08.2022
2116 Clouds 32 1016 66 10000 4.12 140 23:19 19.08.2022
2117 Clouds 32 1016 62 10000 6.17 140 22:35 19.08.2022
2118 Clouds 32 1017 73 10000 5.66 90 20:28 19.08.2022
2119 Clouds 32 1018 68 10000 5.14 140 18:28 19.08.2022
2120 Clouds 30 1016 72 10000 6.17 130 15:21 19.08.2022
2121 Clouds 28 1016 82 10000 4.12 140 13:26 19.08.2022
2122 Clear 27 1015 85 10000 5.94 115 10:55 19.08.2022
2123 Clear 26 1015 88 10000 5.46 115 10:24 19.08.2022
2124 Clouds 27 1017 81 10000 2.06 210 06:37 19.08.2022
2125 Clouds 29 1014 75 10000 3.6 180 00:57 19.08.2022
2126 Clouds 30 1015 74 10000 3.6 180 00:28 19.08.2022
2127 Clouds 32 1015 68 10000 2.06 90 23:38 18.08.2022
2128 Clouds 32 1016 58 10000 3.6 160 22:49 18.08.2022
2129 Clouds 32 1016 62 10000 3.6 200 21:55 18.08.2022
2130 Clouds 32 1016 62 10000 3.6 200 21:26 18.08.2022
2131 Clouds 31 1016 66 10000 4.12 210 19:56 18.08.2022
2132 Clouds 31 1016 66 10000 4.12 210 19:26 18.08.2022
2133 Clouds 31 1015 65 10000 4.12 230 17:50 18.08.2022
2134 Clouds 31 1015 73 10000 3.09 210 16:55 18.08.2022
2135 Clouds 28 1015 85 10000 1.03 0 14:44 18.08.2022
2136 Clouds 28 1015 88 10000 1.03 0 14:19 18.08.2022
2137 Clear 26 1015 89 10000 0 0 12:55 18.08.2022
2138 Clear 26 1015 89 10000 0.51 0 11:31 18.08.2022
2139 Clear 26 1016 89 10000 1.54 200 09:43 18.08.2022
2140 Clear 26 1016 89 10000 0 0 08:37 18.08.2022
2141 Clear 27 1016 83 10000 0 0 07:18 18.08.2022
2142 Clouds 28 1017 78 10000 1.03 0 03:53 18.08.2022
2143 Rain 27 1014 87 10000 5.14 50 23:30 17.08.2022
2144 Clouds 32 1015 64 10000 2.57 230 21:39 17.08.2022
2145 Clouds 32 1016 58 10000 3.09 210 19:59 17.08.2022
2146 Clouds 32 1016 58 10000 3.09 210 19:28 17.08.2022
2147 Clouds 32 1016 69 10000 4.63 230 17:32 17.08.2022
2148 Clouds 31 1016 71 10000 5.14 230 16:21 17.08.2022
2149 Clouds 29 1015 78 10000 3.6 240 15:18 17.08.2022
2150 Clouds 29 1014 73 10000 5.31 189 12:52 17.08.2022
2151 Clouds 29 1014 73 10000 5.09 173 11:36 17.08.2022
2152 Clouds 29 1014 73 10000 4.1 159 09:31 17.08.2022
2153 Clear 29 1014 72 10000 2.18 142 07:36 17.08.2022
2154 Clouds 29 1014 75 10000 3.09 220 02:21 17.08.2022
2155 Clouds 31 1013 68 10000 5.66 190 23:45 16.08.2022
2156 Clouds 32 1015 58 10000 4.63 210 21:52 16.08.2022
2157 Clouds 33 1016 58 10000 3.6 200 20:26 16.08.2022
2158 Clouds 32 1016 58 10000 4.12 230 19:40 16.08.2022
2159 Clouds 32 1016 58 10000 4.12 210 18:23 16.08.2022
2160 Clouds 31 1015 64 10000 4.12 240 17:28 16.08.2022
2161 Clouds 29 1014 73 10000 3.09 250 15:46 16.08.2022
2162 Clouds 28 1014 82 10000 1.54 250 14:55 16.08.2022
2163 Clouds 27 1014 85 10000 0.45 126 14:37 16.08.2022
2164 Clouds 26 1013 92 10000 4.92 210 12:41 16.08.2022
2165 Clouds 25 1013 93 10000 3.92 174 10:29 16.08.2022
2166 Clouds 26 1014 89 10000 0.51 0 09:31 16.08.2022
2167 Clouds 26 1014 94 10000 1.03 0 08:26 16.08.2022
2168 Clouds 26 1015 94 10000 0.51 0 07:23 16.08.2022
2169 Clouds 28 1013 75 10000 1.54 210 01:23 16.08.2022
2170 Clouds 30 1013 69 10000 2.57 40 22:29 15.08.2022
2171 Clouds 31 1013 71 10000 2.06 0 21:51 15.08.2022
2172 Clouds 29 1014 86 10000 3.6 290 20:39 15.08.2022
2173 Clouds 29 1014 76 10000 3.6 280 20:00 15.08.2022
2174 Clouds 32 1015 58 10000 3.6 280 18:20 15.08.2022
2175 Clouds 31 1014 67 10000 3.09 230 16:26 15.08.2022
2176 Clouds 30 1014 76 10000 1.03 0 15:55 15.08.2022
2177 Clouds 26 1013 92 10000 0.51 0 13:54 15.08.2022
2178 Clouds 24 1014 94 10000 0 0 12:24 15.08.2022
2179 Clouds 25 1014 94 10000 0 0 09:54 15.08.2022
2180 Clouds 26 1016 89 10000 0.51 0 07:49 15.08.2022
2181 Clouds 26 1015 86 10000 1.54 220 04:35 15.08.2022
2182 Clouds 29 1014 67 10000 2.06 240 00:54 15.08.2022
2183 Clouds 31 1013 66 10000 3.6 210 22:38 14.08.2022
2184 Clouds 29 1016 74 10000 3.6 190 21:37 14.08.2022
2185 Clouds 31 1017 70 10000 4.12 180 19:48 14.08.2022
2186 Clouds 30 1015 72 10000 1.79 28 18:57 14.08.2022
2187 Clouds 29 1016 73 10000 0.51 0 18:18 14.08.2022
2188 Clouds 30 1016 71 10000 1.54 0 16:50 14.08.2022
2189 Clouds 29 1015 71 10000 3.09 140 15:48 14.08.2022
2190 Clouds 28 1015 78 10000 3.09 130 14:19 14.08.2022
2191 Clouds 27 1015 81 10000 1.54 240 13:49 14.08.2022
2192 Clouds 25 1015 94 10000 1.54 240 13:18 14.08.2022
2193 Clouds 26 1015 89 10000 0 0 11:50 14.08.2022
2194 Clouds 28 1014 69 10000 2.97 130 10:40 14.08.2022
2195 Clouds 25 1016 94 10000 0 0 08:50 14.08.2022
2196 Clouds 27 1017 83 10000 0 0 06:21 14.08.2022
2197 Clouds 27 1016 77 10000 1.8 95 02:46 14.08.2022
2198 Clouds 29 1015 67 10000 0.89 328 23:36 13.08.2022
2199 Clouds 29 1016 70 10000 0.89 9 22:28 13.08.2022
2200 Clouds 31 1018 66 10000 5.14 170 20:58 13.08.2022
2201 Clouds 31 1018 66 10000 5.14 170 20:19 13.08.2022
2202 Clouds 31 1017 66 10000 2.24 333 19:24 13.08.2022
2203 Clouds 31 1017 64 10000 4.12 130 17:36 13.08.2022
2204 Clouds 29 1016 65 10000 3.6 150 15:23 13.08.2022
2205 Clouds 28 1016 74 10000 2.06 130 14:24 13.08.2022
2206 Clouds 26 1016 85 10000 0 0 13:38 13.08.2022
2207 Clouds 26 1017 83 10000 0.51 0 11:51 13.08.2022
2208 Clouds 26 1016 83 10000 3.09 120 09:50 13.08.2022
2209 Clouds 26 1016 81 10000 2.57 140 07:51 13.08.2022
2210 Clouds 28 1016 75 10000 3.09 110 02:56 13.08.2022
2211 Clouds 31 1015 66 10000 5.66 140 23:46 12.08.2022
2212 Clouds 32 1017 58 10000 5.14 130 21:40 12.08.2022
2213 Clouds 31 1017 66 10000 5.14 160 19:51 12.08.2022
2214 Clouds 31 1017 61 10000 5.14 160 19:26 12.08.2022
2215 Clouds 31 1019 66 10000 4.12 150 18:34 12.08.2022
2216 Clear 31 1018 70 10000 0.89 313 16:28 12.08.2022
2217 Clear 29 1017 77 10000 0.89 291 15:23 12.08.2022
2218 Clear 26 1017 87 10000 1.54 110 13:56 12.08.2022
2219 Clouds 27 1017 79 10000 1.54 80 12:51 12.08.2022
2220 Clear 26 1017 83 10000 0.45 351 09:28 12.08.2022
2221 Clear 27 1017 81 10000 0.45 343 07:47 12.08.2022
2222 Clear 27 1017 81 10000 0.89 301 06:25 12.08.2022
2223 Clouds 29 1018 70 10000 4.63 90 01:45 12.08.2022
2224 Clouds 30 1017 66 10000 5.14 80 00:20 12.08.2022
2225 Clouds 30 1018 70 10000 4.63 70 23:29 11.08.2022
2226 Clouds 32 1018 55 10000 5.14 50 21:57 11.08.2022
2227 Clouds 32 1018 55 10000 5.14 50 21:34 11.08.2022
2228 Clouds 32 1019 51 10000 5.66 110 20:31 11.08.2022
2229 Clouds 32 1019 58 10000 6.17 110 19:53 11.08.2022
2230 Clouds 32 1019 58 10000 6.17 110 19:29 11.08.2022
2231 Clouds 30 1023 62 10000 5.66 100 17:34 11.08.2022
2232 Clear 28 1019 68 10000 6.31 86 16:19 11.08.2022
2233 Clouds 29 1020 74 10000 3.6 90 15:20 11.08.2022
2234 Clouds 27 1019 78 10000 2.06 110 12:39 11.08.2022
2235 Clouds 28 1020 78 10000 6.33 86 09:29 11.08.2022
2236 Clouds 28 1020 78 10000 3.09 100 06:59 11.08.2022
2237 Clouds 28 1020 74 10000 3.6 100 03:25 11.08.2022
2238 Clouds 31 1020 66 10000 5.66 90 00:28 11.08.2022
2239 Clouds 33 1021 55 10000 5.14 70 22:18 10.08.2022
2240 Clouds 28 1020 77 10000 6.43 94 21:20 10.08.2022
2241 Clouds 32 1022 62 10000 5.14 110 20:43 10.08.2022
2242 Clouds 31 1023 66 10000 5.66 110 18:53 10.08.2022
2243 Clouds 31 1023 66 10000 5.66 100 17:31 10.08.2022
2244 Clouds 30 1022 70 10000 5.66 110 15:53 10.08.2022
2245 Clouds 28 1021 78 10000 2.57 100 13:34 10.08.2022
2246 Clouds 28 1021 78 10000 2.06 120 12:24 10.08.2022
2247 Clouds 28 1021 83 10000 3.6 120 08:45 10.08.2022
2248 Clouds 28 1021 83 10000 4.12 120 07:44 10.08.2022
2249 Clouds 29 1021 79 10000 5.14 120 05:53 10.08.2022
2250 Clouds 29 1020 79 10000 5.66 120 02:44 10.08.2022
2251 Clouds 31 1018 66 10000 7.72 130 23:33 09.08.2022
2252 Clear 29 1019 75 10000 7.76 107 22:48 09.08.2022
2253 Clouds 32 1018 69 10000 7.72 130 21:34 09.08.2022
2254 Clouds 31 1021 62 10000 8.75 130 19:33 09.08.2022
2255 Clouds 31 1021 70 10000 8.75 130 17:59 09.08.2022
2256 Clouds 31 1020 73 10000 8.75 130 17:26 09.08.2022
2257 Clouds 31 1020 74 10000 7.72 120 16:33 09.08.2022
2258 Clouds 30 1019 74 10000 7.72 120 15:26 09.08.2022
2259 Clouds 28 1018 79 10000 8.89 99 12:20 09.08.2022
2260 Clouds 28 1018 81 10000 5.14 120 08:55 09.08.2022
2261 Clouds 28 1018 80 10000 5.14 120 08:26 09.08.2022
2262 Clouds 28 1019 79 10000 5.14 120 07:18 09.08.2022
2263 Clouds 29 1017 77 10000 5.66 120 02:27 09.08.2022
2264 Clear 30 1017 73 10000 7.11 100 23:26 08.08.2022
2265 Clear 31 1017 72 10000 7.11 100 22:52 08.08.2022
2266 Clouds 31 1018 66 10000 5.66 110 21:47 08.08.2022
2267 Clouds 32 1017 70 10000 6.17 110 20:43 08.08.2022
2268 Clouds 32 1018 69 10000 6.17 110 19:41 08.08.2022
2269 Clouds 31 1019 71 10000 7.54 97 18:19 08.08.2022
2270 Clouds 31 1018 69 10000 4.63 110 15:55 08.08.2022
2271 Clouds 30 1018 71 10000 4.63 110 15:37 08.08.2022
2272 Clouds 27 1018 78 10000 4.12 140 12:31 08.08.2022
2273 Clouds 27 1018 79 10000 2.57 100 10:37 08.08.2022
2274 Clouds 27 1018 78 10000 3.09 130 07:59 08.08.2022
2275 Clouds 28 1019 76 10000 4.12 110 04:31 08.08.2022
2276 Clouds 29 1019 70 10000 5.66 100 00:33 08.08.2022
2277 Clouds 32 1019 62 10000 6.17 110 21:42 07.08.2022
2278 Clouds 28 1019 73 10000 6.49 90 21:19 07.08.2022
2279 Clouds 31 1020 62 10000 5.66 120 20:23 07.08.2022
2280 Clouds 31 1019 68 10000 5.14 110 19:52 07.08.2022
2281 Clouds 31 1019 69 10000 5.14 110 19:22 07.08.2022
2282 Clouds 31 1020 67 10000 6.64 97 17:31 07.08.2022
2283 Clouds 31 1020 69 10000 5.14 120 16:52 07.08.2022
2284 Clouds 30 1019 71 10000 6.82 100 15:39 07.08.2022
2285 Clouds 28 1019 73 10000 3.09 110 13:58 07.08.2022
2286 Clear 27 1018 75 10000 0.45 108 12:41 07.08.2022
2287 Clear 27 1018 73 10000 0.89 29 10:50 07.08.2022
2288 Clear 27 1018 76 10000 1.34 11 10:20 07.08.2022
2289 Clear 28 1019 79 10000 1.34 86 04:37 07.08.2022
2290 Clouds 27 1018 85 10000 3.6 70 02:18 07.08.2022
2291 Clear 31 1018 63 10000 1.79 74 22:34 06.08.2022
2292 Clear 31 1018 66 10000 1.34 298 21:52 06.08.2022
2293 Clouds 31 1019 68 10000 7.72 100 19:46 06.08.2022
2294 Clear 31 1019 66 10000 1.79 10 18:38 06.08.2022
2295 Clouds 31 1020 73 10000 7.2 110 17:45 06.08.2022
2296 Clouds 30 1020 73 10000 6.17 120 16:19 06.08.2022
2297 Clouds 28 1019 80 10000 3.6 90 13:51 06.08.2022
2298 Clouds 27 1018 83 10000 7.72 120 12:21 06.08.2022
2299 Clouds 27 1018 82 10000 3.6 100 10:40 06.08.2022
2300 Clouds 28 1018 78 10000 2.06 90 09:24 06.08.2022
2301 Clear 28 1019 1 10000 8.74 98 03:56 06.08.2022
2302 Clouds 29 1018 3 10000 6.17 110 00:27 06.08.2022
2303 Clouds 32 1018 46 10000 4.12 100 22:34 05.08.2022
2304 Clear 32 1019 69 10000 1.79 75 20:30 05.08.2022
2305 Clear 31 1019 69 10000 1.34 346 18:53 05.08.2022
2306 Clear 31 1019 69 10000 2.24 74 18:35 05.08.2022
2307 Clouds 31 1019 69 10000 4.63 150 16:51 05.08.2022
2308 Clouds 27 1019 80 10000 7.2 120 15:23 05.08.2022
2309 Clouds 28 1018 79 10000 2.57 110 14:34 05.08.2022
2310 Clouds 27 1018 81 10000 2.57 90 13:26 05.08.2022
2311 Clouds 27 1017 84 10000 3.09 80 12:45 05.08.2022
2312 Clear 28 1017 73 10000 7.07 112 10:59 05.08.2022
2313 Clouds 25 1019 94 10000 1.03 0 08:45 05.08.2022
2314 Clouds 26 1019 83 10000 6.17 130 07:33 05.08.2022
2315 Clouds 28 1016 75 10000 5.66 120 01:52 05.08.2022
2316 Clear 29 1016 69 10000 0.45 38 22:40 04.08.2022
2317 Clear 28 1017 83 10000 0.45 24 21:27 04.08.2022
2318 Clouds 32 1019 55 10000 6.17 140 20:45 04.08.2022
2319 Clouds 31 1018 67 10000 0.89 20 19:58 04.08.2022
2320 Clouds 31 1018 67 10000 5.14 140 18:52 04.08.2022
2321 Clouds 31 1018 66 10000 5.14 140 18:32 04.08.2022
2322 Clouds 29 1018 77 10000 2.06 100 14:45 04.08.2022
2323 Clouds 26 1017 85 10000 4.39 112 13:22 04.08.2022
2324 Clouds 26 1017 85 10000 0.51 0 11:38 04.08.2022
2325 Clear 26 1016 86 10000 3.26 120 09:58 04.08.2022
2326 Clouds 27 1017 82 10000 1.03 0 07:31 04.08.2022
2327 Clouds 27 1016 83 10000 3.6 130 02:42 04.08.2022
2328 Clouds 29 1015 70 10000 5.14 130 23:52 03.08.2022
2329 Clouds 31 1015 66 10000 5.14 130 23:33 03.08.2022
2330 Clouds 31 1016 65 10000 5.66 120 21:26 03.08.2022
2331 Clouds 31 1018 62 10000 5.66 110 20:19 03.08.2022
2332 Clouds 31 1017 67 10000 6.17 110 18:40 03.08.2022
2333 Clouds 30 1017 68 10000 5.14 110 16:27 03.08.2022
2334 Clouds 31 1017 69 10000 4.63 110 15:53 03.08.2022
2335 Clouds 27 1017 75 10000 2.06 90 13:32 03.08.2022
2336 Clouds 27 1016 76 10000 4.84 75 09:55 03.08.2022
2337 Clear 28 1017 73 10000 0.45 85 06:46 03.08.2022
2338 Clear 28 1018 74 10000 2.06 80 04:22 03.08.2022
2339 Clear 28 1017 78 10000 0.45 5 02:35 03.08.2022
2340 Clear 30 1017 71 10000 0.45 325 23:54 02.08.2022
2341 Clouds 31 1017 62 10000 3.6 140 21:59 02.08.2022
2342 Clouds 31 1019 62 10000 3.6 140 21:41 02.08.2022
2343 Clear 28 1019 70 10000 3.89 68 20:25 02.08.2022
2344 Clouds 30 1019 68 10000 4.12 130 16:51 02.08.2022
2345 Clouds 28 1019 75 10000 2.06 90 13:54 02.08.2022
2346 Clouds 28 1018 78 10000 1.54 70 10:34 02.08.2022
2347 Clouds 27 1019 79 10000 1.54 80 08:29 02.08.2022
2348 Clouds 27 1019 77 10000 1.54 80 07:50 02.08.2022
2349 Clouds 28 1020 78 10000 0.45 22 04:56 02.08.2022
2350 Clouds 28 1019 79 10000 4.63 90 02:20 02.08.2022
2351 Clouds 31 1019 70 10000 5.14 110 23:23 01.08.2022
2352 Clouds 31 1020 70 10000 5.66 110 21:37 01.08.2022
2353 Clouds 32 1022 62 10000 5.66 110 20:19 01.08.2022
2354 Clouds 32 1021 69 10000 6.17 130 18:55 01.08.2022
2355 Clouds 31 1021 73 10000 5.66 130 16:56 01.08.2022
2356 Clouds 30 1021 76 10000 5.66 130 16:33 01.08.2022
2357 Clouds 29 1021 76 10000 5.66 120 15:44 01.08.2022
2358 Clouds 29 1021 76 10000 4.12 110 14:45 01.08.2022
2359 Clouds 28 1020 80 10000 3.6 110 13:32 01.08.2022
2360 Clouds 28 1020 81 10000 2.57 120 10:48 01.08.2022
2361 Clouds 28 1021 80 10000 4.63 120 08:53 01.08.2022
2362 Clouds 28 1021 80 10000 5.14 120 06:51 01.08.2022
2363 Clouds 28 1021 79 10000 5.66 120 04:31 01.08.2022
2364 Clouds 28 1020 80 10000 6.69 90 01:23 01.08.2022
2365 Clouds 31 1020 71 10000 5.66 90 22:44 31.07.2022
2366 Clouds 31 1022 70 10000 5.66 90 22:25 31.07.2022
2367 Clouds 32 1021 71 10000 6.17 120 20:28 31.07.2022
2368 Clouds 31 1021 74 10000 6.69 120 18:39 31.07.2022
2369 Clouds 31 1022 70 10000 0.89 360 16:26 31.07.2022
2370 Clouds 29 1021 74 10000 0.45 117 14:33 31.07.2022
2371 Clouds 27 1021 77 10000 1.34 49 12:55 31.07.2022
2372 Clouds 27 1020 78 10000 0.89 64 11:37 31.07.2022
2373 Clouds 28 1020 78 10000 3.6 120 08:46 31.07.2022
2374 Clouds 28 1021 75 10000 5.14 120 05:20 31.07.2022
2375 Clouds 29 1019 71 10000 5.14 90 01:20 31.07.2022
2376 Clouds 31 1019 60 10000 6.17 130 22:40 30.07.2022
2377 Clouds 31 1020 64 10000 6.17 130 21:50 30.07.2022
2378 Clouds 31 1020 72 10000 6.17 130 21:24 30.07.2022
2379 Clouds 31 1021 68 10000 6.69 130 20:28 30.07.2022
2380 Clouds 31 1021 67 10000 6.17 120 19:42 30.07.2022
2381 Clouds 31 1021 65 10000 6.17 120 17:52 30.07.2022
2382 Clouds 30 1021 71 10000 7.2 120 16:37 30.07.2022
2383 Clouds 29 1020 71 10000 5.66 110 15:29 30.07.2022
2384 Clouds 27 1020 79 10000 0.89 50 13:22 30.07.2022
2385 Clouds 27 1019 77 10000 3.6 110 12:21 30.07.2022
2386 Clouds 27 1019 77 10000 1.34 17 10:45 30.07.2022
2387 Clouds 27 1019 78 10000 0.89 240 09:59 30.07.2022
2388 Clouds 27 1019 77 10000 1.34 35 08:49 30.07.2022
2389 Clouds 27 1020 76 10000 0.89 66 06:50 30.07.2022
2390 Clouds 28 1019 72 10000 1.34 48 02:33 30.07.2022
2391 Clouds 31 1018 68 10000 6.17 130 22:57 29.07.2022
2392 Clouds 31 1018 65 10000 6.69 130 21:36 29.07.2022
2393 Clouds 31 1019 64 10000 6.69 140 20:50 29.07.2022
2394 Clouds 31 1019 65 10000 6.69 130 19:34 29.07.2022
2395 Clouds 30 1020 69 10000 5.66 120 16:44 29.07.2022
2396 Clouds 28 1019 75 10000 4.12 110 14:23 29.07.2022
2397 Clouds 27 1018 78 10000 2.57 90 12:32 29.07.2022
2398 Clouds 27 1018 77 10000 4.12 120 08:51 29.07.2022
2399 Clouds 27 1018 74 10000 4.12 120 08:21 29.07.2022
2400 Clouds 28 1019 77 10000 4.12 110 03:55 29.07.2022
2401 Clouds 30 1018 69 10000 7.2 80 23:30 28.07.2022
2402 Clouds 30 1018 72 10000 6.17 80 21:31 28.07.2022
2403 Clouds 30 1020 70 10000 6.17 90 20:50 28.07.2022
2404 Clear 28 1019 75 10000 6.59 79 19:58 28.07.2022
2405 Clear 28 1019 75 10000 7 82 19:26 28.07.2022
2406 Clouds 31 1019 67 10000 5.66 100 17:45 28.07.2022
2407 Clouds 31 1019 66 10000 5.66 100 17:20 28.07.2022
2408 Clouds 30 1019 72 10000 5.14 110 16:40 28.07.2022
2409 Clear 28 1018 80 10000 0.45 82 13:56 28.07.2022
2410 Clear 27 1018 77 10000 1.34 5 12:33 28.07.2022
2411 Clear 28 1019 78 10000 0.45 344 07:33 28.07.2022
2412 Clear 28 1020 79 10000 0.89 335 05:37 28.07.2022
2413 Clear 28 1020 77 10000 0.89 331 05:18 28.07.2022
2414 Clouds 31 1020 66 10000 4.63 90 23:19 27.07.2022
2415 Clouds 31 1020 62 10000 5.14 130 21:30 27.07.2022
2416 Clouds 31 1021 66 10000 6.69 140 19:46 27.07.2022
2417 Clouds 31 1021 62 10000 7.2 130 18:49 27.07.2022
2418 Clouds 30 1020 66 10000 6.69 130 16:31 27.07.2022
2419 Clouds 29 1020 74 10000 7.2 130 15:41 27.07.2022
2420 Clouds 28 1020 78 10000 5.14 120 14:41 27.07.2022
2421 Clouds 27 1020 83 10000 3.6 110 13:34 27.07.2022
2422 Clouds 28 1019 78 10000 7.77 111 09:28 27.07.2022
2423 Clouds 29 1019 77 10000 8.14 108 07:40 27.07.2022
2424 Clouds 28 1020 83 10000 3.6 150 02:52 27.07.2022
2425 Clouds 30 1019 74 10000 7.72 140 22:47 26.07.2022
2426 Clouds 29 1019 79 10000 5.66 130 21:36 26.07.2022
2427 Clouds 27 1020 83 10000 3.6 120 20:49 26.07.2022
2428 Thunderstorm 24 1023 94 10000 2.06 210 18:46 26.07.2022
2429 Thunderstorm 24 1023 94 10000 2.06 210 18:28 26.07.2022
2430 Thunderstorm 24 1021 94 9000 6.69 180 16:54 26.07.2022
2431 Rain 24 1020 88 9000 3.6 130 15:43 26.07.2022
2432 Clouds 27 1020 83 10000 3.6 120 13:59 26.07.2022
2433 Clouds 26 1018 83 10000 3.09 110 11:40 26.07.2022
2434 Clouds 28 1019 83 10000 5.14 120 09:35 26.07.2022
2435 Clouds 28 1020 83 10000 5.66 110 07:56 26.07.2022
2436 Rain 28 1018 83 10000 4.63 120 01:21 26.07.2022
2437 Clouds 31 1018 66 10000 7.2 130 23:33 25.07.2022
2438 Clouds 31 1019 62 10000 7.2 130 22:33 25.07.2022
2439 Clouds 31 1019 66 10000 8.75 130 21:43 25.07.2022
2440 Clouds 31 1019 70 10000 8.23 140 20:42 25.07.2022
2441 Clouds 30 1020 70 10000 6.69 140 19:51 25.07.2022
2442 Clouds 30 1020 70 10000 6.69 120 18:23 25.07.2022
2443 Clouds 30 1020 70 10000 6.69 130 17:33 25.07.2022
2444 Clouds 29 1019 74 10000 6.17 110 15:37 25.07.2022
2445 Clouds 27 1018 78 10000 2.57 100 12:33 25.07.2022
2446 Clouds 26 1018 83 10000 3.09 100 10:38 25.07.2022
2447 Clouds 27 1019 83 10000 4.12 110 06:51 25.07.2022
2448 Clouds 30 1019 66 10000 5.66 100 23:56 24.07.2022
2449 Clouds 30 1019 66 10000 5.66 100 23:19 24.07.2022
2450 Clouds 31 1019 58 10000 5.66 110 22:35 24.07.2022
2451 Clouds 28 1020 78 10000 3.6 90 21:30 24.07.2022
2452 Clouds 31 1020 62 10000 6.17 110 20:56 24.07.2022
2453 Clouds 28 1019 72 10000 7.6 100 20:29 24.07.2022
2454 Clouds 31 1020 62 10000 6.17 110 18:57 24.07.2022
2455 Clouds 30 1020 70 10000 6.17 110 16:48 24.07.2022
2456 Clouds 29 1020 74 10000 5.66 110 15:51 24.07.2022
2457 Clouds 28 1019 78 10000 3.09 110 14:40 24.07.2022
2458 Clouds 27 1019 78 10000 2.57 100 12:55 24.07.2022
2459 Clouds 27 1019 78 10000 2.57 100 12:18 24.07.2022
2460 Clouds 26 1019 73 10000 4.63 120 11:26 24.07.2022
2461 Clouds 27 1020 83 10000 3.09 100 08:56 24.07.2022
2462 Clouds 28 1020 74 10000 3.09 90 07:52 24.07.2022
2463 Clouds 28 1021 78 10000 3.09 90 06:27 24.07.2022
2464 Clouds 30 1019 70 10000 4.63 110 01:50 24.07.2022
2465 Clouds 29 1018 71 10000 6.67 97 22:25 23.07.2022
2466 Clouds 32 1020 58 10000 6.69 130 20:31 23.07.2022
2467 Clouds 31 1021 62 10000 6.17 120 18:51 23.07.2022
2468 Clouds 31 1021 62 10000 6.17 120 17:41 23.07.2022
2469 Clouds 31 1021 62 10000 6.17 120 17:23 23.07.2022
2470 Clouds 29 1020 74 10000 5.66 110 15:32 23.07.2022
2471 Clouds 29 1020 70 10000 3.6 110 14:59 23.07.2022
2472 Clouds 29 1020 70 10000 3.6 110 14:30 23.07.2022
2473 Clouds 27 1020 83 10000 2.57 70 13:39 23.07.2022
2474 Clouds 27 1020 83 10000 2.57 90 11:18 23.07.2022
2475 Clouds 27 1019 83 10000 2.57 100 10:22 23.07.2022
2476 Clouds 28 1020 74 10000 3.6 120 08:50 23.07.2022
2477 Clouds 29 1020 79 10000 3.6 110 03:40 23.07.2022
2478 Clouds 30 1019 70 10000 5.14 130 01:58 23.07.2022
2479 Clouds 31 1019 66 10000 5.14 140 23:19 22.07.2022
2480 Clouds 31 1020 66 10000 7.2 140 20:57 22.07.2022
2481 Clouds 31 1020 66 10000 7.2 140 19:46 22.07.2022
2482 Clouds 29 1020 73 10000 6.39 118 18:28 22.07.2022
2483 Clouds 31 1020 66 10000 6.17 120 17:28 22.07.2022
2484 Clouds 29 1019 74 10000 4.12 140 14:55 22.07.2022
2485 Clouds 27 1018 83 10000 5.14 130 11:36 22.07.2022
2486 Clouds 28 1017 75 10000 7.81 121 09:26 22.07.2022
2487 Clouds 25 1018 78 10000 7.2 130 08:37 22.07.2022
2488 Clouds 26 1019 89 10000 5.66 110 06:59 22.07.2022
2489 Clouds 29 1018 79 10000 5.14 110 02:25 22.07.2022
2490 Clouds 30 1018 74 10000 5.66 160 22:43 21.07.2022
2491 Clouds 31 1018 70 10000 5.66 160 21:33 21.07.2022
2492 Clouds 30 1019 79 10000 3.6 190 19:27 21.07.2022
2493 Clouds 30 1019 70 10000 7.72 150 17:41 21.07.2022
2494 Clouds 30 1019 70 10000 7.72 150 17:19 21.07.2022
2495 Clouds 30 1019 70 10000 7.72 150 17:19 21.07.2022
2496 Clouds 28 1018 78 10000 4.63 130 14:55 21.07.2022
2497 Clouds 28 1018 78 10000 4.63 130 14:31 21.07.2022
2498 Clouds 28 1017 74 10000 4.63 130 12:28 21.07.2022
2499 Clouds 28 1017 78 10000 3.09 120 11:19 21.07.2022
2500 Clouds 28 1017 78 10000 3.6 120 09:33 21.07.2022
2501 Clouds 28 1018 78 10000 3.09 100 08:50 21.07.2022
2502 Clouds 28 1018 74 10000 3.6 110 07:42 21.07.2022
2503 Clouds 28 1019 78 10000 3.09 110 04:46 21.07.2022
2504 Clouds 31 1017 66 10000 5.66 150 00:36 21.07.2022
2505 Clouds 31 1018 62 10000 4.63 140 22:22 20.07.2022
2506 Clouds 31 1019 66 10000 5.66 140 20:54 20.07.2022
2507 Clouds 29 1018 69 10000 5.84 104 19:52 20.07.2022
2508 Clouds 29 1018 69 10000 5.96 105 19:24 20.07.2022
2509 Clouds 31 1020 62 10000 5.66 140 18:33 20.07.2022
2510 Clouds 31 1020 66 10000 5.66 150 17:55 20.07.2022
2511 Clouds 30 1019 70 10000 6.69 140 16:42 20.07.2022
2512 Clouds 30 1019 70 10000 5.14 120 15:31 20.07.2022
2513 Clouds 28 1019 78 10000 3.09 120 14:18 20.07.2022
2514 Clouds 27 1018 83 10000 3.09 130 11:33 20.07.2022
2515 Clouds 28 1019 78 10000 2.57 90 08:46 20.07.2022
2516 Clouds 29 1020 74 10000 3.09 90 03:25 20.07.2022
2517 Clouds 30 1019 70 10000 5.14 120 00:48 20.07.2022
2518 Clouds 30 1019 74 10000 6.17 120 23:40 19.07.2022
2519 Clouds 31 1019 70 10000 5.66 120 22:22 19.07.2022
2520 Clouds 31 1020 62 10000 5.66 110 21:18 19.07.2022
2521 Clouds 31 1020 66 10000 5.66 110 20:23 19.07.2022
2522 Clouds 30 1021 74 10000 5.14 110 18:43 19.07.2022
2523 Clouds 31 1021 66 10000 4.63 110 17:57 19.07.2022
2524 Clouds 29 1021 74 10000 4.12 130 16:26 19.07.2022
2525 Clouds 28 1021 78 10000 3.09 110 14:31 19.07.2022
2526 Clouds 27 1019 78 10000 3.6 110 11:35 19.07.2022
2527 Clouds 27 1019 83 10000 3.6 120 10:31 19.07.2022
2528 Clouds 27 1020 83 10000 3.6 120 08:48 19.07.2022
2529 Clouds 27 1020 83 10000 3.6 120 08:22 19.07.2022
2530 Clouds 28 1021 78 10000 4.12 110 07:18 19.07.2022
2531 Clouds 28 1021 78 10000 2.57 110 05:26 19.07.2022
2532 Clouds 29 1021 70 10000 3.09 130 04:41 19.07.2022
2533 Clouds 31 1020 66 10000 5.66 140 00:31 19.07.2022
2534 Clouds 32 1020 62 10000 6.17 140 23:21 18.07.2022
2535 Clouds 31 1020 66 10000 6.69 160 22:55 18.07.2022
2536 Clouds 31 1020 66 10000 6.69 140 21:50 18.07.2022
2537 Clouds 31 1021 66 10000 6.17 150 20:50 18.07.2022
2538 Clouds 31 1021 66 10000 7.2 150 19:24 18.07.2022
2539 Clouds 29 1021 74 10000 5.66 140 16:50 18.07.2022
2540 Clouds 29 1021 79 10000 6.69 160 15:41 18.07.2022
2541 Clouds 28 1020 78 10000 4.12 150 13:45 18.07.2022
2542 Clouds 27 1020 83 10000 4.12 150 12:37 18.07.2022
2543 Clouds 28 1019 83 10000 4.63 140 10:34 18.07.2022
2544 Clouds 28 1020 83 10000 5.14 150 08:21 18.07.2022
2545 Clouds 28 1020 89 10000 5.14 140 06:48 18.07.2022
2546 Clouds 31 1018 70 10000 7.2 170 23:30 17.07.2022
2547 Clouds 31 1018 74 10000 7.2 170 22:32 17.07.2022
2548 Clouds 31 1019 74 10000 7.2 160 21:43 17.07.2022
2549 Clouds 31 1018 66 10000 7.72 150 20:46 17.07.2022
2550 Clouds 31 1018 66 10000 7.72 150 20:18 17.07.2022
2551 Clouds 31 1018 70 10000 7.72 150 19:26 17.07.2022
2552 Clouds 30 1018 74 10000 8.75 150 18:22 17.07.2022
2553 Clouds 30 1018 74 10000 8.23 150 17:37 17.07.2022
2554 Clouds 30 1018 74 10000 7.72 150 16:49 17.07.2022
2555 Clouds 30 1018 74 10000 7.72 150 16:24 17.07.2022
2556 Clouds 28 1018 83 10000 6.17 160 14:20 17.07.2022
2557 Clouds 27 1018 83 10000 6.17 150 13:24 17.07.2022
2558 Clouds 27 1016 89 10000 6.69 150 10:34 17.07.2022
2559 Clouds 28 1016 78 10000 8.69 123 08:38 17.07.2022
2560 Clouds 27 1016 94 10000 3.09 120 02:36 17.07.2022
2561 Rain 27 1016 89 10000 3.6 130 00:41 17.07.2022
2562 Rain 26 1017 94 9000 3.09 180 23:18 16.07.2022
2563 Rain 24 1018 100 6000 9.26 130 20:53 16.07.2022
2564 Clouds 28 1018 78 10000 7.72 160 18:59 16.07.2022
2565 Rain 30 1018 70 10000 7.2 140 17:48 16.07.2022
2566 Clouds 28 1018 83 10000 5.66 140 16:23 16.07.2022
2567 Clouds 26 1017 89 10000 3.09 140 13:36 16.07.2022
2568 Clouds 26 1017 89 10000 4.63 130 10:34 16.07.2022
2569 Clouds 26 1018 89 10000 3.6 120 09:28 16.07.2022
2570 Clouds 26 1018 89 10000 1.03 0 08:41 16.07.2022
2571 Clouds 26 1018 89 10000 3.09 120 07:40 16.07.2022
2572 Clouds 26 1018 89 10000 3.09 90 03:38 16.07.2022
2573 Rain 25 1018 88 10000 3.6 80 00:48 16.07.2022
2574 Clouds 24 1019 88 9000 5.14 40 22:57 15.07.2022
2575 Thunderstorm 24 1019 88 9000 5.14 40 22:26 15.07.2022
2576 Thunderstorm 23 1021 94 9000 2.06 60 20:41 15.07.2022
2577 Thunderstorm 22 1022 100 800 2.06 280 19:34 15.07.2022
2578 Rain 23 1021 94 6000 2.06 360 18:23 15.07.2022
2579 Rain 22 1021 100 6000 7.72 330 17:19 15.07.2022
2580 Thunderstorm 24 1019 88 10000 1.54 50 14:19 15.07.2022
2581 Rain 24 1018 100 10000 0.51 0 12:37 15.07.2022
2582 Thunderstorm 27 1019 78 10000 7.2 130 10:52 15.07.2022
2583 Clouds 26 1020 83 10000 4.12 120 07:48 15.07.2022
2584 Rain 26 1020 83 10000 3.09 90 03:41 15.07.2022
2585 Clouds 29 1019 65 10000 6.69 110 00:40 15.07.2022
2586 Clouds 31 1020 58 10000 6.69 100 22:56 14.07.2022
2587 Clouds 31 1020 58 10000 6.69 100 22:24 14.07.2022
2588 Clouds 31 1020 51 10000 6.17 80 21:39 14.07.2022
2589 Clouds 31 1020 51 10000 6.17 80 21:19 14.07.2022
2590 Clouds 32 1021 55 10000 5.66 100 20:42 14.07.2022
2591 Clouds 32 1021 55 10000 5.66 100 20:18 14.07.2022
2592 Clouds 30 1021 66 10000 6.17 130 17:59 14.07.2022
2593 Clouds 30 1021 66 10000 5.66 140 16:19 14.07.2022
2594 Clouds 29 1021 70 10000 3.09 130 14:55 14.07.2022
2595 Clouds 27 1020 78 10000 4.12 120 13:51 14.07.2022
2596 Clouds 27 1020 83 10000 4.63 130 12:34 14.07.2022
2597 Clouds 28 1020 78 10000 3.09 110 11:26 14.07.2022
2598 Clouds 27 1020 78 10000 2.57 140 10:51 14.07.2022
2599 Clouds 28 1020 78 10000 3.09 150 08:45 14.07.2022
2600 Clouds 29 1020 74 10000 4.63 140 04:18 14.07.2022
2601 Clouds 31 1019 66 10000 4.12 210 00:55 14.07.2022
2602 Clouds 31 1019 66 10000 4.12 210 00:18 14.07.2022
2603 Clouds 31 1019 66 10000 6.17 150 22:28 13.07.2022
2604 Clouds 31 1020 70 10000 6.17 150 21:37 13.07.2022
2605 Clouds 32 1020 66 10000 6.69 160 20:38 13.07.2022
2606 Clouds 31 1020 70 10000 6.17 180 18:23 13.07.2022
2607 Clouds 31 1020 70 10000 7.2 170 17:22 13.07.2022
2608 Clouds 30 1020 74 10000 5.14 160 15:59 13.07.2022
2609 Clouds 26 1019 89 10000 1.54 170 13:50 13.07.2022
2610 Clouds 28 1019 83 10000 1.54 70 11:30 13.07.2022
2611 Clouds 28 1019 83 10000 0 0 10:44 13.07.2022
2612 Clouds 28 1019 83 10000 1.03 0 09:29 13.07.2022
2613 Clouds 27 1019 89 10000 2.57 140 08:23 13.07.2022
2614 Rain 29 1019 79 10000 1.03 0 04:36 13.07.2022
2615 Clouds 31 1017 70 10000 6.17 170 00:47 13.07.2022
2616 Clouds 31 1017 70 10000 5.66 170 22:46 12.07.2022
2617 Clouds 31 1017 70 10000 6.17 160 21:46 12.07.2022
2618 Clouds 31 1018 70 10000 6.17 160 20:53 12.07.2022
2619 Clouds 31 1018 70 10000 7.2 150 19:48 12.07.2022
2620 Clouds 31 1018 70 10000 6.69 160 18:35 12.07.2022
2621 Clouds 30 1018 74 10000 6.69 150 16:36 12.07.2022
2622 Clouds 29 1017 79 10000 5.14 150 14:32 12.07.2022
2623 Clouds 29 1017 79 10000 5.14 150 14:32 12.07.2022
2624 Clouds 27 1017 89 10000 2.57 160 13:35 12.07.2022
2625 Clouds 26 1016 89 10000 2.06 150 11:54 12.07.2022
2626 Clear 28 1015 76 10000 5.28 141 10:26 12.07.2022
2627 Clouds 26 1017 89 10000 3.6 110 08:57 12.07.2022
2628 Clouds 28 1018 83 10000 3.09 140 07:48 12.07.2022
2629 Clouds 28 1018 83 10000 3.09 160 05:45 12.07.2022
2630 Clouds 29 1017 74 10000 4.12 160 04:57 12.07.2022
2631 Clouds 30 1015 74 10000 4.63 170 00:54 12.07.2022
2632 Clouds 32 1016 66 10000 5.14 170 22:43 11.07.2022
2633 Clouds 31 1017 70 10000 5.66 180 20:56 11.07.2022
2634 Clouds 31 1017 70 10000 5.66 180 20:32 11.07.2022
2635 Clouds 31 1017 70 10000 5.66 180 20:32 11.07.2022
2636 Clouds 30 1017 70 10000 6.17 180 18:50 11.07.2022
2637 Clouds 30 1017 70 10000 6.17 180 18:28 11.07.2022
2638 Clouds 31 1016 70 10000 6.17 170 16:26 11.07.2022
2639 Clouds 29 1016 79 10000 7.2 160 15:23 11.07.2022
2640 Clouds 28 1017 78 10000 3.09 180 13:19 11.07.2022
2641 Clouds 27 1016 83 10000 3.6 170 11:23 11.07.2022
2642 Clouds 27 1016 89 10000 3.09 170 09:55 11.07.2022
2643 Clouds 27 1016 89 10000 3.09 170 09:27 11.07.2022
2644 Rain 27 1017 78 10000 3.6 170 08:31 11.07.2022
2645 Clouds 31 1016 70 10000 4.63 160 00:59 11.07.2022
2646 Clouds 31 1017 70 10000 5.66 170 23:54 10.07.2022
2647 Clouds 32 1017 66 10000 5.14 160 22:45 10.07.2022
2648 Clouds 31 1018 70 10000 5.66 180 20:55 10.07.2022
2649 Clouds 31 1018 70 10000 5.66 180 20:34 10.07.2022
2650 Clouds 32 1019 66 10000 5.66 210 19:29 10.07.2022
2651 Clouds 31 1019 66 10000 4.63 170 18:23 10.07.2022
2652 Clouds 31 1019 66 10000 5.14 160 17:20 10.07.2022
2653 Clouds 30 1019 70 10000 6.69 170 16:21 10.07.2022
2654 Clouds 29 1018 74 10000 4.12 160 14:44 10.07.2022
2655 Clouds 27 1018 83 10000 2.57 150 13:29 10.07.2022
2656 Clouds 27 1018 83 10000 3.09 140 11:39 10.07.2022
2657 Clouds 27 1019 83 10000 2.06 140 09:45 10.07.2022
2658 Clouds 28 1019 83 10000 2.06 90 08:43 10.07.2022
2659 Clouds 28 1020 78 10000 2.57 150 07:19 10.07.2022
2660 Clouds 31 1019 62 10000 4.12 160 23:50 09.07.2022
2661 Clouds 31 1020 66 10000 4.63 150 22:26 09.07.2022
2662 Clouds 31 1020 66 10000 4.63 150 22:26 09.07.2022
2663 Clouds 31 1020 66 10000 5.14 160 21:41 09.07.2022
2664 Clouds 31 1021 66 10000 5.66 160 19:44 09.07.2022
2665 Clouds 31 1021 66 10000 5.66 160 19:44 09.07.2022
2666 Clouds 31 1021 66 10000 5.66 150 18:26 09.07.2022
2667 Clouds 31 1021 66 10000 5.66 150 18:26 09.07.2022
2668 Clouds 29 1021 74 10000 6.17 170 17:27 09.07.2022
2669 Clouds 31 1021 66 10000 6.17 150 16:25 09.07.2022
2670 Clouds 30 1021 70 10000 6.17 140 15:38 09.07.2022
2671 Clouds 29 1020 74 10000 5.14 150 14:22 09.07.2022
2672 Clouds 27 1020 83 10000 3.6 150 13:47 09.07.2022
2673 Clouds 27 1020 83 10000 2.57 130 11:45 09.07.2022
2674 Clouds 27 1020 83 10000 2.57 130 10:26 09.07.2022
2675 Clouds 27 1020 83 10000 3.09 140 09:38 09.07.2022
2676 Clouds 28 1021 78 10000 2.57 110 07:44 09.07.2022
2677 Clouds 28 1021 78 10000 4.12 140 04:41 09.07.2022
2678 Clouds 31 1019 66 10000 6.69 140 23:41 08.07.2022
2679 Clouds 30 1019 70 10000 7.2 160 22:33 08.07.2022
2680 Clouds 31 1020 66 10000 8.75 150 21:26 08.07.2022
2681 Clouds 31 1020 70 10000 8.75 150 20:35 08.07.2022
2682 Clouds 31 1020 70 10000 8.75 150 19:38 08.07.2022
2683 Clouds 31 1020 66 10000 7.2 130 17:45 08.07.2022
2684 Clouds 30 1020 70 10000 7.2 140 16:24 08.07.2022
2685 Clouds 28 1019 78 10000 5.14 130 14:50 08.07.2022
2686 Clouds 27 1018 83 10000 4.63 110 12:31 08.07.2022
2687 Clear 28 1017 76 10000 7.72 121 10:46 08.07.2022
2688 Clouds 27 1018 83 10000 5.14 120 09:42 08.07.2022
2689 Clouds 27 1019 89 10000 3.09 120 06:55 08.07.2022
2690 Clouds 27 1018 89 10000 2.06 100 04:32 08.07.2022
2691 Clouds 30 1017 66 10000 4.63 110 00:23 08.07.2022
2692 Clouds 30 1018 66 10000 4.12 110 22:47 07.07.2022
2693 Clouds 31 1018 62 10000 5.66 110 21:41 07.07.2022
2694 Clouds 30 1018 62 10000 6.69 130 19:28 07.07.2022
2695 Clouds 30 1018 62 10000 5.14 90 17:42 07.07.2022
2696 Clouds 29 1018 70 10000 3.6 110 15:57 07.07.2022
2697 Clouds 27 1018 74 10000 2.57 90 13:30 07.07.2022
2698 Clouds 26 1018 83 10000 3.09 100 12:40 07.07.2022
2699 Clouds 26 1018 83 10000 3.09 100 12:21 07.07.2022
2700 Clouds 26 1018 83 10000 3.09 120 11:31 07.07.2022
2701 Clouds 28 1016 66 10000 5.55 90 10:44 07.07.2022
2702 Clouds 28 1016 67 10000 5.4 98 10:26 07.07.2022
2703 Clouds 27 1018 78 10000 2.57 100 08:21 07.07.2022
2704 Clouds 28 1018 74 10000 3.6 110 05:23 07.07.2022
2705 Clouds 28 1016 70 10000 5.73 100 23:37 06.07.2022
2706 Clouds 28 1016 72 10000 5.68 104 23:19 06.07.2022
2707 Clouds 31 1018 58 10000 5.66 140 22:57 06.07.2022
2708 Clouds 31 1018 58 10000 5.66 140 22:39 06.07.2022
2709 Clouds 32 1019 62 10000 5.66 130 21:59 06.07.2022
2710 Clouds 31 1019 62 10000 4.63 150 19:41 06.07.2022
2711 Clouds 30 1019 66 10000 5.66 150 18:32 06.07.2022
2712 Clouds 29 1019 70 10000 5.66 140 16:43 06.07.2022
2713 Clouds 29 1018 74 10000 6.17 140 15:28 06.07.2022
2714 Clouds 28 1018 78 10000 3.6 140 12:44 06.07.2022
2715 Clouds 27 1017 83 10000 3.6 140 11:49 06.07.2022
2716 Clouds 28 1018 78 10000 4.12 140 10:20 06.07.2022
2717 Clouds 28 1017 73 10000 5.86 130 08:26 06.07.2022
2718 Clouds 27 1018 89 10000 2.57 80 07:36 06.07.2022
2719 Rain 29 1019 74 10000 4.63 130 05:31 06.07.2022
2720 Clouds 30 1018 70 10000 5.66 160 22:49 05.07.2022
2721 Clouds 30 1018 70 10000 6.69 160 21:59 05.07.2022
2722 Clouds 30 1019 70 10000 4.63 180 20:41 05.07.2022
2723 Clouds 31 1019 70 10000 2.06 230 19:43 05.07.2022
2724 Clouds 31 1019 70 10000 2.06 230 19:22 05.07.2022
2725 Clouds 30 1019 74 10000 6.69 140 17:48 05.07.2022
2726 Clouds 29 1019 79 10000 6.69 140 16:55 05.07.2022
2727 Clouds 29 1019 74 10000 6.17 140 15:31 05.07.2022
2728 Clouds 27 1019 89 10000 3.09 120 14:31 05.07.2022
2729 Clouds 24 1018 100 10000 1.54 60 12:47 05.07.2022
2730 Thunderstorm 25 1018 100 10000 4.63 150 11:49 05.07.2022
2731 Rain 28 1017 73 10000 6.37 129 10:40 05.07.2022
2732 Clouds 26 1018 94 10000 3.6 150 09:23 05.07.2022
2733 Clouds 27 1019 89 10000 3.09 100 07:47 05.07.2022
2734 Clouds 28 1019 83 10000 2.57 140 04:51 05.07.2022
2735 Clouds 28 1019 83 10000 2.57 140 04:23 05.07.2022
2736 Clouds 27 1018 94 10000 2.57 60 23:56 04.07.2022
2737 Clouds 27 1018 94 10000 2.57 60 23:26 04.07.2022
2738 Rain 26 1019 89 9000 4.63 120 22:25 04.07.2022
2739 Rain 28 1019 78 10000 8.23 170 21:41 04.07.2022
2740 Rain 31 1019 70 10000 6.69 140 20:52 04.07.2022
2741 Rain 31 1019 70 10000 6.69 140 20:33 04.07.2022
2742 Clouds 31 1020 70 10000 6.69 130 19:52 04.07.2022
2743 Clouds 31 1020 70 10000 6.69 130 19:34 04.07.2022
2744 Clouds 31 1019 66 10000 5.14 140 17:57 04.07.2022
2745 Clouds 28 1019 83 10000 3.09 110 15:50 04.07.2022
2746 Clouds 28 1019 83 10000 3.09 110 15:31 04.07.2022
2747 Clouds 27 1019 83 10000 3.09 110 13:29 04.07.2022
2748 Clouds 27 1018 83 10000 3.09 90 12:20 04.07.2022
2749 Clouds 27 1018 83 10000 3.09 100 10:34 04.07.2022
2750 Clouds 27 1019 89 10000 4.63 100 09:40 04.07.2022
2751 Clouds 28 1020 78 10000 3.09 100 07:21 04.07.2022
2752 Clouds 28 1020 74 10000 4.63 110 03:35 04.07.2022
2753 Clouds 28 1019 83 10000 5.66 110 00:35 04.07.2022
2754 Clouds 31 1019 62 10000 5.66 120 22:58 03.07.2022
2755 Clouds 31 1019 62 10000 5.66 130 20:51 03.07.2022
2756 Clouds 31 1019 62 10000 5.66 130 20:25 03.07.2022
2757 Clouds 30 1020 66 10000 5.66 130 19:26 03.07.2022
2758 Clouds 30 1020 66 10000 6.17 130 18:32 03.07.2022
2759 Clouds 30 1020 66 10000 5.14 140 17:43 03.07.2022
2760 Clouds 29 1020 70 10000 6.17 110 15:29 03.07.2022
2761 Clouds 28 1019 74 10000 4.12 110 14:58 03.07.2022
2762 Clouds 27 1019 78 10000 3.09 110 13:59 03.07.2022
2763 Clouds 27 1019 78 10000 3.09 110 13:27 03.07.2022
2764 Clouds 28 1018 74 10000 7.21 108 12:22 03.07.2022
2765 Clouds 27 1019 78 10000 4.12 110 11:18 03.07.2022
2766 Clouds 27 1018 74 10000 4.63 120 10:38 03.07.2022
2767 Clouds 27 1019 78 10000 4.63 120 08:59 03.07.2022
2768 Clouds 27 1019 78 10000 5.14 120 07:34 03.07.2022
2769 Clouds 29 1018 70 10000 5.66 130 01:39 03.07.2022
2770 Clouds 31 1018 66 10000 5.14 140 23:50 02.07.2022
2771 Clouds 28 1017 72 10000 6.26 109 22:32 02.07.2022
2772 Clouds 31 1019 62 10000 7.72 140 20:37 02.07.2022
2773 Clouds 31 1019 62 10000 7.72 140 19:50 02.07.2022
2774 Clouds 31 1019 62 10000 7.72 140 19:19 02.07.2022
2775 Clouds 30 1019 70 10000 6.69 130 17:40 02.07.2022
2776 Clouds 29 1019 70 10000 6.69 130 16:35 02.07.2022
2777 Clouds 27 1018 78 10000 4.12 110 13:51 02.07.2022
2778 Clouds 27 1018 83 10000 4.12 120 11:51 02.07.2022
2779 Clouds 28 1017 76 10000 6.94 106 10:52 02.07.2022
2780 Clouds 28 1017 76 10000 6.81 106 10:28 02.07.2022
2781 Clouds 28 1017 76 10000 7.25 106 08:39 02.07.2022
2782 Clouds 28 1017 76 10000 7.38 103 08:19 02.07.2022
2783 Clouds 28 1019 74 10000 5.14 120 05:51 02.07.2022
2784 Clouds 30 1018 66 10000 6.69 120 00:34 02.07.2022
2785 Clouds 31 1018 62 10000 6.69 130 23:30 01.07.2022
2786 Clouds 31 1018 62 10000 6.69 140 22:35 01.07.2022
2787 Clouds 31 1019 62 10000 7.2 140 21:38 01.07.2022
2788 Clouds 30 1019 70 10000 6.17 130 20:59 01.07.2022
2789 Clouds 30 1019 70 10000 6.17 130 20:34 01.07.2022
2790 Clouds 29 1020 70 10000 7.2 120 19:38 01.07.2022
2791 Clouds 30 1020 70 10000 6.69 120 17:18 01.07.2022
2792 Clouds 28 1019 78 10000 4.12 110 14:59 01.07.2022
2793 Clouds 27 1019 78 10000 3.09 110 13:54 01.07.2022
2794 Clouds 27 1019 78 10000 3.6 100 11:22 01.07.2022
2795 Clouds 27 1019 78 10000 7.69 100 10:19 01.07.2022
2796 Clouds 27 1020 83 10000 4.12 120 07:38 01.07.2022
2797 Clouds 29 1020 74 10000 5.14 110 02:43 01.07.2022
2798 Clouds 29 1019 70 10000 5.66 120 00:21 01.07.2022
2799 Clouds 31 1019 66 10000 4.63 130 22:52 30.06.2022
2800 Clouds 31 1019 66 10000 4.63 130 22:32 30.06.2022
2801 Clouds 31 1019 66 10000 4.63 130 22:32 30.06.2022
2802 Clouds 30 1020 70 10000 6.17 120 21:54 30.06.2022
2803 Clouds 30 1020 70 10000 6.69 130 20:53 30.06.2022
2804 Clouds 30 1020 70 10000 6.69 130 20:21 30.06.2022
2805 Clouds 30 1021 70 10000 7.72 130 19:48 30.06.2022
2806 Clouds 30 1021 70 10000 7.72 120 18:56 30.06.2022
2807 Clouds 30 1021 70 10000 7.72 120 18:22 30.06.2022
2808 Clouds 30 1021 70 10000 6.17 120 17:34 30.06.2022
2809 Clouds 29 1021 100 10000 6.17 120 16:20 30.06.2022
2810 Clouds 28 1021 78 10000 5.14 120 14:20 30.06.2022
2811 Clouds 27 1021 83 10000 4.12 120 13:21 30.06.2022
2812 Clouds 28 1020 75 10000 6.82 105 12:34 30.06.2022
2813 Clouds 28 1020 75 10000 6.82 105 12:34 30.06.2022
2814 Clouds 27 1021 83 10000 3.6 120 10:57 30.06.2022
2815 Clouds 27 1021 83 10000 4.12 120 09:51 30.06.2022
2816 Clouds 27 1021 83 10000 4.12 120 09:23 30.06.2022
2817 Clouds 28 1022 78 10000 3.6 120 07:41 30.06.2022
2818 Clouds 28 1022 78 10000 3.09 110 05:46 30.06.2022
2819 Clouds 29 1021 74 10000 5.14 150 23:56 29.06.2022
2820 Clouds 28 1020 77 10000 5.68 123 22:42 29.06.2022
2821 Clouds 28 1020 77 10000 5.76 126 22:20 29.06.2022
2822 Clouds 30 1022 70 10000 6.17 160 20:54 29.06.2022
2823 Clouds 30 1022 70 10000 6.17 160 20:32 29.06.2022
2824 Clouds 31 1022 70 10000 7.2 150 19:31 29.06.2022
2825 Clouds 28 1022 89 10000 3.6 130 17:39 29.06.2022
2826 Clouds 27 1022 89 10000 3.6 150 16:31 29.06.2022
2827 Thunderstorm 24 1020 94 10000 4.12 170 13:58 29.06.2022
2828 Thunderstorm 23 1020 100 10000 5.66 150 12:38 29.06.2022
2829 Thunderstorm 27 1019 89 10000 1.54 10 10:19 29.06.2022
2830 Clouds 27 1019 89 10000 1.03 0 09:31 29.06.2022
2831 Clear 26 1021 89 10000 3.09 150 06:57 29.06.2022
2832 Clouds 26 1021 78 10000 5.66 150 04:48 29.06.2022
2833 Clouds 28 1018 71 10000 2.88 135 00:54 29.06.2022
2834 Clouds 28 1018 71 10000 2.88 135 00:35 29.06.2022
2835 Clouds 30 1019 66 10000 5.66 180 22:53 28.06.2022
2836 Clouds 30 1019 66 10000 5.66 180 22:21 28.06.2022
2837 Clouds 30 1019 66 10000 5.66 170 21:49 28.06.2022
2838 Clouds 30 1019 66 10000 5.66 170 21:30 28.06.2022
2839 Clouds 29 1019 70 10000 5.66 160 20:18 28.06.2022
2840 Clouds 29 1020 70 10000 4.63 180 19:32 28.06.2022
2841 Clouds 29 1020 70 10000 5.14 160 18:40 28.06.2022
2842 Clouds 29 1019 65 10000 4.12 140 17:36 28.06.2022
2843 Clouds 28 1019 69 10000 4.12 120 15:55 28.06.2022
2844 Clouds 26 1018 78 10000 4.63 120 14:54 28.06.2022
2845 Clouds 26 1018 78 10000 4.63 120 14:19 28.06.2022
2846 Clouds 25 1018 83 10000 3.09 110 13:45 28.06.2022
2847 Clouds 24 1018 88 10000 2.06 120 12:35 28.06.2022
2848 Clouds 27 1017 69 10000 3.19 111 10:40 28.06.2022
2849 Clouds 26 1018 83 10000 2.57 90 08:56 28.06.2022
2850 Clouds 26 1018 83 10000 2.57 90 08:37 28.06.2022
2851 Clouds 24 1018 94 10000 1.54 60 07:20 28.06.2022
2852 Clouds 25 1018 78 10000 3.6 140 04:54 28.06.2022
2853 Clouds 24 1018 88 10000 5.14 150 23:53 27.06.2022
2854 Rain 24 1018 88 10000 5.14 150 23:27 27.06.2022
2855 Thunderstorm 25 1018 94 8000 9.77 120 22:25 27.06.2022
2856 Clouds 29 1018 70 10000 5.14 150 21:29 27.06.2022
2857 Clouds 29 1016 66 10000 3.47 93 20:33 27.06.2022
2858 Clouds 29 1019 65 10000 2.57 130 18:52 27.06.2022
2859 Clouds 27 1018 74 10000 2.06 170 17:44 27.06.2022
2860 Clouds 25 1018 83 10000 4.63 130 15:50 27.06.2022
2861 Thunderstorm 24 1018 94 10000 2.57 150 14:25 27.06.2022
2862 Thunderstorm 24 1017 94 10000 1.03 0 12:58 27.06.2022
2863 Thunderstorm 26 1016 89 10000 1.54 30 11:40 27.06.2022
2864 Clear 28 1016 72 10000 4.18 140 09:49 27.06.2022
2865 Clouds 25 1017 94 10000 1.54 70 08:43 27.06.2022
2866 Clear 25 1018 94 10000 1.54 50 07:49 27.06.2022
2867 Clear 24 1018 94 10000 1.03 0 06:28 27.06.2022
2868 Thunderstorm 22 1017 94 1600 6.69 180 01:25 27.06.2022
2869 Clouds 29 1017 70 10000 3.6 150 23:22 26.06.2022
2870 Clouds 28 1017 78 10000 3.6 110 21:39 26.06.2022
2871 Clouds 25 1018 83 10000 2.57 200 20:33 26.06.2022
2872 Clouds 29 1018 70 10000 2.57 130 18:34 26.06.2022
2873 Clouds 28 1018 74 10000 4.12 150 17:47 26.06.2022
2874 Clouds 28 1017 65 10000 2.57 160 15:37 26.06.2022
2875 Clouds 27 1017 89 10000 0.51 0 14:23 26.06.2022
2876 Clouds 25 1016 88 10000 0 0 13:24 26.06.2022
2877 Clouds 25 1016 88 10000 0.51 0 11:41 26.06.2022
2878 Clouds 26 1016 83 10000 1.54 200 10:42 26.06.2022
2879 Clouds 26 1016 83 10000 1.54 200 10:19 26.06.2022
2880 Clouds 27 1017 78 10000 0 0 08:27 26.06.2022
2881 Clouds 27 1018 83 10000 1.03 0 06:19 26.06.2022
2882 Clouds 29 1016 74 10000 2.57 100 00:37 26.06.2022
2883 Clouds 29 1016 74 10000 2.57 100 00:37 26.06.2022
2884 Clouds 29 1016 74 10000 2.57 100 00:18 26.06.2022
2885 Clouds 30 1016 70 10000 2.57 130 23:31 25.06.2022
2886 Clouds 28 1016 74 10000 4.63 140 22:46 25.06.2022
2887 Clouds 28 1016 74 10000 4.63 140 22:24 25.06.2022
2888 Clouds 29 1017 70 10000 3.6 10 21:21 25.06.2022
2889 Clouds 30 1017 66 10000 3.09 340 20:36 25.06.2022
2890 Clouds 31 1017 62 10000 1.54 0 19:59 25.06.2022
2891 Clouds 28 1018 74 10000 3.09 120 18:22 25.06.2022
2892 Rain 28 1017 70 10000 1.57 100 17:26 25.06.2022
2893 Clouds 30 1017 66 10000 1.03 0 16:26 25.06.2022
2894 Clouds 26 1016 89 10000 1.54 190 14:29 25.06.2022
2895 Clouds 25 1016 88 10000 0.51 0 12:45 25.06.2022
2896 Clouds 25 1016 88 10000 1.03 0 11:55 25.06.2022
2897 Clouds 25 1015 88 10000 1.03 250 09:24 25.06.2022
2898 Clouds 25 1015 88 10000 1.54 240 08:49 25.06.2022
2899 Clouds 25 1015 88 10000 1.54 240 08:20 25.06.2022
2900 Clouds 26 1016 83 10000 0.51 0 06:26 25.06.2022
2901 Clouds 30 1014 66 10000 3.6 50 00:44 25.06.2022
2902 Clouds 30 1014 66 10000 3.6 50 00:44 25.06.2022
2903 Clouds 29 1014 65 10000 4.12 40 23:32 24.06.2022
2904 Clouds 30 1015 62 10000 3.6 20 22:22 24.06.2022
2905 Clouds 29 1016 65 10000 4.12 20 21:22 24.06.2022
2906 Clouds 30 1016 62 10000 3.6 360 20:22 24.06.2022
2907 Clouds 29 1016 61 10000 4.63 320 19:23 24.06.2022
2908 Clouds 29 1016 58 10000 4.63 300 18:50 24.06.2022
2909 Clouds 29 1016 58 10000 4.63 300 18:31 24.06.2022
2910 Clouds 28 1016 74 10000 3.6 310 17:46 24.06.2022
2911 Clouds 30 1016 66 10000 3.6 300 16:32 24.06.2022
2912 Clouds 27 1015 78 10000 1.03 0 14:29 24.06.2022
2913 Clouds 24 1014 94 10000 0 0 13:55 24.06.2022
2914 Clouds 24 1014 83 10000 0 0 12:26 24.06.2022
2915 Clouds 24 1014 88 10000 0 0 11:40 24.06.2022
2916 Clouds 25 1014 83 10000 1.54 170 10:22 24.06.2022
2917 Clouds 24 1014 88 10000 0.51 0 09:41 24.06.2022
2918 Clouds 25 1014 83 10000 0 0 08:52 24.06.2022
2919 Clouds 25 1014 83 10000 0.51 0 07:20 24.06.2022
2920 Clouds 26 1015 78 10000 1.54 110 06:40 24.06.2022
2921 Clouds 26 1015 78 10000 2.06 100 05:57 24.06.2022
2922 Clouds 27 1014 74 10000 2.57 190 02:31 24.06.2022
2923 Clouds 28 1013 65 10000 3.09 170 22:57 23.06.2022
2924 Clouds 28 1013 65 10000 3.09 170 22:38 23.06.2022
2925 Clouds 30 1014 58 10000 2.57 140 20:57 23.06.2022
2926 Clouds 30 1014 58 10000 2.57 140 20:32 23.06.2022
2927 Clouds 30 1015 62 10000 3.09 170 19:24 23.06.2022
2928 Clouds 24 1015 94 10000 3.09 170 17:50 23.06.2022
2929 Clouds 25 1015 83 10000 6.17 190 16:50 23.06.2022
2930 Clouds 27 1015 69 10000 2.57 110 15:43 23.06.2022
2931 Clouds 27 1015 69 10000 2.57 110 15:23 23.06.2022
2932 Clouds 25 1014 78 10000 1.54 80 13:21 23.06.2022
2933 Clouds 26 1014 73 10000 2.57 70 11:23 23.06.2022
2934 Clouds 26 1014 73 10000 2.57 60 09:46 23.06.2022
2935 Clouds 25 1014 78 10000 1.54 60 08:18 23.06.2022
2936 Clouds 27 1015 65 10000 3.6 90 02:19 23.06.2022
2937 Clouds 28 1015 57 10000 5.14 80 00:25 23.06.2022
2938 Clouds 29 1015 58 10000 4.63 100 23:27 22.06.2022
2939 Clouds 29 1015 58 10000 6.17 90 22:24 22.06.2022
2940 Clouds 29 1016 61 10000 7.2 90 20:57 22.06.2022
2941 Clouds 29 1016 61 10000 7.2 90 20:21 22.06.2022
2942 Clouds 28 1017 69 10000 7.72 70 19:48 22.06.2022
2943 Clouds 29 1017 54 10000 6.17 70 18:21 22.06.2022
2944 Clouds 28 1017 57 10000 4.63 90 17:24 22.06.2022
2945 Clouds 27 1017 65 10000 6.17 80 15:53 22.06.2022
2946 Clouds 27 1017 65 10000 6.17 80 15:24 22.06.2022
2947 Clouds 26 1016 73 10000 3.6 70 13:50 22.06.2022
2948 Clouds 26 1016 73 10000 3.6 70 13:25 22.06.2022
2949 Clouds 26 1016 73 10000 3.09 80 12:44 22.06.2022
2950 Clouds 26 1015 73 10000 3.6 80 11:47 22.06.2022
2951 Clouds 27 1014 70 10000 7.33 74 10:53 22.06.2022
2952 Clouds 26 1015 71 10000 7.5 71 09:44 22.06.2022
2953 Clouds 26 1016 72 10000 7.57 69 07:51 22.06.2022
2954 Clouds 27 1018 78 10000 4.63 70 02:56 22.06.2022
2955 Clouds 28 1018 69 10000 4.63 40 01:19 22.06.2022
2956 Clouds 29 1018 65 10000 4.63 40 23:19 21.06.2022
2957 Clouds 29 1020 65 10000 4.63 40 21:25 21.06.2022
2958 Clouds 30 1020 62 10000 5.66 60 19:43 21.06.2022
2959 Clouds 29 1020 61 10000 5.66 60 17:56 21.06.2022
2960 Clouds 28 1020 65 10000 5.66 70 16:49 21.06.2022
2961 Clouds 27 1018 74 10000 3.6 80 12:23 21.06.2022
2962 Clouds 27 1018 83 10000 1.54 80 10:47 21.06.2022
2963 Clouds 27 1018 83 10000 2.06 80 09:35 21.06.2022
2964 Clouds 28 1020 78 10000 2.57 80 07:56 21.06.2022
2965 Clouds 28 1020 78 10000 2.06 80 04:59 21.06.2022
2966 Rain 28 1020 74 10000 4.63 340 00:31 21.06.2022
2967 Clouds 30 1020 70 10000 5.14 360 22:21 20.06.2022
2968 Rain 31 1021 66 10000 3.6 10 21:40 20.06.2022
2969 Clouds 29 1021 70 10000 2.06 0 20:30 20.06.2022
2970 Clouds 31 1021 62 10000 4.12 30 19:37 20.06.2022
2971 Clouds 31 1021 62 10000 3.09 10 18:34 20.06.2022
2972 Clouds 31 1020 62 10000 1.54 0 17:49 20.06.2022
2973 Clouds 30 1020 70 10000 1.54 20 16:36 20.06.2022
2974 Clouds 29 1020 74 10000 1.54 90 15:30 20.06.2022
2975 Clouds 28 1018 64 10000 0.63 265 12:37 20.06.2022
2976 Clouds 26 1018 89 10000 1.03 350 10:22 20.06.2022
2977 Clouds 26 1018 89 10000 1.54 200 08:56 20.06.2022
2978 Clouds 25 1019 94 10000 2.06 220 07:52 20.06.2022
2979 Clouds 26 1019 94 10000 1.54 10 05:21 20.06.2022
2980 Clouds 26 1017 83 10000 2.57 180 01:33 20.06.2022
2981 Thunderstorm 24 1018 88 10000 4.12 240 00:19 20.06.2022
2982 Clouds 29 1017 74 10000 1.03 0 22:43 19.06.2022
2983 Clouds 29 1017 74 10000 2.57 210 21:45 19.06.2022
2984 Clouds 29 1017 74 10000 2.57 210 21:26 19.06.2022
2985 Clouds 33 1017 46 10000 4.12 20 20:25 19.06.2022
2986 Clouds 32 1017 51 10000 2.57 220 19:46 19.06.2022
2987 Clouds 31 1018 58 10000 4.12 290 18:41 19.06.2022
2988 Clouds 31 1017 62 10000 2.57 310 17:48 19.06.2022
2989 Clouds 31 1017 62 10000 2.57 310 17:21 19.06.2022
2990 Clouds 30 1017 66 10000 6 290 16:34 19.06.2022
2991 Clouds 28 1016 68 10000 2.71 239 15:37 19.06.2022
2992 Clouds 27 1016 83 10000 2.06 230 14:51 19.06.2022
2993 Clouds 25 1016 88 10000 2.06 220 13:54 19.06.2022
2994 Clouds 25 1015 83 10000 1.54 240 12:39 19.06.2022
2995 Clear 28 1014 71 10000 4.71 236 10:54 19.06.2022
2996 Clouds 27 1015 83 10000 0 240 09:34 19.06.2022
2997 Clouds 26 1015 89 10000 2.06 250 08:43 19.06.2022
2998 Clouds 26 1015 89 10000 2.06 210 07:36 19.06.2022
2999 Clouds 27 1015 78 10000 1.54 210 04:33 19.06.2022
3000 Clouds 29 1014 65 10000 3.09 150 01:28 19.06.2022
3001 Clouds 29 1014 65 10000 1.54 160 00:23 19.06.2022
3002 Clouds 27 1014 74 10000 4.12 230 23:35 18.06.2022
3003 Thunderstorm 30 1015 70 10000 5.14 40 22:36 18.06.2022
3004 Clouds 29 1015 74 10000 3.09 30 20:55 18.06.2022
3005 Clouds 29 1015 74 10000 3.09 30 20:26 18.06.2022
3006 Clouds 29 1015 74 10000 4.12 30 19:25 18.06.2022
3007 Clouds 30 1015 66 10000 3.6 360 18:44 18.06.2022
3008 Clouds 29 1015 70 10000 2.57 10 17:30 18.06.2022
3009 Clouds 29 1015 70 10000 2.57 10 17:30 18.06.2022
3010 Clouds 29 1015 70 10000 2.57 10 17:30 18.06.2022
3011 Clouds 28 1015 74 10000 1.03 0 16:20 18.06.2022
3012 Clouds 29 1015 74 10000 1.03 0 15:18 18.06.2022
3013 Clouds 28 1015 78 10000 2.06 90 14:41 18.06.2022
3014 Clouds 25 1014 94 10000 0.51 0 12:46 18.06.2022
3015 Clouds 26 1014 83 10000 0.51 0 11:29 18.06.2022
3016 Clouds 25 1014 94 10000 1.03 0 10:25 18.06.2022
3017 Clouds 26 1014 89 10000 0 0 09:19 18.06.2022
3018 Clouds 26 1015 89 10000 1.54 80 07:58 18.06.2022
3019 Clouds 26 1015 89 10000 5.14 120 06:26 18.06.2022
3020 Clouds 29 1014 74 10000 4.63 80 02:54 18.06.2022
3021 Clouds 29 1014 70 10000 4.12 80 01:24 18.06.2022
3022 Clouds 29 1014 74 10000 5.66 60 00:41 18.06.2022
3023 Clouds 29 1014 74 10000 5.14 40 23:43 17.06.2022
3024 Clouds 30 1014 66 10000 4.63 50 22:55 17.06.2022
3025 Clouds 30 1015 62 10000 3.09 40 20:40 17.06.2022
3026 Clouds 30 1016 66 10000 4.12 50 19:25 17.06.2022
3027 Clouds 29 1016 70 10000 4.12 20 18:24 17.06.2022
3028 Clouds 30 1016 62 10000 2.06 140 17:22 17.06.2022
3029 Clouds 29 1016 65 10000 2.06 90 16:37 17.06.2022
3030 Clouds 29 1017 70 10000 2.57 60 15:41 17.06.2022
3031 Clouds 28 1017 74 10000 1.54 80 14:37 17.06.2022
3032 Clouds 27 1016 71 10000 1.29 27 14:18 17.06.2022
3033 Clouds 27 1016 71 10000 1.29 27 13:41 17.06.2022
3034 Clouds 27 1015 71 10000 1.14 18 12:42 17.06.2022
3035 Clouds 27 1015 71 10000 0.52 3 11:56 17.06.2022
3036 Clouds 27 1015 71 10000 0.52 3 11:34 17.06.2022
3037 Clouds 27 1015 71 10000 1.62 138 09:46 17.06.2022
3038 Clouds 28 1016 71 10000 2.47 131 08:26 17.06.2022
3039 Clouds 27 1016 70 10000 2.73 107 06:51 17.06.2022
3040 Clouds 28 1017 70 10000 3.61 66 04:19 17.06.2022
3041 Clouds 28 1016 70 10000 3.63 53 01:56 17.06.2022
3042 Clouds 29 1016 65 10000 3.6 50 00:24 17.06.2022
3043 Clouds 30 1018 66 10000 4.12 30 22:42 16.06.2022
3044 Clouds 30 1019 66 10000 3.6 50 21:22 16.06.2022
3045 Clouds 29 1019 70 10000 4.63 80 20:52 16.06.2022
3046 Clouds 29 1019 70 10000 4.63 80 20:33 16.06.2022
3047 Clouds 30 1020 66 10000 5.14 50 19:32 16.06.2022
3048 Clouds 30 1020 66 10000 5.14 50 18:24 16.06.2022
3049 Clouds 30 1019 62 10000 2.06 120 17:42 16.06.2022
3050 Clouds 29 1018 65 10000 2.57 170 16:33 16.06.2022
3051 Clouds 29 1018 70 10000 2.06 130 15:22 16.06.2022
3052 Clouds 28 1018 74 10000 2.06 100 14:30 16.06.2022
3053 Clouds 27 1018 78 10000 1.54 100 13:19 16.06.2022
3054 Clouds 26 1018 83 10000 2.06 70 12:35 16.06.2022
3055 Clouds 26 1018 83 10000 1.54 80 11:49 16.06.2022
3056 Clouds 27 1018 78 10000 2.57 100 10:51 16.06.2022
3057 Clouds 27 1018 78 10000 2.06 90 09:43 16.06.2022
3058 Clouds 27 1018 78 10000 2.06 90 09:20 16.06.2022
3059 Clouds 27 1018 83 10000 2.06 90 07:57 16.06.2022
3060 Clouds 28 1019 78 10000 3.09 130 06:51 16.06.2022
3061 Clouds 28 1018 78 10000 3.6 140 04:28 16.06.2022
3062 Clouds 29 1017 70 10000 4.63 130 01:53 16.06.2022
3063 Clouds 29 1017 70 10000 4.63 130 01:34 16.06.2022
3064 Clouds 30 1017 66 10000 4.63 110 00:36 16.06.2022
3065 Clouds 31 1017 58 10000 4.63 120 23:23 15.06.2022
3066 Clouds 31 1018 62 10000 4.63 100 21:59 15.06.2022
3067 Clouds 31 1018 62 10000 4.63 100 21:20 15.06.2022
3068 Clouds 31 1018 58 10000 5.66 130 20:38 15.06.2022
3069 Clouds 31 1018 58 10000 5.66 130 20:18 15.06.2022
3070 Clouds 30 1019 62 10000 3.09 80 18:48 15.06.2022
3071 Clouds 30 1018 66 10000 3.6 120 17:54 15.06.2022
3072 Clouds 30 1018 66 10000 4.12 130 16:37 15.06.2022
3073 Clouds 29 1017 70 10000 2.57 130 15:23 15.06.2022
3074 Clouds 26 1017 83 10000 1.54 130 13:43 15.06.2022
3075 Clouds 25 1017 88 10000 4.12 170 12:53 15.06.2022
3076 Clouds 27 1017 78 10000 2.06 80 11:42 15.06.2022
3077 Clouds 26 1017 83 10000 3.09 150 10:23 15.06.2022
3078 Clouds 26 1017 83 10000 4.12 140 09:37 15.06.2022
3079 Clouds 27 1018 78 10000 3.6 140 08:27 15.06.2022
3080 Clouds 27 1018 78 10000 4.12 120 06:33 15.06.2022
3081 Clouds 29 1018 65 10000 3.6 110 03:28 15.06.2022
3082 Clouds 28 1017 75 10000 6.06 92 01:37 15.06.2022
3083 Clouds 30 1017 62 10000 5.14 110 00:41 15.06.2022
3084 Clouds 30 1018 66 10000 5.14 110 23:38 14.06.2022
3085 Clouds 31 1018 66 10000 5.66 70 22:51 14.06.2022
3086 Clouds 30 1018 70 10000 6.17 70 21:47 14.06.2022
3087 Clouds 30 1018 70 10000 6.17 70 21:26 14.06.2022
3088 Clouds 29 1019 74 10000 6.17 70 20:41 14.06.2022
3089 Clouds 31 1019 62 10000 4.63 60 19:58 14.06.2022
3090 Clouds 30 1019 66 10000 4.12 120 18:45 14.06.2022
3091 Clouds 30 1019 66 10000 4.12 130 17:20 14.06.2022
3092 Clouds 29 1020 65 10000 4.63 120 16:43 14.06.2022
3093 Clouds 29 1019 70 10000 5.14 130 15:49 14.06.2022
3094 Clouds 28 1019 78 10000 4.63 110 14:56 14.06.2022
3095 Clouds 28 1019 78 10000 4.63 110 14:18 14.06.2022
3096 Clouds 27 1019 83 10000 4.12 100 13:28 14.06.2022
3097 Clouds 27 1018 83 10000 2.57 90 12:19 14.06.2022
3098 Clear 27 1018 83 10000 3.09 110 10:55 14.06.2022
3099 Clear 27 1018 83 10000 3.09 110 10:29 14.06.2022
3100 Clouds 27 1019 83 10000 3.09 120 09:26 14.06.2022
3101 Clear 28 1019 78 10000 3.6 130 08:40 14.06.2022
3102 Clouds 28 1020 78 10000 3.6 130 06:53 14.06.2022
3103 Clouds 28 1020 78 10000 4.12 120 04:23 14.06.2022
3104 Clouds 29 1019 70 10000 5.14 120 01:38 14.06.2022
3105 Clouds 30 1019 70 10000 5.66 150 00:24 14.06.2022
3106 Clouds 31 1019 66 10000 5.66 140 22:58 13.06.2022
3107 Clouds 31 1019 66 10000 5.66 140 22:23 13.06.2022
3108 Clouds 30 1020 74 10000 5.66 150 21:39 13.06.2022
3109 Clouds 31 1020 70 10000 5.14 150 19:59 13.06.2022
3110 Clouds 31 1020 70 10000 5.66 150 18:54 13.06.2022
3111 Clouds 30 1020 74 10000 6.17 160 17:56 13.06.2022
3112 Clouds 30 1020 74 10000 6.17 160 17:24 13.06.2022
3113 Clouds 30 1020 74 10000 7.2 140 16:31 13.06.2022
3114 Clouds 29 1020 79 10000 5.66 150 14:51 13.06.2022
3115 Clouds 29 1020 79 10000 5.66 150 14:31 13.06.2022
3116 Clouds 28 1019 83 10000 4.63 140 13:33 13.06.2022
3117 Clouds 28 1019 83 10000 3.6 140 12:22 13.06.2022
3118 Clouds 28 1019 83 10000 4.63 150 10:37 13.06.2022
3119 Clouds 28 1019 83 10000 4.12 150 09:54 13.06.2022
3120 Clouds 28 1020 83 10000 3.6 140 08:52 13.06.2022
3121 Clouds 28 1020 83 10000 4.63 140 06:37 13.06.2022
3122 Clouds 28 1020 78 10000 3.09 130 05:35 13.06.2022
3123 Clouds 29 1018 74 10000 3.09 130 01:55 13.06.2022
3124 Clouds 29 1018 74 10000 3.09 130 01:34 13.06.2022
3125 Clouds 29 1018 79 10000 5.14 170 23:48 12.06.2022
3126 Clouds 28 1017 77 10000 5.41 136 22:39 12.06.2022
3127 Clouds 28 1018 78 10000 5.55 134 21:46 12.06.2022
3128 Clouds 28 1018 77 10000 4.93 133 20:53 12.06.2022
3129 Clouds 30 1019 70 10000 6.17 170 19:59 12.06.2022
3130 Clouds 30 1019 70 10000 6.17 170 19:25 12.06.2022
3131 Clouds 30 1019 70 10000 6.69 150 17:36 12.06.2022
3132 Clouds 27 1017 83 10000 2.57 170 15:52 12.06.2022
3133 Clouds 28 1018 78 10000 6.36 149 14:50 12.06.2022
3134 Clear 28 1017 78 10000 6 149 14:18 12.06.2022
3135 Clouds 28 1018 78 10000 4.63 160 13:45 12.06.2022
3136 Clouds 27 1017 83 10000 4.63 150 12:28 12.06.2022
3137 Clear 28 1016 75 10000 6.43 153 10:46 12.06.2022
3138 Clear 28 1016 76 10000 7.07 155 10:20 12.06.2022
3139 Clouds 28 1018 78 10000 3.09 170 08:51 12.06.2022
3140 Clouds 28 1018 78 10000 3.09 170 08:29 12.06.2022
3141 Clouds 28 1018 78 10000 2.57 170 06:27 12.06.2022
3142 Clouds 27 1017 83 10000 2.06 180 03:54 12.06.2022
3143 Clouds 28 1016 78 10000 2.06 170 02:25 12.06.2022
3144 Clouds 29 1015 74 10000 3.09 190 01:35 12.06.2022
3145 Clouds 30 1015 70 10000 3.09 200 00:44 12.06.2022
3146 Clouds 30 1015 70 10000 3.09 200 00:18 12.06.2022
3147 Clouds 29 1015 74 10000 4.12 200 23:18 11.06.2022
3148 Clouds 29 1015 74 10000 4.12 200 22:35 11.06.2022
3149 Clouds 30 1015 70 10000 5.14 190 21:18 11.06.2022
3150 Clouds 30 1016 70 10000 4.63 190 20:26 11.06.2022
3151 Clouds 28 1015 72 10000 4.24 165 19:36 11.06.2022
3152 Clouds 29 1017 74 10000 4.63 170 18:44 11.06.2022
3153 Clouds 29 1017 74 10000 4.63 170 18:25 11.06.2022
3154 Clouds 28 1016 71 10000 4.83 173 17:47 11.06.2022
3155 Clouds 28 1016 71 10000 4.79 162 17:25 11.06.2022
3156 Clouds 28 1016 71 10000 4.79 162 16:42 11.06.2022
3157 Clouds 28 1016 71 10000 4.93 150 15:57 11.06.2022
3158 Clouds 28 1016 72 10000 5.13 143 14:43 11.06.2022
3159 Clouds 25 1016 94 10000 1.54 190 13:50 11.06.2022
3160 Clouds 25 1016 88 10000 5.14 160 11:46 11.06.2022
3161 Clouds 25 1016 88 10000 0.51 0 10:30 11.06.2022
3162 Clouds 28 1014 71 10000 3.24 149 09:41 11.06.2022
3163 Clouds 25 1017 88 10000 1.03 0 08:37 11.06.2022
3164 Clouds 26 1018 83 10000 1.03 0 06:32 11.06.2022
3165 Clouds 27 1016 74 10000 2.62 181 05:26 11.06.2022
3166 Clouds 27 1015 76 10000 4.35 151 02:42 11.06.2022
3167 Clouds 29 1016 70 10000 3.09 200 01:41 11.06.2022
3168 Clouds 29 1015 74 10000 4.12 210 00:54 11.06.2022
3169 Clouds 30 1015 70 10000 5.14 190 22:55 10.06.2022
3170 Clouds 30 1015 70 10000 5.14 190 22:20 10.06.2022
3171 Clouds 30 1016 70 10000 4.12 190 21:22 10.06.2022
3172 Clouds 30 1016 66 10000 3.09 180 20:36 10.06.2022
3173 Clouds 30 1016 66 10000 3.09 180 20:18 10.06.2022
3174 Clouds 30 1017 66 10000 3.09 200 19:19 10.06.2022
3175 Clouds 30 1017 66 10000 3.09 210 18:20 10.06.2022
3176 Clouds 28 1017 74 10000 2.06 200 17:41 10.06.2022
3177 Clouds 28 1017 74 10000 1.03 0 16:59 10.06.2022
3178 Clouds 28 1017 74 10000 1.03 0 16:20 10.06.2022
3179 Clouds 27 1017 83 10000 1.03 0 15:36 10.06.2022
3180 Clouds 25 1016 88 10000 1.03 0 13:52 10.06.2022
3181 Clouds 25 1016 94 10000 0 0 12:41 10.06.2022
3182 Clouds 25 1016 94 10000 0 0 11:40 10.06.2022
3183 Clouds 25 1016 100 10000 1.03 80 10:43 10.06.2022
3184 Clouds 25 1016 94 10000 0 0 09:44 10.06.2022
3185 Clouds 25 1016 94 10000 0 0 08:30 10.06.2022
3186 Clouds 25 1016 94 10000 1.54 180 07:20 10.06.2022
3187 Clouds 25 1017 94 10000 1.54 180 06:43 10.06.2022
3188 Clouds 25 1017 94 10000 1.54 180 06:24 10.06.2022
3189 Clouds 26 1017 89 10000 1.54 200 03:50 10.06.2022
3190 Rain 27 1017 69 10000 2.06 100 01:41 10.06.2022
3191 Clouds 27 1016 89 6000 7.2 150 00:27 10.06.2022
3192 Clouds 30 1016 70 10000 2.57 360 23:28 09.06.2022
3193 Clouds 30 1017 66 10000 1.54 160 21:47 09.06.2022
3194 Rain 30 1017 66 10000 1.54 160 21:29 09.06.2022
3195 Thunderstorm 28 1018 83 10000 3.6 330 20:54 09.06.2022
3196 Rain 29 1018 79 10000 2.57 20 19:55 09.06.2022
3197 Clouds 30 1018 70 10000 2.06 340 18:49 09.06.2022
3198 Clouds 30 1018 70 10000 2.06 340 18:21 09.06.2022
3199 Clouds 29 1018 70 10000 2.06 20 16:46 09.06.2022
3200 Clouds 29 1018 74 10000 1.03 0 15:47 09.06.2022
3201 Clouds 27 1018 89 10000 1.03 0 14:35 09.06.2022
3202 Clouds 25 1018 100 10000 1.03 170 13:47 09.06.2022
3203 Clouds 25 1018 100 10000 1.03 170 13:26 09.06.2022
3204 Clouds 25 1017 100 10000 0.51 0 11:53 09.06.2022
3205 Clouds 25 1016 100 10000 0 0 10:51 09.06.2022
3206 Clouds 26 1016 94 10000 0 0 09:42 09.06.2022
3207 Clouds 26 1016 94 10000 0 0 09:23 09.06.2022
3208 Clouds 27 1016 75 10000 1.99 152 07:34 09.06.2022
3209 Clouds 27 1016 76 10000 1.41 44 05:27 09.06.2022
3210 Clouds 27 1016 83 10000 1.54 50 01:44 09.06.2022
3211 Clouds 28 1017 69 10000 2.57 180 23:25 08.06.2022
3212 Clouds 29 1017 70 10000 2.06 170 22:50 08.06.2022
3213 Clouds 29 1017 70 10000 2.06 170 22:25 08.06.2022
3214 Clouds 29 1017 61 10000 2.57 120 21:48 08.06.2022
3215 Rain 28 1018 78 10000 3.6 10 20:33 08.06.2022
3216 Clouds 29 1018 79 10000 3.6 330 19:49 08.06.2022
3217 Clouds 29 1018 74 10000 2.06 130 18:56 08.06.2022
3218 Clouds 29 1018 74 10000 2.06 130 18:22 08.06.2022
3219 Clouds 28 1018 83 10000 2.57 180 16:30 08.06.2022
3220 Clouds 27 1017 83 10000 3.09 190 14:54 08.06.2022
3221 Clouds 26 1017 89 10000 1.54 190 13:36 08.06.2022
3222 Clouds 25 1017 94 10000 1.03 0 11:50 08.06.2022
3223 Clouds 25 1017 94 10000 1.03 0 11:22 08.06.2022
3224 Clouds 25 1017 94 10000 0 0 09:46 08.06.2022
3225 Clouds 27 1015 76 10000 3.71 166 09:19 08.06.2022
3226 Clouds 25 1017 94 10000 0.51 0 07:32 08.06.2022
3227 Clouds 26 1018 89 10000 2.06 170 05:20 08.06.2022
3228 Clouds 27 1016 83 10000 2.06 170 02:28 08.06.2022
3229 Clouds 28 1016 69 10000 3.6 220 23:41 07.06.2022
3230 Clouds 28 1016 69 10000 3.6 220 23:22 07.06.2022
3231 Clouds 28 1016 74 10000 3.6 220 22:38 07.06.2022
3232 Clouds 28 1016 78 10000 5.14 200 21:45 07.06.2022
3233 Clouds 28 1016 78 10000 5.14 200 21:25 07.06.2022
3234 Clouds 29 1016 74 10000 3.6 180 20:43 07.06.2022
3235 Clouds 26 1017 83 10000 4.63 180 19:59 07.06.2022
3236 Clouds 24 1018 94 10000 3.09 190 18:42 07.06.2022
3237 Thunderstorm 24 1017 94 10000 4.12 200 17:51 07.06.2022
3238 Rain 23 1018 100 10000 4.63 180 16:50 07.06.2022
3239 Rain 23 1018 100 10000 4.63 180 16:31 07.06.2022
3240 Rain 23 1018 100 10000 2.06 150 15:38 07.06.2022
3241 Rain 23 1018 100 10000 2.06 150 15:19 07.06.2022
3242 Rain 23 1018 94 8000 2.06 80 14:44 07.06.2022
3243 Rain 24 1017 94 8000 2.06 40 13:46 07.06.2022
3244 Rain 24 1017 94 8000 2.06 40 13:26 07.06.2022
3245 Rain 23 1015 100 9000 1.03 0 11:56 07.06.2022
3246 Rain 23 1015 100 9000 1.03 0 11:56 07.06.2022
3247 Rain 24 1014 87 8814 3.3 158 10:57 07.06.2022
3248 Clouds 23 1015 100 9000 3.6 270 09:28 07.06.2022
3249 Thunderstorm 25 1015 88 9000 2.57 150 08:28 07.06.2022
3250 Clouds 24 1015 94 10000 3.09 120 07:19 07.06.2022
3251 Clouds 23 1016 94 10000 5.14 110 04:52 07.06.2022
3252 Thunderstorm 25 1014 94 10000 5.14 120 01:43 07.06.2022
3253 Clouds 25 1014 88 10000 2.57 80 23:59 06.06.2022
3254 Clouds 24 1014 88 10000 3.09 320 22:59 06.06.2022
3255 Rain 24 1014 88 10000 3.09 320 22:30 06.06.2022
3256 Thunderstorm 23 1015 94 10000 3.09 220 21:28 06.06.2022
3257 Rain 24 1015 94 10000 2.06 230 19:29 06.06.2022
3258 Rain 26 1015 94 10000 1.54 260 18:59 06.06.2022
3259 Rain 26 1015 94 10000 1.54 260 18:32 06.06.2022
3260 Rain 24 1015 100 10000 5.14 320 17:31 06.06.2022
3261 Clouds 28 1014 83 10000 6.17 230 16:21 06.06.2022
3262 Clouds 28 1014 89 10000 3.6 250 15:33 06.06.2022
3263 Clouds 27 1013 94 10000 1.03 0 14:36 06.06.2022
3264 Clouds 26 1013 94 10000 1.54 270 13:26 06.06.2022
3265 Clouds 26 1013 94 10000 1.54 230 12:36 06.06.2022
3266 Clouds 26 1011 82 10000 8.48 182 11:53 06.06.2022
3267 Clouds 26 1012 94 10000 3.09 240 10:41 06.06.2022
3268 Clouds 26 1012 94 10000 2.57 250 09:40 06.06.2022
3269 Clouds 26 1012 94 10000 3.09 250 08:32 06.06.2022
3270 Clouds 26 1013 94 10000 3.6 230 07:28 06.06.2022
3271 Clouds 26 1013 94 10000 1.54 230 05:28 06.06.2022
3272 Clouds 27 1012 80 10000 5.13 216 03:39 06.06.2022
3273 Clouds 27 1011 94 10000 2.06 330 01:23 06.06.2022
3274 Clouds 27 1011 94 10000 2.06 290 00:39 06.06.2022
3275 Clouds 29 1010 79 10000 3.6 310 23:40 05.06.2022
3276 Clouds 29 1010 74 10000 4.63 290 22:45 05.06.2022
3277 Clouds 29 1010 79 10000 4.63 290 20:47 05.06.2022
3278 Clouds 25 1010 94 10000 4.12 270 19:44 05.06.2022
3279 Rain 28 1011 83 10000 6.69 230 18:30 05.06.2022
3280 Clouds 28 1010 83 10000 6.17 250 17:54 05.06.2022
3281 Clouds 28 1010 83 10000 6.17 250 17:25 05.06.2022
3282 Clouds 28 1009 83 10000 6.69 240 16:51 05.06.2022
3283 Clouds 28 1009 83 10000 6.69 240 16:32 05.06.2022
3284 Clouds 25 1009 94 10000 5.14 250 14:25 05.06.2022
3285 Clouds 26 1007 89 10000 6.69 240 12:55 05.06.2022
3286 Clouds 27 1006 89 10000 8.75 230 11:45 05.06.2022
3287 Clouds 27 1006 89 10000 10.29 220 10:33 05.06.2022
3288 Rain 27 1006 83 10000 9.77 220 09:59 05.06.2022
3289 Clouds 27 1006 83 10000 10.8 220 08:32 05.06.2022
3290 Clouds 27 1007 89 10000 9.26 230 07:41 05.06.2022
3291 Clouds 27 1007 83 10000 9.26 220 05:21 05.06.2022
3292 Clouds 27 1006 89 10000 9.26 200 03:43 05.06.2022
3293 Rain 25 1006 94 9000 11.32 200 01:32 05.06.2022
3294 Clouds 28 1006 78 10000 9.77 190 00:29 05.06.2022
3295 Clouds 27 1008 83 10000 8.75 180 21:58 04.06.2022
3296 Clouds 28 1008 78 10000 10.29 180 20:21 04.06.2022
3297 Clouds 28 1009 78 10000 9.26 180 18:18 04.06.2022
3298 Clouds 28 1009 74 10000 9.26 180 16:43 04.06.2022
3299 Clouds 28 1009 74 10000 9.26 180 16:18 04.06.2022
3300 Clouds 28 1009 83 9000 8.23 170 14:47 04.06.2022
3301 Clouds 27 1009 89 10000 7.72 170 12:28 04.06.2022
3302 Clouds 27 1009 89 10000 8.23 160 10:58 04.06.2022
3303 Clouds 27 1009 89 10000 8.23 160 10:26 04.06.2022
3304 Clouds 27 1009 89 10000 7.2 150 09:42 04.06.2022
3305 Clouds 27 1011 89 10000 6.17 150 08:40 04.06.2022
3306 Rain 27 1012 89 10000 6.69 150 07:40 04.06.2022
3307 Clouds 28 1012 83 10000 6.17 130 04:38 04.06.2022
3308 Clouds 28 1012 78 10000 5.14 130 00:56 04.06.2022
3309 Rain 27 1012 83 10000 5.66 140 23:35 03.06.2022
3310 Clouds 27 1013 83 10000 5.66 150 22:30 03.06.2022
3311 Rain 28 1013 69 10000 5.14 140 20:52 03.06.2022
3312 Clouds 28 1013 69 10000 5.14 140 20:27 03.06.2022
3313 Clouds 25 1014 78 10000 2.57 90 17:39 03.06.2022
3314 Clouds 24 1014 83 10000 2.06 70 16:37 03.06.2022
3315 Clouds 23 1014 88 10000 2.57 260 14:53 03.06.2022
3316 Rain 26 1013 83 10000 2.06 110 12:56 03.06.2022
3317 Clouds 26 1013 78 10000 1.54 130 10:54 03.06.2022
3318 Clouds 26 1013 78 10000 1.03 0 09:37 03.06.2022
3319 Clouds 26 1013 83 10000 2.57 90 08:32 03.06.2022
3320 Clouds 26 1014 83 10000 1.03 0 07:26 03.06.2022
3321 Clouds 25 1014 88 10000 1.54 140 06:31 03.06.2022
3322 Clouds 25 1014 83 10000 0 0 04:40 03.06.2022
3323 Clouds 27 1012 69 10000 2.06 270 00:22 03.06.2022
3324 Clouds 27 1013 69 10000 3.09 310 22:35 02.06.2022
3325 Clouds 27 1014 74 10000 3.6 270 21:34 02.06.2022
3326 Clouds 29 1014 70 10000 3.6 180 20:22 02.06.2022
3327 Clouds 31 1014 55 10000 2.57 0 19:42 02.06.2022
3328 Clouds 31 1014 55 10000 2.57 0 19:19 02.06.2022
3329 Clouds 28 1015 78 10000 2.57 220 16:46 02.06.2022
3330 Clouds 28 1015 78 10000 2.57 220 16:20 02.06.2022
3331 Clouds 24 1013 94 10000 0.51 0 13:47 02.06.2022
3332 Clouds 24 1013 94 10000 0.51 0 13:26 02.06.2022
3333 Clear 24 1012 94 10000 0 0 11:22 02.06.2022
3334 Clouds 27 1011 73 10000 2.53 186 10:19 02.06.2022
3335 Clouds 27 1011 73 10000 3.02 187 09:27 02.06.2022
3336 Clouds 25 1012 88 10000 1.03 0 08:25 02.06.2022
3337 Clouds 25 1014 88 10000 1.03 0 06:59 02.06.2022
3338 Clouds 27 1014 78 10000 2.06 160 04:40 02.06.2022
3339 Clouds 27 1013 78 10000 2.06 30 02:30 02.06.2022
3340 Clouds 28 1013 74 10000 2.57 260 23:43 01.06.2022
3341 Clouds 28 1013 74 10000 2.57 260 23:43 01.06.2022
3342 Clouds 28 1013 74 10000 2.57 260 23:43 01.06.2022
3343 Clouds 29 1013 70 10000 2.06 290 22:21 01.06.2022
3344 Clouds 28 1013 69 10000 4.63 90 21:32 01.06.2022
3345 Rain 28 1014 74 10000 3.09 350 20:39 01.06.2022
3346 Rain 28 1014 74 10000 2.06 360 19:52 01.06.2022
3347 Clouds 28 1014 74 10000 2.57 20 18:52 01.06.2022
3348 Clouds 28 1014 74 10000 2.76 148 17:40 01.06.2022
3349 Clouds 28 1015 78 10000 1.54 50 16:22 01.06.2022
3350 Clouds 26 1014 89 10000 1.03 0 14:51 01.06.2022
3351 Clouds 24 1014 100 10000 1.03 0 13:44 01.06.2022
3352 Clouds 23 1013 100 10000 0.51 0 11:41 01.06.2022
3353 Clouds 25 1014 94 10000 0 0 09:34 01.06.2022
3354 Rain 25 1014 77 10000 2.11 151 08:28 01.06.2022
3355 Clouds 26 1015 89 10000 2.06 110 07:21 01.06.2022
3356 Clouds 26 1016 83 10000 2.06 130 04:58 01.06.2022
3357 Clouds 27 1016 74 10000 2.57 60 23:56 31.05.2022
3358 Clouds 27 1016 78 10000 2.06 110 22:43 31.05.2022
3359 Clouds 27 1016 78 10000 2.06 110 22:25 31.05.2022
3360 Clouds 27 1016 74 10000 2.57 180 21:44 31.05.2022
3361 Rain 26 1016 78 10000 3.09 160 20:44 31.05.2022
3362 Rain 26 1016 78 10000 3.09 160 20:44 31.05.2022
3363 Clouds 27 1017 78 10000 4.12 160 19:46 31.05.2022
3364 Clouds 27 1017 74 10000 3.6 130 18:33 31.05.2022
3365 Clouds 26 1017 78 10000 3.09 100 17:46 31.05.2022
3366 Clouds 24 1017 94 10000 4.12 120 16:48 31.05.2022
3367 Rain 23 1017 94 10000 5.14 130 15:40 31.05.2022
3368 Clouds 24 1016 94 10000 2.06 130 13:37 31.05.2022
3369 Clouds 23 1016 94 10000 2.06 150 12:19 31.05.2022
3370 Clouds 23 1016 94 10000 4.12 110 10:52 31.05.2022
3371 Clouds 23 1017 94 10000 3.09 100 08:35 31.05.2022
3372 Rain 25 1017 79 6812 5.82 131 06:38 31.05.2022
3373 Rain 25 1018 88 10000 3.09 150 04:34 31.05.2022
3374 Rain 27 1017 78 10000 6.17 140 23:46 30.05.2022
3375 Rain 27 1017 78 10000 6.17 140 23:24 30.05.2022
3376 Clouds 27 1016 78 10000 6.17 140 22:42 30.05.2022
3377 Clouds 28 1017 74 10000 7.72 130 21:40 30.05.2022
3378 Clouds 27 1018 74 10000 8.23 140 20:52 30.05.2022
3379 Clouds 28 1018 74 10000 7.2 150 19:45 30.05.2022
3380 Clouds 28 1018 69 10000 6.69 140 18:21 30.05.2022
3381 Clouds 27 1018 74 10000 5.14 150 17:23 30.05.2022
3382 Rain 26 1018 73 10000 5.66 140 16:22 30.05.2022
3383 Clouds 25 1017 83 10000 1.54 140 13:32 30.05.2022
3384 Clouds 25 1016 83 10000 4.12 120 11:40 30.05.2022
3385 Clouds 24 1017 83 10000 3.09 110 09:58 30.05.2022
3386 Clouds 24 1018 83 10000 2.06 100 08:52 30.05.2022
3387 Clouds 24 1018 88 10000 4.63 70 06:26 30.05.2022
3388 Rain 27 1017 77 10000 6.74 117 04:52 30.05.2022
3389 Clouds 25 1015 75 10000 0.78 19 00:43 30.05.2022
3390 Clouds 26 1016 77 10000 2.92 255 22:41 29.05.2022
3391 Clouds 28 1017 74 10000 2.57 200 21:46 29.05.2022
3392 Clouds 29 1017 70 10000 5.14 170 20:23 29.05.2022
3393 Clouds 27 1017 100 10000 0.51 0 19:29 29.05.2022
3394 Rain 27 1018 83 10000 4.12 180 17:57 29.05.2022
3395 Clouds 26 1017 78 10000 2.06 160 16:22 29.05.2022
3396 Clouds 23 1017 94 8000 3.09 120 15:43 29.05.2022
3397 Rain 27 1016 83 10000 2.06 180 14:54 29.05.2022
3398 Clouds 25 1016 88 10000 2.06 150 12:57 29.05.2022
3399 Clouds 25 1015 88 10000 2.06 170 11:20 29.05.2022
3400 Clouds 27 1014 79 10000 6.19 144 10:29 29.05.2022
3401 Clouds 27 1016 78 10000 3.09 160 07:59 29.05.2022
3402 Clouds 27 1016 78 10000 2.57 180 04:58 29.05.2022
3403 Clouds 27 1016 78 10000 2.57 180 04:33 29.05.2022
3404 Clouds 27 1014 77 10000 4.64 140 01:23 29.05.2022
3405 Clear 27 1014 76 10000 4.66 134 23:47 28.05.2022
3406 Clear 27 1014 77 10000 5.01 136 23:19 28.05.2022
3407 Clouds 29 1015 65 10000 6.69 190 21:52 28.05.2022
3408 Clouds 30 1016 66 10000 5.66 180 20:53 28.05.2022
3409 Clouds 29 1017 70 10000 6.17 180 19:20 28.05.2022
3410 Clouds 30 1017 70 10000 5.14 170 18:23 28.05.2022
3411 Clouds 30 1017 66 10000 4.63 170 17:32 28.05.2022
3412 Clouds 28 1017 74 10000 3.6 170 15:49 28.05.2022
3413 Clouds 28 1017 74 10000 3.6 170 15:20 28.05.2022
3414 Clouds 25 1016 88 10000 2.57 160 13:29 28.05.2022
3415 Clouds 23 1015 100 10000 2.06 200 12:42 28.05.2022
3416 Clouds 23 1015 88 10000 5.14 160 11:28 28.05.2022
3417 Clouds 25 1015 88 10000 4.63 140 10:34 28.05.2022
3418 Clear 26 1014 77 10000 6.29 142 09:46 28.05.2022
3419 Clouds 26 1017 73 10000 3.6 160 07:56 28.05.2022
3420 Clouds 26 1017 78 10000 3.09 160 06:32 28.05.2022
3421 Clouds 26 1018 73 10000 2.57 170 04:39 28.05.2022
3422 Clouds 27 1016 74 10000 5.14 150 01:46 28.05.2022
3423 Clouds 29 1016 58 10000 5.66 160 23:55 27.05.2022
3424 Clouds 29 1017 65 10000 6.17 170 22:32 27.05.2022
3425 Clouds 30 1017 58 10000 6.17 150 21:22 27.05.2022
3426 Clouds 30 1018 66 10000 6.69 170 20:42 27.05.2022
3427 Clouds 30 1018 66 10000 6.69 170 20:18 27.05.2022
3428 Clouds 29 1018 65 10000 6.69 140 19:34 27.05.2022
3429 Clouds 29 1018 65 10000 6.69 150 18:41 27.05.2022
3430 Clouds 29 1019 65 10000 5.66 130 16:42 27.05.2022
3431 Clouds 28 1019 69 10000 5.66 140 15:46 27.05.2022
3432 Clouds 27 1019 74 10000 4.12 140 14:45 27.05.2022
3433 Clouds 26 1018 78 10000 3.09 120 13:35 27.05.2022
3434 Clouds 26 1018 78 10000 3.6 110 11:43 27.05.2022
3435 Clouds 26 1018 78 10000 3.6 110 11:25 27.05.2022
3436 Clouds 26 1018 78 10000 3.09 110 10:35 27.05.2022
3437 Clouds 26 1018 78 10000 3.6 110 09:42 27.05.2022
3438 Clouds 26 1018 78 10000 4.12 120 08:24 27.05.2022
3439 Clouds 26 1019 78 10000 5.14 120 06:50 27.05.2022
3440 Clouds 27 1018 74 10000 5.14 120 02:56 27.05.2022
3441 Clouds 28 1018 69 10000 5.66 120 00:53 27.05.2022
3442 Clouds 29 1019 61 10000 6.17 140 22:50 26.05.2022
3443 Clouds 30 1019 58 10000 8.23 140 21:43 26.05.2022
3444 Clouds 30 1019 66 10000 7.72 140 20:59 26.05.2022
3445 Clouds 30 1020 62 10000 6.69 140 19:27 26.05.2022
3446 Clouds 30 1021 62 10000 5.66 130 18:21 26.05.2022
3447 Clouds 27 1021 74 10000 2.06 120 16:58 26.05.2022
3448 Clouds 26 1021 78 10000 2.06 110 15:49 26.05.2022
3449 Clouds 25 1020 83 10000 2.06 90 14:48 26.05.2022
3450 Clouds 26 1019 77 10000 6.19 92 13:23 26.05.2022
3451 Clouds 24 1019 83 10000 1.54 80 11:36 26.05.2022
3452 Clouds 26 1018 69 10000 6.82 98 10:24 26.05.2022
3453 Clouds 25 1019 78 10000 2.06 90 09:35 26.05.2022
3454 Clouds 26 1018 68 10000 7.21 98 08:37 26.05.2022
3455 Clouds 26 1019 74 10000 8.45 92 05:22 26.05.2022
3456 Clouds 28 1018 65 10000 6.17 110 00:57 26.05.2022
3457 Clouds 29 1018 61 10000 6.69 120 23:40 25.05.2022
3458 Clouds 29 1018 65 10000 6.69 100 22:22 25.05.2022
3459 Clouds 29 1019 61 10000 6.17 120 21:33 25.05.2022
3460 Clouds 30 1019 58 10000 6.69 120 20:37 25.05.2022
3461 Clouds 29 1020 61 10000 6.69 130 19:29 25.05.2022
3462 Clouds 29 1020 65 10000 7.2 130 17:43 25.05.2022
3463 Clouds 28 1020 65 10000 7.2 130 16:38 25.05.2022
3464 Clouds 27 1020 74 10000 6.17 130 15:54 25.05.2022
3465 Clouds 26 1019 78 10000 4.63 140 14:54 25.05.2022
3466 Clouds 26 1019 78 10000 4.63 140 14:33 25.05.2022
3467 Clouds 26 1018 72 10000 8.76 103 13:54 25.05.2022
3468 Clouds 25 1018 78 10000 4.12 120 12:39 25.05.2022
3469 Clouds 26 1017 77 10000 8.29 102 10:49 25.05.2022
3470 Clouds 26 1017 77 10000 8.78 98 10:18 25.05.2022
3471 Clouds 26 1017 77 10000 8.78 95 08:37 25.05.2022
3472 Clear 26 1018 72 10000 7.42 101 07:23 25.05.2022
3473 Clouds 27 1019 74 10000 4.63 110 04:22 25.05.2022
3474 Clouds 29 1017 61 10000 5.66 120 00:19 25.05.2022
3475 Clouds 29 1017 58 10000 6.69 130 23:43 24.05.2022
3476 Clouds 29 1017 51 10000 7.2 130 22:32 24.05.2022
3477 Clouds 29 1018 61 10000 7.2 120 21:41 24.05.2022
3478 Clouds 29 1018 61 10000 7.2 120 21:21 24.05.2022
3479 Clouds 29 1018 54 10000 6.69 120 20:23 24.05.2022
3480 Clouds 29 1019 58 10000 7.72 130 18:56 24.05.2022
3481 Clouds 29 1019 58 10000 7.72 130 18:56 24.05.2022
3482 Clouds 28 1019 57 10000 7.2 120 16:53 24.05.2022
3483 Clouds 28 1019 57 10000 7.2 120 16:23 24.05.2022
3484 Clouds 27 1018 65 10000 5.14 130 14:58 24.05.2022
3485 Clouds 27 1018 65 10000 5.14 130 14:21 24.05.2022
3486 Clouds 25 1018 78 10000 3.09 100 12:50 24.05.2022
3487 Clouds 25 1018 73 10000 4.63 110 11:33 24.05.2022
3488 Clouds 25 1018 73 10000 4.63 120 09:45 24.05.2022
3489 Clouds 25 1019 78 10000 5.14 120 08:50 24.05.2022
3490 Clouds 26 1019 73 10000 4.12 110 06:57 24.05.2022
3491 Clouds 27 1019 74 10000 5.66 120 04:20 24.05.2022
3492 Clouds 28 1018 69 10000 6.17 110 01:55 24.05.2022
3493 Clouds 28 1018 69 10000 6.17 110 01:36 24.05.2022
3494 Clear 26 1018 74 10000 7.71 102 23:33 23.05.2022
3495 Clouds 30 1019 62 10000 7.2 120 21:57 23.05.2022
3496 Clouds 30 1019 62 10000 7.2 120 21:39 23.05.2022
3497 Clouds 30 1020 62 10000 7.72 150 20:41 23.05.2022
3498 Clouds 29 1020 65 10000 7.72 130 19:33 23.05.2022
3499 Clouds 29 1021 65 10000 6.69 130 18:59 23.05.2022
3500 Clouds 29 1021 65 10000 6.69 130 18:31 23.05.2022
3501 Clouds 30 1021 66 10000 6.69 120 17:24 23.05.2022
3502 Clouds 28 1021 69 10000 5.66 120 15:31 23.05.2022
3503 Clouds 25 1021 83 10000 3.6 110 13:22 23.05.2022
3504 Clouds 25 1020 88 10000 2.06 90 11:33 23.05.2022
3505 Clear 26 1019 77 10000 6.92 99 10:31 23.05.2022
3506 Clear 26 1019 77 10000 6.92 105 09:39 23.05.2022
3507 Clouds 26 1021 78 10000 4.63 120 08:32 23.05.2022
3508 Clouds 26 1022 83 10000 5.14 120 06:46 23.05.2022
3509 Clouds 26 1022 78 10000 5.14 120 05:39 23.05.2022
3510 Clouds 27 1022 74 10000 6.17 110 02:34 23.05.2022
3511 Clouds 28 1021 74 10000 7.2 120 01:42 23.05.2022
3512 Clouds 29 1021 70 10000 6.69 110 00:38 23.05.2022
3513 Clouds 30 1022 62 10000 7.2 110 22:42 22.05.2022
3514 Clouds 29 1023 70 10000 6.17 110 21:55 22.05.2022
3515 Clouds 29 1023 70 10000 6.17 110 21:36 22.05.2022
3516 Clouds 29 1023 65 10000 6.69 90 20:32 22.05.2022
3517 Clouds 29 1024 65 10000 6.69 100 19:57 22.05.2022
3518 Clouds 29 1024 65 10000 6.69 110 18:56 22.05.2022
3519 Clouds 29 1024 65 10000 6.69 110 18:25 22.05.2022
3520 Clouds 30 1024 66 10000 5.66 110 17:37 22.05.2022
3521 Clouds 29 1023 70 10000 6.17 110 16:39 22.05.2022
3522 Clouds 26 1023 80 10000 6.72 90 14:53 22.05.2022
3523 Clouds 26 1023 83 10000 4.12 120 13:56 22.05.2022
3524 Clouds 26 1022 83 10000 5.14 140 12:52 22.05.2022
3525 Clouds 26 1022 83 10000 5.14 130 11:52 22.05.2022
3526 Clouds 26 1022 89 10000 5.14 130 10:24 22.05.2022
3527 Clouds 26 1022 83 10000 5.14 130 09:18 22.05.2022
3528 Clouds 27 1023 83 10000 5.14 130 07:22 22.05.2022
3529 Clouds 27 1023 83 10000 5.14 120 06:24 22.05.2022
3530 Clouds 28 1022 78 10000 6.17 120 02:50 22.05.2022
3531 Clouds 29 1022 74 10000 6.69 130 00:44 22.05.2022
3532 Clouds 29 1022 74 10000 7.2 130 23:55 21.05.2022
3533 Clouds 29 1022 74 10000 7.2 130 23:21 21.05.2022
3534 Clouds 29 1022 74 10000 8.23 140 21:47 21.05.2022
3535 Clouds 29 1022 74 10000 8.23 140 21:26 21.05.2022
3536 Clouds 29 1022 74 10000 8.23 130 20:25 21.05.2022
3537 Clouds 29 1023 79 10000 8.75 130 19:37 21.05.2022
3538 Clouds 29 1022 74 10000 7.2 130 17:57 21.05.2022
3539 Clouds 29 1022 74 10000 7.2 130 16:53 21.05.2022
3540 Clouds 27 1022 83 10000 5.66 140 14:38 21.05.2022
3541 Clouds 27 1021 89 10000 4.63 120 13:53 21.05.2022
3542 Clouds 27 1021 89 10000 4.63 120 12:57 21.05.2022
3543 Clouds 27 1021 89 10000 4.63 120 12:37 21.05.2022
3544 Clouds 27 1020 87 10000 6.99 121 10:44 21.05.2022
3545 Clouds 27 1021 89 10000 3.6 130 09:48 21.05.2022
3546 Clouds 27 1020 88 10000 7.46 115 08:58 21.05.2022
3547 Clouds 27 1020 88 10000 7.46 115 08:33 21.05.2022
3548 Clouds 27 1021 87 10000 5.14 96 04:33 21.05.2022
3549 Clouds 28 1020 83 10000 2.06 130 00:38 21.05.2022
3550 Clouds 29 1019 79 10000 6.17 140 22:59 20.05.2022
3551 Clouds 29 1019 79 10000 6.17 140 22:24 20.05.2022
3552 Clouds 29 1019 79 10000 7.2 160 21:47 20.05.2022
3553 Clouds 29 1019 79 10000 6.69 160 20:57 20.05.2022
3554 Clouds 29 1019 79 10000 6.69 160 20:25 20.05.2022
3555 Rain 28 1019 83 10000 7.72 140 19:26 20.05.2022
3556 Rain 28 1020 78 10000 6.17 140 18:46 20.05.2022
3557 Rain 28 1019 78 10000 6.17 160 17:24 20.05.2022
3558 Rain 28 1019 74 10000 5.66 160 16:19 20.05.2022
3559 Rain 28 1019 78 10000 4.63 160 15:47 20.05.2022
3560 Rain 27 1019 83 10000 2.06 130 14:30 20.05.2022
3561 Clear 26 1018 89 10000 3.09 170 13:55 20.05.2022
3562 Clouds 27 1016 80 10000 3.96 151 11:38 20.05.2022
3563 Clouds 26 1016 78 10000 2.57 160 10:19 20.05.2022
3564 Clouds 26 1017 83 10000 3.09 170 08:45 20.05.2022
3565 Clouds 26 1018 89 10000 2.57 180 07:18 20.05.2022
3566 Clouds 25 1017 85 10000 6.36 138 06:32 20.05.2022
3567 Clouds 25 1017 88 10000 0 0 04:42 20.05.2022
3568 Clouds 26 1016 89 10000 3.09 180 00:48 20.05.2022
3569 Rain 25 1017 94 10000 1.54 240 22:47 19.05.2022
3570 Rain 25 1017 94 10000 1.54 240 22:19 19.05.2022
3571 Rain 25 1017 94 10000 2.06 180 21:42 19.05.2022
3572 Rain 25 1017 94 10000 2.06 180 21:22 19.05.2022
3573 Rain 24 1018 94 10000 2.57 20 20:32 19.05.2022
3574 Rain 27 1017 83 10000 3.6 50 19:40 19.05.2022
3575 Clouds 28 1018 78 10000 2.06 20 18:22 19.05.2022
3576 Clouds 28 1018 74 10000 3.09 230 16:35 19.05.2022
3577 Clouds 27 1017 83 10000 2.06 210 14:52 19.05.2022
3578 Clouds 27 1017 83 10000 2.06 210 14:24 19.05.2022
3579 Clouds 25 1017 94 10000 0 0 13:20 19.05.2022
3580 Clouds 26 1016 89 10000 1.54 210 11:25 19.05.2022
3581 Clouds 26 1017 83 10000 2.57 190 09:19 19.05.2022
3582 Clouds 27 1016 79 10000 5.18 166 07:48 19.05.2022
3583 Clouds 26 1018 83 10000 3.09 150 04:50 19.05.2022
3584 Clouds 28 1017 69 10000 3.6 80 01:59 19.05.2022
3585 Clouds 29 1016 70 10000 4.63 40 23:55 18.05.2022
3586 Clouds 29 1017 70 10000 4.63 60 22:47 18.05.2022
3587 Clouds 28 1017 69 10000 4.12 40 21:47 18.05.2022
3588 Clouds 28 1017 69 10000 4.12 40 21:26 18.05.2022
3589 Clouds 29 1018 70 10000 3.6 40 20:24 18.05.2022
3590 Clouds 28 1018 74 10000 3.6 70 19:39 18.05.2022
3591 Clouds 28 1019 78 10000 3.6 50 18:21 18.05.2022
3592 Clouds 27 1019 78 10000 3.09 30 17:41 18.05.2022
3593 Clouds 27 1019 78 10000 3.09 30 17:23 18.05.2022
3594 Clouds 28 1018 74 10000 1.54 30 16:23 18.05.2022
3595 Clouds 27 1018 78 10000 1.54 20 15:40 18.05.2022
3596 Clouds 26 1018 83 10000 0 0 14:35 18.05.2022
3597 Clouds 24 1017 94 10000 0 0 13:22 18.05.2022
3598 Clouds 23 1017 100 10000 0.51 0 12:40 18.05.2022
3599 Clouds 24 1016 94 10000 0.51 0 11:34 18.05.2022
3600 Clouds 23 1016 94 10000 0.51 0 10:52 18.05.2022
3601 Clouds 24 1017 94 10000 1.03 0 08:53 18.05.2022
3602 Clouds 24 1018 94 10000 1.54 210 07:29 18.05.2022
3603 Clouds 24 1018 94 10000 1.03 0 05:21 18.05.2022
3604 Clouds 25 1017 88 10000 4.12 90 00:52 18.05.2022
3605 Clouds 25 1017 88 10000 4.12 90 00:20 18.05.2022
3606 Clouds 29 1017 74 10000 3.09 70 21:36 17.05.2022
3607 Clouds 29 1017 74 10000 3.09 70 21:18 17.05.2022
3608 Clouds 28 1017 69 10000 4.12 110 19:49 17.05.2022
3609 Clouds 28 1017 69 10000 4.12 110 19:26 17.05.2022
3610 Clouds 29 1018 70 10000 4.12 160 17:49 17.05.2022
3611 Clouds 28 1017 74 10000 4.12 160 16:58 17.05.2022
3612 Clouds 28 1017 74 10000 4.12 160 16:29 17.05.2022
3613 Clouds 27 1017 78 10000 3.6 150 15:24 17.05.2022
3614 Clear 26 1016 75 10000 2.37 169 14:30 17.05.2022
3615 Clear 26 1016 75 10000 2.37 169 14:30 17.05.2022
3616 Clouds 24 1016 94 10000 2.57 160 13:31 17.05.2022
3617 Clouds 23 1015 100 10000 0 0 10:51 17.05.2022
3618 Clear 23 1015 94 10000 1.03 0 09:23 17.05.2022
3619 Clouds 24 1017 94 10000 2.06 170 07:59 17.05.2022
3620 Clouds 24 1017 100 10000 2.57 160 06:36 17.05.2022
3621 Clouds 25 1016 88 10000 2.57 150 02:27 17.05.2022
3622 Clouds 26 1014 78 10000 3.09 140 00:28 17.05.2022
3623 Clouds 25 1015 78 10000 1.03 0 22:41 16.05.2022
3624 Rain 24 1016 88 10000 2.57 360 21:33 16.05.2022
3625 Rain 23 1017 94 8000 3.09 330 20:44 16.05.2022
3626 Rain 24 1017 88 10000 6.17 330 19:22 16.05.2022
3627 Clouds 27 1016 78 10000 3.09 240 17:58 16.05.2022
3628 Clouds 27 1015 78 10000 4.63 220 15:42 16.05.2022
3629 Clouds 25 1014 88 10000 1.54 240 13:48 16.05.2022
3630 Clouds 25 1014 88 10000 4.12 210 12:50 16.05.2022
3631 Clouds 25 1014 94 10000 3.6 190 10:52 16.05.2022
3632 Clouds 26 1015 83 10000 3.09 180 08:55 16.05.2022
3633 Clouds 25 1015 94 10000 3.09 190 06:33 16.05.2022
3634 Clouds 25 1014 94 10000 1.03 0 02:33 16.05.2022
3635 Rain 24 1014 94 1600 6.69 130 22:52 15.05.2022
3636 Clouds 28 1014 69 10000 4.63 50 22:28 15.05.2022
3637 Clouds 29 1015 61 10000 2.06 90 21:38 15.05.2022
3638 Clouds 27 1016 74 10000 4.12 110 20:53 15.05.2022
3639 Clouds 28 1016 69 10000 2.57 20 18:53 15.05.2022
3640 Clouds 28 1016 74 10000 2.06 340 17:45 15.05.2022
3641 Clouds 28 1015 69 10000 1.54 210 15:26 15.05.2022
3642 Clouds 25 1015 83 10000 3.09 240 13:47 15.05.2022
3643 Clouds 25 1014 88 10000 3.6 200 12:21 15.05.2022
3644 Clouds 25 1014 88 10000 5.14 200 11:29 15.05.2022
3645 Clouds 26 1014 89 10000 4.12 160 09:58 15.05.2022
3646 Clouds 26 1015 89 10000 6.17 150 07:25 15.05.2022
3647 Clouds 26 1016 83 10000 4.63 170 06:56 15.05.2022
3648 Clouds 26 1015 83 10000 3.09 180 03:40 15.05.2022
3649 Clouds 27 1014 78 10000 4.63 180 00:42 15.05.2022
3650 Clouds 27 1014 78 10000 3.6 180 23:38 14.05.2022
3651 Clouds 28 1014 74 10000 5.14 170 22:39 14.05.2022
3652 Clouds 28 1015 78 10000 6.17 170 21:26 14.05.2022
3653 Clouds 28 1015 74 10000 6.17 190 20:30 14.05.2022
3654 Clouds 27 1016 74 10000 4.63 190 19:21 14.05.2022
3655 Clouds 27 1016 74 10000 3.6 200 18:59 14.05.2022
3656 Clouds 26 1015 83 10000 4.63 190 17:53 14.05.2022
3657 Clouds 26 1015 78 10000 5.14 200 16:23 14.05.2022
3658 Clouds 23 1014 94 10000 2.57 110 14:40 14.05.2022
3659 Clouds 23 1014 94 10000 2.57 110 14:22 14.05.2022
3660 Thunderstorm 22 1014 100 10000 2.06 110 11:48 14.05.2022
3661 Thunderstorm 22 1015 94 10000 6.17 100 10:45 14.05.2022
3662 Thunderstorm 22 1015 94 10000 6.17 100 10:19 14.05.2022
3663 Thunderstorm 21 1015 100 10000 1.03 0 09:25 14.05.2022
3664 Thunderstorm 21 1016 100 4000 5.14 300 07:34 14.05.2022
3665 Rain 22 1016 94 600 9.26 100 04:43 14.05.2022
3666 Clouds 28 1014 69 10000 4.63 160 00:43 14.05.2022
3667 Clouds 28 1014 65 10000 4.63 190 23:28 13.05.2022
3668 Clouds 28 1014 69 10000 6.17 160 22:55 13.05.2022
3669 Clouds 28 1014 69 10000 6.17 160 22:21 13.05.2022
3670 Clouds 28 1015 65 10000 7.2 170 20:59 13.05.2022
3671 Clouds 28 1015 65 10000 7.2 170 20:38 13.05.2022
3672 Clouds 28 1015 65 10000 7.2 170 20:20 13.05.2022
3673 Thunderstorm 26 1016 73 10000 3.6 100 19:18 13.05.2022
3674 Clouds 25 1016 83 10000 2.06 50 17:47 13.05.2022
3675 Clouds 25 1016 83 10000 2.06 50 17:23 13.05.2022
3676 Clouds 26 1015 83 10000 4.12 110 15:47 13.05.2022
3677 Clouds 26 1015 78 10000 3.6 120 14:39 13.05.2022
3678 Clouds 23 1014 83 10000 1.03 0 12:53 13.05.2022
3679 Clouds 23 1013 78 10000 3.6 170 11:56 13.05.2022
3680 Clouds 24 1013 73 10000 2.57 180 10:19 13.05.2022
3681 Clear 25 1013 71 10000 5.9 141 09:29 13.05.2022
3682 Clouds 24 1014 78 10000 4.12 130 07:52 13.05.2022
3683 Clouds 24 1014 78 10000 4.12 130 07:18 13.05.2022
3684 Clouds 24 1015 73 10000 3.6 120 05:23 13.05.2022
3685 Clouds 26 1013 61 10000 2.06 20 00:59 13.05.2022
3686 Clouds 26 1013 61 10000 4.12 30 22:59 12.05.2022
3687 Clouds 26 1013 61 10000 4.12 30 22:34 12.05.2022
3688 Clouds 26 1014 57 10000 4.63 10 21:24 12.05.2022
3689 Clouds 26 1015 57 10000 2.06 320 19:49 12.05.2022
3690 Clouds 26 1015 61 10000 3.09 300 18:25 12.05.2022
3691 Clouds 25 1014 61 10000 1.54 30 16:44 12.05.2022
3692 Clouds 22 1014 83 10000 0.51 0 14:57 12.05.2022
3693 Clouds 18 1013 94 10000 1.54 210 13:48 12.05.2022
3694 Clouds 19 1012 88 10000 1.03 0 11:48 12.05.2022
3695 Clouds 19 1012 88 10000 0 0 10:32 12.05.2022
3696 Clouds 20 1013 88 10000 1.03 0 08:52 12.05.2022
3697 Clouds 20 1013 88 10000 1.03 0 08:52 12.05.2022
3698 Clouds 20 1013 88 10000 1.03 0 08:52 12.05.2022
3699 Clouds 20 1014 88 10000 1.03 0 07:59 12.05.2022
3700 Clouds 20 1014 88 10000 1.03 0 07:22 12.05.2022
3701 Clouds 23 1014 73 10000 3.09 40 03:50 12.05.2022
3702 Clouds 23 1013 78 10000 5.14 50 01:29 12.05.2022
3703 Clouds 26 1013 65 10000 5.14 360 22:59 11.05.2022
3704 Clouds 26 1013 65 10000 5.14 360 22:18 11.05.2022
3705 Clouds 26 1014 65 10000 3.09 20 21:24 11.05.2022
3706 Clouds 26 1014 65 10000 3.09 20 21:24 11.05.2022
3707 Clouds 25 1015 69 10000 4.63 340 19:57 11.05.2022
3708 Clouds 25 1015 65 10000 4.12 360 17:27 11.05.2022
3709 Clouds 25 1015 65 10000 2.06 70 16:19 11.05.2022
3710 Clouds 24 1015 60 10000 3.09 10 14:47 11.05.2022
3711 Clouds 24 1015 60 10000 3.09 10 14:24 11.05.2022
3712 Clouds 23 1014 73 10000 2.06 50 12:39 11.05.2022
3713 Clouds 23 1014 68 10000 2.57 10 11:47 11.05.2022
3714 Clouds 23 1014 64 10000 2.57 30 09:29 11.05.2022
3715 Clouds 24 1016 60 10000 5.66 20 06:27 11.05.2022
3716 Clouds 25 1015 61 10000 4.63 10 01:29 11.05.2022
3717 Clouds 26 1015 57 10000 5.66 20 22:56 10.05.2022
3718 Clouds 26 1015 57 10000 5.66 20 22:21 10.05.2022
3719 Clouds 26 1016 57 10000 5.14 20 21:21 10.05.2022
3720 Clouds 26 1017 57 10000 5.14 30 20:21 10.05.2022
3721 Clouds 26 1017 61 10000 5.66 30 18:36 10.05.2022
3722 Clouds 26 1017 57 10000 5.14 40 17:37 10.05.2022
3723 Clouds 25 1017 65 10000 4.12 30 15:56 10.05.2022
3724 Clouds 24 1015 71 10000 5.02 20 12:51 10.05.2022
3725 Clouds 24 1014 69 10000 4.77 15 11:53 10.05.2022
3726 Clouds 24 1014 67 10000 4.76 10 11:28 10.05.2022
3727 Clouds 24 1014 67 10000 4.76 10 10:56 10.05.2022
3728 Clouds 24 1014 66 10000 5.28 9 09:28 10.05.2022
3729 Clouds 24 1015 68 10000 6.8 14 07:51 10.05.2022
3730 Clouds 25 1016 71 10000 7.75 20 05:43 10.05.2022
3731 Clouds 25 1014 77 10000 7.7 30 01:37 10.05.2022
3732 Clouds 27 1014 69 10000 5.66 50 23:42 09.05.2022
3733 Clouds 27 1014 69 10000 5.66 50 23:42 09.05.2022
3734 Clouds 27 1014 69 10000 6.17 60 22:30 09.05.2022
3735 Clouds 28 1014 69 10000 6.17 50 21:25 09.05.2022
3736 Clouds 28 1015 78 10000 5.66 50 19:52 09.05.2022
3737 Clouds 28 1015 74 10000 5.14 50 18:22 09.05.2022
3738 Clouds 27 1015 74 10000 2.57 10 16:55 09.05.2022
3739 Clouds 27 1015 74 10000 2.57 10 16:55 09.05.2022
3740 Clouds 26 1014 73 10000 2.06 40 15:54 09.05.2022
3741 Clouds 26 1014 73 10000 2.06 40 15:34 09.05.2022
3742 Clouds 25 1013 88 10000 0 0 14:33 09.05.2022
3743 Clouds 23 1013 94 10000 0 0 13:51 09.05.2022
3744 Clouds 23 1012 94 10000 0 0 12:32 09.05.2022
3745 Clouds 23 1012 88 10000 0 0 11:43 09.05.2022
3746 Clouds 24 1012 88 10000 0.51 0 10:45 09.05.2022
3747 Clouds 24 1012 83 10000 2.06 190 09:39 09.05.2022
3748 Clouds 25 1014 83 10000 5.14 310 07:56 09.05.2022
3749 Clouds 26 1013 74 10000 1.65 338 04:33 09.05.2022
3750 Clouds 26 1013 74 10000 1.65 338 04:33 09.05.2022
3751 Clouds 26 1013 74 10000 1.65 338 04:33 09.05.2022
3752 Clouds 28 1011 65 10000 1.54 350 00:21 09.05.2022
3753 Clouds 27 1012 69 10000 2.57 330 22:57 08.05.2022
3754 Clouds 27 1012 69 10000 2.57 330 22:22 08.05.2022
3755 Clouds 25 1013 88 9000 2.06 60 20:37 08.05.2022
3756 Thunderstorm 25 1013 83 9000 2.06 360 19:53 08.05.2022
3757 Rain 27 1013 83 10000 3.09 280 18:59 08.05.2022
3758 Rain 27 1013 83 10000 3.09 280 18:24 08.05.2022
3759 Clear 27 1013 73 10000 4.91 262 16:59 08.05.2022
3760 Clouds 24 1012 78 10000 3.6 270 15:41 08.05.2022
3761 Clouds 24 1012 78 10000 3.6 270 15:20 08.05.2022
3762 Clouds 24 1012 78 10000 3.6 270 15:20 08.05.2022
3763 Clouds 21 1012 94 10000 3.09 220 12:39 08.05.2022
3764 Rain 25 1012 83 10000 4.12 230 10:32 08.05.2022
3765 Rain 27 1011 76 10000 6.25 227 09:59 08.05.2022
3766 Clear 27 1011 76 10000 6.25 227 09:31 08.05.2022
3767 Clouds 25 1012 88 10000 2.57 240 07:31 08.05.2022
3768 Clouds 24 1013 83 10000 1.03 0 04:20 08.05.2022
3769 Clouds 24 1012 83 10000 5.14 180 02:51 08.05.2022
3770 Clouds 27 1012 74 10000 3.6 110 00:28 08.05.2022
3771 Clouds 27 1011 74 10000 2.57 40 23:51 07.05.2022
3772 Clouds 26 1012 83 10000 2.06 130 22:48 07.05.2022
3773 Thunderstorm 23 1012 94 3600 8.75 320 21:59 07.05.2022
3774 Thunderstorm 23 1012 94 3600 8.75 320 21:34 07.05.2022
3775 Clouds 28 1013 83 10000 5.14 200 20:42 07.05.2022
3776 Clouds 30 1014 70 10000 5.66 210 19:57 07.05.2022
3777 Clouds 29 1014 70 10000 5.66 220 17:43 07.05.2022
3778 Clouds 27 1015 78 10000 4.63 230 15:47 07.05.2022
3779 Clouds 25 1014 88 10000 4.12 210 13:58 07.05.2022
3780 Clouds 25 1014 88 10000 4.63 210 10:46 07.05.2022
3781 Clear 26 1013 77 10000 6.9 184 09:20 07.05.2022
3782 Clouds 26 1015 83 10000 3.09 200 07:51 07.05.2022
3783 Clouds 26 1015 78 10000 3.6 180 06:43 07.05.2022
3784 Clouds 25 1015 83 10000 2.57 160 04:56 07.05.2022
3785 Clouds 27 1015 74 10000 4.12 180 01:24 07.05.2022
3786 Clouds 29 1015 61 10000 2.06 30 23:37 06.05.2022
3787 Clouds 29 1015 65 10000 2.57 30 22:27 06.05.2022
3788 Clear 26 1014 73 10000 0.71 352 21:43 06.05.2022
3789 Clouds 28 1017 69 10000 4.12 360 20:33 06.05.2022
3790 Clouds 29 1017 61 10000 3.6 280 19:29 06.05.2022
3791 Clouds 29 1018 65 10000 4.12 310 18:57 06.05.2022
3792 Clouds 28 1018 69 10000 4.63 290 17:38 06.05.2022
3793 Clouds 28 1017 69 10000 3.09 250 16:39 06.05.2022
3794 Clouds 27 1017 74 10000 2.57 240 15:39 06.05.2022
3795 Clouds 25 1017 88 10000 2.06 250 14:46 06.05.2022
3796 Clouds 22 1016 94 10000 1.03 0 12:54 06.05.2022
3797 Clouds 22 1016 94 10000 1.03 0 12:33 06.05.2022
3798 Clouds 22 1016 94 10000 1.03 0 11:41 06.05.2022
3799 Clear 25 1015 73 10000 1.43 179 10:26 06.05.2022
3800 Clouds 22 1016 94 10000 0.51 160 09:39 06.05.2022
3801 Clouds 23 1017 94 10000 0.51 0 07:59 06.05.2022
3802 Clouds 23 1017 88 10000 0 0 06:39 06.05.2022
3803 Clouds 25 1017 83 10000 2.06 160 04:37 06.05.2022
3804 Clouds 27 1017 69 10000 1.54 30 02:43 06.05.2022
3805 Clouds 28 1016 65 10000 3.6 360 23:34 05.05.2022
3806 Clouds 29 1017 61 10000 3.6 350 21:52 05.05.2022
3807 Clouds 27 1018 74 10000 3.09 360 20:48 05.05.2022
3808 Clouds 27 1018 69 10000 3.6 80 19:42 05.05.2022
3809 Clouds 27 1018 74 10000 2.57 230 16:53 05.05.2022
3810 Clouds 26 1018 78 10000 2.57 210 15:52 05.05.2022
3811 Clouds 26 1018 83 10000 2.06 200 14:37 05.05.2022
3812 Clouds 23 1017 94 10000 1.03 230 13:18 05.05.2022
3813 Clouds 23 1017 94 10000 0.51 240 11:48 05.05.2022
3814 Clouds 23 1017 88 10000 1.54 200 10:28 05.05.2022
3815 Clouds 23 1017 88 10000 1.54 180 09:32 05.05.2022
3816 Clouds 23 1019 88 10000 1.54 170 06:49 05.05.2022
3817 Clouds 25 1018 73 10000 2.57 160 02:30 05.05.2022
3818 Clear 26 1017 73 10000 2.06 200 01:47 05.05.2022
3819 Clear 26 1017 73 10000 2.06 200 01:20 05.05.2022
3820 Clouds 28 1016 65 10000 4.12 210 23:28 04.05.2022
3821 Clouds 28 1017 65 10000 5.14 180 22:23 04.05.2022
3822 Clouds 29 1017 65 10000 4.12 150 21:46 04.05.2022
3823 Clouds 29 1017 65 10000 4.12 150 21:22 04.05.2022
3824 Clouds 27 1018 69 10000 3.6 90 20:20 04.05.2022
3825 Clouds 26 1019 69 10000 5.66 100 19:44 04.05.2022
3826 Clear 26 1018 81 10000 4.86 153 18:44 04.05.2022
3827 Clear 26 1018 82 10000 4.73 151 18:20 04.05.2022
3828 Clouds 23 1021 88 10000 1.03 0 17:22 04.05.2022
3829 Thunderstorm 22 1019 94 10000 3.09 40 15:34 04.05.2022
3830 Thunderstorm 21 1019 100 10000 3.09 40 14:46 04.05.2022
3831 Rain 25 1018 83 10000 5.16 147 14:20 04.05.2022
3832 Rain 25 1017 83 10000 4.44 153 12:58 04.05.2022
3833 Clouds 25 1017 84 10000 4.86 149 11:59 04.05.2022
3834 Clouds 25 1016 84 10000 5.76 150 10:28 04.05.2022
3835 Clouds 25 1017 88 10000 3.6 160 09:23 04.05.2022
3836 Clouds 25 1018 88 10000 4.12 150 08:26 04.05.2022
3837 Clouds 26 1018 89 10000 3.6 120 05:42 04.05.2022
3838 Clouds 26 1018 83 10000 2.57 140 02:42 04.05.2022
3839 Rain 26 1017 83 10000 4.63 170 23:23 03.05.2022
3840 Clouds 29 1018 61 10000 6.69 160 21:59 03.05.2022
3841 Clouds 29 1018 61 10000 6.69 160 21:32 03.05.2022
3842 Clouds 29 1018 70 10000 5.14 150 20:52 03.05.2022
3843 Clouds 29 1019 70 10000 5.66 150 19:36 03.05.2022
3844 Clouds 29 1019 70 10000 5.14 140 18:47 03.05.2022
3845 Clouds 29 1019 65 10000 4.63 150 17:22 03.05.2022
3846 Clouds 28 1018 69 10000 4.12 130 16:20 03.05.2022
3847 Clouds 23 1018 94 10000 0.51 0 14:34 03.05.2022
3848 Clouds 23 1017 94 10000 1.54 90 12:46 03.05.2022
3849 Clouds 23 1017 88 10000 0.51 0 11:49 03.05.2022
3850 Clouds 23 1017 94 10000 2.06 90 10:49 03.05.2022
3851 Clouds 25 1017 81 10000 7.32 103 08:33 03.05.2022
3852 Clouds 24 1019 83 10000 4.63 110 06:45 03.05.2022
3853 Clouds 26 1018 73 10000 5.14 100 03:26 03.05.2022
3854 Clouds 27 1018 69 10000 6.69 90 23:32 02.05.2022
3855 Clouds 27 1018 65 10000 6.17 80 22:32 02.05.2022
3856 Clouds 28 1019 61 10000 7.2 90 21:48 02.05.2022
3857 Clouds 28 1019 61 10000 7.2 90 21:48 02.05.2022
3858 Clouds 27 1020 65 10000 6.69 110 19:59 02.05.2022
3859 Clouds 27 1020 65 10000 6.17 110 18:27 02.05.2022
3860 Clouds 27 1020 65 10000 6.17 110 17:41 02.05.2022
3861 Clouds 27 1020 61 10000 6.69 110 16:43 02.05.2022
3862 Clouds 26 1020 65 10000 6.17 100 15:44 02.05.2022
3863 Clouds 25 1019 69 10000 4.63 110 14:51 02.05.2022
3864 Clouds 24 1019 73 10000 2.57 90 13:42 02.05.2022
3865 Clouds 24 1018 78 10000 4.63 110 11:41 02.05.2022
3866 Clouds 25 1018 73 10000 5.66 120 09:45 02.05.2022
3867 Clouds 24 1018 83 10000 5.14 120 08:31 02.05.2022
3868 Clouds 25 1019 78 10000 5.14 120 06:56 02.05.2022
3869 Clouds 27 1017 65 10000 5.14 110 00:47 02.05.2022
3870 Clouds 27 1017 65 10000 5.14 110 00:47 02.05.2022
3871 Clouds 27 1017 65 10000 5.14 110 00:22 02.05.2022
3872 Clouds 27 1017 65 10000 6.17 70 22:55 01.05.2022
3873 Clouds 28 1018 57 10000 5.14 100 21:43 01.05.2022
3874 Clouds 29 1018 51 10000 5.14 140 20:36 01.05.2022
3875 Clouds 28 1018 54 10000 5.66 140 19:27 01.05.2022
3876 Clouds 29 1019 51 10000 5.14 130 18:53 01.05.2022
3877 Clouds 28 1019 61 10000 5.14 130 17:50 01.05.2022
3878 Clouds 27 1019 61 10000 5.66 130 16:38 01.05.2022
3879 Clouds 25 1018 69 10000 5.14 110 15:57 01.05.2022
3880 Clear 25 1018 68 10000 6.03 102 14:45 01.05.2022
3881 Clouds 20 1017 88 10000 1.54 60 12:40 01.05.2022
3882 Clouds 22 1017 83 10000 2.06 90 10:36 01.05.2022
3883 Clouds 23 1017 68 10000 3.09 140 08:50 01.05.2022
3884 Clouds 24 1018 69 10000 4.12 110 06:50 01.05.2022
3885 Clouds 25 1017 73 10000 4.63 70 02:31 01.05.2022
3886 Clouds 28 1016 47 10000 4.63 130 22:51 30.04.2022
3887 Clouds 27 1016 50 10000 4.12 150 21:33 30.04.2022
3888 Clouds 27 1016 50 10000 4.12 150 21:33 30.04.2022
3889 Clouds 27 1017 50 10000 4.12 160 20:19 30.04.2022
3890 Clouds 28 1018 51 10000 5.14 150 19:30 30.04.2022
3891 Clouds 28 1018 54 10000 5.66 180 17:32 30.04.2022
3892 Clouds 26 1018 61 10000 6.17 150 15:53 30.04.2022
3893 Clouds 26 1018 61 10000 6.17 150 15:18 30.04.2022
3894 Clouds 24 1016 69 10000 4.63 150 13:59 30.04.2022
3895 Clouds 23 1016 68 10000 4.12 150 11:58 30.04.2022
3896 Clouds 23 1016 68 10000 4.12 150 11:31 30.04.2022
3897 Clouds 23 1016 78 10000 1.54 100 10:23 30.04.2022
3898 Clouds 23 1018 83 10000 2.06 90 07:47 30.04.2022
3899 Clouds 24 1018 78 10000 2.57 70 04:25 30.04.2022
3900 Clouds 26 1016 61 10000 3.6 150 00:25 30.04.2022
3901 Clouds 27 1016 54 10000 3.09 100 22:56 29.04.2022
3902 Clouds 26 1017 61 10000 3.6 140 21:56 29.04.2022
3903 Clouds 26 1017 61 10000 3.6 140 21:26 29.04.2022
3904 Clear 24 1017 65 10000 4.23 124 20:24 29.04.2022
3905 Clear 24 1017 65 10000 3.94 120 19:28 29.04.2022
3906 Clear 24 1018 65 10000 3.83 117 17:35 29.04.2022
3907 Clouds 27 1018 57 10000 2.57 130 16:38 29.04.2022
3908 Clouds 24 1017 73 10000 2.57 110 14:37 29.04.2022
3909 Clouds 19 1017 88 10000 0.51 0 13:42 29.04.2022
3910 Clear 19 1016 88 10000 0 0 12:37 29.04.2022
3911 Clouds 19 1016 94 10000 1.03 0 10:32 29.04.2022
3912 Clear 19 1017 88 10000 0 0 07:55 29.04.2022
3913 Clear 19 1017 88 10000 0 0 07:25 29.04.2022
3914 Clear 20 1018 83 10000 0 0 06:30 29.04.2022
3915 Clouds 25 1016 61 10000 3.09 110 01:47 29.04.2022
3916 Clouds 26 1016 61 10000 3.09 120 23:58 28.04.2022
3917 Clouds 26 1016 61 10000 3.09 120 23:25 28.04.2022
3918 Clouds 26 1016 61 10000 2.06 260 22:24 28.04.2022
3919 Clouds 25 1017 65 10000 3.09 50 21:41 28.04.2022
3920 Clouds 25 1017 69 10000 3.09 50 20:45 28.04.2022
3921 Clouds 26 1018 61 10000 3.6 360 19:49 28.04.2022
3922 Clouds 26 1018 61 10000 3.6 360 19:24 28.04.2022
3923 Clouds 26 1018 61 10000 2.57 80 18:51 28.04.2022
3924 Clouds 27 1018 61 10000 2.06 110 17:42 28.04.2022
3925 Clouds 26 1018 61 10000 2.57 130 16:51 28.04.2022
3926 Clouds 26 1018 61 10000 2.57 130 16:20 28.04.2022
3927 Clouds 26 1018 61 10000 2.57 130 16:20 28.04.2022
3928 Clouds 25 1018 65 10000 1.54 140 15:43 28.04.2022
3929 Clouds 23 1017 83 10000 0.51 0 14:58 28.04.2022
3930 Clouds 19 1017 88 10000 0.51 0 13:33 28.04.2022
3931 Clear 19 1017 88 10000 0.51 0 12:28 28.04.2022
3932 Clear 24 1016 70 10000 4.28 121 10:59 28.04.2022
3933 Clear 24 1016 71 10000 4.6 119 10:26 28.04.2022
3934 Clear 24 1016 71 10000 4.6 119 09:47 28.04.2022
3935 Clear 21 1018 88 10000 3.09 120 07:40 28.04.2022
3936 Clear 22 1018 83 10000 2.06 90 06:42 28.04.2022
3937 Clear 22 1018 83 10000 2.57 110 05:52 28.04.2022
3938 Clear 24 1018 73 10000 2.06 90 04:42 28.04.2022
3939 Clouds 27 1017 54 10000 2.57 140 00:52 28.04.2022
3940 Clouds 27 1017 50 10000 4.12 170 23:18 27.04.2022
3941 Clouds 28 1018 54 10000 4.63 140 21:58 27.04.2022
3942 Clouds 28 1018 54 10000 4.63 140 21:34 27.04.2022
3943 Clouds 27 1018 57 10000 5.14 160 20:44 27.04.2022
3944 Clouds 27 1019 61 10000 4.63 160 19:54 27.04.2022
3945 Clouds 27 1019 61 10000 4.63 160 19:30 27.04.2022
3946 Clouds 27 1019 61 10000 4.63 130 18:38 27.04.2022
3947 Clouds 26 1019 61 10000 4.12 140 17:41 27.04.2022
3948 Clouds 25 1019 65 10000 4.63 140 15:56 27.04.2022
3949 Clear 22 1018 78 10000 2.06 100 12:50 27.04.2022
3950 Clear 22 1018 78 10000 2.57 90 11:23 27.04.2022
3951 Clear 23 1019 78 10000 2.57 100 10:26 27.04.2022
3952 Clouds 23 1020 78 10000 3.09 90 07:41 27.04.2022
3953 Clouds 24 1020 78 10000 2.57 100 06:36 27.04.2022
3954 Clouds 25 1019 69 10000 4.63 100 02:25 27.04.2022
3955 Clouds 26 1019 69 10000 4.63 90 01:18 27.04.2022
3956 Clouds 26 1019 65 10000 6.17 80 00:27 27.04.2022
3957 Clouds 26 1019 65 10000 5.14 80 23:23 26.04.2022
3958 Clouds 27 1019 57 10000 5.14 100 22:43 26.04.2022
3959 Clouds 27 1020 61 10000 5.66 70 21:57 26.04.2022
3960 Clouds 26 1020 61 10000 5.66 80 20:58 26.04.2022
3961 Clouds 26 1020 61 10000 5.66 80 20:36 26.04.2022
3962 Clouds 27 1020 54 10000 4.63 110 19:35 26.04.2022
3963 Clouds 27 1021 61 10000 4.63 90 18:53 26.04.2022
3964 Clouds 27 1021 61 10000 4.63 90 18:19 26.04.2022
3965 Clouds 27 1021 61 10000 4.63 90 17:34 26.04.2022
3966 Clouds 24 1020 73 10000 2.06 90 14:58 26.04.2022
3967 Clouds 22 1020 78 10000 1.54 90 13:34 26.04.2022
3968 Clouds 20 1019 88 10000 2.06 60 12:34 26.04.2022
3969 Clouds 22 1019 83 10000 2.06 80 10:46 26.04.2022
3970 Clouds 22 1019 78 10000 1.54 90 09:50 26.04.2022
3971 Clouds 23 1020 78 10000 2.57 100 08:28 26.04.2022
3972 Clouds 24 1020 73 10000 3.6 100 04:37 26.04.2022
3973 Clouds 24 1020 73 10000 5.14 100 02:40 26.04.2022
3974 Clouds 26 1019 65 10000 6.17 80 00:28 26.04.2022
3975 Clouds 26 1019 65 10000 6.17 90 22:50 25.04.2022
3976 Clouds 26 1019 69 10000 7.2 80 21:44 25.04.2022
3977 Clouds 26 1020 69 10000 6.69 90 20:46 25.04.2022
3978 Clouds 25 1020 73 10000 6.69 70 19:39 25.04.2022
3979 Clouds 26 1020 69 10000 5.66 100 18:25 25.04.2022
3980 Clouds 25 1020 73 10000 6.17 100 17:32 25.04.2022
3981 Clouds 25 1020 73 10000 6.17 100 15:38 25.04.2022
3982 Clouds 25 1020 73 10000 6.17 100 15:18 25.04.2022
3983 Clouds 22 1019 88 10000 4.12 90 13:43 25.04.2022
3984 Clouds 22 1018 88 10000 3.6 90 11:53 25.04.2022
3985 Clouds 22 1018 88 10000 3.6 110 10:27 25.04.2022
3986 Clear 23 1019 78 10000 3.6 100 09:20 25.04.2022
3987 Clouds 23 1020 78 10000 4.63 100 06:49 25.04.2022
3988 Clouds 23 1020 83 10000 5.14 100 05:23 25.04.2022
3989 Clouds 26 1019 69 10000 6.69 100 00:58 25.04.2022
3990 Clouds 26 1019 69 10000 7.72 90 23:52 24.04.2022
3991 Clouds 26 1019 69 10000 6.69 90 22:49 24.04.2022
3992 Clouds 26 1019 69 10000 6.69 90 22:29 24.04.2022
3993 Clouds 27 1019 65 10000 7.2 100 21:41 24.04.2022
3994 Clouds 27 1019 65 10000 7.2 100 21:18 24.04.2022
3995 Clouds 27 1020 65 10000 7.2 100 20:35 24.04.2022
3996 Clouds 27 1020 65 10000 7.2 100 19:48 24.04.2022
3997 Clouds 27 1020 61 10000 7.2 110 18:20 24.04.2022
3998 Clouds 26 1020 65 10000 8.23 110 17:32 24.04.2022
3999 Clouds 26 1020 69 10000 7.2 100 16:59 24.04.2022
4000 Clouds 26 1020 69 10000 7.2 100 16:35 24.04.2022
4001 Clear 24 1020 73 10000 8.94 81 15:55 24.04.2022
4002 Clear 24 1020 73 10000 8.94 81 15:31 24.04.2022
4003 Clear 24 1020 73 10000 8.94 81 15:31 24.04.2022
4004 Clouds 24 1019 78 10000 4.12 90 13:58 24.04.2022
4005 Clouds 24 1019 78 10000 4.12 90 13:25 24.04.2022
4006 Clouds 22 1018 83 10000 4.12 90 12:30 24.04.2022
4007 Clouds 23 1018 78 10000 4.12 100 11:28 24.04.2022
4008 Clear 24 1017 74 10000 8.83 75 10:25 24.04.2022
4009 Clear 22 1019 78 10000 3.6 90 09:23 24.04.2022
4010 Clouds 23 1020 73 10000 4.63 90 06:34 24.04.2022
4011 Clouds 23 1020 73 10000 5.14 90 03:55 24.04.2022
4012 Clouds 24 1019 64 10000 6.69 90 01:38 24.04.2022
4013 Clouds 25 1019 65 10000 6.69 80 00:24 24.04.2022
4014 Clouds 26 1019 57 10000 7.2 90 23:44 23.04.2022
4015 Clouds 26 1019 57 10000 7.2 90 23:21 23.04.2022
4016 Clouds 27 1020 57 10000 7.2 80 21:51 23.04.2022
4017 Clouds 27 1020 57 10000 7.2 80 21:32 23.04.2022
4018 Clouds 27 1021 57 10000 6.69 80 20:36 23.04.2022
4019 Clouds 26 1021 61 10000 7.2 90 19:46 23.04.2022
4020 Clouds 26 1021 61 10000 7.2 90 19:19 23.04.2022
4021 Clouds 26 1021 61 10000 7.2 90 18:46 23.04.2022
4022 Clouds 26 1021 65 10000 6.69 100 17:48 23.04.2022
4023 Clouds 25 1021 69 10000 7.2 90 16:50 23.04.2022
4024 Clouds 25 1021 69 10000 7.2 90 16:23 23.04.2022
4025 Clouds 24 1021 73 10000 6.17 90 14:47 23.04.2022
4026 Clouds 23 1020 78 10000 5.14 80 12:22 23.04.2022
4027 Clouds 23 1019 83 10000 6.17 80 10:40 23.04.2022
4028 Clouds 23 1019 83 10000 6.17 80 10:40 23.04.2022
4029 Clouds 23 1020 83 10000 6.17 90 08:42 23.04.2022
4030 Clouds 23 1021 88 10000 6.17 80 05:45 23.04.2022
4031 Rain 22 1021 94 10000 5.66 80 03:54 23.04.2022
4032 Clouds 23 1021 94 7000 6.17 70 00:46 23.04.2022
4033 Clouds 24 1021 83 10000 6.69 70 23:27 22.04.2022
4034 Clouds 26 1021 69 10000 8.23 80 21:59 22.04.2022
4035 Clouds 26 1021 69 10000 8.23 80 21:40 22.04.2022
4036 Clouds 26 1022 73 10000 7.72 80 20:44 22.04.2022
4037 Clouds 26 1022 73 10000 7.72 80 20:25 22.04.2022
4038 Clouds 26 1022 73 10000 8.23 80 19:18 22.04.2022
4039 Clouds 26 1022 69 10000 8.23 90 18:33 22.04.2022
4040 Clouds 24 1021 76 10000 10.93 65 17:34 22.04.2022
4041 Clouds 26 1022 69 10000 7.72 80 16:29 22.04.2022
4042 Clouds 25 1022 73 10000 7.72 90 15:31 22.04.2022
4043 Clouds 24 1021 78 10000 7.2 90 14:38 22.04.2022
4044 Clouds 24 1021 78 10000 7.2 90 14:38 22.04.2022
4045 Clouds 24 1021 78 10000 6.69 90 13:42 22.04.2022
4046 Clouds 24 1020 83 10000 5.66 80 12:48 22.04.2022
4047 Clouds 24 1020 78 10000 6.17 80 11:23 22.04.2022
4048 Clouds 24 1020 78 10000 7.2 80 10:57 22.04.2022
4049 Clouds 24 1020 78 10000 7.2 80 10:34 22.04.2022
4050 Clouds 24 1020 83 10000 6.69 90 09:59 22.04.2022
4051 Clouds 24 1020 83 10000 6.69 90 09:22 22.04.2022
4052 Clouds 24 1021 78 10000 7.72 80 08:48 22.04.2022
4053 Clouds 24 1022 83 10000 7.2 90 06:54 22.04.2022
4054 Rain 23 1021 88 10000 6.69 60 01:34 22.04.2022
4055 Clouds 25 1021 78 10000 7.2 60 23:35 21.04.2022
4056 Clouds 25 1021 73 10000 8.23 70 22:47 21.04.2022
4057 Clouds 24 1020 78 10000 11.15 58 21:42 21.04.2022
4058 Clouds 26 1022 69 10000 8.75 70 20:31 21.04.2022
4059 Clouds 27 1023 61 10000 8.23 70 18:49 21.04.2022
4060 Clouds 27 1023 61 10000 8.23 70 18:28 21.04.2022
4061 Clouds 26 1023 61 10000 8.75 70 17:19 21.04.2022
4062 Clouds 23 1022 69 10000 10.24 57 15:25 21.04.2022
4063 Clouds 23 1022 69 10000 10.24 57 14:52 21.04.2022
4064 Clear 24 1021 69 10000 10.72 58 14:28 21.04.2022
4065 Clouds 23 1021 68 10000 7.2 90 13:21 21.04.2022
4066 Clouds 23 1021 73 10000 5.14 90 12:25 21.04.2022
4067 Clouds 24 1020 74 10000 11.11 62 09:36 21.04.2022
4068 Clouds 24 1020 74 10000 11.47 62 08:47 21.04.2022
4069 Clouds 24 1021 74 10000 11.97 64 06:44 21.04.2022
4070 Clouds 24 1022 73 10000 7.2 70 03:41 21.04.2022
4071 Clouds 24 1022 73 10000 7.2 70 03:22 21.04.2022
4072 Clouds 24 1021 73 10000 7.72 80 02:44 21.04.2022
4073 Clouds 24 1021 73 10000 7.72 80 02:44 21.04.2022
4074 Clouds 25 1020 69 10000 7.72 80 00:35 21.04.2022
4075 Clouds 26 1020 69 10000 8.23 90 23:37 20.04.2022
4076 Clouds 26 1020 69 10000 8.23 90 23:18 20.04.2022
4077 Clouds 26 1020 73 10000 7.72 70 22:34 20.04.2022
4078 Clouds 27 1020 65 10000 8.75 70 21:43 20.04.2022
4079 Clouds 26 1021 69 10000 9.26 70 20:44 20.04.2022
4080 Clouds 26 1021 69 10000 9.26 70 20:44 20.04.2022
4081 Clouds 26 1021 69 10000 9.26 70 20:21 20.04.2022
4082 Clouds 27 1021 65 10000 9.26 60 19:44 20.04.2022
4083 Clouds 26 1022 69 10000 8.23 70 18:46 20.04.2022
4084 Clouds 26 1021 69 10000 8.23 60 17:49 20.04.2022
4085 Clouds 26 1021 69 10000 8.75 60 16:39 20.04.2022
4086 Clouds 24 1020 73 10000 7.2 50 14:58 20.04.2022
4087 Clouds 24 1019 78 10000 6.69 60 12:22 20.04.2022
4088 Clouds 24 1018 78 10000 6.69 60 11:42 20.04.2022
4089 Clouds 24 1018 78 10000 6.69 60 10:43 20.04.2022
4090 Clouds 24 1019 78 10000 6.17 60 09:28 20.04.2022
4091 Clouds 24 1019 78 10000 6.69 60 08:27 20.04.2022
4092 Clouds 24 1019 78 10000 5.14 70 07:53 20.04.2022
4093 Clouds 24 1019 78 10000 5.66 70 05:29 20.04.2022
4094 Clouds 26 1016 78 10000 4.63 50 01:37 20.04.2022
4095 Clouds 26 1016 73 10000 5.66 40 00:21 20.04.2022
4096 Clouds 27 1016 69 10000 6.17 40 22:53 19.04.2022
4097 Clouds 27 1016 69 10000 6.17 40 22:23 19.04.2022
4098 Clouds 27 1016 74 10000 6.17 50 21:48 19.04.2022
4099 Clouds 27 1016 69 10000 6.17 40 20:57 19.04.2022
4100 Clouds 27 1016 69 10000 6.17 40 20:37 19.04.2022
4101 Clouds 27 1017 69 10000 6.17 40 19:32 19.04.2022
4102 Clouds 27 1017 74 10000 6.17 40 18:27 19.04.2022
4103 Clouds 26 1016 73 10000 5.14 30 16:50 19.04.2022
4104 Clouds 26 1016 73 10000 5.14 30 16:25 19.04.2022
4105 Clouds 26 1016 73 10000 4.12 10 15:57 19.04.2022
4106 Clouds 25 1015 83 10000 2.57 10 14:44 19.04.2022
4107 Clouds 21 1013 94 10000 1.54 340 12:53 19.04.2022
4108 Clouds 21 1013 94 10000 1.54 340 12:31 19.04.2022
4109 Clouds 21 1013 100 10000 1.03 180 11:27 19.04.2022
4110 Clouds 22 1014 100 10000 1.54 330 09:31 19.04.2022
4111 Clouds 22 1014 94 10000 2.57 110 07:43 19.04.2022
4112 Clouds 24 1014 83 10000 1.03 0 04:24 19.04.2022
4113 Clouds 25 1012 83 10000 3.09 70 01:24 19.04.2022
4114 Clouds 27 1013 69 10000 2.06 30 23:44 18.04.2022
4115 Clouds 25 1014 78 10000 3.09 340 21:57 18.04.2022
4116 Clouds 25 1014 78 10000 3.09 340 21:25 18.04.2022
4117 Clouds 27 1014 74 10000 2.57 340 20:39 18.04.2022
4118 Clouds 26 1015 73 10000 1.03 0 19:59 18.04.2022
4119 Rain 26 1015 73 10000 1.03 0 19:30 18.04.2022
4120 Rain 25 1015 73 10000 2.57 220 18:43 18.04.2022
4121 Clouds 26 1015 73 10000 5.66 180 17:39 18.04.2022
4122 Clouds 26 1015 73 10000 5.66 180 17:19 18.04.2022
4123 Clouds 27 1015 74 10000 5.66 150 16:38 18.04.2022
4124 Clouds 26 1015 78 10000 5.14 150 15:30 18.04.2022
4125 Clouds 24 1015 88 10000 1.03 0 14:22 18.04.2022
4126 Clouds 23 1014 88 10000 3.09 150 12:54 18.04.2022
4127 Clouds 23 1014 88 10000 3.09 150 12:23 18.04.2022
4128 Clouds 24 1013 83 10000 3.6 150 10:46 18.04.2022
4129 Clouds 24 1014 83 10000 4.12 130 09:32 18.04.2022
4130 Clouds 24 1015 83 10000 4.63 140 08:39 18.04.2022
4131 Clouds 24 1015 83 10000 5.14 120 06:44 18.04.2022
4132 Clouds 25 1014 78 10000 5.66 130 02:28 18.04.2022
4133 Clouds 27 1014 65 10000 4.63 120 23:21 17.04.2022
4134 Clouds 28 1014 61 10000 6.69 140 22:36 17.04.2022
4135 Clouds 27 1015 65 10000 6.17 130 21:34 17.04.2022
4136 Clouds 28 1015 61 10000 7.72 140 20:51 17.04.2022
4137 Clouds 28 1015 61 10000 7.72 140 20:18 17.04.2022
4138 Clouds 28 1016 61 10000 7.2 120 18:42 17.04.2022
4139 Clouds 27 1016 69 10000 6.17 120 17:20 17.04.2022
4140 Clear 25 1016 78 10000 5.14 120 15:34 17.04.2022
4141 Clear 25 1016 78 10000 2.57 100 14:45 17.04.2022
4142 Clear 24 1016 83 10000 3.6 100 13:28 17.04.2022
4143 Clear 24 1015 83 10000 4.63 130 12:31 17.04.2022
4144 Clouds 24 1015 78 10000 3.09 110 10:51 17.04.2022
4145 Clouds 24 1015 78 10000 3.09 110 10:29 17.04.2022
4146 Clouds 23 1016 83 10000 2.57 90 09:51 17.04.2022
4147 Clouds 23 1016 83 10000 2.57 90 09:18 17.04.2022
4148 Clouds 23 1017 83 10000 2.57 120 08:29 17.04.2022
4149 Clouds 24 1018 88 10000 2.57 70 05:33 17.04.2022
4150 Clouds 25 1016 78 10000 5.14 150 01:52 17.04.2022
4151 Clouds 26 1015 69 10000 4.63 150 00:37 17.04.2022
4152 Clouds 25 1016 78 10000 5.14 130 23:19 16.04.2022
4153 Rain 24 1017 78 10000 6.69 160 21:45 16.04.2022
4154 Clouds 23 1017 94 10000 12.35 160 20:54 16.04.2022
4155 Clouds 28 1018 69 10000 7.2 120 19:21 16.04.2022
4156 Clouds 28 1018 69 10000 7.2 130 18:35 16.04.2022
4157 Clouds 27 1018 74 10000 4.63 130 16:44 16.04.2022
4158 Clouds 26 1017 73 10000 4.12 120 15:46 16.04.2022
4159 Clouds 23 1017 88 10000 2.57 100 14:57 16.04.2022
4160 Clouds 23 1017 88 10000 2.57 100 14:30 16.04.2022
4161 Clouds 23 1017 88 10000 2.06 90 13:48 16.04.2022
4162 Clouds 23 1016 83 10000 2.06 90 12:35 16.04.2022
4163 Clouds 23 1017 83 10000 1.54 100 11:26 16.04.2022
4164 Clouds 23 1016 88 10000 4.63 110 10:25 16.04.2022
4165 Clouds 23 1018 88 10000 2.57 80 09:32 16.04.2022
4166 Clouds 23 1018 88 10000 4.12 110 08:42 16.04.2022
4167 Clouds 23 1018 83 10000 5.14 110 07:21 16.04.2022
4168 Clouds 22 1018 83 10000 7.2 130 04:54 16.04.2022
4169 Thunderstorm 24 1017 94 10000 4.12 80 00:40 16.04.2022
4170 Rain 26 1017 83 10000 4.63 120 23:40 15.04.2022
4171 Rain 26 1016 83 10000 5.66 140 22:45 15.04.2022
4172 Rain 26 1016 83 10000 5.66 140 22:27 15.04.2022
4173 Rain 27 1017 78 10000 7.72 150 21:20 15.04.2022
4174 Clouds 27 1017 74 10000 9.77 160 20:31 15.04.2022
4175 Clouds 28 1018 74 10000 9.26 150 19:41 15.04.2022
4176 Clouds 28 1018 74 10000 10.29 150 18:57 15.04.2022
4177 Clouds 28 1018 74 10000 10.29 150 18:26 15.04.2022
4178 Clouds 28 1018 74 10000 8.23 140 17:49 15.04.2022
4179 Clouds 28 1018 74 10000 8.23 140 17:22 15.04.2022
4180 Clouds 28 1018 74 10000 7.72 140 16:24 15.04.2022
4181 Clouds 26 1018 83 10000 6.69 140 15:37 15.04.2022
4182 Clouds 24 1017 94 10000 5.14 140 13:55 15.04.2022
4183 Clouds 25 1017 83 10000 4.63 140 12:46 15.04.2022
4184 Clouds 25 1017 83 10000 4.12 140 11:59 15.04.2022
4185 Clouds 25 1017 83 10000 4.12 140 11:40 15.04.2022
4186 Clouds 24 1017 88 10000 4.12 140 10:45 15.04.2022
4187 Clouds 25 1017 88 10000 4.63 130 09:50 15.04.2022
4188 Clouds 25 1017 88 10000 4.63 130 09:21 15.04.2022
4189 Clouds 25 1018 83 10000 6.17 140 07:53 15.04.2022
4190 Clouds 25 1018 88 10000 6.69 140 06:46 15.04.2022
4191 Clouds 26 1017 83 10000 5.14 130 03:47 15.04.2022
4192 Clouds 28 1016 65 10000 8.75 140 23:32 14.04.2022
4193 Clouds 28 1017 69 10000 8.23 140 22:49 14.04.2022
4194 Clouds 28 1017 69 10000 8.23 140 22:31 14.04.2022
4195 Clouds 27 1017 74 10000 7.72 130 21:59 14.04.2022
4196 Clouds 27 1017 74 10000 7.72 130 21:30 14.04.2022
4197 Clouds 28 1019 69 10000 5.66 130 19:23 14.04.2022
4198 Clouds 28 1019 65 10000 6.69 130 18:30 14.04.2022
4199 Clouds 27 1019 69 10000 6.69 130 17:44 14.04.2022
4200 Clouds 27 1019 69 10000 6.69 130 17:44 14.04.2022
4201 Clouds 27 1019 69 10000 6.69 140 16:46 14.04.2022
4202 Clouds 26 1019 73 10000 4.63 130 15:28 14.04.2022
4203 Clouds 24 1018 83 10000 3.6 120 13:47 14.04.2022
4204 Clouds 24 1017 83 10000 4.63 130 12:58 14.04.2022
4205 Clouds 24 1017 83 10000 4.63 130 12:31 14.04.2022
4206 Clouds 24 1017 83 10000 4.63 130 11:30 14.04.2022
4207 Clouds 24 1016 83 10000 5.14 140 10:53 14.04.2022
4208 Clouds 24 1016 83 10000 5.14 140 10:27 14.04.2022
4209 Clouds 24 1017 83 10000 4.12 130 09:25 14.04.2022
4210 Clouds 24 1018 83 10000 5.14 130 07:33 14.04.2022
4211 Clouds 24 1019 78 10000 6.17 120 04:28 14.04.2022
4212 Clouds 27 1018 61 10000 5.66 120 23:29 13.04.2022
4213 Clouds 28 1019 57 10000 6.69 140 22:23 13.04.2022
4214 Clouds 25 1018 69 10000 7.53 94 21:37 13.04.2022
4215 Clouds 28 1019 54 10000 6.69 130 20:23 13.04.2022
4216 Clouds 27 1020 54 10000 6.69 120 19:37 13.04.2022
4217 Clouds 27 1020 57 10000 7.2 120 18:36 13.04.2022
4218 Clouds 26 1021 61 10000 7.2 120 17:24 13.04.2022
4219 Clouds 25 1021 65 10000 6.69 120 16:37 13.04.2022
4220 Clouds 25 1020 65 10000 5.66 120 15:41 13.04.2022
4221 Clouds 24 1020 69 10000 4.63 110 14:51 13.04.2022
4222 Clouds 24 1020 69 10000 4.63 110 14:28 13.04.2022
4223 Clouds 22 1019 73 10000 4.12 110 13:29 13.04.2022
4224 Clouds 22 1019 73 10000 3.6 100 12:27 13.04.2022
4225 Clouds 24 1018 63 10000 8.56 104 10:54 13.04.2022
4226 Clear 22 1020 68 10000 4.63 110 09:44 13.04.2022
4227 Clouds 24 1019 62 10000 9.07 104 08:43 13.04.2022
4228 Clouds 23 1021 68 10000 5.14 120 06:52 13.04.2022
4229 Clouds 23 1021 68 10000 5.14 120 06:26 13.04.2022
4230 Clouds 23 1021 64 10000 7.2 110 05:52 13.04.2022
4231 Clouds 25 1020 61 10000 7.2 100 00:23 13.04.2022
4232 Clouds 27 1020 47 10000 7.2 110 23:46 12.04.2022
4233 Clouds 26 1020 57 10000 6.69 100 22:19 12.04.2022
4234 Clouds 27 1021 47 10000 6.69 100 21:29 12.04.2022
4235 Clouds 26 1022 53 10000 6.69 100 20:41 12.04.2022
4236 Clouds 26 1023 47 10000 7.2 120 19:50 12.04.2022
4237 Clouds 26 1023 47 10000 7.2 120 19:31 12.04.2022
4238 Clouds 27 1023 47 10000 6.69 120 18:31 12.04.2022
4239 Clouds 25 1023 57 10000 7.2 110 17:28 12.04.2022
4240 Clouds 25 1023 57 10000 7.2 110 17:28 12.04.2022
4241 Clouds 25 1022 47 10000 7.72 110 16:22 12.04.2022
4242 Clouds 24 1022 53 10000 5.66 100 15:33 12.04.2022
4243 Clouds 23 1022 56 10000 3.09 100 14:26 12.04.2022
4244 Clouds 22 1021 60 10000 5.66 110 13:36 12.04.2022
4245 Clouds 22 1020 60 10000 4.12 120 12:52 12.04.2022
4246 Clouds 22 1020 60 10000 4.63 110 11:46 12.04.2022
4247 Clear 23 1019 64 10000 8.67 91 10:35 12.04.2022
4248 Clear 23 1020 64 10000 9.24 88 09:21 12.04.2022
4249 Clouds 22 1022 60 10000 6.69 120 07:55 12.04.2022
4250 Clouds 22 1023 60 10000 5.14 100 06:24 12.04.2022
4251 Clouds 22 1023 60 10000 5.14 100 05:31 12.04.2022
4252 Clouds 25 1021 53 10000 6.69 90 23:59 11.04.2022
4253 Clouds 24 1021 53 10000 7.2 80 22:44 11.04.2022
4254 Clouds 26 1022 47 10000 6.17 100 21:37 11.04.2022
4255 Clouds 27 1023 44 10000 6.17 80 20:56 11.04.2022
4256 Clouds 27 1023 44 10000 6.17 80 20:29 11.04.2022
4257 Clouds 25 1023 50 10000 6.17 90 19:42 11.04.2022
4258 Clouds 25 1023 50 10000 6.17 90 19:18 11.04.2022
4259 Clouds 26 1023 47 10000 6.17 80 18:41 11.04.2022
4260 Clouds 24 1023 50 10000 6.17 100 17:56 11.04.2022
4261 Clouds 23 1023 56 10000 5.66 90 16:54 11.04.2022
4262 Clouds 23 1022 53 10000 5.66 100 15:45 11.04.2022
4263 Clear 22 1021 63 10000 7.78 68 13:53 11.04.2022
4264 Clear 22 1020 63 10000 7.58 68 12:44 11.04.2022
4265 Clear 22 1020 63 10000 7.34 66 12:25 11.04.2022
4266 Clear 22 1019 62 10000 7.05 68 10:58 11.04.2022
4267 Clear 21 1019 62 10000 6.91 66 10:21 11.04.2022
4268 Clear 21 1019 62 10000 6.82 65 08:50 11.04.2022
4269 Clouds 21 1022 56 10000 4.12 80 05:38 11.04.2022
4270 Clouds 22 1020 56 10000 5.66 60 00:57 11.04.2022
4271 Clouds 23 1020 56 10000 6.69 50 22:33 10.04.2022
4272 Clouds 24 1020 50 10000 6.69 50 21:54 10.04.2022
4273 Clouds 24 1020 50 10000 6.69 50 21:26 10.04.2022
4274 Clouds 25 1020 50 10000 6.17 40 20:21 10.04.2022
4275 Clouds 25 1021 47 10000 5.14 40 19:37 10.04.2022
4276 Clouds 25 1021 50 10000 5.66 30 18:50 10.04.2022
4277 Clouds 25 1021 50 10000 5.66 30 18:27 10.04.2022
4278 Clouds 24 1021 53 10000 6.17 40 17:46 10.04.2022
4279 Clouds 25 1020 47 10000 5.14 30 16:59 10.04.2022
4280 Clouds 23 1020 49 10000 4.12 30 15:41 10.04.2022
4281 Clouds 22 1019 53 10000 3.6 20 14:42 10.04.2022
4282 Clouds 22 1019 53 10000 3.6 20 14:42 10.04.2022
4283 Clouds 22 1019 53 10000 4.12 20 13:44 10.04.2022
4284 Clouds 23 1018 54 10000 7.67 5 12:32 10.04.2022
4285 Clouds 23 1018 53 10000 4.12 10 11:44 10.04.2022
4286 Clouds 23 1018 53 10000 4.12 10 11:18 10.04.2022
4287 Clouds 23 1017 55 10000 8.21 360 10:31 10.04.2022
4288 Clouds 22 1018 56 10000 4.63 340 09:41 10.04.2022
4289 Clouds 22 1018 64 10000 2.06 20 08:28 10.04.2022
4290 Clouds 23 1019 60 10000 2.57 20 07:57 10.04.2022
4291 Clouds 22 1018 64 10000 3.09 300 06:59 10.04.2022
4292 Clouds 22 1018 56 10000 3.6 320 03:37 10.04.2022
4293 Clouds 22 1017 60 10000 4.12 320 02:18 10.04.2022
4294 Clouds 24 1017 57 10000 7.2 330 23:53 09.04.2022
4295 Clouds 25 1018 50 10000 7.2 340 22:54 09.04.2022
4296 Clouds 25 1018 50 10000 7.2 340 22:54 09.04.2022
4297 Clouds 25 1018 50 10000 7.2 340 22:24 09.04.2022
4298 Clouds 25 1018 50 10000 7.72 340 21:18 09.04.2022
4299 Clouds 25 1018 47 10000 7.72 330 20:27 09.04.2022
4300 Clouds 25 1019 57 10000 7.72 320 19:49 09.04.2022
4301 Clouds 25 1019 57 10000 7.72 320 19:30 09.04.2022
4302 Clouds 25 1019 57 10000 7.72 330 18:23 09.04.2022
4303 Clouds 25 1019 61 10000 6.69 340 17:43 09.04.2022
4304 Clouds 24 1018 64 10000 7.72 330 16:55 09.04.2022
4305 Clouds 24 1018 64 10000 7.72 330 16:28 09.04.2022
4306 Clouds 24 1018 64 10000 6.17 340 15:48 09.04.2022
4307 Clouds 23 1017 73 10000 7.72 340 14:45 09.04.2022
4308 Clouds 23 1017 73 10000 7.72 340 14:24 09.04.2022
4309 Clouds 22 1017 73 10000 2.57 310 13:21 09.04.2022
4310 Clouds 22 1016 73 10000 3.09 310 12:52 09.04.2022
4311 Clouds 22 1016 73 10000 3.09 320 11:41 09.04.2022
4312 Clouds 23 1016 73 10000 2.06 320 10:21 09.04.2022
4313 Clouds 22 1016 83 10000 1.03 0 09:52 09.04.2022
4314 Clouds 23 1016 83 10000 1.54 290 08:59 09.04.2022
4315 Clouds 22 1017 88 10000 1.54 300 07:44 09.04.2022
4316 Clouds 25 1016 78 10000 3.6 350 03:21 09.04.2022
4317 Clouds 26 1015 73 10000 3.6 360 00:30 09.04.2022
4318 Clouds 24 1015 94 10000 3.6 270 22:58 08.04.2022
4319 Rain 26 1014 76 10000 2.91 276 21:34 08.04.2022
4320 Clouds 24 1015 94 4600 5.66 260 20:41 08.04.2022
4321 Clouds 28 1015 69 10000 5.66 200 19:39 08.04.2022
4322 Clouds 29 1015 65 10000 7.2 200 18:31 08.04.2022
4323 Clouds 28 1016 74 10000 7.2 210 17:53 08.04.2022
4324 Clouds 28 1016 74 10000 7.2 210 17:26 08.04.2022
4325 Clouds 28 1015 74 10000 6.69 220 16:51 08.04.2022
4326 Clouds 26 1015 78 10000 5.66 200 15:59 08.04.2022
4327 Clouds 26 1015 78 10000 5.66 200 15:27 08.04.2022
4328 Clouds 26 1015 83 10000 5.66 200 14:39 08.04.2022
4329 Rain 25 1014 83 10000 5.66 200 13:55 08.04.2022
4330 Rain 25 1014 83 10000 5.66 200 13:29 08.04.2022
4331 Clouds 25 1014 83 10000 5.14 200 12:32 08.04.2022
4332 Clouds 26 1013 76 10000 6.72 184 10:38 08.04.2022
4333 Clouds 26 1013 77 10000 6.87 182 09:39 08.04.2022
4334 Clouds 25 1014 83 10000 3.09 180 08:58 08.04.2022
4335 Clear 25 1014 83 10000 0 0 07:31 08.04.2022
4336 Clear 25 1015 83 10000 2.57 170 06:38 08.04.2022
4337 Clouds 27 1013 74 10000 5.66 180 01:45 08.04.2022
4338 Clouds 28 1013 69 10000 5.66 180 00:25 08.04.2022
4339 Clouds 29 1013 65 10000 7.72 200 22:59 07.04.2022
4340 Clouds 29 1013 65 10000 7.72 200 22:40 07.04.2022
4341 Clouds 29 1013 65 10000 7.72 200 22:21 07.04.2022
4342 Clouds 30 1013 58 10000 7.2 190 21:53 07.04.2022
4343 Clouds 30 1013 58 10000 7.2 190 21:19 07.04.2022
4344 Clouds 29 1014 61 10000 7.2 190 20:37 07.04.2022
4345 Clouds 29 1015 65 10000 8.75 190 18:35 07.04.2022
4346 Clouds 28 1015 69 10000 7.72 190 17:27 07.04.2022
4347 Clouds 27 1015 74 10000 6.17 200 16:44 07.04.2022
4348 Clouds 27 1015 74 10000 6.17 200 16:22 07.04.2022
4349 Clouds 26 1015 78 10000 4.63 170 14:50 07.04.2022
4350 Clouds 25 1014 83 10000 4.12 170 13:43 07.04.2022
4351 Clouds 25 1014 83 10000 4.12 170 12:50 07.04.2022
4352 Clouds 24 1014 88 10000 3.6 160 11:34 07.04.2022
4353 Clouds 24 1014 88 10000 3.6 160 09:37 07.04.2022
4354 Clouds 25 1015 83 10000 4.12 140 08:38 07.04.2022
4355 Clear 26 1015 78 10000 6.68 132 06:43 07.04.2022
4356 Clouds 26 1015 83 10000 3.6 170 02:54 07.04.2022
4357 Clouds 26 1015 83 10000 3.6 170 02:25 07.04.2022
4358 Clouds 28 1014 74 10000 6.17 170 00:27 07.04.2022
4359 Clouds 29 1015 70 10000 6.69 170 22:51 06.04.2022
4360 Clouds 29 1015 70 10000 6.69 170 22:27 06.04.2022
4361 Clouds 29 1015 65 10000 6.69 180 21:44 06.04.2022
4362 Clouds 28 1015 69 10000 7.72 190 20:36 06.04.2022
4363 Clouds 28 1016 69 10000 7.72 180 19:53 06.04.2022
4364 Clouds 30 1016 62 10000 7.72 190 18:51 06.04.2022
4365 Clouds 30 1016 62 10000 7.72 190 18:25 06.04.2022
4366 Clouds 28 1016 69 10000 9.26 180 17:35 06.04.2022
4367 Clouds 28 1016 69 10000 8.75 170 16:38 06.04.2022
4368 Clouds 28 1016 69 10000 7.2 170 15:48 06.04.2022
4369 Clouds 26 1015 83 10000 6.17 180 14:57 06.04.2022
4370 Clouds 25 1014 88 10000 5.66 170 13:24 06.04.2022
4371 Clouds 25 1014 88 10000 6.17 170 12:26 06.04.2022
4372 Clouds 25 1014 88 10000 5.66 150 10:47 06.04.2022
4373 Clouds 25 1014 88 10000 5.66 150 10:25 06.04.2022
4374 Clouds 26 1014 82 10000 7.54 140 09:40 06.04.2022
4375 Clouds 25 1015 88 10000 4.63 140 08:32 06.04.2022
4376 Clouds 25 1016 88 10000 4.12 140 07:49 06.04.2022
4377 Clouds 26 1015 83 10000 5.14 130 03:53 06.04.2022
4378 Clouds 28 1014 69 10000 6.17 160 23:52 05.04.2022
4379 Clouds 28 1014 69 10000 7.2 180 22:31 05.04.2022
4380 Clouds 27 1015 74 10000 8.23 160 21:20 05.04.2022
4381 Clouds 28 1015 69 10000 8.75 150 20:25 05.04.2022
4382 Clouds 28 1016 65 10000 8.23 160 19:41 05.04.2022
4383 Clouds 27 1017 74 10000 8.23 140 17:55 05.04.2022
4384 Clouds 27 1018 74 10000 5.66 120 16:54 05.04.2022
4385 Clouds 27 1017 74 10000 5.66 130 15:53 05.04.2022
4386 Clouds 27 1017 74 10000 5.66 130 15:33 05.04.2022
4387 Clouds 24 1017 88 10000 3.09 120 14:27 05.04.2022
4388 Clouds 23 1016 88 10000 2.57 110 12:56 05.04.2022
4389 Clouds 23 1015 88 10000 3.6 150 11:50 05.04.2022
4390 Clouds 23 1015 88 10000 3.6 150 11:32 05.04.2022
4391 Clouds 24 1016 88 10000 3.6 120 09:52 05.04.2022
4392 Clouds 23 1016 88 10000 3.09 150 08:52 05.04.2022
4393 Clouds 24 1016 88 10000 2.57 90 06:52 05.04.2022
4394 Clouds 27 1014 69 10000 4.12 110 00:41 05.04.2022
4395 Clouds 26 1015 78 10000 4.63 110 22:41 04.04.2022
4396 Clouds 26 1015 78 10000 4.63 110 22:19 04.04.2022
4397 Rain 25 1015 88 10000 3.6 80 21:21 04.04.2022
4398 Clouds 25 1016 88 10000 4.63 90 20:49 04.04.2022
4399 Clouds 26 1016 78 10000 6.69 70 19:45 04.04.2022
4400 Clouds 26 1016 78 10000 6.69 70 19:25 04.04.2022
4401 Clouds 27 1016 69 10000 3.6 120 17:55 04.04.2022
4402 Clouds 26 1016 73 10000 5.14 120 16:36 04.04.2022
4403 Clouds 26 1016 73 10000 3.09 100 15:43 04.04.2022
4404 Clouds 26 1016 73 10000 3.09 100 15:25 04.04.2022
4405 Clouds 25 1015 83 10000 3.09 100 14:45 04.04.2022
4406 Clouds 24 1014 83 10000 2.06 70 13:22 04.04.2022
4407 Clear 23 1013 88 10000 1.03 0 11:55 04.04.2022
4408 Clear 23 1013 88 10000 1.03 0 11:28 04.04.2022
4409 Clear 24 1014 83 10000 2.57 100 08:36 04.04.2022
4410 Clouds 24 1014 83 10000 1.03 0 03:52 04.04.2022
4411 Clouds 28 1013 69 10000 5.66 350 00:41 04.04.2022
4412 Clouds 29 1013 61 10000 4.12 330 22:36 03.04.2022
4413 Clouds 30 1013 58 10000 6.17 340 21:44 03.04.2022
4414 Clouds 29 1014 65 10000 4.12 220 20:53 03.04.2022
4415 Clouds 28 1014 69 10000 3.6 230 19:45 03.04.2022
4416 Clouds 28 1015 61 10000 4.63 220 18:31 03.04.2022
4417 Clouds 27 1015 74 10000 5.66 210 17:46 03.04.2022
4418 Clouds 26 1014 78 10000 6.17 210 16:50 03.04.2022
4419 Clouds 26 1014 78 10000 6.17 210 16:31 03.04.2022
4420 Clouds 24 1014 88 10000 3.6 210 14:38 03.04.2022
4421 Clouds 23 1013 94 10000 3.6 200 13:46 03.04.2022
4422 Clouds 23 1014 88 10000 2.06 210 12:38 03.04.2022
4423 Clouds 25 1013 78 10000 3.62 187 10:58 03.04.2022
4424 Clouds 25 1014 78 10000 3.27 194 09:36 03.04.2022
4425 Clouds 23 1016 88 10000 2.06 160 07:37 03.04.2022
4426 Clear 24 1017 83 10000 3.09 180 04:19 03.04.2022
4427 Clouds 27 1014 69 10000 5.66 170 00:41 03.04.2022
4428 Clouds 29 1015 61 10000 4.63 170 22:57 02.04.2022
4429 Clouds 29 1016 61 10000 5.14 170 21:57 02.04.2022
4430 Clouds 29 1016 61 10000 5.14 170 21:36 02.04.2022
4431 Clouds 30 1017 58 10000 5.14 160 20:52 02.04.2022
4432 Clouds 28 1018 61 10000 6.17 160 19:32 02.04.2022
4433 Clouds 28 1018 61 10000 6.17 160 19:32 02.04.2022
4434 Clouds 28 1019 65 10000 5.14 180 18:21 02.04.2022
4435 Clouds 27 1019 69 10000 4.63 160 17:52 02.04.2022
4436 Clouds 27 1019 74 10000 5.14 170 16:23 02.04.2022
4437 Clouds 25 1019 83 10000 3.6 170 15:21 02.04.2022
4438 Clouds 24 1018 88 10000 2.57 170 14:47 02.04.2022
4439 Clouds 24 1018 88 10000 2.06 150 13:35 02.04.2022
4440 Clouds 23 1017 94 10000 1.54 180 12:38 02.04.2022
4441 Clouds 23 1017 94 10000 3.6 160 11:23 02.04.2022
4442 Clouds 23 1018 94 10000 2.57 170 08:50 02.04.2022
4443 Clouds 23 1019 94 10000 2.57 150 06:50 02.04.2022
4444 Clouds 25 1018 83 10000 2.57 180 03:52 02.04.2022
4445 Clouds 28 1017 69 10000 6.17 170 23:57 01.04.2022
4446 Clouds 28 1017 69 10000 6.17 170 23:22 01.04.2022
4447 Clouds 28 1017 74 10000 6.69 190 21:34 01.04.2022
4448 Clouds 28 1018 69 10000 5.66 180 20:51 01.04.2022
4449 Clouds 28 1018 69 10000 5.66 180 20:25 01.04.2022
4450 Clouds 29 1019 70 10000 6.17 180 19:32 01.04.2022
4451 Clouds 29 1019 70 10000 7.72 170 18:45 01.04.2022
4452 Clouds 27 1019 78 10000 7.2 170 17:46 01.04.2022
4453 Clouds 28 1019 74 10000 7.2 170 16:52 01.04.2022
4454 Clouds 27 1018 74 10000 7.2 180 15:39 01.04.2022
4455 Clouds 25 1018 83 10000 4.12 180 14:21 01.04.2022
4456 Clouds 24 1018 88 10000 4.12 170 13:34 01.04.2022
4457 Clouds 24 1017 88 10000 5.66 170 12:32 01.04.2022
4458 Clouds 24 1017 88 10000 5.66 170 12:32 01.04.2022
4459 Clouds 24 1016 83 10000 6.17 170 11:40 01.04.2022
4460 Clouds 25 1016 78 10000 6.69 180 10:19 01.04.2022
4461 Clouds 25 1017 83 10000 8.75 160 08:47 01.04.2022
4462 Clouds 25 1017 83 10000 7.72 150 06:54 01.04.2022
4463 Clouds 25 1018 83 10000 6.17 140 04:49 01.04.2022
4464 Clouds 25 1018 83 10000 6.17 140 04:30 01.04.2022
4465 Clouds 26 1016 69 10000 8.23 160 01:56 01.04.2022
4466 Clouds 28 1016 61 10000 8.75 160 22:58 31.03.2022
4467 Clouds 29 1017 58 10000 8.23 170 21:50 31.03.2022
4468 Clouds 29 1017 58 10000 8.23 170 21:32 31.03.2022
4469 Clouds 28 1017 61 10000 9.77 170 20:29 31.03.2022
4470 Clouds 28 1018 61 10000 8.75 170 19:48 31.03.2022
4471 Clouds 28 1018 61 10000 9.77 170 18:43 31.03.2022
4472 Clouds 28 1018 61 10000 10.8 160 17:49 31.03.2022
4473 Clouds 27 1018 65 10000 10.29 150 16:37 31.03.2022
4474 Clouds 26 1017 69 10000 8.75 150 15:37 31.03.2022
4475 Clouds 26 1017 69 10000 8.75 150 15:19 31.03.2022
4476 Clouds 25 1017 69 10000 8.23 150 14:34 31.03.2022
4477 Clouds 24 1016 69 10000 8.23 160 11:43 31.03.2022
4478 Clouds 24 1017 73 10000 7.2 160 10:55 31.03.2022
4479 Clouds 23 1017 73 10000 7.2 150 09:44 31.03.2022
4480 Clouds 24 1018 69 10000 9.77 140 07:55 31.03.2022
4481 Clouds 24 1019 73 10000 8.23 120 04:46 31.03.2022
4482 Clouds 24 1018 72 10000 9.6 103 23:37 30.03.2022
4483 Clouds 28 1019 54 10000 8.23 120 22:27 30.03.2022
4484 Clouds 28 1020 54 10000 8.23 130 21:37 30.03.2022
4485 Clouds 27 1020 50 10000 9.26 130 20:44 30.03.2022
4486 Clouds 27 1021 57 10000 8.23 130 19:59 30.03.2022
4487 Clouds 27 1022 57 10000 8.75 140 18:50 30.03.2022
4488 Clouds 25 1021 65 10000 7.2 120 17:52 30.03.2022
4489 Clouds 25 1021 65 10000 7.2 120 17:52 30.03.2022
4490 Clouds 25 1021 65 10000 7.2 120 17:32 30.03.2022
4491 Clouds 26 1021 61 10000 6.17 120 16:42 30.03.2022
4492 Clouds 26 1021 61 10000 6.17 120 16:19 30.03.2022
4493 Clouds 23 1020 73 10000 3.6 100 14:47 30.03.2022
4494 Clouds 21 1020 78 10000 4.12 110 13:26 30.03.2022
4495 Clear 21 1020 78 10000 4.12 110 12:36 30.03.2022
4496 Clear 20 1020 83 10000 3.09 110 10:48 30.03.2022
4497 Clear 20 1020 83 10000 3.09 110 09:58 30.03.2022
4498 Clear 20 1021 83 10000 3.6 120 08:29 30.03.2022
4499 Clear 21 1022 78 10000 2.57 100 07:29 30.03.2022
4500 Clear 22 1022 73 10000 2.57 90 05:40 30.03.2022
4501 Clear 23 1022 68 10000 2.57 90 03:20 30.03.2022
4502 Clouds 26 1021 53 10000 4.12 60 22:56 29.03.2022
4503 Clouds 26 1022 53 10000 4.12 30 21:58 29.03.2022
4504 Clouds 26 1022 53 10000 4.12 30 21:37 29.03.2022
4505 Clouds 26 1023 50 10000 3.6 40 20:30 29.03.2022
4506 Clouds 25 1024 53 10000 4.63 50 19:34 29.03.2022
4507 Clouds 26 1024 50 10000 3.09 30 18:53 29.03.2022
4508 Clear 26 1024 53 10000 3.6 10 17:52 29.03.2022
4509 Clear 26 1024 53 10000 3.6 10 17:19 29.03.2022
4510 Clear 25 1024 53 10000 2.06 50 16:53 29.03.2022
4511 Clear 23 1023 73 10000 1.03 0 15:41 29.03.2022
4512 Clear 17 1022 88 10000 0 0 14:43 29.03.2022
4513 Clear 17 1022 88 10000 0 0 14:43 29.03.2022
4514 Clear 15 1022 94 10000 0 0 13:35 29.03.2022
4515 Clear 16 1021 88 10000 0 0 12:22 29.03.2022
4516 Clear 15 1021 94 10000 0 0 11:18 29.03.2022
4517 Clear 16 1021 88 10000 0 0 09:58 29.03.2022
4518 Clear 17 1022 88 10000 0 0 08:44 29.03.2022
4519 Clear 19 1023 77 10000 0 0 06:48 29.03.2022
4520 Clear 23 1021 56 10000 0.51 0 02:27 29.03.2022
4521 Clear 25 1020 50 10000 2.57 360 23:26 28.03.2022
4522 Clear 25 1020 50 10000 2.57 360 23:26 28.03.2022
4523 Clear 26 1021 44 10000 2.06 20 22:57 28.03.2022
4524 Clear 26 1021 44 10000 2.06 20 22:31 28.03.2022
4525 Clear 26 1021 44 10000 3.09 30 21:38 28.03.2022
4526 Clear 26 1021 44 10000 4.12 30 20:32 28.03.2022
4527 Clear 26 1021 44 10000 4.12 30 20:32 28.03.2022
4528 Clear 26 1022 44 10000 4.12 30 19:47 28.03.2022
4529 Clear 26 1022 44 10000 4.12 30 19:29 28.03.2022
4530 Clear 26 1023 44 10000 4.63 30 18:40 28.03.2022
4531 Clear 26 1023 41 10000 4.12 40 17:40 28.03.2022
4532 Clear 25 1022 44 10000 3.6 40 16:47 28.03.2022
4533 Clear 19 1021 72 10000 2.06 90 14:53 28.03.2022
4534 Clear 19 1021 72 10000 2.06 90 14:23 28.03.2022
4535 Clear 22 1019 49 10000 2.57 70 12:51 28.03.2022
4536 Clear 22 1019 46 10000 4.12 40 11:42 28.03.2022
4537 Clear 22 1019 53 10000 5.14 10 09:47 28.03.2022
4538 Clear 22 1019 53 10000 5.14 10 09:20 28.03.2022
4539 Clear 22 1020 56 10000 5.66 10 08:23 28.03.2022
4540 Clear 22 1020 53 10000 4.12 10 07:56 28.03.2022
4541 Clear 22 1020 53 10000 3.6 10 04:27 28.03.2022
4542 Clear 23 1017 51 10000 8.05 350 23:43 27.03.2022
4543 Clouds 25 1018 47 10000 6.17 360 22:25 27.03.2022
4544 Clear 24 1018 46 10000 6.17 350 21:42 27.03.2022
4545 Clouds 24 1019 46 10000 6.17 360 20:58 27.03.2022
4546 Clouds 25 1019 44 10000 6.69 350 19:53 27.03.2022
4547 Clouds 25 1019 44 10000 6.69 350 19:30 27.03.2022
4548 Clouds 25 1019 44 10000 6.69 350 18:28 27.03.2022
4549 Clouds 24 1019 50 10000 7.72 350 17:40 27.03.2022
4550 Clouds 24 1019 50 10000 7.72 350 17:20 27.03.2022
4551 Clouds 23 1018 53 10000 7.72 350 15:28 27.03.2022
4552 Clouds 21 1017 64 10000 3.6 290 13:56 27.03.2022
4553 Clouds 20 1016 68 10000 2.06 280 12:38 27.03.2022
4554 Clouds 16 1015 82 10000 1.03 0 11:21 27.03.2022
4555 Clear 20 1016 60 10000 2.06 310 09:21 27.03.2022
4556 Clear 20 1017 64 10000 4.12 320 05:56 27.03.2022
4557 Clouds 23 1015 60 10000 4.63 330 00:57 27.03.2022
4558 Clouds 23 1015 64 10000 5.66 340 23:46 26.03.2022
4559 Clouds 25 1014 57 10000 5.66 340 22:38 26.03.2022
4560 Clouds 25 1015 57 10000 6.17 340 21:38 26.03.2022
4561 Clouds 25 1015 57 10000 6.17 340 21:38 26.03.2022
4562 Clouds 25 1015 53 10000 6.17 340 20:57 26.03.2022
4563 Clouds 25 1016 53 10000 5.14 330 19:29 26.03.2022
4564 Clear 25 1017 44 10000 3.6 340 17:54 26.03.2022
4565 Clear 25 1017 44 10000 3.6 340 17:54 26.03.2022
4566 Clear 25 1017 44 10000 3.6 340 17:33 26.03.2022
4567 Clear 25 1017 44 10000 3.6 340 17:33 26.03.2022
4568 Clear 24 1017 46 10000 3.09 360 16:27 26.03.2022
4569 Clouds 24 1017 43 10000 4.12 10 15:20 26.03.2022
4570 Clouds 23 1016 56 10000 6.31 347 13:53 26.03.2022
4571 Clouds 22 1015 56 10000 4.12 20 12:59 26.03.2022
4572 Clouds 22 1015 60 10000 4.12 20 11:41 26.03.2022
4573 Clouds 22 1015 60 10000 4.12 20 11:41 26.03.2022
4574 Clouds 22 1015 60 10000 4.12 20 11:41 26.03.2022
4575 Clouds 22 1014 68 10000 3.6 20 10:28 26.03.2022
4576 Clouds 22 1015 73 10000 4.12 350 08:35 26.03.2022
4577 Clouds 23 1016 73 10000 2.57 10 05:54 26.03.2022
4578 Clouds 22 1016 78 10000 2.57 20 04:23 26.03.2022
4579 Clouds 22 1014 88 10000 4.63 10 00:22 26.03.2022
4580 Rain 22 1014 94 4000 6.69 10 21:41 25.03.2022
4581 Rain 23 1014 94 8000 5.66 360 20:46 25.03.2022
4582 Clouds 24 1014 84 10000 7.34 322 19:36 25.03.2022
4583 Clouds 25 1014 79 9525 4.85 247 18:47 25.03.2022
4584 Rain 26 1015 78 10000 5.7 207 17:47 25.03.2022
4585 Rain 26 1015 78 10000 6.48 204 17:26 25.03.2022
4586 Clouds 25 1016 78 10000 7.43 202 16:18 25.03.2022
4587 Clouds 25 1015 80 10000 8.32 193 14:26 25.03.2022
4588 Clouds 25 1015 83 10000 6.69 190 12:48 25.03.2022
4589 Clouds 26 1015 78 10000 6.69 200 09:57 25.03.2022
4590 Clouds 26 1015 78 10000 6.69 200 09:27 25.03.2022
4591 Clouds 25 1015 83 10000 6.17 170 07:53 25.03.2022
4592 Clouds 25 1015 83 10000 6.17 170 07:26 25.03.2022
4593 Clouds 25 1016 83 10000 5.66 170 05:35 25.03.2022
4594 Clear 25 1016 84 10000 8.78 149 00:42 25.03.2022
4595 Clear 25 1015 82 10000 8.91 152 22:30 24.03.2022
4596 Clouds 29 1016 65 10000 7.72 170 21:35 24.03.2022
4597 Clear 25 1016 80 10000 8.02 153 19:51 24.03.2022
4598 Clouds 28 1018 69 10000 9.77 170 18:58 24.03.2022
4599 Clear 25 1018 79 10000 8.48 153 17:45 24.03.2022
4600 Clear 25 1018 80 10000 8.92 150 16:54 24.03.2022
4601 Clouds 28 1018 65 10000 9.26 160 15:21 24.03.2022
4602 Clouds 27 1018 65 10000 8.75 160 14:42 24.03.2022
4603 Clouds 25 1018 73 10000 7.72 160 13:59 24.03.2022
4604 Clouds 25 1017 78 10000 7.2 150 12:42 24.03.2022
4605 Clouds 25 1017 78 10000 6.69 160 11:33 24.03.2022
4606 Clouds 25 1017 78 10000 7.2 160 09:48 24.03.2022
4607 Clouds 25 1018 78 10000 7.72 150 08:40 24.03.2022
4608 Clouds 25 1018 83 10000 7.72 150 06:44 24.03.2022
4609 Clouds 26 1018 78 10000 5.66 140 01:43 24.03.2022
4610 Clear 25 1016 79 10000 7 133 22:37 23.03.2022
4611 Clouds 27 1017 69 10000 8.75 160 21:25 23.03.2022
4612 Clouds 28 1018 65 10000 8.75 160 20:47 23.03.2022
4613 Clouds 28 1018 65 10000 8.75 160 19:43 23.03.2022
4614 Clouds 28 1018 65 10000 8.75 160 19:43 23.03.2022
4615 Clouds 28 1019 69 10000 8.23 140 18:22 23.03.2022
4616 Clouds 28 1019 65 10000 8.75 150 17:36 23.03.2022
4617 Clouds 28 1019 65 10000 8.23 150 16:18 23.03.2022
4618 Clouds 26 1018 73 10000 7.72 150 14:50 23.03.2022
4619 Clouds 24 1018 83 10000 5.14 140 13:51 23.03.2022
4620 Clouds 24 1017 83 10000 4.63 140 11:51 23.03.2022
4621 Clouds 24 1017 83 10000 4.63 140 09:21 23.03.2022
4622 Clouds 24 1019 78 10000 5.14 120 06:29 23.03.2022
4623 Clouds 24 1019 78 10000 7.2 120 03:57 23.03.2022
4624 Clouds 25 1018 73 10000 7.2 110 00:29 23.03.2022
4625 Clouds 26 1018 65 10000 8.23 120 22:25 22.03.2022
4626 Clouds 28 1018 57 10000 7.72 120 21:29 22.03.2022
4627 Clouds 28 1019 54 10000 6.69 120 20:34 22.03.2022
4628 Clouds 27 1020 57 10000 6.17 120 19:31 22.03.2022
4629 Clouds 26 1020 57 10000 6.69 130 18:54 22.03.2022
4630 Clouds 26 1021 57 10000 5.66 120 17:44 22.03.2022
4631 Clouds 26 1021 57 10000 5.66 120 17:23 22.03.2022
4632 Clouds 25 1021 57 10000 6.17 110 15:52 22.03.2022
4633 Clouds 25 1021 57 10000 6.17 110 15:21 22.03.2022
4634 Clouds 24 1020 60 10000 5.66 100 14:46 22.03.2022
4635 Clouds 24 1020 60 10000 5.66 100 14:24 22.03.2022
4636 Clouds 22 1019 73 10000 4.12 90 12:41 22.03.2022
4637 Clouds 22 1019 73 10000 3.6 90 11:26 22.03.2022
4638 Clear 23 1018 68 10000 9.08 91 09:55 22.03.2022
4639 Clouds 23 1020 64 10000 4.12 100 07:48 22.03.2022
4640 Clouds 23 1021 68 10000 6.17 90 04:36 22.03.2022
4641 Clouds 23 1021 68 10000 6.17 90 02:54 22.03.2022
4642 Clouds 24 1020 69 10000 6.17 90 23:21 21.03.2022
4643 Clouds 24 1020 69 10000 6.69 80 21:47 21.03.2022
4644 Clouds 26 1020 65 10000 8.23 60 20:45 21.03.2022
4645 Clouds 26 1020 65 10000 8.23 60 20:24 21.03.2022
4646 Clouds 27 1021 61 10000 8.75 60 19:48 21.03.2022
4647 Clouds 27 1021 61 10000 8.75 60 19:22 21.03.2022
4648 Clouds 26 1022 65 10000 8.23 70 17:36 21.03.2022
4649 Clouds 25 1022 73 10000 8.23 70 16:59 21.03.2022
4650 Clouds 25 1022 73 10000 8.23 70 16:36 21.03.2022
4651 Clouds 25 1021 73 10000 7.72 60 15:45 21.03.2022
4652 Clouds 24 1021 79 10000 11.4 43 14:47 21.03.2022
4653 Clouds 25 1020 78 10000 5.14 60 13:27 21.03.2022
4654 Clouds 24 1019 83 10000 5.66 60 12:22 21.03.2022
4655 Clouds 24 1019 83 10000 4.12 60 11:34 21.03.2022
4656 Clouds 24 1019 88 10000 4.63 50 09:53 21.03.2022
4657 Clouds 24 1020 88 10000 1.54 50 07:53 21.03.2022
4658 Clouds 22 1020 94 10000 1.54 30 06:31 21.03.2022
4659 Clouds 25 1020 78 10000 1.54 80 02:24 21.03.2022
4660 Clouds 26 1019 73 10000 3.09 10 23:26 20.03.2022
4661 Clouds 27 1019 65 10000 4.12 180 22:36 20.03.2022
4662 Clouds 29 1019 54 10000 4.12 150 21:40 20.03.2022
4663 Clouds 28 1020 61 10000 4.12 170 20:58 20.03.2022
4664 Clouds 28 1020 61 10000 4.12 170 20:36 20.03.2022
4665 Clouds 28 1020 65 10000 4.63 190 19:55 20.03.2022
4666 Clouds 28 1020 65 10000 4.63 190 19:24 20.03.2022
4667 Clouds 28 1021 61 10000 5.14 160 17:49 20.03.2022
4668 Clouds 28 1021 61 10000 5.14 160 17:27 20.03.2022
4669 Clouds 28 1021 57 10000 5.66 150 16:38 20.03.2022
4670 Clouds 26 1021 73 10000 5.66 150 14:50 20.03.2022
4671 Clouds 24 1021 83 10000 2.06 140 13:39 20.03.2022
4672 Clouds 22 1020 88 10000 2.57 150 12:19 20.03.2022
4673 Clouds 24 1019 83 10000 3.09 170 09:59 20.03.2022
4674 Clouds 24 1019 83 10000 4.12 150 08:26 20.03.2022
4675 Clouds 25 1020 83 10000 5.14 140 06:39 20.03.2022
4676 Clouds 25 1020 88 10000 5.14 140 03:25 20.03.2022
4677 Clouds 26 1019 78 10000 5.14 150 00:54 20.03.2022
4678 Clouds 26 1019 78 10000 5.14 150 00:54 20.03.2022
4679 Clouds 26 1019 78 10000 5.14 150 00:34 20.03.2022
4680 Clouds 28 1019 69 10000 5.66 150 22:39 19.03.2022
4681 Clear 25 1018 80 10000 6.73 133 21:26 19.03.2022
4682 Clouds 28 1020 69 10000 6.69 150 19:39 19.03.2022
4683 Clouds 29 1021 65 10000 6.69 150 18:44 19.03.2022
4684 Clouds 27 1022 69 10000 6.69 140 17:52 19.03.2022
4685 Clouds 28 1022 69 10000 6.69 140 16:57 19.03.2022
4686 Clouds 27 1022 74 10000 7.2 130 15:40 19.03.2022
4687 Clouds 26 1021 78 10000 6.17 130 14:19 19.03.2022
4688 Clouds 24 1020 88 10000 4.63 130 12:56 19.03.2022
4689 Clouds 24 1020 88 10000 4.63 130 12:36 19.03.2022
4690 Clouds 24 1019 88 10000 4.12 130 11:45 19.03.2022
4691 Clouds 25 1019 83 10000 4.12 140 09:23 19.03.2022
4692 Clouds 25 1020 88 10000 4.12 120 05:44 19.03.2022
4693 Clouds 25 1020 83 10000 4.12 140 02:33 19.03.2022
4694 Clouds 27 1018 74 10000 6.17 150 23:52 18.03.2022
4695 Clouds 27 1018 74 10000 6.17 150 22:58 18.03.2022
4696 Clouds 27 1018 74 10000 6.17 150 22:21 18.03.2022
4697 Clouds 28 1018 69 10000 6.69 140 20:31 18.03.2022
4698 Clouds 28 1019 65 10000 6.69 150 19:25 18.03.2022
4699 Clouds 29 1020 65 10000 6.69 150 18:58 18.03.2022
4700 Clouds 26 1020 73 10000 6.17 130 16:56 18.03.2022
4701 Clouds 26 1020 73 10000 6.17 130 16:24 18.03.2022
4702 Clouds 26 1020 78 10000 3.09 120 14:29 18.03.2022
4703 Clouds 23 1019 94 10000 1.54 80 13:40 18.03.2022
4704 Clear 25 1018 81 10000 5.52 125 11:37 18.03.2022
4705 Clouds 23 1018 94 10000 1.54 140 10:27 18.03.2022
4706 Clear 25 1017 83 10000 5.12 128 08:46 18.03.2022
4707 Clear 25 1018 84 10000 5.24 129 06:59 18.03.2022
4708 Clear 25 1018 84 10000 5.49 125 04:55 18.03.2022
4709 Clouds 26 1018 78 10000 3.09 130 01:38 18.03.2022
4710 Clear 27 1017 74 10000 5.73 118 23:52 17.03.2022
4711 Clouds 29 1017 58 10000 4.63 160 22:45 17.03.2022
4712 Clouds 29 1017 58 10000 4.63 160 22:19 17.03.2022
4713 Clouds 29 1017 58 10000 4.63 160 21:30 17.03.2022
4714 Clouds 29 1018 61 10000 4.63 180 20:53 17.03.2022
4715 Clouds 29 1018 61 10000 4.63 180 20:19 17.03.2022
4716 Clear 25 1017 80 10000 4.14 148 19:38 17.03.2022
4717 Clear 25 1018 79 10000 4.61 153 18:52 17.03.2022
4718 Clouds 28 1019 65 10000 5.14 190 17:29 17.03.2022
4719 Clouds 28 1019 69 10000 6.17 170 16:20 17.03.2022
4720 Clouds 27 1019 74 10000 6.69 180 15:43 17.03.2022
4721 Clouds 27 1018 74 10000 6.69 160 14:59 17.03.2022
4722 Clouds 25 1018 78 10000 4.63 160 13:35 17.03.2022
4723 Clouds 23 1018 88 10000 2.57 160 12:44 17.03.2022
4724 Clouds 23 1017 88 10000 2.57 160 11:32 17.03.2022
4725 Clouds 23 1017 88 10000 3.6 160 10:41 17.03.2022
4726 Clouds 24 1017 83 10000 4.63 150 08:46 17.03.2022
4727 Clouds 24 1017 83 10000 4.63 150 08:18 17.03.2022
4728 Clouds 25 1017 82 10000 7.59 140 05:49 17.03.2022
4729 Clouds 25 1018 79 10000 6.37 140 04:24 17.03.2022
4730 Clear 25 1017 81 10000 6.52 144 00:24 17.03.2022
4731 Clear 25 1016 80 10000 6.31 147 22:52 16.03.2022
4732 Clear 25 1016 80 10000 6.31 147 22:33 16.03.2022
4733 Clear 25 1016 79 10000 6.64 149 21:55 16.03.2022
4734 Clear 25 1017 79 10000 6.43 155 20:40 16.03.2022
4735 Clear 25 1018 81 10000 7.14 160 19:23 16.03.2022
4736 Clear 25 1018 81 10000 7.14 160 18:42 16.03.2022
4737 Clear 25 1019 82 10000 7.35 163 17:45 16.03.2022
4738 Clear 25 1019 83 10000 7.99 158 17:27 16.03.2022
4739 Clouds 26 1019 78 10000 8.75 150 15:56 16.03.2022
4740 Clouds 25 1019 83 10000 2.57 160 14:35 16.03.2022
4741 Clouds 23 1019 88 10000 2.57 160 13:34 16.03.2022
4742 Clouds 22 1019 94 10000 2.57 160 11:59 16.03.2022
4743 Clouds 22 1019 94 10000 2.57 160 11:22 16.03.2022
4744 Clouds 23 1018 83 10000 2.57 160 10:28 16.03.2022
4745 Clouds 23 1018 88 10000 3.09 160 09:55 16.03.2022
4746 Clouds 22 1020 94 10000 2.57 140 06:33 16.03.2022
4747 Clouds 23 1020 88 10000 3.09 140 02:29 16.03.2022
4748 Clouds 27 1018 69 10000 5.66 150 22:51 15.03.2022
4749 Clouds 27 1018 69 10000 5.66 150 22:32 15.03.2022
4750 Clouds 27 1019 69 10000 6.69 150 20:36 15.03.2022
4751 Clouds 27 1020 69 10000 6.17 160 19:27 15.03.2022
4752 Clouds 28 1022 69 10000 5.14 150 17:35 15.03.2022
4753 Clouds 28 1022 65 10000 5.14 140 16:34 15.03.2022
4754 Clouds 26 1022 73 10000 3.6 120 15:21 15.03.2022
4755 Clouds 25 1022 83 10000 3.6 100 14:46 15.03.2022
4756 Rain 24 1022 88 10000 2.57 90 13:55 15.03.2022
4757 Clouds 23 1021 94 10000 2.06 90 12:29 15.03.2022
4758 Clouds 22 1021 100 10000 1.54 80 11:31 15.03.2022
4759 Clouds 23 1021 94 10000 2.57 100 09:46 15.03.2022
4760 Clouds 23 1021 88 10000 3.09 90 08:42 15.03.2022
4761 Clouds 23 1022 94 10000 4.12 100 07:52 15.03.2022
4762 Clouds 23 1022 94 10000 4.12 100 07:32 15.03.2022
4763 Clouds 23 1024 88 10000 4.63 90 04:20 15.03.2022
4764 Clouds 23 1022 83 10000 8.23 80 23:57 14.03.2022
4765 Clouds 23 1022 83 10000 8.23 80 23:24 14.03.2022
4766 Clouds 23 1022 83 10000 7.72 80 22:30 14.03.2022
4767 Clouds 23 1022 83 10000 9.26 90 21:30 14.03.2022
4768 Clouds 24 1023 78 10000 8.23 90 20:48 14.03.2022
4769 Clouds 23 1022 82 10000 11.93 60 20:20 14.03.2022
4770 Clouds 22 1025 83 10000 7.72 80 18:55 14.03.2022
4771 Clouds 23 1025 78 10000 7.72 80 17:54 14.03.2022
4772 Clouds 22 1025 83 10000 7.72 80 16:58 14.03.2022
4773 Clouds 22 1024 78 10000 7.72 80 15:43 14.03.2022
4774 Clouds 22 1024 78 10000 8.23 80 14:40 14.03.2022
4775 Clouds 21 1023 83 10000 7.2 80 12:29 14.03.2022
4776 Clouds 21 1023 83 10000 6.17 80 10:54 14.03.2022
4777 Clouds 21 1023 83 10000 7.2 70 09:44 14.03.2022
4778 Rain 21 1023 83 10000 7.2 70 09:21 14.03.2022
4779 Rain 21 1023 83 10000 6.69 70 08:55 14.03.2022
4780 Clouds 22 1024 73 10000 6.17 80 07:28 14.03.2022
4781 Clouds 22 1025 73 10000 6.69 70 05:44 14.03.2022
4782 Clouds 22 1023 68 10000 7.2 60 01:55 14.03.2022
4783 Clouds 22 1023 68 10000 7.2 60 01:24 14.03.2022
4784 Clouds 23 1022 60 10000 8.23 60 22:43 13.03.2022
4785 Clouds 23 1022 56 10000 8.23 60 21:29 13.03.2022
4786 Clouds 24 1023 53 10000 8.23 60 20:55 13.03.2022
4787 Clouds 24 1023 53 10000 8.23 60 20:30 13.03.2022
4788 Clouds 24 1023 57 10000 8.23 50 19:49 13.03.2022
4789 Clouds 24 1023 57 10000 8.23 50 19:27 13.03.2022
4790 Clouds 23 1024 56 10000 7.72 60 18:50 13.03.2022
4791 Clouds 23 1024 56 10000 7.72 60 18:30 13.03.2022
4792 Clouds 22 1024 60 10000 8.23 50 17:40 13.03.2022
4793 Clouds 22 1024 60 10000 8.23 50 17:40 13.03.2022
4794 Clouds 21 1024 68 10000 7.72 60 16:49 13.03.2022
4795 Clouds 21 1024 68 10000 7.72 60 16:27 13.03.2022
4796 Clouds 21 1024 64 10000 6.69 50 15:44 13.03.2022
4797 Clouds 20 1023 73 10000 6.69 40 14:50 13.03.2022
4798 Clouds 20 1022 68 10000 7.2 30 13:33 13.03.2022
4799 Clouds 20 1021 64 10000 7.72 40 12:37 13.03.2022
4800 Clouds 21 1020 64 10000 7.72 40 11:51 13.03.2022
4801 Clouds 21 1020 64 10000 7.72 40 11:30 13.03.2022
4802 Clouds 21 1019 68 10000 7.72 30 10:46 13.03.2022
4803 Clouds 22 1018 68 10000 8.23 30 09:53 13.03.2022
4804 Clouds 22 1018 68 10000 8.23 30 09:29 13.03.2022
4805 Clouds 23 1018 68 10000 6.17 20 08:40 13.03.2022
4806 Clouds 24 1019 60 10000 6.69 10 07:37 13.03.2022
4807 Clouds 24 1019 73 10000 5.66 350 05:39 13.03.2022
4808 Clouds 26 1015 83 10000 3.6 290 01:48 13.03.2022
4809 Clear 29 1014 61 10000 5.14 280 23:30 12.03.2022
4810 Clear 29 1014 70 10000 6.69 220 21:48 12.03.2022
4811 Clouds 28 1015 74 10000 8.23 200 20:27 12.03.2022
4812 Clouds 29 1015 70 10000 9.26 200 19:46 12.03.2022
4813 Clouds 28 1016 74 10000 9.26 200 18:44 12.03.2022
4814 Clouds 28 1016 74 10000 9.26 200 18:19 12.03.2022
4815 Clouds 28 1017 74 10000 8.23 190 16:32 12.03.2022
4816 Clouds 27 1016 74 10000 7.72 190 15:52 12.03.2022
4817 Clouds 27 1016 74 10000 7.72 190 15:22 12.03.2022
4818 Clouds 25 1015 83 10000 6.17 190 13:54 12.03.2022
4819 Clouds 25 1015 78 10000 7.2 180 12:33 12.03.2022
4820 Clouds 25 1014 78 10000 7.2 180 11:55 12.03.2022
4821 Clouds 25 1014 78 10000 7.2 180 11:34 12.03.2022
4822 Clear 25 1014 81 10000 8.47 158 10:26 12.03.2022
4823 Clouds 25 1014 83 10000 6.17 170 09:43 12.03.2022
4824 Clouds 25 1016 83 10000 6.69 160 07:58 12.03.2022
4825 Clouds 24 1016 88 10000 5.14 150 06:44 12.03.2022
4826 Clouds 26 1016 73 10000 5.14 170 00:55 12.03.2022
4827 Clouds 27 1016 69 10000 6.17 170 23:43 11.03.2022
4828 Clouds 27 1016 69 10000 6.17 170 23:43 11.03.2022
4829 Clouds 27 1016 69 10000 6.17 170 22:32 11.03.2022
4830 Clouds 27 1017 69 10000 7.2 170 21:24 11.03.2022
4831 Clouds 28 1017 69 10000 7.2 170 20:46 11.03.2022
4832 Clouds 28 1017 69 10000 7.2 170 20:26 11.03.2022
4833 Clouds 28 1018 69 10000 7.72 160 19:33 11.03.2022
4834 Clouds 28 1019 69 10000 6.69 170 18:30 11.03.2022
4835 Clouds 27 1019 74 10000 7.72 170 17:24 11.03.2022
4836 Clouds 26 1019 78 10000 7.2 170 15:59 11.03.2022
4837 Clouds 26 1019 78 10000 7.2 170 15:32 11.03.2022
4838 Clouds 24 1019 88 10000 3.09 150 13:42 11.03.2022
4839 Clouds 24 1018 88 10000 3.09 150 12:37 11.03.2022
4840 Clouds 24 1018 88 10000 3.09 160 11:57 11.03.2022
4841 Clouds 24 1017 88 10000 5.14 160 10:30 11.03.2022
4842 Clouds 24 1017 88 10000 5.14 160 09:33 11.03.2022
4843 Clouds 24 1018 88 10000 4.12 150 08:27 11.03.2022
4844 Clouds 24 1018 88 10000 4.12 150 07:46 11.03.2022
4845 Clouds 24 1019 88 10000 3.09 150 06:25 11.03.2022
4846 Clouds 24 1019 94 10000 3.6 150 04:24 11.03.2022
4847 Clouds 26 1018 78 10000 4.63 160 00:39 11.03.2022
4848 Clouds 27 1017 74 10000 6.17 160 22:32 10.03.2022
4849 Clouds 29 1017 65 10000 6.17 170 21:52 10.03.2022
4850 Clouds 29 1017 65 10000 6.17 170 21:24 10.03.2022
4851 Clouds 28 1018 69 10000 7.2 180 19:54 10.03.2022
4852 Clouds 28 1019 69 10000 6.69 180 18:56 10.03.2022
4853 Clouds 27 1019 69 10000 8.23 190 17:37 10.03.2022
4854 Clouds 26 1020 78 10000 6.69 180 16:42 10.03.2022
4855 Clear 25 1019 83 10000 5.87 151 15:27 10.03.2022
4856 Clouds 24 1018 83 10000 4.63 170 13:30 10.03.2022
4857 Clouds 24 1018 83 10000 4.63 160 12:35 10.03.2022
4858 Clouds 24 1017 78 10000 5.14 170 11:23 10.03.2022
4859 Clear 24 1017 81 10000 7.33 145 09:27 10.03.2022
4860 Clouds 24 1018 83 10000 5.66 150 07:43 10.03.2022
4861 Clouds 24 1018 83 10000 3.09 150 04:47 10.03.2022
4862 Clouds 24 1017 83 10000 5.14 160 01:50 10.03.2022
4863 Clouds 26 1016 73 10000 8.23 160 23:29 09.03.2022
4864 Clouds 28 1017 65 10000 8.75 170 21:54 09.03.2022
4865 Clouds 28 1017 65 10000 8.75 170 21:34 09.03.2022
4866 Clouds 28 1018 65 10000 7.72 170 19:55 09.03.2022
4867 Clouds 28 1019 65 10000 7.2 170 18:34 09.03.2022
4868 Clouds 27 1019 69 10000 7.72 170 17:27 09.03.2022
4869 Clouds 26 1020 73 10000 7.2 170 16:31 09.03.2022
4870 Clouds 26 1019 73 10000 7.2 160 15:28 09.03.2022
4871 Clear 24 1019 79 10000 8.02 132 13:54 09.03.2022
4872 Clouds 23 1018 88 10000 5.14 150 12:47 09.03.2022
4873 Clouds 24 1017 83 10000 6.69 160 11:54 09.03.2022
4874 Clouds 24 1017 83 10000 6.69 160 11:35 09.03.2022
4875 Clouds 24 1017 83 10000 5.66 150 10:26 09.03.2022
4876 Clouds 24 1017 83 10000 7.2 150 08:54 09.03.2022
4877 Clouds 24 1018 83 10000 6.17 140 07:38 09.03.2022
4878 Clouds 24 1018 83 10000 5.14 140 02:46 09.03.2022
4879 Clouds 25 1018 78 10000 6.17 150 00:41 09.03.2022
4880 Clouds 27 1018 69 10000 5.66 150 22:47 08.03.2022
4881 Clouds 27 1018 69 10000 5.66 150 22:26 08.03.2022
4882 Clouds 27 1018 69 10000 6.69 140 21:23 08.03.2022
4883 Clouds 28 1019 65 10000 7.2 150 20:35 08.03.2022
4884 Clouds 27 1019 69 10000 8.23 160 19:31 08.03.2022
4885 Clouds 27 1020 69 10000 7.72 140 18:44 08.03.2022
4886 Clouds 26 1020 73 10000 8.75 160 17:26 08.03.2022
4887 Clouds 26 1020 73 10000 8.23 140 15:19 08.03.2022
4888 Clouds 25 1020 78 10000 6.17 140 14:18 08.03.2022
4889 Clouds 23 1019 88 10000 4.63 140 12:41 08.03.2022
4890 Clouds 23 1019 88 10000 4.63 140 11:44 08.03.2022
4891 Clouds 24 1018 83 10000 4.63 130 10:37 08.03.2022
4892 Clouds 24 1019 83 10000 4.12 120 08:58 08.03.2022
4893 Clouds 24 1020 88 10000 4.63 120 06:34 08.03.2022
4894 Clouds 23 1021 88 10000 5.66 140 04:25 08.03.2022
4895 Clouds 27 1019 69 10000 7.2 130 22:57 07.03.2022
4896 Clouds 28 1020 69 10000 6.69 130 21:46 07.03.2022
4897 Clouds 28 1020 69 10000 6.69 130 21:27 07.03.2022
4898 Clouds 27 1020 69 10000 7.72 130 20:38 07.03.2022
4899 Clouds 27 1021 69 10000 8.75 130 19:50 07.03.2022
4900 Clouds 27 1021 69 10000 8.75 130 19:24 07.03.2022
4901 Clouds 27 1022 65 10000 9.26 140 18:33 07.03.2022
4902 Clouds 27 1022 69 10000 8.75 120 17:33 07.03.2022
4903 Clouds 26 1022 69 10000 9.26 120 16:55 07.03.2022
4904 Clouds 25 1022 78 10000 8.23 110 14:57 07.03.2022
4905 Clouds 24 1021 78 10000 7.2 100 12:35 07.03.2022
4906 Clouds 24 1021 78 10000 5.66 100 11:36 07.03.2022
4907 Clouds 24 1021 78 10000 5.66 100 10:34 07.03.2022
4908 Clouds 24 1022 78 10000 4.12 100 08:35 07.03.2022
4909 Clouds 25 1023 69 10000 7.2 100 02:50 07.03.2022
4910 Clouds 25 1023 69 10000 6.17 100 00:20 07.03.2022
4911 Clouds 25 1023 73 10000 7.72 100 23:26 06.03.2022
4912 Clouds 26 1023 69 10000 6.69 100 22:29 06.03.2022
4913 Clouds 26 1023 65 10000 9.26 100 21:37 06.03.2022
4914 Clouds 27 1023 61 10000 9.26 100 20:29 06.03.2022
4915 Clouds 26 1024 65 10000 8.75 100 19:39 06.03.2022
4916 Clouds 26 1025 65 10000 9.77 110 18:50 06.03.2022
4917 Clouds 27 1025 57 10000 10.29 100 17:46 06.03.2022
4918 Clouds 27 1025 57 10000 10.29 100 17:19 06.03.2022
4919 Clouds 24 1025 74 10000 11.48 85 16:39 06.03.2022
4920 Clouds 26 1025 65 10000 9.77 100 15:26 06.03.2022
4921 Clouds 24 1024 73 10000 7.72 100 14:42 06.03.2022
4922 Clouds 23 1024 78 10000 6.69 100 13:49 06.03.2022
4923 Clouds 23 1023 68 10000 5.66 100 12:40 06.03.2022
4924 Clouds 23 1023 68 10000 6.17 110 11:46 06.03.2022
4925 Clouds 23 1023 73 10000 6.17 100 10:40 06.03.2022
4926 Clouds 24 1023 71 10000 11.94 91 09:18 06.03.2022
4927 Clouds 23 1024 68 10000 6.69 110 08:28 06.03.2022
4928 Clouds 23 1024 68 10000 6.17 110 07:25 06.03.2022
4929 Clouds 24 1025 64 10000 7.2 110 02:22 06.03.2022
4930 Clouds 25 1024 65 10000 6.17 100 00:35 06.03.2022
4931 Clouds 25 1024 65 10000 8.23 100 23:59 05.03.2022
4932 Clouds 25 1024 65 10000 8.23 100 23:19 05.03.2022
4933 Clouds 26 1024 61 10000 8.23 90 22:32 05.03.2022
4934 Clouds 27 1023 57 10000 10.8 110 21:29 05.03.2022
4935 Clouds 27 1024 54 10000 10.8 110 20:27 05.03.2022
4936 Clouds 27 1024 57 10000 9.77 110 19:19 05.03.2022
4937 Clouds 26 1025 61 10000 9.26 90 18:37 05.03.2022
4938 Clouds 26 1025 61 10000 9.26 100 17:34 05.03.2022
4939 Clouds 25 1025 69 10000 8.23 90 16:18 05.03.2022
4940 Clouds 24 1024 64 10000 7.72 90 14:54 05.03.2022
4941 Clouds 24 1024 64 10000 7.72 90 14:35 05.03.2022
4942 Clouds 23 1023 68 10000 7.2 90 13:39 05.03.2022
4943 Clouds 23 1023 64 10000 7.2 90 12:35 05.03.2022
4944 Clouds 23 1023 73 10000 6.69 80 11:20 05.03.2022
4945 Clouds 23 1022 73 10000 6.69 90 10:52 05.03.2022
4946 Clouds 23 1022 73 10000 5.66 90 09:30 05.03.2022
4947 Clouds 22 1022 83 10000 4.12 100 08:24 05.03.2022
4948 Clouds 23 1023 78 10000 5.66 100 06:29 05.03.2022
4949 Clouds 23 1023 78 10000 6.69 90 04:54 05.03.2022
4950 Clouds 25 1022 65 10000 6.69 90 23:59 04.03.2022
4951 Clouds 26 1022 65 10000 7.2 80 22:45 04.03.2022
4952 Clouds 26 1022 65 10000 7.2 80 22:23 04.03.2022
4953 Clouds 25 1022 65 10000 7.72 90 21:39 04.03.2022
4954 Clouds 26 1022 65 10000 7.2 90 20:32 04.03.2022
4955 Clouds 27 1023 61 10000 7.72 100 19:36 04.03.2022
4956 Clouds 26 1023 65 10000 7.72 90 18:47 04.03.2022
4957 Clouds 26 1023 65 10000 7.72 90 18:22 04.03.2022
4958 Clouds 25 1024 69 10000 7.2 90 17:28 04.03.2022
4959 Clouds 24 1023 78 10000 6.17 90 15:31 04.03.2022
4960 Rain 23 1022 83 10000 3.09 90 14:40 04.03.2022
4961 Clouds 22 1022 88 10000 2.06 40 13:27 04.03.2022
4962 Clouds 22 1020 88 10000 2.06 70 11:57 04.03.2022
4963 Clouds 22 1020 88 10000 3.09 90 10:58 04.03.2022
4964 Clouds 22 1020 88 10000 3.09 90 10:21 04.03.2022
4965 Clouds 22 1020 88 10000 3.09 20 08:48 04.03.2022
4966 Clouds 22 1020 83 10000 3.09 40 07:41 04.03.2022
4967 Clouds 22 1021 73 10000 6.17 110 04:59 04.03.2022
4968 Clouds 23 1020 83 10000 4.63 60 00:41 04.03.2022
4969 Clouds 25 1019 73 10000 6.69 60 22:39 03.03.2022
4970 Clouds 25 1019 73 10000 6.17 60 21:57 03.03.2022
4971 Clouds 25 1019 73 10000 6.17 60 21:34 03.03.2022
4972 Clouds 25 1020 65 10000 6.17 70 20:21 03.03.2022
4973 Clouds 25 1022 65 10000 5.66 70 18:57 03.03.2022
4974 Clouds 25 1022 65 10000 5.66 70 18:24 03.03.2022
4975 Clouds 25 1022 65 10000 5.66 70 17:31 03.03.2022
4976 Clouds 25 1022 65 10000 5.66 90 16:26 03.03.2022
4977 Clouds 23 1022 78 10000 3.09 90 15:32 03.03.2022
4978 Clouds 22 1021 88 10000 3.09 90 14:43 03.03.2022
4979 Clouds 22 1021 88 10000 3.09 90 14:24 03.03.2022
4980 Clouds 22 1020 78 10000 2.06 100 12:27 03.03.2022
4981 Clouds 22 1019 78 10000 1.03 0 10:49 03.03.2022
4982 Clouds 22 1019 78 10000 2.06 90 09:45 03.03.2022
4983 Clouds 21 1019 88 10000 2.57 90 08:19 03.03.2022
4984 Clouds 21 1020 78 10000 1.54 90 06:37 03.03.2022
4985 Clouds 23 1020 68 10000 2.06 70 03:21 03.03.2022
4986 Clouds 25 1018 61 10000 4.12 50 23:41 02.03.2022
4987 Clouds 25 1018 61 10000 4.12 50 22:53 02.03.2022
4988 Clouds 25 1018 61 10000 4.63 50 21:36 02.03.2022
4989 Clouds 26 1018 57 10000 4.63 60 20:57 02.03.2022
4990 Clouds 26 1018 57 10000 4.63 60 20:24 02.03.2022
4991 Clouds 25 1019 57 10000 5.14 30 19:37 02.03.2022
4992 Clouds 25 1020 57 10000 4.63 70 18:54 02.03.2022
4993 Clouds 25 1020 57 10000 4.63 70 18:19 02.03.2022
4994 Clouds 25 1020 57 10000 4.63 50 17:34 02.03.2022
4995 Clouds 24 1020 64 10000 4.63 60 16:51 02.03.2022
4996 Clouds 23 1019 68 10000 3.09 80 14:49 02.03.2022
4997 Clouds 22 1018 73 10000 2.57 70 13:29 02.03.2022
4998 Clouds 22 1018 73 10000 2.57 60 12:44 02.03.2022
4999 Clouds 22 1018 73 10000 2.06 80 11:53 02.03.2022
5000 Clouds 22 1018 73 10000 2.06 80 11:25 02.03.2022
5001 Clouds 23 1016 76 10000 6.14 49 10:25 02.03.2022
5002 Clouds 23 1016 75 10000 5.92 45 09:25 02.03.2022
5003 Clouds 23 1018 68 10000 3.6 60 07:52 02.03.2022
5004 Clouds 23 1018 73 10000 3.6 60 06:57 02.03.2022
5005 Clouds 24 1017 73 10000 3.09 60 03:46 02.03.2022
5006 Clouds 24 1016 73 10000 4.12 330 00:33 02.03.2022
5007 Clouds 26 1015 69 10000 4.63 340 22:50 01.03.2022
5008 Clouds 26 1015 69 10000 4.63 340 22:31 01.03.2022
5009 Clouds 26 1015 61 10000 4.12 330 21:25 01.03.2022
5010 Clouds 26 1015 65 10000 5.14 320 20:32 01.03.2022
5011 Clouds 26 1016 69 10000 5.14 330 19:50 01.03.2022
5012 Clouds 26 1016 65 10000 5.14 320 18:51 01.03.2022
5013 Clouds 26 1016 65 10000 5.14 320 18:21 01.03.2022
5014 Clouds 26 1017 65 10000 5.66 310 17:37 01.03.2022
5015 Clouds 25 1017 73 10000 5.14 330 16:35 01.03.2022
5016 Clouds 25 1017 78 10000 3.6 290 15:42 01.03.2022
5017 Clouds 23 1017 88 10000 3.6 280 14:41 01.03.2022
5018 Clouds 23 1017 88 10000 3.6 280 14:23 01.03.2022
5019 Clouds 21 1016 88 10000 2.57 260 13:25 01.03.2022
5020 Clouds 20 1015 94 10000 2.06 260 12:34 01.03.2022
5021 Clouds 21 1015 94 10000 1.54 250 10:37 01.03.2022
5022 Clouds 21 1015 94 10000 2.06 240 09:18 01.03.2022
5023 Clouds 20 1016 94 10000 1.03 0 07:54 01.03.2022
5024 Clouds 20 1016 94 10000 2.06 180 06:26 01.03.2022
5025 Rain 20 1017 94 10000 3.6 220 02:44 01.03.2022
5026 Rain 22 1016 94 10000 3.09 130 00:36 01.03.2022
5027 Clouds 25 1016 78 10000 4.12 110 23:31 28.02.2022
5028 Rain 26 1016 73 10000 4.12 50 22:24 28.02.2022
5029 Clouds 25 1016 78 10000 3.6 30 21:39 28.02.2022
5030 Clouds 28 1017 61 10000 3.6 50 19:59 28.02.2022
5031 Clouds 28 1017 61 10000 3.6 50 19:40 28.02.2022
5032 Clouds 28 1018 65 10000 4.12 230 18:44 28.02.2022
5033 Clouds 27 1019 69 10000 2.06 160 17:33 28.02.2022
5034 Clouds 26 1019 69 10000 2.57 170 16:43 28.02.2022
5035 Clouds 25 1019 78 10000 2.57 180 15:27 28.02.2022
5036 Clouds 23 1018 88 10000 0.51 0 14:32 28.02.2022
5037 Clouds 20 1018 94 10000 1.54 170 13:48 28.02.2022
5038 Clouds 20 1017 94 10000 0 0 12:48 28.02.2022
5039 Clouds 20 1017 94 10000 0 0 11:58 28.02.2022
5040 Clouds 20 1017 94 10000 1.03 0 10:49 28.02.2022
5041 Clouds 20 1017 94 10000 1.03 0 10:21 28.02.2022
5042 Clouds 20 1017 94 10000 1.03 0 09:33 28.02.2022
5043 Clouds 20 1018 94 10000 0 0 08:44 28.02.2022
5044 Clouds 20 1018 94 10000 0.51 0 07:35 28.02.2022
5045 Clouds 21 1019 88 10000 1.54 30 05:21 28.02.2022
5046 Clouds 22 1019 88 10000 1.54 160 04:27 28.02.2022
5047 Clouds 26 1018 69 10000 4.12 160 23:44 27.02.2022
5048 Clouds 28 1018 61 10000 4.12 170 22:35 27.02.2022
5049 Clouds 28 1018 61 10000 4.63 160 21:52 27.02.2022
5050 Clouds 28 1018 61 10000 4.63 160 21:21 27.02.2022
5051 Clouds 27 1019 65 10000 4.63 150 20:32 27.02.2022
5052 Clouds 27 1020 65 10000 5.14 150 19:58 27.02.2022
5053 Clouds 27 1020 65 10000 5.14 150 19:27 27.02.2022
5054 Clouds 28 1021 61 10000 5.14 140 18:47 27.02.2022
5055 Clouds 27 1022 65 10000 5.14 130 17:56 27.02.2022
5056 Clouds 27 1022 65 10000 5.14 130 17:18 27.02.2022
5057 Clouds 26 1022 69 10000 5.14 130 16:21 27.02.2022
5058 Clouds 23 1022 88 10000 2.06 90 13:34 27.02.2022
5059 Clouds 23 1021 88 10000 2.06 100 12:33 27.02.2022
5060 Clouds 23 1020 88 10000 2.06 100 10:59 27.02.2022
5061 Clouds 23 1020 88 10000 2.06 100 10:20 27.02.2022
5062 Clouds 23 1021 88 10000 2.57 90 09:50 27.02.2022
5063 Clouds 23 1021 88 10000 2.57 90 09:20 27.02.2022
5064 Clouds 23 1022 88 10000 3.09 90 07:54 27.02.2022
5065 Clear 24 1021 80 10000 7.25 75 05:38 27.02.2022
5066 Clear 24 1021 80 10000 7.25 75 05:38 27.02.2022
5067 Clouds 23 1023 88 10000 5.14 80 02:21 27.02.2022
5068 Clouds 25 1022 78 10000 5.14 90 23:23 26.02.2022
5069 Clouds 25 1022 78 10000 6.69 70 22:31 26.02.2022
5070 Clouds 25 1022 78 10000 5.66 80 21:18 26.02.2022
5071 Clouds 25 1022 78 10000 5.66 70 20:20 26.02.2022
5072 Clouds 25 1023 73 10000 5.14 70 19:50 26.02.2022
5073 Clouds 25 1023 73 10000 5.14 70 19:26 26.02.2022
5074 Clouds 26 1024 69 10000 5.66 80 17:52 26.02.2022
5075 Clouds 26 1024 69 10000 5.66 80 17:28 26.02.2022
5076 Clouds 25 1024 73 10000 4.63 70 15:57 26.02.2022
5077 Clouds 25 1024 73 10000 4.63 70 15:25 26.02.2022
5078 Clouds 24 1023 73 10000 3.6 80 14:55 26.02.2022
5079 Clouds 24 1023 73 10000 3.6 80 14:36 26.02.2022
5080 Clouds 23 1023 78 10000 3.09 90 13:24 26.02.2022
5081 Clouds 23 1023 78 10000 2.57 80 12:31 26.02.2022
5082 Clouds 22 1022 78 10000 2.57 90 11:29 26.02.2022
5083 Clouds 22 1022 78 10000 2.06 90 10:51 26.02.2022
5084 Clouds 22 1022 78 10000 2.06 80 08:59 26.02.2022
5085 Clouds 23 1023 73 10000 3.09 100 07:43 26.02.2022
5086 Clouds 24 1023 64 10000 3.09 90 01:53 26.02.2022
5087 Clouds 25 1022 57 10000 5.66 70 22:57 25.02.2022
5088 Clouds 26 1022 50 10000 5.66 70 21:46 25.02.2022
5089 Clouds 26 1022 50 10000 5.66 70 21:26 25.02.2022
5090 Clouds 25 1023 61 10000 5.66 70 20:33 25.02.2022
5091 Clouds 27 1024 50 10000 5.66 70 19:21 25.02.2022
5092 Clouds 25 1025 57 10000 5.66 110 17:30 25.02.2022
5093 Clouds 25 1025 65 10000 6.17 100 16:35 25.02.2022
5094 Clouds 25 1025 57 10000 5.66 100 15:48 25.02.2022
5095 Clouds 25 1025 57 10000 5.66 100 15:22 25.02.2022
5096 Clouds 25 1025 57 10000 5.66 100 15:22 25.02.2022
5097 Clouds 23 1024 68 10000 3.09 100 14:42 25.02.2022
5098 Clouds 22 1024 73 10000 2.57 110 13:51 25.02.2022
5099 Clouds 22 1024 73 10000 2.57 110 13:19 25.02.2022
5100 Clouds 23 1022 67 10000 8.66 86 11:28 25.02.2022
5101 Clouds 22 1022 78 10000 2.57 90 10:43 25.02.2022
5102 Clouds 24 1022 67 10000 7.52 80 10:22 25.02.2022
5103 Clouds 23 1022 73 10000 3.6 90 09:30 25.02.2022
5104 Clouds 23 1022 68 10000 7.67 75 07:42 25.02.2022
5105 Clouds 23 1023 69 10000 7.98 78 05:58 25.02.2022
5106 Clouds 23 1023 69 10000 7.98 78 05:31 25.02.2022
5107 Clouds 24 1022 64 10000 6.17 90 00:27 25.02.2022
5108 Clouds 26 1022 50 10000 6.69 110 21:59 24.02.2022
5109 Clouds 26 1022 50 10000 6.69 110 21:40 24.02.2022
5110 Clouds 26 1022 50 10000 6.69 110 21:20 24.02.2022
5111 Clouds 26 1023 57 10000 7.2 110 19:53 24.02.2022
5112 Clouds 27 1024 57 10000 7.2 110 18:45 24.02.2022
5113 Clouds 27 1024 57 10000 7.2 110 18:19 24.02.2022
5114 Clouds 26 1024 61 10000 7.72 110 17:40 24.02.2022
5115 Clouds 25 1024 61 10000 6.69 100 16:50 24.02.2022
5116 Clouds 25 1024 61 10000 6.69 100 16:24 24.02.2022
5117 Clouds 24 1023 78 10000 4.63 110 14:56 24.02.2022
5118 Clouds 24 1023 78 10000 4.63 110 14:36 24.02.2022
5119 Clouds 22 1023 83 10000 3.6 100 13:40 24.02.2022
5120 Clouds 22 1023 83 10000 3.6 100 13:21 24.02.2022
5121 Clouds 22 1022 88 10000 4.63 110 10:41 24.02.2022
5122 Clouds 22 1022 83 10000 2.06 90 09:24 24.02.2022
5123 Clouds 22 1022 88 10000 2.06 80 08:41 24.02.2022
5124 Clouds 22 1023 83 10000 3.09 90 05:58 24.02.2022
5125 Clouds 24 1022 73 10000 3.09 90 01:58 24.02.2022
5126 Clouds 26 1022 65 10000 4.63 70 23:40 23.02.2022
5127 Clouds 26 1022 65 10000 5.14 80 21:43 23.02.2022
5128 Clouds 26 1023 61 10000 5.14 80 20:31 23.02.2022
5129 Clouds 26 1024 61 10000 5.14 60 19:49 23.02.2022
5130 Clouds 26 1024 65 10000 5.66 50 18:42 23.02.2022
5131 Clouds 26 1025 65 10000 5.14 60 17:45 23.02.2022
5132 Clouds 25 1024 69 10000 4.63 110 15:26 23.02.2022
5133 Clouds 21 1024 88 10000 2.06 90 13:28 23.02.2022
5134 Clouds 20 1023 94 10000 2.57 100 12:24 23.02.2022
5135 Clouds 20 1023 94 10000 2.57 100 12:24 23.02.2022
5136 Clouds 21 1023 88 10000 3.09 100 10:44 23.02.2022
5137 Clouds 22 1023 83 10000 3.09 110 08:59 23.02.2022
5138 Clouds 22 1023 83 10000 3.09 110 08:23 23.02.2022
5139 Clouds 22 1024 83 10000 3.6 90 06:53 23.02.2022
5140 Clouds 24 1023 73 10000 6.17 100 00:47 23.02.2022
5141 Clouds 25 1023 69 10000 6.69 110 23:39 22.02.2022
5142 Clouds 25 1022 69 10000 6.17 100 22:41 22.02.2022
5143 Clouds 26 1022 61 10000 6.69 110 21:49 22.02.2022
5144 Clouds 26 1022 61 10000 6.69 110 21:31 22.02.2022
5145 Clouds 27 1023 65 10000 7.2 100 20:57 22.02.2022
5146 Clouds 27 1023 65 10000 7.2 100 20:30 22.02.2022
5147 Clear 24 1022 78 10000 8.94 89 19:42 22.02.2022
5148 Clear 24 1023 78 10000 9.12 91 19:23 22.02.2022
5149 Clouds 26 1025 69 10000 6.17 110 17:49 22.02.2022
5150 Clouds 26 1025 69 10000 6.17 110 17:23 22.02.2022
5151 Clouds 25 1025 73 10000 5.66 100 16:41 22.02.2022
5152 Clouds 24 1024 83 10000 5.66 110 15:44 22.02.2022
5153 Clouds 24 1024 83 10000 5.66 110 15:44 22.02.2022
5154 Clouds 23 1024 88 10000 3.09 100 14:44 22.02.2022
5155 Clouds 22 1023 88 10000 2.57 100 12:31 22.02.2022
5156 Clouds 22 1022 88 10000 2.57 100 10:50 22.02.2022
5157 Clouds 23 1023 83 10000 2.57 90 08:41 22.02.2022
5158 Clouds 23 1023 83 10000 3.09 100 07:26 22.02.2022
5159 Clouds 22 1024 83 10000 4.63 90 04:59 22.02.2022
5160 Clouds 23 1023 78 10000 4.63 90 01:45 22.02.2022
5161 Clouds 23 1023 78 10000 4.63 90 01:45 22.02.2022
5162 Clouds 25 1022 69 10000 5.66 90 22:46 21.02.2022
5163 Clouds 26 1022 69 10000 6.17 70 21:33 21.02.2022
5164 Clouds 26 1023 69 10000 7.2 70 20:35 21.02.2022
5165 Clouds 26 1024 69 10000 7.2 60 18:46 21.02.2022
5166 Clouds 25 1025 69 10000 6.69 60 16:58 21.02.2022
5167 Clouds 25 1024 69 10000 5.66 80 15:20 21.02.2022
5168 Clouds 24 1024 73 10000 4.63 70 14:21 21.02.2022
5169 Clouds 23 1023 78 10000 4.12 70 13:20 21.02.2022
5170 Clouds 23 1023 73 10000 4.63 60 12:23 21.02.2022
5171 Clouds 23 1022 78 10000 3.6 80 10:58 21.02.2022
5172 Clouds 23 1022 78 10000 3.6 70 09:34 21.02.2022
5173 Clouds 24 1024 78 10000 5.66 90 04:52 21.02.2022
5174 Clouds 24 1022 78 10000 6.69 90 23:32 20.02.2022
5175 Clouds 25 1022 73 10000 6.69 90 22:20 20.02.2022
5176 Clouds 25 1022 69 10000 6.17 80 21:42 20.02.2022
5177 Clouds 26 1022 65 10000 7.2 80 20:53 20.02.2022
5178 Clouds 26 1022 65 10000 7.2 80 20:23 20.02.2022
5179 Clouds 25 1023 69 10000 7.2 90 19:30 20.02.2022
5180 Clouds 24 1024 78 10000 7.2 70 18:49 20.02.2022
5181 Clouds 24 1024 78 10000 7.2 70 18:31 20.02.2022
5182 Clouds 24 1024 73 10000 6.69 70 17:34 20.02.2022
5183 Clouds 24 1023 78 10000 7.72 60 15:31 20.02.2022
5184 Clouds 23 1023 88 10000 6.17 60 14:41 20.02.2022
5185 Clouds 24 1022 83 10000 5.66 60 13:23 20.02.2022
5186 Clouds 24 1021 83 10000 5.66 50 12:20 20.02.2022
5187 Clouds 23 1020 88 10000 3.6 50 10:21 20.02.2022
5188 Clouds 23 1020 88 10000 3.09 40 09:53 20.02.2022
5189 Clouds 24 1022 88 10000 2.57 30 06:46 20.02.2022
5190 Clouds 25 1021 78 10000 2.06 360 00:34 20.02.2022
5191 Clouds 26 1020 69 10000 2.06 30 23:42 19.02.2022
5192 Clouds 26 1020 69 10000 2.57 30 22:25 19.02.2022
5193 Clouds 26 1020 73 10000 3.6 360 21:54 19.02.2022
5194 Clouds 28 1021 65 10000 3.09 350 20:48 19.02.2022
5195 Clouds 26 1021 73 10000 4.12 320 19:41 19.02.2022
5196 Clouds 28 1022 61 10000 3.09 300 18:41 19.02.2022
5197 Clouds 28 1022 61 10000 3.09 300 18:19 19.02.2022
5198 Clouds 28 1022 61 10000 2.57 260 17:33 19.02.2022
5199 Clouds 25 1022 83 10000 1.03 0 15:59 19.02.2022
5200 Clouds 23 1021 94 10000 0 0 14:56 19.02.2022
5201 Clouds 20 1021 94 10000 0 0 13:58 19.02.2022
5202 Clouds 19 1019 100 10000 0 0 11:58 19.02.2022
5203 Clouds 19 1019 100 10000 0 0 11:36 19.02.2022
5204 Clouds 20 1019 100 10000 0 0 09:27 19.02.2022
5205 Clouds 21 1020 100 10000 1.54 150 06:51 19.02.2022
5206 Clouds 25 1019 83 10000 4.12 160 00:55 19.02.2022
5207 Clouds 27 1019 69 10000 5.66 150 22:41 18.02.2022
5208 Clouds 27 1019 69 10000 5.14 160 21:27 18.02.2022
5209 Clouds 27 1020 65 10000 5.14 180 20:25 18.02.2022
5210 Clouds 27 1021 69 10000 5.14 160 19:51 18.02.2022
5211 Clouds 27 1022 69 10000 4.12 180 18:38 18.02.2022
5212 Clouds 27 1022 69 10000 4.12 180 18:18 18.02.2022
5213 Clouds 27 1023 69 10000 5.14 160 17:18 18.02.2022
5214 Clouds 23 1021 94 10000 1.54 130 14:31 18.02.2022
5215 Fog 21 1020 94 4800 0 0 13:47 18.02.2022
5216 Clouds 21 1020 100 10000 2.06 150 12:50 18.02.2022
5217 Clouds 21 1020 100 10000 0.51 0 11:57 18.02.2022
5218 Clouds 22 1020 94 10000 1.03 120 10:45 18.02.2022
5219 Clouds 22 1020 94 10000 2.57 150 09:20 18.02.2022
5220 Clouds 23 1021 88 10000 5.14 140 06:48 18.02.2022
5221 Clouds 23 1021 88 10000 4.12 140 05:34 18.02.2022
5222 Clouds 24 1020 83 10000 8.56 100 22:39 17.02.2022
5223 Clouds 26 1022 78 10000 4.63 100 21:41 17.02.2022
5224 Clouds 27 1022 74 10000 6.17 110 20:44 17.02.2022
5225 Clouds 26 1023 73 10000 7.2 110 19:56 17.02.2022
5226 Clouds 26 1023 73 10000 7.2 110 19:26 17.02.2022
5227 Clouds 26 1024 73 10000 7.72 120 18:29 17.02.2022
5228 Clouds 26 1025 73 10000 6.17 110 17:42 17.02.2022
5229 Clouds 25 1025 78 10000 6.69 110 15:57 17.02.2022
5230 Clouds 24 1025 83 10000 6.17 110 14:30 17.02.2022
5231 Clouds 23 1024 83 10000 5.14 110 13:31 17.02.2022
5232 Clouds 22 1023 88 10000 4.63 110 11:48 17.02.2022
5233 Clouds 24 1022 82 10000 10.87 97 10:20 17.02.2022
5234 Clouds 23 1024 83 10000 6.17 110 07:45 17.02.2022
5235 Clouds 23 1024 83 10000 7.72 100 23:23 16.02.2022
5236 Rain 23 1024 83 10000 8.23 90 22:28 16.02.2022
5237 Clouds 23 1025 78 10000 7.2 90 20:22 16.02.2022
5238 Clouds 24 1026 73 10000 10.29 100 18:56 16.02.2022
5239 Clouds 23 1027 78 10000 8.75 100 17:56 16.02.2022
5240 Clouds 24 1027 73 10000 8.75 100 16:44 16.02.2022
5241 Clouds 23 1027 78 10000 9.77 110 15:21 16.02.2022
5242 Clouds 23 1026 68 10000 7.2 100 13:38 16.02.2022
5243 Clouds 22 1026 73 10000 7.2 100 12:21 16.02.2022
5244 Clouds 22 1025 78 10000 7.2 90 11:35 16.02.2022
5245 Clouds 21 1025 83 10000 5.66 100 10:34 16.02.2022
5246 Clear 22 1026 73 10000 7.2 90 08:58 16.02.2022
5247 Clouds 22 1027 73 10000 7.2 90 06:43 16.02.2022
5248 Clouds 22 1025 68 10000 8.23 90 23:46 15.02.2022
5249 Clouds 22 1025 68 10000 7.72 80 22:34 15.02.2022
5250 Clouds 22 1025 64 10000 8.23 90 21:49 15.02.2022
5251 Clouds 22 1025 64 10000 8.23 90 21:29 15.02.2022
5252 Clouds 23 1026 56 10000 7.72 90 20:56 15.02.2022
5253 Clouds 23 1027 56 10000 10.29 90 19:59 15.02.2022
5254 Clouds 23 1027 56 10000 10.29 90 19:26 15.02.2022
5255 Clouds 24 1027 53 10000 8.75 80 18:24 15.02.2022
5256 Clouds 23 1028 53 10000 8.75 90 17:52 15.02.2022
5257 Clouds 23 1028 53 10000 8.75 90 17:21 15.02.2022
5258 Clouds 22 1027 53 10000 7.2 70 15:32 15.02.2022
5259 Clouds 21 1026 56 10000 6.17 80 13:28 15.02.2022
5260 Clouds 21 1025 56 10000 5.66 70 12:53 15.02.2022
5261 Clouds 21 1024 60 10000 6.17 70 11:40 15.02.2022
5262 Clouds 22 1023 62 10000 11.47 51 09:52 15.02.2022
5263 Clouds 21 1025 56 10000 5.14 70 06:59 15.02.2022
5264 Clouds 21 1025 56 10000 5.66 50 05:32 15.02.2022
5265 Clouds 22 1022 60 10000 7.2 30 23:34 14.02.2022
5266 Clouds 23 1021 56 10000 6.69 20 21:54 14.02.2022
5267 Clouds 23 1021 60 10000 6.17 20 20:50 14.02.2022
5268 Clouds 23 1022 60 10000 6.69 20 19:45 14.02.2022
5269 Clouds 23 1022 60 10000 6.69 20 19:26 14.02.2022
5270 Clouds 24 1022 60 10000 6.17 30 18:23 14.02.2022
5271 Clouds 23 1023 64 10000 6.69 20 17:27 14.02.2022
5272 Clouds 23 1022 63 10000 9.84 7 16:25 14.02.2022
5273 Clouds 23 1021 64 10000 6.69 10 14:39 14.02.2022
5274 Clouds 23 1020 68 10000 6.69 360 13:34 14.02.2022
5275 Clouds 22 1019 73 10000 6.69 350 12:55 14.02.2022
5276 Clouds 23 1018 70 10000 10.2 348 11:55 14.02.2022
5277 Clouds 23 1018 73 10000 10.7 343 10:58 14.02.2022
5278 Clouds 23 1018 73 10000 6.17 350 08:46 14.02.2022
5279 Clouds 23 1018 83 10000 6.69 360 07:32 14.02.2022
5280 Clouds 24 1018 83 10000 6.69 320 05:56 14.02.2022
5281 Clouds 26 1016 78 10000 5.66 200 22:43 13.02.2022
5282 Clouds 26 1016 78 10000 5.66 200 22:25 13.02.2022
5283 Clouds 27 1016 69 10000 7.2 200 21:32 13.02.2022
5284 Clouds 27 1016 74 10000 7.72 190 20:40 13.02.2022
5285 Clouds 27 1017 74 10000 8.23 200 19:45 13.02.2022
5286 Clouds 27 1018 74 10000 8.23 200 18:54 13.02.2022
5287 Clouds 27 1018 74 10000 8.23 200 18:35 13.02.2022
5288 Clouds 26 1018 78 10000 9.26 190 16:38 13.02.2022
5289 Clouds 26 1018 78 10000 7.2 170 15:25 13.02.2022
5290 Clouds 24 1017 88 10000 4.63 170 14:36 13.02.2022
5291 Clouds 23 1017 94 10000 4.12 170 12:52 13.02.2022
5292 Clouds 22 1016 100 10000 3.6 150 11:59 13.02.2022
5293 Clouds 24 1016 82 10000 7.21 155 10:35 13.02.2022
5294 Clouds 22 1017 94 10000 0 0 09:47 13.02.2022
5295 Clouds 22 1018 94 10000 3.6 150 07:51 13.02.2022
5296 Clouds 25 1018 83 10000 3.09 160 00:36 13.02.2022
5297 Clouds 26 1017 78 10000 3.6 170 23:53 12.02.2022
5298 Clouds 27 1017 74 10000 4.63 180 22:33 12.02.2022
5299 Clouds 28 1017 69 10000 5.66 180 21:31 12.02.2022
5300 Clouds 27 1017 69 10000 6.17 180 20:47 12.02.2022
5301 Clouds 27 1019 78 10000 5.14 170 19:35 12.02.2022
5302 Clouds 27 1019 74 10000 6.17 160 18:53 12.02.2022
5303 Clouds 27 1019 74 10000 6.17 160 18:35 12.02.2022
5304 Clouds 26 1020 78 10000 6.17 160 17:20 12.02.2022
5305 Clouds 26 1020 78 10000 5.66 180 16:29 12.02.2022
5306 Rain 25 1019 83 10000 5.66 170 15:51 12.02.2022
5307 Rain 25 1019 88 10000 4.63 150 14:44 12.02.2022
5308 Clouds 25 1019 88 10000 4.63 150 14:24 12.02.2022
5309 Clouds 22 1018 100 10000 1.54 110 11:18 12.02.2022
5310 Clouds 25 1016 80 10000 6.19 140 09:51 12.02.2022
5311 Clouds 25 1016 80 10000 5.76 137 09:27 12.02.2022
5312 Clouds 25 1016 80 10000 5.76 137 08:44 12.02.2022
5313 Clouds 24 1018 83 10000 2.06 90 05:40 12.02.2022
5314 Clouds 24 1018 83 10000 3.09 80 04:30 12.02.2022
5315 Clouds 24 1018 78 10000 2.57 90 02:18 12.02.2022
5316 Clouds 25 1017 73 10000 5.66 90 22:55 11.02.2022
5317 Clouds 25 1017 73 10000 5.66 90 22:18 11.02.2022
5318 Clouds 25 1017 73 10000 5.66 90 22:18 11.02.2022
5319 Clouds 25 1017 73 10000 5.14 30 20:43 11.02.2022
5320 Clouds 25 1017 73 10000 5.66 70 19:48 11.02.2022
5321 Clouds 25 1017 73 10000 5.66 70 19:27 11.02.2022
5322 Clouds 25 1018 73 10000 5.66 60 18:26 11.02.2022
5323 Clouds 25 1018 73 10000 5.14 90 17:26 11.02.2022
5324 Clouds 25 1019 73 10000 5.14 80 16:26 11.02.2022
5325 Clouds 24 1018 83 10000 3.09 70 14:44 11.02.2022
5326 Clouds 24 1018 83 10000 3.09 70 14:23 11.02.2022
5327 Clouds 23 1018 83 10000 2.57 50 13:59 11.02.2022
5328 Clouds 23 1018 83 10000 2.57 50 13:39 11.02.2022
5329 Clouds 23 1016 83 10000 1.54 90 11:47 11.02.2022
5330 Clouds 23 1016 83 10000 2.06 90 09:59 11.02.2022
5331 Clouds 23 1016 83 10000 2.57 90 08:49 11.02.2022
5332 Clouds 23 1016 83 10000 2.57 90 08:27 11.02.2022
5333 Clouds 23 1017 83 10000 2.57 80 07:18 11.02.2022
5334 Clouds 23 1017 83 10000 3.09 50 02:39 11.02.2022
5335 Clouds 23 1017 83 10000 3.09 50 02:18 11.02.2022
5336 Clouds 25 1015 73 10000 4.12 50 22:53 10.02.2022
5337 Clouds 26 1015 69 10000 5.66 60 21:50 10.02.2022
5338 Clouds 26 1015 69 10000 5.66 60 21:18 10.02.2022
5339 Clouds 26 1016 69 10000 4.63 40 20:38 10.02.2022
5340 Clouds 26 1016 69 10000 5.14 50 19:26 10.02.2022
5341 Clouds 26 1017 69 10000 5.66 60 18:46 10.02.2022
5342 Clouds 25 1018 73 10000 4.63 60 17:26 10.02.2022
5343 Clouds 25 1018 73 10000 4.63 50 16:50 10.02.2022
5344 Clouds 24 1018 78 10000 4.12 40 15:51 10.02.2022
5345 Clouds 24 1018 78 10000 4.12 40 15:31 10.02.2022
5346 Clouds 23 1017 83 10000 4.12 40 14:48 10.02.2022
5347 Clouds 23 1017 83 10000 4.12 40 14:24 10.02.2022
5348 Clouds 23 1017 83 10000 4.63 20 13:29 10.02.2022
5349 Clouds 23 1016 77 10000 5.93 21 12:50 10.02.2022
5350 Clouds 23 1015 83 10000 2.57 40 11:34 10.02.2022
5351 Clouds 23 1015 83 10000 3.09 40 10:55 10.02.2022
5352 Clouds 23 1015 83 10000 3.6 40 09:59 10.02.2022
5353 Clouds 23 1015 83 10000 3.6 40 09:24 10.02.2022
5354 Clouds 23 1016 83 10000 4.63 30 07:28 10.02.2022
5355 Clouds 23 1017 88 10000 5.14 40 04:55 10.02.2022
5356 Clouds 23 1015 94 10000 3.09 360 01:48 10.02.2022
5357 Clouds 24 1015 88 10000 2.06 30 00:47 10.02.2022
5358 Rain 24 1015 88 10000 2.06 30 00:28 10.02.2022
5359 Rain 24 1014 88 10000 3.6 10 23:22 09.02.2022
5360 Clouds 25 1014 83 10000 3.6 360 22:35 09.02.2022
5361 Clouds 25 1014 83 10000 3.09 20 21:50 09.02.2022
5362 Clouds 25 1014 83 10000 3.09 20 21:28 09.02.2022
5363 Clouds 27 1014 69 10000 4.63 200 20:47 09.02.2022
5364 Clouds 27 1014 69 10000 4.63 200 20:24 09.02.2022
5365 Clouds 28 1015 69 10000 3.6 200 19:45 09.02.2022
5366 Clouds 28 1015 69 10000 3.6 200 19:22 09.02.2022
5367 Clouds 26 1016 69 10000 4.63 180 17:35 09.02.2022
5368 Clouds 25 1017 78 10000 1.54 40 16:32 09.02.2022
5369 Clouds 24 1016 88 10000 2.06 350 15:33 09.02.2022
5370 Clouds 22 1016 94 10000 1.03 0 14:25 09.02.2022
5371 Clouds 21 1015 100 10000 0 0 12:27 09.02.2022
5372 Clouds 21 1014 100 10000 0 0 10:37 09.02.2022
5373 Clouds 22 1015 94 10000 1.54 0 09:57 09.02.2022
5374 Clouds 22 1015 94 10000 1.54 0 09:23 09.02.2022
5375 Clouds 22 1015 94 10000 1.03 130 08:51 09.02.2022
5376 Clouds 22 1016 94 10000 1.54 230 07:28 09.02.2022
5377 Clouds 22 1017 100 10000 1.03 0 05:29 09.02.2022
5378 Clouds 22 1017 94 10000 1.03 0 03:49 09.02.2022
5379 Clouds 25 1016 73 10000 4.12 170 23:57 08.02.2022
5380 Clouds 25 1016 73 10000 4.12 170 23:19 08.02.2022
5381 Clouds 26 1015 69 10000 4.63 170 22:39 08.02.2022
5382 Clouds 26 1015 69 10000 4.63 170 22:20 08.02.2022
5383 Clouds 27 1015 65 10000 5.66 170 21:23 08.02.2022
5384 Clouds 27 1016 65 10000 5.14 180 20:59 08.02.2022
5385 Clouds 27 1016 65 10000 5.14 180 20:41 08.02.2022
5386 Clouds 26 1016 65 10000 4.63 180 19:31 08.02.2022
5387 Clouds 26 1017 69 10000 4.63 170 18:24 08.02.2022
5388 Clouds 25 1018 73 10000 5.14 160 17:30 08.02.2022
5389 Clouds 24 1018 83 10000 3.09 130 15:47 08.02.2022
5390 Clouds 24 1018 83 10000 3.09 130 15:28 08.02.2022
5391 Clouds 20 1018 94 10000 1.54 110 13:50 08.02.2022
5392 Clouds 20 1017 94 10000 2.06 90 12:24 08.02.2022
5393 Clouds 21 1017 88 10000 2.57 110 10:52 08.02.2022
5394 Clouds 22 1017 88 10000 4.12 110 09:49 08.02.2022
5395 Clouds 22 1018 83 10000 2.57 100 08:53 08.02.2022
5396 Clouds 23 1019 78 10000 3.09 130 06:49 08.02.2022
5397 Clouds 21 1019 88 10000 1.54 120 04:40 08.02.2022
5398 Clouds 21 1019 88 10000 1.54 120 04:22 08.02.2022
5399 Clear 23 1019 78 10000 2.06 90 03:36 08.02.2022
5400 Clear 23 1019 78 10000 2.06 90 03:18 08.02.2022
5401 Clear 23 1018 73 10000 2.06 90 02:59 08.02.2022
5402 Clear 23 1018 73 10000 2.06 90 02:36 08.02.2022
5403 Clear 23 1018 73 10000 2.06 90 02:18 08.02.2022
5404 Clear 23 1018 73 10000 2.57 110 01:44 08.02.2022
5405 Clear 23 1018 73 10000 2.57 110 01:25 08.02.2022
5406 Clear 23 1018 73 10000 2.57 110 01:25 08.02.2022
5407 Clouds 24 1018 64 10000 3.09 100 00:55 08.02.2022
5408 Clouds 24 1018 64 10000 3.09 100 00:21 08.02.2022
5409 Clouds 25 1018 57 10000 4.63 140 23:44 07.02.2022
5410 Clouds 25 1018 57 10000 4.63 140 23:18 07.02.2022
5411 Clouds 25 1018 61 10000 4.63 140 22:59 07.02.2022
5412 Clouds 25 1018 61 10000 4.63 140 22:19 07.02.2022
5413 Clouds 26 1018 53 10000 4.12 160 21:50 07.02.2022
5414 Clouds 26 1018 53 10000 4.12 160 21:27 07.02.2022
5415 Clouds 27 1018 57 10000 4.12 100 20:43 07.02.2022
5416 Clouds 27 1018 57 10000 4.12 100 20:24 07.02.2022
5417 Clouds 27 1019 57 10000 4.12 90 19:47 07.02.2022
5418 Clouds 27 1020 54 10000 4.12 140 18:34 07.02.2022
5419 Clouds 25 1021 65 10000 1.54 80 16:53 07.02.2022
5420 Clouds 25 1021 65 10000 1.54 80 16:24 07.02.2022
5421 Clouds 24 1021 73 10000 2.57 100 15:48 07.02.2022
5422 Clear 18 1020 94 10000 1.03 0 13:39 07.02.2022
5423 Clear 18 1020 94 10000 1.03 0 13:21 07.02.2022
5424 Clear 18 1019 94 10000 1.03 0 11:58 07.02.2022
5425 Clear 18 1019 94 10000 1.03 0 11:38 07.02.2022
5426 Clear 19 1019 94 10000 1.03 60 10:53 07.02.2022
5427 Clear 23 1018 66 10000 5.46 112 10:33 07.02.2022
5428 Clear 23 1018 67 10000 5.93 114 09:53 07.02.2022
5429 Clear 23 1019 66 10000 5.35 110 09:18 07.02.2022
5430 Clear 23 1019 66 10000 5.35 110 08:44 07.02.2022
5431 Clouds 20 1020 94 10000 2.06 120 07:30 07.02.2022
5432 Clouds 21 1020 88 10000 3.6 140 06:34 07.02.2022
5433 Clouds 22 1021 83 10000 1.54 90 04:18 07.02.2022
5434 Clouds 23 1019 78 10000 2.57 110 00:54 07.02.2022
5435 Clouds 24 1019 69 10000 6.17 130 23:50 06.02.2022
5436 Clouds 24 1019 69 10000 6.17 130 23:50 06.02.2022
5437 Clouds 24 1019 69 10000 6.17 130 23:19 06.02.2022
5438 Clouds 24 1019 73 10000 5.66 130 22:34 06.02.2022
5439 Clouds 25 1019 69 10000 6.69 150 21:36 06.02.2022
5440 Clouds 26 1019 65 10000 5.14 150 20:58 06.02.2022
5441 Clouds 26 1019 65 10000 5.14 150 20:36 06.02.2022
5442 Clouds 27 1020 57 10000 6.17 160 19:45 06.02.2022
5443 Clouds 26 1021 61 10000 5.66 160 18:48 06.02.2022
5444 Clouds 26 1021 61 10000 5.14 150 17:58 06.02.2022
5445 Clouds 26 1021 61 10000 5.14 150 17:21 06.02.2022
5446 Clouds 23 1022 78 10000 5.14 130 16:48 06.02.2022
5447 Clouds 21 1021 94 10000 6.17 140 15:49 06.02.2022
5448 Clouds 21 1021 94 10000 6.17 140 15:27 06.02.2022
5449 Clouds 21 1020 94 10000 2.57 120 14:47 06.02.2022
5450 Clear 22 1020 88 10000 3.09 120 13:28 06.02.2022
5451 Clear 21 1019 88 10000 1.03 0 12:59 06.02.2022
5452 Clear 21 1019 88 10000 3.09 120 11:38 06.02.2022
5453 Clear 22 1019 88 10000 3.09 110 10:31 06.02.2022
5454 Clear 21 1019 88 10000 1.54 100 09:25 06.02.2022
5455 Clear 22 1019 83 10000 2.57 120 08:30 06.02.2022
5456 Clouds 22 1021 78 10000 2.06 100 05:33 06.02.2022
5457 Clouds 20 1020 77 10000 2.06 100 02:50 06.02.2022
5458 Clouds 20 1020 77 10000 2.06 100 02:24 06.02.2022
5459 Clear 23 1019 60 10000 2.57 70 00:29 06.02.2022
5460 Clear 25 1019 53 10000 3.6 50 22:31 05.02.2022
5461 Clear 26 1019 53 10000 4.63 50 21:32 05.02.2022
5462 Clouds 25 1020 53 10000 4.63 60 20:24 05.02.2022
5463 Clouds 25 1020 53 10000 4.12 20 19:46 05.02.2022
5464 Clouds 25 1021 53 10000 4.12 40 18:58 05.02.2022
5465 Clear 25 1022 50 10000 3.6 30 17:39 05.02.2022
5466 Clear 25 1022 50 10000 3.6 30 17:39 05.02.2022
5467 Clouds 25 1022 53 10000 3.09 20 16:58 05.02.2022
5468 Clouds 24 1022 57 10000 2.06 80 15:34 05.02.2022
5469 Clouds 19 1022 94 10000 0.51 0 14:55 05.02.2022
5470 Clouds 16 1021 94 10000 0.51 0 12:47 05.02.2022
5471 Clouds 16 1021 94 10000 0.51 0 12:22 05.02.2022
5472 Clouds 17 1021 88 10000 0 0 10:48 05.02.2022
5473 Clouds 17 1021 88 10000 0.51 0 09:53 05.02.2022
5474 Clouds 17 1021 88 10000 0.51 0 09:30 05.02.2022
5475 Clouds 20 1021 83 10000 2.06 90 07:38 05.02.2022
5476 Clouds 20 1021 83 10000 2.06 80 06:56 05.02.2022
5477 Clouds 21 1023 83 10000 1.54 90 04:29 05.02.2022
5478 Clear 23 1022 73 10000 2.06 100 01:19 05.02.2022
5479 Clouds 24 1022 62 10000 5.66 95 00:52 05.02.2022
5480 Clouds 25 1021 57 10000 4.12 130 23:39 04.02.2022
5481 Clouds 25 1021 57 10000 4.12 130 23:21 04.02.2022
5482 Clouds 25 1021 61 10000 4.63 140 21:54 04.02.2022
5483 Clouds 25 1021 61 10000 4.63 140 21:36 04.02.2022
5484 Clouds 25 1021 61 10000 4.63 140 21:18 04.02.2022
5485 Clouds 27 1022 57 10000 6.69 160 19:36 04.02.2022
5486 Clouds 24 1023 61 10000 6.4 112 17:28 04.02.2022
5487 Clear 24 1023 69 10000 3.09 110 15:39 04.02.2022
5488 Clouds 21 1023 88 10000 1.54 100 14:52 04.02.2022
5489 Clouds 18 1022 100 10000 1.03 80 12:43 04.02.2022
5490 Clouds 19 1021 88 10000 1.03 0 11:47 04.02.2022
5491 Clouds 19 1021 88 10000 1.03 0 11:22 04.02.2022
5492 Clouds 19 1021 88 10000 1.54 110 10:32 04.02.2022
5493 Clouds 19 1022 94 10000 3.6 120 08:34 04.02.2022
5494 Clouds 20 1023 83 10000 3.09 120 05:19 04.02.2022
5495 Clouds 23 1022 73 10000 5.66 120 02:40 04.02.2022
5496 Clouds 24 1021 73 10000 6.17 120 00:31 04.02.2022
5497 Clouds 25 1021 65 10000 6.17 120 23:21 03.02.2022
5498 Clouds 26 1021 61 10000 6.69 120 22:26 03.02.2022
5499 Clouds 26 1020 57 10000 6.17 120 21:47 03.02.2022
5500 Clouds 26 1021 57 10000 6.69 120 20:26 03.02.2022
5501 Clouds 23 1020 69 10000 9.32 100 19:57 03.02.2022
5502 Clouds 24 1021 68 10000 9.09 98 19:23 03.02.2022
5503 Clouds 26 1022 61 10000 7.72 120 18:24 03.02.2022
5504 Clouds 26 1023 65 10000 7.72 120 17:26 03.02.2022
5505 Clouds 24 1022 69 10000 5.66 110 15:38 03.02.2022
5506 Clear 22 1022 78 10000 3.09 100 14:18 03.02.2022
5507 Clear 18 1021 94 10000 3.09 100 12:32 03.02.2022
5508 Clear 19 1020 88 10000 2.06 90 08:56 03.02.2022
5509 Clear 19 1021 82 10000 2.06 90 07:43 03.02.2022
5510 Clouds 23 1020 64 10000 5.66 100 00:49 03.02.2022
5511 Clouds 23 1020 64 10000 5.66 100 00:22 03.02.2022
5512 Clouds 24 1020 60 10000 7.2 110 22:39 02.02.2022
5513 Clouds 24 1020 60 10000 8.23 110 21:51 02.02.2022
5514 Clouds 24 1020 60 10000 8.23 110 21:29 02.02.2022
5515 Clouds 25 1020 57 10000 7.72 100 20:27 02.02.2022
5516 Clouds 25 1021 57 10000 7.2 100 19:46 02.02.2022
5517 Clouds 25 1022 53 10000 6.69 110 18:56 02.02.2022
5518 Clouds 25 1022 53 10000 6.69 110 18:24 02.02.2022
5519 Clouds 24 1022 53 10000 7.2 100 17:20 02.02.2022
5520 Clouds 24 1022 53 10000 6.69 110 16:56 02.02.2022
5521 Clouds 23 1021 56 10000 7.2 100 15:23 02.02.2022
5522 Clear 19 1020 72 10000 4.12 110 12:30 02.02.2022
5523 Clouds 19 1020 72 10000 3.6 100 11:48 02.02.2022
5524 Clouds 19 1020 72 10000 3.6 100 11:30 02.02.2022
5525 Clouds 19 1020 72 10000 3.6 100 11:30 02.02.2022
5526 Clouds 22 1020 64 10000 8.99 81 08:30 02.02.2022
5527 Clouds 19 1021 68 10000 4.12 110 01:46 02.02.2022
5528 Clear 22 1020 53 10000 6.17 90 22:33 01.02.2022
5529 Clear 22 1021 49 10000 6.69 90 20:51 01.02.2022
5530 Clear 22 1021 49 10000 6.17 90 19:23 01.02.2022
5531 Clear 22 1023 46 10000 6.69 100 16:57 01.02.2022
5532 Clear 22 1023 46 10000 6.69 100 16:19 01.02.2022
5533 Clear 19 1021 59 10000 3.09 90 12:57 01.02.2022
5534 Clear 19 1021 55 10000 3.09 100 11:57 01.02.2022
5535 Clear 19 1021 55 10000 2.57 120 08:51 01.02.2022
5536 Clouds 17 1022 72 10000 2.06 100 02:20 01.02.2022
5537 Clear 20 1020 52 10000 4.12 70 23:37 31.01.2022
5538 Clear 21 1020 46 10000 5.14 80 22:33 31.01.2022
5539 Clouds 21 1020 46 10000 5.14 60 21:34 31.01.2022
5540 Clouds 21 1021 46 10000 4.63 60 20:34 31.01.2022
5541 Clouds 21 1022 46 10000 6.17 70 19:52 31.01.2022
5542 Clouds 21 1023 49 10000 6.17 50 18:31 31.01.2022
5543 Clouds 20 1023 52 10000 5.14 50 17:55 31.01.2022
5544 Clouds 20 1024 52 10000 4.12 30 16:58 31.01.2022
5545 Clouds 20 1024 52 10000 4.12 30 16:20 31.01.2022
5546 Clouds 19 1023 52 10000 3.09 30 14:49 31.01.2022
5547 Clouds 18 1022 55 10000 2.57 40 12:57 31.01.2022
5548 Clouds 18 1022 55 10000 2.57 40 12:36 31.01.2022
5549 Clouds 17 1021 63 10000 3.6 40 10:58 31.01.2022
5550 Clouds 17 1021 63 10000 3.6 40 10:37 31.01.2022
5551 Clouds 14 1021 77 10000 2.57 50 09:34 31.01.2022
5552 Clouds 14 1022 77 10000 3.09 30 08:53 31.01.2022
5553 Clouds 14 1022 77 10000 3.09 30 08:20 31.01.2022
5554 Clouds 15 1023 63 10000 1.03 0 06:53 31.01.2022
5555 Clouds 17 1023 55 10000 2.06 70 05:24 31.01.2022
5556 Clouds 18 1021 52 10000 3.09 20 23:30 30.01.2022
5557 Clouds 19 1021 48 10000 3.6 10 22:30 30.01.2022
5558 Clouds 18 1021 55 10000 6.17 350 21:44 30.01.2022
5559 Clouds 18 1021 55 10000 6.17 350 21:44 30.01.2022
5560 Clouds 18 1021 55 10000 6.17 350 21:21 30.01.2022
5561 Clouds 19 1021 48 10000 3.6 20 20:50 30.01.2022
5562 Clouds 19 1021 48 10000 3.6 20 20:30 30.01.2022
5563 Clouds 19 1022 48 10000 5.14 10 19:54 30.01.2022
5564 Clouds 18 1023 55 10000 5.66 350 18:45 30.01.2022
5565 Clouds 18 1023 55 10000 5.66 350 18:21 30.01.2022
5566 Clouds 18 1024 55 10000 5.66 340 17:29 30.01.2022
5567 Clouds 18 1023 52 10000 4.63 340 16:41 30.01.2022
5568 Clouds 18 1023 52 10000 4.63 340 16:22 30.01.2022
5569 Clouds 17 1023 51 10000 5.14 360 15:53 30.01.2022
5570 Clouds 17 1023 51 10000 5.14 360 15:32 30.01.2022
5571 Clouds 16 1022 55 10000 5.66 350 14:47 30.01.2022
5572 Clouds 15 1021 58 10000 5.14 350 13:36 30.01.2022
5573 Clouds 15 1021 58 10000 5.14 330 12:40 30.01.2022
5574 Clouds 15 1020 55 10000 6.17 360 10:38 30.01.2022
5575 Clouds 15 1020 55 10000 6.17 360 09:56 30.01.2022
5576 Clouds 15 1020 55 10000 6.17 360 09:21 30.01.2022
5577 Clouds 15 1020 58 10000 6.17 350 07:56 30.01.2022
5578 Clouds 15 1019 55 10000 7.72 330 02:42 30.01.2022
5579 Clouds 15 1019 58 10000 7.72 340 01:50 30.01.2022
5580 Clouds 15 1018 58 10000 7.72 340 23:30 29.01.2022
5581 Clouds 16 1017 55 10000 9.26 330 22:34 29.01.2022
5582 Clouds 16 1017 59 10000 9.77 340 21:27 29.01.2022
5583 Clouds 17 1017 51 10000 10.29 330 20:38 29.01.2022
5584 Clouds 16 1018 55 10000 10.8 330 19:36 29.01.2022
5585 Clouds 17 1017 63 10000 13.38 317 19:00 29.01.2022
5586 Clouds 17 1018 59 10000 11.32 330 18:32 29.01.2022
5587 Clouds 18 1018 59 10000 11.32 340 17:41 29.01.2022
5588 Clouds 18 1017 63 10000 12.86 330 16:42 29.01.2022
5589 Clouds 21 1015 64 10000 8.23 320 14:33 29.01.2022
5590 Clouds 21 1014 64 10000 9.77 310 13:45 29.01.2022
5591 Clouds 21 1014 64 10000 9.77 310 13:25 29.01.2022
5592 Clouds 21 1014 64 10000 9.77 310 13:25 29.01.2022
5593 Clouds 21 1014 78 10000 8.75 310 12:36 29.01.2022
5594 Clouds 21 1013 68 10000 7.72 300 11:38 29.01.2022
5595 Clouds 22 1013 68 10000 8.75 310 10:21 29.01.2022
5596 Clouds 22 1014 73 10000 5.66 310 06:57 29.01.2022
5597 Clouds 24 1013 78 10000 6.17 280 00:50 29.01.2022
5598 Clouds 24 1013 78 10000 6.17 280 00:31 29.01.2022
5599 Clouds 25 1012 78 10000 6.17 280 22:52 28.01.2022
5600 Clouds 25 1012 78 10000 6.17 280 22:27 28.01.2022
5601 Clouds 25 1013 83 10000 4.63 290 21:52 28.01.2022
5602 Rain 24 1013 83 9000 5.14 220 20:30 28.01.2022
5603 Clouds 26 1014 73 10000 4.12 230 19:42 28.01.2022
5604 Clouds 25 1015 73 10000 4.63 240 18:47 28.01.2022
5605 Clouds 25 1016 73 10000 4.12 240 17:42 28.01.2022
5606 Clouds 23 1016 94 10000 2.06 240 15:21 28.01.2022
5607 Clouds 19 1016 100 10000 1.03 0 13:57 28.01.2022
5608 Clear 20 1015 94 10000 0 0 12:31 28.01.2022
5609 Clear 20 1015 94 10000 1.54 230 11:36 28.01.2022
5610 Clouds 20 1015 94 10000 1.03 0 09:53 28.01.2022
5611 Clouds 24 1015 77 10000 3.05 289 08:26 28.01.2022
5612 Clouds 21 1017 100 10000 1.03 0 07:34 28.01.2022
5613 Clear 22 1017 94 10000 1.03 0 05:23 28.01.2022
5614 Clouds 22 1017 94 10000 1.03 280 03:45 28.01.2022
5615 Clouds 22 1017 94 10000 1.54 240 02:22 28.01.2022
5616 Clouds 22 1017 94 10000 1.03 0 01:33 28.01.2022
5617 Rain 23 1016 94 10000 3.09 340 23:25 27.01.2022
5618 Clouds 26 1016 83 10000 2.33 258 21:49 27.01.2022
5619 Clouds 26 1016 83 10000 2.82 231 21:29 27.01.2022
5620 Clouds 28 1017 65 10000 4.12 320 20:26 27.01.2022
5621 Clouds 28 1018 69 10000 4.63 280 18:55 27.01.2022
5622 Clouds 27 1019 69 10000 3.6 260 17:56 27.01.2022
5623 Clear 24 1018 78 10000 2.06 230 14:42 27.01.2022
5624 Clear 22 1018 88 10000 3.09 220 13:35 27.01.2022
5625 Clear 22 1017 88 10000 2.06 230 12:39 27.01.2022
5626 Clear 22 1017 94 10000 2.06 240 10:23 27.01.2022
5627 Clear 23 1017 88 10000 3.87 206 08:52 27.01.2022
5628 Clear 23 1017 88 10000 3.87 206 08:30 27.01.2022
5629 Clear 23 1017 88 10000 3.87 206 08:30 27.01.2022
5630 Clouds 23 1018 88 10000 2.57 220 05:49 27.01.2022
5631 Clouds 24 1017 73 10000 1.54 230 01:46 27.01.2022
5632 Clear 26 1016 69 10000 4.63 200 22:44 26.01.2022
5633 Clear 27 1016 65 10000 5.14 200 21:55 26.01.2022
5634 Clear 27 1016 65 10000 5.14 200 21:31 26.01.2022
5635 Clouds 27 1016 61 10000 5.66 200 20:35 26.01.2022
5636 Clouds 26 1017 69 10000 6.17 200 19:55 26.01.2022
5637 Clouds 26 1017 69 10000 6.17 200 19:19 26.01.2022
5638 Clouds 26 1018 65 10000 5.66 200 18:26 26.01.2022
5639 Clouds 27 1018 65 10000 6.17 200 17:49 26.01.2022
5640 Clouds 27 1018 65 10000 6.17 200 17:19 26.01.2022
5641 Clouds 25 1019 69 10000 5.14 200 16:26 26.01.2022
5642 Clouds 24 1018 73 10000 4.12 200 15:45 26.01.2022
5643 Clouds 20 1017 88 10000 2.06 180 12:54 26.01.2022
5644 Clouds 20 1017 88 10000 2.57 160 11:34 26.01.2022
5645 Clouds 19 1016 94 10000 3.09 160 10:19 26.01.2022
5646 Clouds 18 1016 100 10000 3.09 150 09:42 26.01.2022
5647 Clouds 17 1017 94 10000 0.51 0 07:31 26.01.2022
5648 Clouds 22 1017 73 10000 3.21 119 00:44 26.01.2022
5649 Clouds 23 1017 68 10000 2.57 160 23:48 25.01.2022
5650 Clouds 23 1016 60 10000 2.57 180 22:50 25.01.2022
5651 Clouds 23 1016 60 10000 2.57 180 22:50 25.01.2022
5652 Clouds 23 1016 60 10000 2.57 180 22:21 25.01.2022
5653 Clear 24 1015 57 10000 4.12 160 21:37 25.01.2022
5654 Clouds 24 1016 53 10000 2.57 190 20:46 25.01.2022
5655 Clouds 23 1017 60 10000 3.6 110 19:59 25.01.2022
5656 Clouds 23 1017 60 10000 3.6 110 19:40 25.01.2022
5657 Clouds 23 1017 60 10000 2.57 60 18:20 25.01.2022
5658 Clouds 22 1018 64 10000 3.09 60 17:40 25.01.2022
5659 Clouds 21 1018 59 10000 0.99 134 16:35 25.01.2022
5660 Clouds 21 1018 68 10000 0 0 15:43 25.01.2022
5661 Clouds 21 1018 68 10000 0 0 15:25 25.01.2022
5662 Clouds 17 1017 88 10000 0 0 14:56 25.01.2022
5663 Clouds 14 1016 88 10000 0 0 12:32 25.01.2022
5664 Clear 14 1015 88 10000 0 0 09:58 25.01.2022
5665 Clear 21 1015 58 10000 1.15 277 08:29 25.01.2022
5666 Clouds 14 1016 88 10000 0 0 07:28 25.01.2022
5667 Clouds 15 1017 82 10000 1.54 280 05:55 25.01.2022
5668 Clouds 20 1015 60 10000 3.6 330 00:58 25.01.2022
5669 Clouds 22 1015 56 10000 3.6 330 23:36 24.01.2022
5670 Clouds 22 1015 56 10000 3.6 330 23:18 24.01.2022
5671 Clouds 22 1014 56 10000 5.14 350 22:53 24.01.2022
5672 Clouds 22 1014 56 10000 5.14 350 22:35 24.01.2022
5673 Clouds 22 1014 56 10000 6.17 330 21:42 24.01.2022
5674 Clouds 22 1014 56 10000 6.17 330 21:24 24.01.2022
5675 Clouds 22 1014 68 10000 7.2 310 20:28 24.01.2022
5676 Clouds 21 1015 73 10000 6.17 320 19:38 24.01.2022
5677 Clouds 20 1015 73 10000 5.66 320 18:50 24.01.2022
5678 Clouds 20 1016 73 10000 4.63 310 17:42 24.01.2022
5679 Clouds 20 1016 73 10000 4.63 310 17:22 24.01.2022
5680 Clouds 19 1016 77 10000 4.12 290 16:31 24.01.2022
5681 Clouds 19 1016 72 10000 5.14 300 15:35 24.01.2022
5682 Clouds 17 1014 72 10000 4.63 300 13:59 24.01.2022
5683 Clouds 18 1014 72 10000 6.17 300 12:34 24.01.2022
5684 Clouds 19 1013 72 10000 5.66 310 11:41 24.01.2022
5685 Clouds 21 1012 71 10000 8.13 290 10:19 24.01.2022
5686 Clouds 21 1012 71 10000 8.13 290 09:44 24.01.2022
5687 Clouds 21 1014 83 10000 6.17 310 07:45 24.01.2022
5688 Clouds 22 1014 83 10000 1.03 340 01:39 24.01.2022
5689 Clouds 23 1014 78 10000 2.57 360 00:55 24.01.2022
5690 Clouds 23 1014 78 10000 2.57 360 00:30 24.01.2022
5691 Clouds 24 1014 73 10000 2.57 10 23:39 23.01.2022
5692 Clouds 24 1014 73 10000 4.12 340 21:53 23.01.2022
5693 Clouds 24 1014 73 10000 4.12 340 21:29 23.01.2022
5694 Clouds 25 1015 69 10000 4.12 360 20:57 23.01.2022
5695 Clouds 25 1015 69 10000 4.12 360 20:21 23.01.2022
5696 Clouds 24 1016 73 10000 4.63 360 18:53 23.01.2022
5697 Clouds 24 1016 73 10000 4.63 360 18:22 23.01.2022
5698 Clouds 24 1017 78 10000 5.14 340 16:55 23.01.2022
5699 Clouds 24 1017 78 10000 4.12 320 15:46 23.01.2022
5700 Clouds 23 1017 83 10000 3.09 340 14:48 23.01.2022
5701 Clouds 23 1017 83 10000 3.09 340 14:18 23.01.2022
5702 Clouds 22 1016 88 10000 2.57 310 12:44 23.01.2022
5703 Clouds 22 1016 88 10000 2.57 310 12:19 23.01.2022
5704 Clouds 23 1015 83 10000 2.57 350 11:25 23.01.2022
5705 Clouds 24 1014 77 10000 4.3 340 10:57 23.01.2022
5706 Rain 24 1015 78 10000 4.02 343 10:24 23.01.2022
5707 Clouds 24 1015 79 10000 3.94 329 09:26 23.01.2022
5708 Clouds 23 1017 88 10000 2.06 360 06:18 23.01.2022
5709 Clouds 23 1018 88 10000 2.57 350 03:20 23.01.2022
5710 Clouds 23 1017 88 10000 2.06 340 01:36 23.01.2022
5711 Clouds 24 1017 83 10000 2.57 350 00:46 23.01.2022
5712 Clouds 26 1017 78 10000 3.09 340 23:58 22.01.2022
5713 Thunderstorm 26 1017 73 10000 2.57 330 22:48 22.01.2022
5714 Clouds 26 1017 73 10000 3.09 350 22:19 22.01.2022
5715 Clouds 28 1017 65 10000 3.6 300 20:29 22.01.2022
5716 Clouds 28 1018 65 10000 4.12 300 19:37 22.01.2022
5717 Clouds 27 1019 69 10000 3.6 230 18:37 22.01.2022
5718 Clouds 26 1020 78 10000 2.57 210 17:42 22.01.2022
5719 Clouds 26 1020 78 10000 2.57 210 17:42 22.01.2022
5720 Clouds 26 1020 78 10000 2.57 210 17:18 22.01.2022
5721 Clouds 25 1020 83 10000 2.06 260 16:22 22.01.2022
5722 Clouds 24 1019 88 10000 1.03 0 15:44 22.01.2022
5723 Clouds 22 1019 94 10000 2.06 190 14:22 22.01.2022
5724 Clouds 22 1019 94 10000 2.06 210 13:27 22.01.2022
5725 Clouds 22 1018 100 10000 1.03 0 12:32 22.01.2022
5726 Clear 21 1018 100 10000 1.03 0 11:58 22.01.2022
5727 Clear 22 1018 100 10000 0.51 0 10:39 22.01.2022
5728 Clear 22 1018 100 10000 0.51 0 10:19 22.01.2022
5729 Clear 21 1018 100 10000 1.54 190 08:54 22.01.2022
5730 Clear 21 1018 100 10000 1.54 190 08:31 22.01.2022
5731 Clear 22 1019 100 10000 2.06 150 05:20 22.01.2022
5732 Clouds 22 1018 100 10000 2.06 150 02:27 22.01.2022
5733 Clouds 25 1017 83 10000 5.14 170 23:49 21.01.2022
5734 Clouds 26 1017 78 10000 6.17 170 22:58 21.01.2022
5735 Clouds 28 1018 69 10000 5.14 190 20:48 21.01.2022
5736 Clouds 28 1019 74 10000 5.66 190 19:20 21.01.2022
5737 Clouds 27 1020 74 10000 5.14 180 17:48 21.01.2022
5738 Clouds 25 1020 88 10000 4.63 170 15:48 21.01.2022
5739 Clouds 24 1020 94 10000 2.57 160 14:37 21.01.2022
5740 Clouds 21 1018 100 10000 2.57 150 12:42 21.01.2022
5741 Clouds 21 1018 100 10000 2.06 140 11:29 21.01.2022
5742 Clouds 21 1018 100 10000 2.57 150 10:27 21.01.2022
5743 Clear 23 1018 94 10000 2.57 120 08:50 21.01.2022
5744 Clear 23 1019 94 10000 2.57 130 07:37 21.01.2022
5745 Clear 24 1019 83 10000 3.09 110 01:48 21.01.2022
5746 Clear 27 1018 69 10000 5.66 140 22:46 20.01.2022
5747 Clear 28 1018 65 10000 5.66 140 21:48 20.01.2022
5748 Clear 27 1019 65 10000 4.63 120 20:57 20.01.2022
5749 Clear 27 1020 61 10000 5.14 130 19:40 20.01.2022
5750 Clear 27 1020 61 10000 5.14 130 19:18 20.01.2022
5751 Clear 26 1022 65 10000 4.12 120 17:32 20.01.2022
5752 Clouds 24 1021 73 10000 3.09 120 15:46 20.01.2022
5753 Clouds 24 1021 73 10000 3.09 120 15:25 20.01.2022
5754 Clouds 20 1021 94 10000 2.06 100 13:53 20.01.2022
5755 Clouds 20 1021 94 10000 2.06 100 13:53 20.01.2022
5756 Clouds 18 1020 94 10000 1.03 0 12:43 20.01.2022
5757 Clouds 18 1020 94 10000 1.03 0 12:21 20.01.2022
5758 Clouds 20 1020 88 10000 1.54 100 10:55 20.01.2022
5759 Clouds 24 1019 72 10000 4.7 106 09:43 20.01.2022
5760 Clouds 24 1019 71 10000 5.09 115 08:35 20.01.2022
5761 Clouds 24 1019 71 10000 5.09 115 08:35 20.01.2022
5762 Clouds 21 1022 78 10000 3.09 110 05:38 20.01.2022
5763 Clouds 23 1021 60 10000 4.63 110 23:42 19.01.2022
5764 Clouds 23 1021 60 10000 5.14 110 22:37 19.01.2022
5765 Clouds 24 1021 57 10000 5.66 120 21:24 19.01.2022
5766 Clear 24 1021 53 10000 6.17 110 20:51 19.01.2022
5767 Clear 24 1021 53 10000 6.17 110 20:22 19.01.2022
5768 Clear 24 1023 53 10000 5.14 120 18:48 19.01.2022
5769 Clear 24 1024 53 10000 4.63 100 17:50 19.01.2022
5770 Clear 23 1024 53 10000 4.63 90 16:59 19.01.2022
5771 Clear 18 1023 77 10000 0.51 0 14:42 19.01.2022
5772 Clear 14 1022 88 10000 1.54 0 12:53 19.01.2022
5773 Clear 15 1022 82 10000 1.03 0 11:42 19.01.2022
5774 Clear 15 1021 82 10000 1.03 0 10:37 19.01.2022
5775 Clear 14 1021 88 10000 2.06 140 09:34 19.01.2022
5776 Clear 14 1022 88 10000 0.51 0 07:18 19.01.2022
5777 Clear 16 1023 72 10000 0.51 0 05:18 19.01.2022
5778 Clouds 20 1020 60 10000 3.09 10 23:20 18.01.2022
5779 Clouds 21 1020 56 10000 2.57 360 22:44 18.01.2022
5780 Clouds 20 1020 56 10000 3.6 360 21:20 18.01.2022
5781 Clouds 21 1021 52 10000 4.63 360 19:55 18.01.2022
5782 Clouds 21 1021 52 10000 4.63 360 19:55 18.01.2022
5783 Clouds 21 1021 52 10000 4.63 360 19:37 18.01.2022
5784 Clouds 22 1021 49 10000 4.12 350 18:54 18.01.2022
5785 Clouds 21 1022 52 10000 5.14 340 17:58 18.01.2022
5786 Clouds 21 1022 49 10000 4.63 340 16:58 18.01.2022
5787 Clouds 21 1022 49 10000 4.12 340 15:48 18.01.2022
5788 Clouds 21 1022 49 10000 4.12 340 15:48 18.01.2022
5789 Clouds 21 1022 49 10000 4.12 340 15:47 18.01.2022
5790 Clouds 21 1022 49 10000 4.12 340 15:22 18.01.2022
5791 Clouds 19 1019 63 10000 5.14 340 12:49 18.01.2022
5792 Clouds 20 1018 64 10000 5.66 340 10:47 18.01.2022
5793 Clouds 22 1017 57 10000 7.29 315 09:21 18.01.2022
5794 Clouds 21 1018 56 10000 5.14 320 07:55 18.01.2022
5795 Clouds 20 1017 64 10000 5.66 310 02:35 18.01.2022
5796 Clouds 21 1015 64 10000 7.2 310 23:47 17.01.2022
5797 Clouds 22 1015 56 10000 9.26 310 22:27 17.01.2022
5798 Clouds 22 1015 56 10000 8.75 310 21:35 17.01.2022
5799 Clouds 24 1015 50 10000 8.75 310 20:24 17.01.2022
5800 Clouds 23 1016 56 10000 8.75 310 18:31 17.01.2022
5801 Clouds 22 1016 60 10000 8.23 310 17:44 17.01.2022
5802 Clouds 22 1016 64 10000 8.23 310 16:44 17.01.2022
5803 Clouds 22 1016 64 10000 6.17 310 15:22 17.01.2022
5804 Clouds 22 1015 64 10000 6.69 310 14:56 17.01.2022
5805 Clouds 21 1014 73 10000 7.72 320 13:26 17.01.2022
5806 Clear 22 1013 68 10000 6.17 300 12:55 17.01.2022
5807 Clear 22 1013 64 10000 7.72 310 11:49 17.01.2022
5808 Clear 22 1013 56 10000 7.72 300 10:21 17.01.2022
5809 Clear 22 1013 56 10000 7.72 300 10:21 17.01.2022
5810 Clouds 22 1013 60 10000 7.2 300 09:34 17.01.2022
5811 Clouds 22 1014 73 10000 6.69 310 07:24 17.01.2022
5812 Thunderstorm 19 1014 94 6000 5.66 260 02:59 17.01.2022
5813 Rain 25 1012 73 10000 7.72 200 00:55 17.01.2022
5814 Clouds 25 1012 73 10000 8.23 200 22:22 16.01.2022
5815 Clouds 26 1013 65 10000 8.75 200 20:36 16.01.2022
5816 Clouds 25 1015 65 10000 8.75 190 18:51 16.01.2022
5817 Clouds 25 1016 69 10000 7.2 160 17:59 16.01.2022
5818 Clouds 24 1016 69 10000 7.72 150 16:59 16.01.2022
5819 Clouds 24 1016 69 10000 7.72 150 16:31 16.01.2022
5820 Clouds 19 1016 77 10000 3.6 160 14:31 16.01.2022
5821 Clouds 17 1016 82 10000 3.09 160 13:45 16.01.2022
5822 Clear 17 1016 82 10000 3.09 160 12:44 16.01.2022
5823 Clear 22 1015 63 10000 8.01 156 11:40 16.01.2022
5824 Clear 14 1016 94 10000 0.51 120 10:46 16.01.2022
5825 Clear 14 1017 88 10000 1.54 130 09:59 16.01.2022
5826 Clear 14 1017 88 10000 1.54 130 09:40 16.01.2022
5827 Clear 14 1017 88 10000 1.54 130 09:21 16.01.2022
5828 Clear 13 1017 94 10000 0.51 0 07:23 16.01.2022
5829 Clear 19 1019 63 10000 3.09 150 00:36 16.01.2022
5830 Clear 21 1018 52 10000 4.12 140 23:22 15.01.2022
5831 Clear 21 1017 49 10000 1.16 128 21:23 15.01.2022
5832 Clouds 22 1018 46 10000 2.06 110 20:48 15.01.2022
5833 Clouds 22 1018 46 10000 2.06 110 20:29 15.01.2022
5834 Clouds 22 1019 46 10000 2.57 30 19:27 15.01.2022
5835 Clear 22 1020 46 10000 2.57 30 18:23 15.01.2022
5836 Clear 22 1021 46 10000 1.03 0 16:49 15.01.2022
5837 Clear 22 1021 46 10000 1.03 0 16:49 15.01.2022
5838 Clouds 16 1019 72 10000 1.03 0 14:48 15.01.2022
5839 Clear 12 1018 82 10000 0.51 0 12:52 15.01.2022
5840 Clear 13 1017 76 10000 1.03 0 11:32 15.01.2022
5841 Clear 20 1016 52 10000 3.62 352 09:46 15.01.2022
5842 Clear 20 1017 52 10000 5.14 350 04:46 15.01.2022
5843 Clear 21 1015 52 10000 7.91 315 23:32 14.01.2022
5844 Clouds 22 1014 46 10000 7.2 330 21:18 14.01.2022
5845 Clouds 22 1014 49 10000 7.72 320 20:25 14.01.2022
5846 Clouds 22 1015 49 10000 8.23 320 19:50 14.01.2022
5847 Clouds 22 1015 46 10000 8.75 320 18:41 14.01.2022
5848 Clouds 22 1016 53 10000 9.26 320 17:39 14.01.2022
5849 Clouds 21 1016 52 10000 8.23 320 16:43 14.01.2022
5850 Clouds 20 1015 56 10000 9.26 320 15:32 14.01.2022
5851 Clouds 20 1014 56 10000 9.26 320 14:26 14.01.2022
5852 Clouds 20 1013 64 10000 10.29 320 12:58 14.01.2022
5853 Clouds 20 1012 68 10000 8.75 310 11:52 14.01.2022
5854 Clouds 21 1011 68 10000 7.72 300 10:30 14.01.2022
5855 Clouds 21 1011 73 10000 4.12 270 08:53 14.01.2022
5856 Clouds 20 1012 73 10000 2.57 260 07:30 14.01.2022
5857 Clouds 21 1013 64 10000 3.6 330 02:27 14.01.2022
5858 Clouds 21 1012 64 10000 4.12 340 00:21 14.01.2022
5859 Clouds 24 1012 60 10000 4.63 360 21:47 13.01.2022
5860 Clouds 24 1012 60 10000 4.63 360 21:29 13.01.2022
5861 Clouds 23 1013 68 10000 5.14 30 19:45 13.01.2022
5862 Clouds 23 1013 68 10000 5.14 30 19:23 13.01.2022
5863 Clouds 23 1014 68 10000 5.14 20 18:36 13.01.2022
5864 Rain 21 1015 88 10000 6.17 20 16:52 13.01.2022
5865 Rain 22 1015 83 10000 4.63 30 15:38 13.01.2022
5866 Rain 22 1015 83 10000 4.63 30 15:18 13.01.2022
5867 Clouds 20 1014 94 10000 1.03 0 13:28 13.01.2022
5868 Clouds 20 1015 94 10000 1.54 60 10:39 13.01.2022
5869 Clouds 22 1015 75 10000 3.79 106 09:23 13.01.2022
5870 Clouds 23 1015 75 10000 4.22 103 08:28 13.01.2022
5871 Clouds 20 1017 88 10000 2.06 80 07:58 13.01.2022
5872 Clouds 20 1017 88 10000 2.06 80 07:18 13.01.2022
5873 Clouds 21 1018 88 10000 1.54 70 05:20 13.01.2022
5874 Clouds 21 1018 83 10000 3.09 110 03:33 13.01.2022
5875 Clouds 22 1018 73 10000 4.63 80 00:57 13.01.2022
5876 Clouds 22 1018 78 10000 4.12 70 23:53 12.01.2022
5877 Clouds 22 1018 78 10000 4.12 70 23:32 12.01.2022
5878 Rain 21 1018 83 10000 6.69 60 21:58 12.01.2022
5879 Clouds 21 1018 83 10000 6.69 60 21:23 12.01.2022
5880 Clouds 21 1018 83 10000 6.17 90 20:57 12.01.2022
5881 Clouds 21 1018 83 10000 6.17 90 20:19 12.01.2022
5882 Clouds 21 1020 88 10000 7.72 70 18:48 12.01.2022
5883 Clouds 23 1021 73 10000 7.2 90 17:51 12.01.2022
5884 Clouds 23 1021 73 10000 7.72 80 16:39 12.01.2022
5885 Clouds 22 1021 68 10000 8.23 80 14:49 12.01.2022
5886 Clouds 22 1020 68 10000 7.72 90 13:34 12.01.2022
5887 Clouds 22 1020 73 10000 7.2 80 12:35 12.01.2022
5888 Rain 21 1020 83 10000 9.77 70 08:50 12.01.2022
5889 Clouds 22 1020 78 7472 10 66 07:52 12.01.2022
5890 Clouds 22 1020 78 7472 10 66 07:32 12.01.2022
5891 Clouds 22 1021 83 10000 6.69 70 01:26 12.01.2022
5892 Clouds 22 1021 83 10000 4.63 110 23:25 11.01.2022
5893 Rain 22 1020 88 10000 4.63 70 22:24 11.01.2022
5894 Rain 25 1020 69 10000 5.66 60 21:28 11.01.2022
5895 Clouds 25 1020 69 10000 7.2 80 20:35 11.01.2022
5896 Clouds 25 1022 73 10000 7.2 50 18:52 11.01.2022
5897 Clouds 25 1022 78 10000 6.17 50 17:46 11.01.2022
5898 Clouds 25 1023 73 10000 5.66 30 16:39 11.01.2022
5899 Rain 24 1022 78 10000 4.12 40 15:59 11.01.2022
5900 Clouds 24 1022 78 10000 3.6 50 14:44 11.01.2022
5901 Clouds 24 1022 78 10000 3.6 50 14:18 11.01.2022
5902 Clouds 24 1021 73 10000 3.6 50 13:42 11.01.2022
5903 Clouds 24 1021 73 10000 3.6 50 13:24 11.01.2022
5904 Clouds 24 1020 73 10000 3.6 50 12:23 11.01.2022
5905 Clouds 23 1019 78 10000 3.09 30 10:25 11.01.2022
5906 Clouds 23 1020 78 10000 2.57 20 07:35 11.01.2022
5907 Clouds 24 1021 78 10000 2.06 60 01:47 11.01.2022
5908 Clouds 24 1020 78 10000 2.57 50 00:22 11.01.2022
5909 Clouds 25 1020 73 10000 2.06 60 23:37 10.01.2022
5910 Clouds 25 1019 73 10000 4.12 150 22:19 10.01.2022
5911 Clouds 26 1019 69 10000 2.57 120 21:55 10.01.2022
5912 Clouds 26 1019 69 10000 2.57 120 21:32 10.01.2022
5913 Clouds 25 1020 73 10000 3.6 90 20:58 10.01.2022
5914 Clouds 25 1020 73 10000 3.6 90 20:58 10.01.2022
5915 Clouds 25 1020 73 10000 3.6 90 20:29 10.01.2022
5916 Clouds 25 1021 78 10000 4.12 80 19:45 10.01.2022
5917 Clouds 25 1021 78 10000 4.12 80 19:21 10.01.2022
5918 Clouds 27 1022 69 10000 4.12 100 18:50 10.01.2022
5919 Clouds 27 1022 69 10000 4.12 100 18:31 10.01.2022
5920 Clouds 25 1024 78 10000 4.63 70 16:42 10.01.2022
5921 Clouds 24 1023 83 10000 4.12 100 15:49 10.01.2022
5922 Clouds 23 1022 88 10000 2.57 70 14:34 10.01.2022
5923 Clouds 21 1021 94 10000 2.57 130 12:22 10.01.2022
5924 Clouds 22 1021 88 10000 1.54 110 11:25 10.01.2022
5925 Clouds 22 1022 94 10000 2.57 100 09:53 10.01.2022
5926 Clouds 22 1023 88 10000 2.06 90 08:22 10.01.2022
5927 Clouds 23 1024 83 10000 4.12 100 05:50 10.01.2022
5928 Clouds 24 1024 78 10000 4.12 110 01:33 10.01.2022
5929 Clouds 25 1024 73 10000 3.6 100 00:29 10.01.2022
5930 Clouds 24 1023 76 10000 9.41 88 23:43 09.01.2022
5931 Clouds 24 1023 76 10000 9.83 85 22:42 09.01.2022
5932 Clouds 25 1024 69 10000 6.69 100 21:47 09.01.2022
5933 Clouds 25 1024 69 10000 6.69 100 21:24 09.01.2022
5934 Clouds 25 1024 69 10000 6.69 100 21:24 09.01.2022
5935 Clouds 25 1024 69 10000 7.72 90 20:53 09.01.2022
5936 Clouds 25 1024 69 10000 7.72 90 20:34 09.01.2022
5937 Clouds 26 1025 65 10000 8.75 100 19:45 09.01.2022
5938 Clouds 26 1025 65 10000 8.75 100 19:23 09.01.2022
5939 Clouds 26 1026 65 10000 8.23 110 18:56 09.01.2022
5940 Clouds 26 1026 65 10000 8.23 110 18:35 09.01.2022
5941 Clouds 25 1027 73 10000 7.2 100 17:45 09.01.2022
5942 Clouds 25 1027 73 10000 7.2 100 17:21 09.01.2022
5943 Clouds 24 1027 73 10000 6.69 100 15:59 09.01.2022
5944 Clouds 24 1027 73 10000 6.69 100 15:36 09.01.2022
5945 Clouds 24 1026 73 10000 6.17 100 14:41 09.01.2022
5946 Clouds 24 1026 75 10000 11.8 78 13:51 09.01.2022
5947 Clouds 24 1025 74 10000 11.68 80 13:25 09.01.2022
5948 Clouds 24 1025 78 10000 7.72 90 11:55 09.01.2022
5949 Clouds 23 1025 83 10000 7.2 90 10:53 09.01.2022
5950 Clouds 24 1026 78 10000 7.2 90 09:50 09.01.2022
5951 Clouds 24 1026 78 10000 6.17 90 08:54 09.01.2022
5952 Clouds 24 1027 83 10000 5.66 100 05:54 09.01.2022
5953 Clouds 24 1026 83 10000 5.66 90 01:25 09.01.2022
5954 Clouds 24 1025 83 10000 5.66 90 00:37 09.01.2022
5955 Clouds 25 1025 78 10000 5.66 100 23:27 08.01.2022
5956 Clouds 26 1025 73 10000 6.17 80 22:30 08.01.2022
5957 Clouds 26 1024 73 10000 6.69 80 21:26 08.01.2022
5958 Clouds 27 1025 65 10000 6.17 90 20:42 08.01.2022
5959 Clouds 27 1025 65 10000 6.17 90 20:21 08.01.2022
5960 Clouds 26 1025 73 10000 6.17 90 18:45 08.01.2022
5961 Clouds 26 1026 73 10000 6.17 90 17:23 08.01.2022
5962 Clouds 26 1025 69 10000 5.14 110 15:58 08.01.2022
5963 Clouds 25 1025 83 10000 3.09 110 14:46 08.01.2022
5964 Clouds 22 1024 94 10000 2.57 110 13:29 08.01.2022
5965 Clouds 22 1023 94 10000 2.06 100 11:28 08.01.2022
5966 Clouds 22 1022 94 10000 2.57 100 10:30 08.01.2022
5967 Clear 24 1021 77 10000 6.4 67 09:48 08.01.2022
5968 Clear 25 1022 76 10000 5.95 64 09:28 08.01.2022
5969 Clouds 24 1022 83 10000 2.06 50 03:45 08.01.2022
5970 Clouds 24 1020 88 10000 1.54 40 00:57 08.01.2022
5971 Clouds 25 1020 73 10000 1.03 0 22:54 07.01.2022
5972 Clouds 26 1019 69 10000 3.6 90 21:21 07.01.2022
5973 Clouds 29 1019 61 10000 3.09 310 20:20 07.01.2022
5974 Clouds 28 1020 65 10000 3.09 220 19:25 07.01.2022
5975 Clouds 28 1020 65 10000 3.6 210 18:45 07.01.2022
5976 Clouds 27 1021 69 10000 4.12 190 17:28 07.01.2022
5977 Clouds 27 1021 78 10000 3.6 200 16:41 07.01.2022
5978 Clouds 22 1020 94 9000 1.54 170 14:29 07.01.2022
5979 Clouds 18 1019 100 10000 2.06 340 13:41 07.01.2022
5980 Clear 18 1019 100 10000 0 0 12:49 07.01.2022
5981 Clear 18 1019 100 10000 0 0 12:49 07.01.2022
5982 Clouds 19 1018 100 10000 1.03 0 09:42 07.01.2022
5983 Clouds 23 1018 88 10000 1.03 0 02:56 07.01.2022
5984 Clouds 24 1017 83 10000 1.03 40 01:55 07.01.2022
5985 Clouds 24 1017 83 10000 1.03 40 01:28 07.01.2022
5986 Clouds 24 1017 83 10000 1.03 40 01:28 07.01.2022
5987 Clouds 24 1017 83 10000 2.06 30 00:59 07.01.2022
5988 Clouds 24 1017 83 10000 2.06 30 00:28 07.01.2022
5989 Clouds 27 1016 69 10000 3.6 220 21:34 06.01.2022
5990 Clouds 27 1017 65 10000 2.57 240 20:22 06.01.2022
5991 Clouds 26 1017 69 10000 3.6 210 19:45 06.01.2022
5992 Clear 24 1017 77 10000 4.13 222 18:34 06.01.2022
5993 Clouds 26 1018 73 10000 2.57 230 17:41 06.01.2022
5994 Clouds 24 1018 83 10000 2.06 200 16:52 06.01.2022
5995 Clouds 23 1018 83 10000 3.09 160 15:48 06.01.2022
5996 Clouds 23 1018 83 10000 3.09 160 15:26 06.01.2022
5997 Clouds 23 1017 94 10000 2.06 190 14:51 06.01.2022
5998 Clouds 23 1017 94 10000 2.06 190 14:18 06.01.2022
5999 Clouds 19 1016 100 10000 0 0 12:50 06.01.2022
6000 Clouds 21 1016 94 10000 2.06 160 11:43 06.01.2022
6001 Clouds 21 1016 94 10000 2.06 160 11:22 06.01.2022
6002 Clouds 20 1016 94 10000 2.57 150 08:52 06.01.2022
6003 Clear 23 1016 88 10000 2.57 140 01:24 06.01.2022
6004 Clouds 24 1015 78 10000 4.12 160 23:38 05.01.2022
6005 Clouds 25 1015 73 10000 4.12 180 22:57 05.01.2022
6006 Clouds 25 1015 73 10000 4.12 180 22:32 05.01.2022
6007 Clouds 26 1015 73 10000 4.12 170 21:48 05.01.2022
6008 Clouds 26 1015 73 10000 4.12 170 21:20 05.01.2022
6009 Clouds 25 1016 73 10000 3.09 90 20:18 05.01.2022
6010 Clouds 25 1017 73 10000 2.57 80 18:44 05.01.2022
6011 Clouds 25 1018 73 10000 1.54 100 17:26 05.01.2022
6012 Clouds 25 1019 73 10000 2.06 130 16:50 05.01.2022
6013 Clouds 24 1018 83 10000 2.06 120 15:26 05.01.2022
6014 Clouds 19 1018 94 10000 0.51 0 13:51 05.01.2022
6015 Clear 18 1017 100 10000 0.51 0 12:59 05.01.2022
6016 Clear 20 1017 94 10000 1.54 100 10:32 05.01.2022
6017 Clouds 21 1018 94 10000 2.57 90 07:45 05.01.2022
6018 Clouds 22 1019 88 10000 2.06 80 06:24 05.01.2022
6019 Clouds 22 1019 88 10000 3.09 90 00:58 05.01.2022
6020 Clouds 23 1019 83 10000 3.09 60 23:27 04.01.2022
6021 Clouds 24 1018 78 10000 4.12 90 22:42 04.01.2022
6022 Clouds 23 1018 83 10000 4.63 70 21:21 04.01.2022
6023 Clouds 23 1020 83 10000 5.14 80 19:20 04.01.2022
6024 Clouds 22 1021 94 10000 4.12 90 17:44 04.01.2022
6025 Clouds 22 1021 94 10000 4.12 110 16:42 04.01.2022
6026 Rain 22 1021 94 10000 4.12 110 16:23 04.01.2022
6027 Clouds 22 1020 88 10000 4.63 80 14:53 04.01.2022
6028 Clouds 22 1020 88 10000 4.63 80 14:34 04.01.2022
6029 Clouds 22 1020 88 10000 5.14 70 13:27 04.01.2022
6030 Clouds 23 1018 82 10000 8.65 33 10:41 04.01.2022
6031 Clouds 23 1018 82 10000 7.91 28 09:20 04.01.2022
6032 Clouds 21 1019 100 10000 4.12 40 08:28 04.01.2022
6033 Clear 24 1019 83 10000 1.54 250 02:28 04.01.2022
6034 Clouds 25 1018 73 10000 1.54 240 00:40 04.01.2022
6035 Clouds 27 1018 61 10000 3.09 310 23:18 03.01.2022
6036 Clouds 27 1018 65 10000 4.63 200 21:50 03.01.2022
6037 Clouds 27 1018 65 10000 4.63 200 21:32 03.01.2022
6038 Clouds 28 1018 54 10000 5.14 230 19:47 03.01.2022
6039 Clouds 27 1019 65 10000 6.17 210 18:47 03.01.2022
6040 Clouds 27 1019 65 10000 6.17 210 18:24 03.01.2022
6041 Clouds 26 1020 65 10000 4.63 220 16:58 03.01.2022
6042 Clouds 21 1020 94 10000 1.54 140 14:56 03.01.2022
6043 Clouds 21 1020 94 10000 1.54 140 14:30 03.01.2022
6044 Clouds 20 1020 100 10000 2.06 140 12:39 03.01.2022
6045 Clouds 21 1020 94 10000 1.54 140 11:34 03.01.2022
6046 Clouds 25 1019 65 10000 4.99 182 10:25 03.01.2022
6047 Clouds 25 1019 65 10000 5.39 178 08:47 03.01.2022
6048 Clear 20 1020 94 10000 0 0 07:32 03.01.2022
6049 Clouds 25 1019 73 10000 4.63 160 23:55 02.01.2022
6050 Clouds 25 1019 73 10000 4.63 160 23:20 02.01.2022
6051 Clouds 26 1019 69 10000 5.66 160 22:43 02.01.2022
6052 Clouds 27 1019 65 10000 5.14 180 21:39 02.01.2022
6053 Clouds 28 1019 61 10000 5.66 160 20:31 02.01.2022
6054 Clouds 28 1019 61 10000 5.66 170 19:53 02.01.2022
6055 Clouds 28 1019 61 10000 5.66 170 19:26 02.01.2022
6056 Clouds 27 1020 61 10000 6.17 190 18:33 02.01.2022
6057 Clouds 27 1021 61 10000 7.2 180 17:43 02.01.2022
6058 Clouds 27 1021 61 10000 7.2 180 17:21 02.01.2022
6059 Clouds 27 1021 65 10000 6.17 170 16:33 02.01.2022
6060 Clouds 26 1021 69 10000 6.17 170 15:51 02.01.2022
6061 Clouds 24 1020 78 10000 3.6 170 14:19 02.01.2022
6062 Clouds 22 1019 88 10000 2.57 170 12:34 02.01.2022
6063 Clouds 22 1019 83 10000 3.09 170 11:56 02.01.2022
6064 Clouds 22 1019 88 10000 3.09 160 10:59 02.01.2022
6065 Clouds 22 1019 88 10000 3.09 160 10:26 02.01.2022
6066 Clouds 21 1019 94 10000 3.09 150 08:22 02.01.2022
6067 Clouds 23 1020 88 10000 2.06 150 02:58 02.01.2022
6068 Clouds 25 1019 73 10000 4.63 160 23:55 01.01.2022
6069 Clouds 25 1019 73 10000 4.63 160 23:36 01.01.2022
6070 Clouds 27 1019 61 10000 5.66 170 22:44 01.01.2022
6071 Clouds 27 1019 61 10000 5.66 170 22:18 01.01.2022
6072 Clouds 28 1019 61 10000 5.66 160 21:43 01.01.2022
6073 Clouds 28 1019 57 10000 1.54 170 20:51 01.01.2022
6074 Clouds 25 1019 68 10000 5.71 149 19:55 01.01.2022
6075 Clouds 26 1019 65 10000 5.67 147 18:53 01.01.2022
6076 Clouds 26 1020 66 10000 5.53 144 17:46 01.01.2022
6077 Clouds 25 1021 66 10000 5.69 141 16:35 01.01.2022
6078 Clear 25 1021 68 10000 5.57 137 15:50 01.01.2022
6079 Clouds 22 1020 94 10000 1.03 0 14:40 01.01.2022
6080 Clouds 21 1020 94 10000 1.03 0 13:42 01.01.2022
6081 Clouds 20 1019 94 10000 2.06 90 12:26 01.01.2022
6082 Clouds 19 1019 94 10000 1.03 0 11:46 01.01.2022
6083 Clouds 19 1019 94 10000 1.03 0 11:18 01.01.2022
6084 Clear 21 1019 88 10000 2.57 110 09:48 01.01.2022
6085 Clear 23 1020 88 10000 2.06 110 08:49 01.01.2022
6086 Clear 23 1020 88 10000 2.06 110 08:21 01.01.2022
6087 Clear 23 1020 88 10000 2.57 110 07:39 01.01.2022
6088 Clear 23 1020 88 10000 2.06 90 06:44 01.01.2022
6089 Clear 24 1021 83 10000 2.57 90 05:24 01.01.2022
6090 Clear 23 1021 88 10000 2.06 90 04:35 01.01.2022
6091 Clear 24 1019 78 10000 2.57 160 00:25 01.01.2022
6092 Clear 26 1019 65 10000 4.12 160 22:34 31.12.2021
6093 Clouds 27 1019 65 10000 3.6 160 21:47 31.12.2021
6094 Clouds 28 1019 65 10000 5.14 180 19:48 31.12.2021
6095 Clouds 28 1019 65 10000 5.14 180 19:28 31.12.2021
6096 Clouds 28 1020 69 10000 4.12 190 18:18 31.12.2021
6097 Clouds 27 1021 69 10000 3.09 160 17:28 31.12.2021
6098 Clouds 26 1022 73 10000 4.12 120 16:56 31.12.2021
6099 Clouds 26 1022 73 10000 4.12 120 16:18 31.12.2021
6100 Clouds 25 1021 83 10000 1.54 130 15:50 31.12.2021
6101 Clouds 25 1021 83 10000 1.54 130 15:27 31.12.2021
6102 Clouds 22 1020 94 10000 0 0 14:41 31.12.2021
6103 Clouds 20 1019 100 10000 0 0 13:55 31.12.2021
6104 Clouds 20 1019 94 10000 0 0 12:51 31.12.2021
6105 Clouds 20 1019 94 10000 0 0 12:21 31.12.2021
6106 Clouds 20 1018 94 10000 0.51 0 11:42 31.12.2021
6107 Clouds 20 1019 94 10000 0 0 10:55 31.12.2021
6108 Clear 25 1018 72 10000 2.31 86 10:28 31.12.2021
6109 Clouds 21 1019 94 10000 0.51 0 09:34 31.12.2021
6110 Clear 25 1018 72 10000 2.7 103 08:52 31.12.2021
6111 Clouds 21 1020 94 10000 0 0 07:55 31.12.2021
6112 Clear 25 1019 73 10000 3.17 112 04:54 31.12.2021
6113 Clouds 25 1018 69 10000 4.12 160 23:18 30.12.2021
6114 Clouds 26 1019 65 10000 4.12 170 22:31 30.12.2021
6115 Clear 25 1018 73 10000 5.43 152 21:39 30.12.2021
6116 Clear 25 1018 73 10000 5.74 152 21:19 30.12.2021
6117 Clouds 27 1019 65 10000 5.14 170 20:39 30.12.2021
6118 Clouds 27 1020 65 10000 6.17 170 19:55 30.12.2021
6119 Clouds 27 1020 65 10000 6.17 170 19:31 30.12.2021
6120 Clouds 27 1021 65 10000 5.66 170 18:26 30.12.2021
6121 Clouds 26 1022 78 10000 4.63 170 16:53 30.12.2021
6122 Clouds 24 1022 94 10000 2.06 150 15:54 30.12.2021
6123 Clouds 23 1021 100 10000 1.03 0 14:55 30.12.2021
6124 Clouds 23 1021 100 10000 1.03 0 14:36 30.12.2021
6125 Clouds 19 1020 100 10000 0.51 0 13:25 30.12.2021
6126 Clouds 19 1020 100 10000 0.51 0 13:25 30.12.2021
6127 Clear 19 1019 100 10000 0.51 0 11:57 30.12.2021
6128 Clear 21 1019 94 10000 1.03 0 10:35 30.12.2021
6129 Clear 22 1019 100 10000 1.54 110 09:47 30.12.2021
6130 Clear 21 1020 100 10000 1.03 0 06:58 30.12.2021
6131 Clear 22 1020 100 10000 1.54 130 05:20 30.12.2021
6132 Clear 22 1020 94 10000 2.57 140 03:40 30.12.2021
6133 Clear 22 1020 94 10000 2.57 140 03:40 30.12.2021
6134 Clear 22 1020 94 10000 2.57 150 02:28 30.12.2021
6135 Clear 25 1019 78 10000 5.66 160 23:37 29.12.2021
6136 Clear 27 1018 69 10000 6.17 170 22:42 29.12.2021
6137 Clouds 27 1018 69 10000 6.69 170 21:56 29.12.2021
6138 Clouds 27 1019 69 10000 6.69 170 20:58 29.12.2021
6139 Clouds 27 1019 69 10000 6.69 170 20:29 29.12.2021
6140 Clouds 27 1019 69 10000 7.2 170 19:31 29.12.2021
6141 Clouds 26 1020 73 10000 6.17 170 18:42 29.12.2021
6142 Clouds 26 1021 73 10000 6.17 160 17:49 29.12.2021
6143 Clouds 26 1021 73 10000 6.17 160 17:26 29.12.2021
6144 Clouds 27 1021 65 10000 5.66 160 16:21 29.12.2021
6145 Clouds 25 1021 78 10000 3.09 150 15:21 29.12.2021
6146 Clouds 25 1019 66 10000 5.71 144 12:57 29.12.2021
6147 Clouds 25 1019 66 10000 5.71 144 12:34 29.12.2021
6148 Clouds 25 1018 67 10000 5.34 138 11:23 29.12.2021
6149 Clouds 25 1018 69 10000 4.49 138 09:35 29.12.2021
6150 Clear 20 1019 94 10000 0 0 07:45 29.12.2021
6151 Clear 20 1020 100 10000 0 0 06:33 29.12.2021
6152 Clear 20 1020 100 10000 1.54 110 05:56 29.12.2021
6153 Clear 21 1020 94 10000 1.54 90 04:58 29.12.2021
6154 Clouds 22 1018 83 10000 3.09 150 00:45 29.12.2021
6155 Clouds 25 1018 69 10000 3.6 150 23:58 28.12.2021
6156 Clouds 26 1018 65 10000 3.6 140 22:57 28.12.2021
6157 Clouds 26 1018 65 10000 3.6 140 22:57 28.12.2021
6158 Clouds 26 1018 65 10000 3.6 140 22:25 28.12.2021
6159 Clouds 26 1018 61 10000 4.12 150 21:54 28.12.2021
6160 Clouds 26 1018 61 10000 4.12 150 21:35 28.12.2021
6161 Clouds 26 1018 61 10000 4.63 120 20:25 28.12.2021
6162 Clouds 27 1019 57 10000 3.6 130 18:54 28.12.2021
6163 Clouds 27 1019 57 10000 3.6 130 18:28 28.12.2021
6164 Clouds 26 1020 61 10000 2.06 140 17:39 28.12.2021
6165 Clouds 25 1020 65 10000 2.06 120 16:20 28.12.2021
6166 Clouds 23 1020 78 10000 0 0 15:41 28.12.2021
6167 Clouds 18 1019 100 10000 0 0 14:56 28.12.2021
6168 Clouds 18 1019 100 10000 0 0 14:38 28.12.2021
6169 Clouds 18 1019 100 10000 0 0 14:38 28.12.2021
6170 Clouds 18 1019 100 10000 0 0 14:19 28.12.2021
6171 Clouds 15 1019 100 10000 0 0 13:37 28.12.2021
6172 Clear 16 1018 94 10000 0.51 0 12:56 28.12.2021
6173 Clear 16 1018 94 10000 0.51 0 12:21 28.12.2021
6174 Clear 16 1018 94 10000 1.03 0 10:47 28.12.2021
6175 Clear 17 1018 94 10000 1.03 0 07:39 28.12.2021
6176 Clouds 19 1019 88 10000 0.51 0 03:37 28.12.2021
6177 Clear 24 1018 64 10000 2.57 40 23:41 27.12.2021
6178 Clear 24 1018 64 10000 3.09 20 22:27 27.12.2021
6179 Clear 25 1018 61 10000 3.6 360 21:31 27.12.2021
6180 Clouds 25 1018 61 10000 4.12 40 20:39 27.12.2021
6181 Clouds 25 1019 61 10000 3.6 20 19:49 27.12.2021
6182 Clouds 25 1019 61 10000 3.6 20 19:27 27.12.2021
6183 Clouds 25 1020 65 10000 5.14 40 17:54 27.12.2021
6184 Clouds 25 1020 65 10000 5.14 40 17:54 27.12.2021
6185 Clouds 25 1020 65 10000 5.14 40 17:28 27.12.2021
6186 Clouds 25 1021 61 10000 4.12 20 16:23 27.12.2021
6187 Clouds 24 1021 64 10000 3.09 20 15:44 27.12.2021
6188 Clouds 23 1020 78 10000 2.57 10 14:24 27.12.2021
6189 Clouds 20 1019 94 10000 0 0 12:56 27.12.2021
6190 Clouds 18 1019 94 10000 0 0 10:56 27.12.2021
6191 Clouds 18 1019 94 10000 0 0 10:27 27.12.2021
6192 Clouds 18 1019 94 10000 0 0 09:19 27.12.2021
6193 Clouds 17 1020 94 10000 1.79 21 07:34 27.12.2021
6194 Clouds 18 1020 88 10000 0 0 06:29 27.12.2021
6195 Clear 22 1020 73 10000 1.03 0 01:52 27.12.2021
6196 Clear 25 1019 61 10000 3.09 10 23:49 26.12.2021
6197 Clear 23 1018 63 10000 3.07 13 23:19 26.12.2021
6198 Clear 25 1018 61 10000 3.09 20 21:41 26.12.2021
6199 Clear 26 1020 53 10000 2.06 70 19:57 26.12.2021
6200 Clear 25 1021 57 10000 4.12 80 18:46 26.12.2021
6201 Clear 25 1021 57 10000 4.12 80 18:22 26.12.2021
6202 Clear 23 1021 68 10000 2.57 130 15:53 26.12.2021
6203 Clear 15 1020 94 10000 0 0 13:51 26.12.2021
6204 Clear 15 1020 94 10000 0 0 13:32 26.12.2021
6205 Clear 23 1020 59 10000 1.41 65 12:36 26.12.2021
6206 Clear 23 1019 60 10000 1.65 110 11:24 26.12.2021
6207 Clear 18 1020 88 10000 0.51 0 09:35 26.12.2021
6208 Clear 19 1020 82 10000 0.51 0 08:50 26.12.2021
6209 Clear 19 1020 82 10000 0.51 0 08:27 26.12.2021
6210 Clear 21 1021 73 10000 1.03 0 02:19 26.12.2021
6211 Clear 23 1019 68 10000 2.57 120 00:40 26.12.2021
6212 Clear 24 1019 60 10000 3.6 90 23:37 25.12.2021
6213 Clear 25 1018 57 10000 4.12 90 22:38 25.12.2021
6214 Clear 25 1018 57 10000 4.12 90 22:20 25.12.2021
6215 Clear 26 1019 53 10000 4.12 90 20:26 25.12.2021
6216 Clear 26 1019 50 10000 4.63 90 19:19 25.12.2021
6217 Clear 26 1020 53 10000 4.63 110 18:37 25.12.2021
6218 Clear 25 1022 57 10000 5.14 100 16:50 25.12.2021
6219 Clear 24 1022 64 10000 4.12 110 15:34 25.12.2021
6220 Clouds 24 1020 56 10000 5.33 84 14:23 25.12.2021
6221 Clouds 22 1020 68 10000 2.06 100 12:21 25.12.2021
6222 Clouds 22 1019 68 10000 2.57 110 10:46 25.12.2021
6223 Clouds 22 1019 68 10000 2.57 100 09:49 25.12.2021
6224 Clouds 22 1020 73 10000 3.09 100 07:27 25.12.2021
6225 Clouds 22 1021 68 10000 3.09 80 01:40 25.12.2021
6226 Clouds 23 1020 64 10000 3.6 80 00:22 25.12.2021
6227 Clouds 25 1020 65 10000 6.17 60 21:59 24.12.2021
6228 Clouds 25 1020 61 10000 5.66 50 19:27 24.12.2021
6229 Clouds 25 1021 57 10000 6.17 90 18:56 24.12.2021
6230 Clouds 25 1022 57 10000 6.17 50 16:49 24.12.2021
6231 Clouds 24 1022 57 10000 5.14 60 15:50 24.12.2021
6232 Clouds 24 1022 57 10000 5.14 60 15:25 24.12.2021
6233 Clouds 23 1021 56 10000 4.63 50 14:35 24.12.2021
6234 Clouds 21 1020 64 10000 4.12 50 13:57 24.12.2021
6235 Clouds 21 1020 64 10000 4.12 50 13:32 24.12.2021
6236 Clouds 21 1020 68 10000 4.12 50 12:45 24.12.2021
6237 Clouds 22 1019 64 10000 4.63 50 11:45 24.12.2021
6238 Clouds 22 1019 64 10000 4.63 50 11:24 24.12.2021
6239 Clouds 22 1019 64 10000 5.14 70 10:35 24.12.2021
6240 Clouds 24 1018 57 10000 6.63 44 08:58 24.12.2021
6241 Clouds 22 1019 64 10000 5.14 60 07:58 24.12.2021
6242 Clouds 22 1019 64 10000 5.14 60 07:31 24.12.2021
6243 Clouds 22 1018 64 10000 3.6 40 00:47 24.12.2021
6244 Clouds 23 1018 56 10000 3.09 30 23:50 23.12.2021
6245 Clouds 23 1018 56 10000 4.63 30 22:53 23.12.2021
6246 Clouds 23 1018 56 10000 4.63 30 22:24 23.12.2021
6247 Clouds 23 1018 53 10000 5.14 10 21:47 23.12.2021
6248 Clouds 24 1018 53 10000 5.14 20 20:31 23.12.2021
6249 Clouds 24 1018 53 10000 5.14 20 20:31 23.12.2021
6250 Clouds 23 1018 49 10000 5.14 360 19:30 23.12.2021
6251 Clouds 23 1018 49 10000 5.14 360 19:30 23.12.2021
6252 Clouds 23 1019 53 10000 5.14 360 18:18 23.12.2021
6253 Clouds 23 1019 56 10000 5.14 10 17:45 23.12.2021
6254 Clouds 22 1019 60 10000 5.14 20 16:27 23.12.2021
6255 Clouds 23 1019 56 10000 5.66 10 15:40 23.12.2021
6256 Clouds 23 1019 56 10000 5.66 10 15:22 23.12.2021
6257 Clouds 22 1018 53 10000 4.12 20 14:40 23.12.2021
6258 Clouds 21 1018 56 10000 4.63 360 13:31 23.12.2021
6259 Clouds 21 1017 60 10000 5.66 350 11:49 23.12.2021
6260 Clouds 21 1016 64 10000 4.63 350 09:53 23.12.2021
6261 Clouds 21 1016 64 10000 4.63 350 09:34 23.12.2021
6262 Clouds 21 1016 64 10000 4.12 350 08:28 23.12.2021
6263 Clouds 21 1016 68 10000 4.12 340 05:39 23.12.2021
6264 Clouds 21 1015 68 10000 5.14 320 01:31 23.12.2021
6265 Clouds 23 1013 64 10000 6.17 320 22:51 22.12.2021
6266 Clouds 23 1013 60 10000 6.69 330 21:59 22.12.2021
6267 Clouds 23 1013 60 10000 6.69 330 21:30 22.12.2021
6268 Clouds 23 1013 64 10000 7.72 330 20:59 22.12.2021
6269 Clouds 23 1013 64 10000 7.72 330 20:40 22.12.2021
6270 Clouds 24 1013 60 10000 7.2 340 19:50 22.12.2021
6271 Clouds 23 1014 60 10000 6.17 320 18:55 22.12.2021
6272 Clouds 23 1014 60 10000 7.2 320 17:38 22.12.2021
6273 Clouds 23 1013 64 10000 8.23 320 15:56 22.12.2021
6274 Rain 23 1012 73 10000 8.75 320 14:23 22.12.2021
6275 Clouds 24 1011 78 10000 4.12 300 12:53 22.12.2021
6276 Clouds 22 1010 100 2400 4.12 280 11:42 22.12.2021
6277 Rain 24 1009 88 10000 4.63 270 09:52 22.12.2021
6278 Clouds 25 1010 83 10000 5.66 240 07:57 22.12.2021
6279 Clouds 26 1010 78 10000 5.66 230 05:54 22.12.2021
6280 Clouds 26 1010 78 10000 5.66 230 05:34 22.12.2021
6281 Clouds 25 1011 83 10000 5.66 220 04:57 22.12.2021
6282 Clouds 25 1011 83 10000 5.66 220 04:37 22.12.2021
6283 Clouds 25 1011 83 10000 5.14 210 03:37 22.12.2021
6284 Clouds 25 1011 83 10000 5.14 210 03:18 22.12.2021
6285 Clouds 26 1010 69 10000 3.6 240 23:47 21.12.2021
6286 Clouds 26 1010 73 10000 5.66 220 22:36 21.12.2021
6287 Clouds 27 1010 69 10000 6.69 220 21:55 21.12.2021
6288 Clouds 27 1010 69 10000 6.69 220 21:31 21.12.2021
6289 Clouds 28 1011 65 10000 7.72 220 20:24 21.12.2021
6290 Clouds 27 1011 69 10000 6.69 210 19:52 21.12.2021
6291 Clouds 27 1011 69 10000 6.69 210 19:33 21.12.2021
6292 Clouds 27 1012 74 10000 6.17 210 18:23 21.12.2021
6293 Clouds 26 1014 73 10000 8.23 220 17:53 21.12.2021
6294 Clouds 27 1014 74 10000 7.72 230 16:47 21.12.2021
6295 Clouds 26 1014 73 10000 6.17 220 15:34 21.12.2021
6296 Clouds 24 1013 83 10000 3.09 190 13:55 21.12.2021
6297 Clouds 24 1013 83 10000 3.09 190 13:36 21.12.2021
6298 Clouds 23 1013 83 10000 3.09 190 12:25 21.12.2021
6299 Clouds 23 1013 83 10000 2.06 180 10:38 21.12.2021
6300 Clouds 23 1013 88 10000 3.09 170 09:42 21.12.2021
6301 Clouds 23 1014 88 10000 2.57 180 08:55 21.12.2021
6302 Clouds 23 1014 94 10000 3.09 170 07:42 21.12.2021
6303 Clouds 23 1014 94 10000 3.09 170 07:19 21.12.2021
6304 Clouds 24 1016 88 10000 1.54 150 03:24 21.12.2021
6305 Clouds 25 1014 75 10000 3.08 169 01:19 21.12.2021
6306 Clouds 25 1015 88 10000 1.03 0 23:54 20.12.2021
6307 Clouds 25 1015 88 10000 1.54 240 22:35 20.12.2021
6308 Clouds 27 1014 69 10000 1.54 0 21:48 20.12.2021
6309 Clouds 27 1014 69 10000 1.54 0 21:24 20.12.2021
6310 Clouds 27 1014 69 10000 1.54 0 21:24 20.12.2021
6311 Clouds 28 1014 69 10000 2.06 210 20:48 20.12.2021
6312 Clouds 26 1015 78 10000 2.06 20 19:55 20.12.2021
6313 Clouds 26 1015 78 10000 2.06 20 19:55 20.12.2021
6314 Clouds 26 1015 78 10000 2.06 20 19:55 20.12.2021
6315 Clouds 26 1015 78 10000 2.06 20 19:34 20.12.2021
6316 Clouds 28 1016 69 10000 2.57 290 18:55 20.12.2021
6317 Clouds 28 1016 69 10000 2.57 290 18:25 20.12.2021
6318 Clouds 26 1017 78 10000 3.09 290 17:46 20.12.2021
6319 Clouds 26 1017 78 10000 3.09 280 16:44 20.12.2021
6320 Clouds 26 1017 83 10000 3.09 250 15:52 20.12.2021
6321 Clouds 24 1017 94 10000 1.54 240 14:58 20.12.2021
6322 Clouds 23 1016 94 10000 1.54 260 13:24 20.12.2021
6323 Clouds 24 1016 88 10000 2.57 250 11:27 20.12.2021
6324 Clouds 24 1016 88 10000 2.06 270 09:51 20.12.2021
6325 Clouds 24 1016 88 10000 2.06 270 09:31 20.12.2021
6326 Clouds 24 1016 88 10000 1.54 250 08:42 20.12.2021
6327 Clouds 24 1016 88 10000 2.06 200 07:57 20.12.2021
6328 Clouds 24 1016 88 10000 2.06 200 07:31 20.12.2021
6329 Clear 24 1017 88 10000 2.57 200 04:36 20.12.2021
6330 Clouds 25 1017 83 10000 3.6 170 00:18 20.12.2021
6331 Clouds 27 1017 74 10000 5.66 180 22:53 19.12.2021
6332 Clouds 28 1016 74 10000 7.2 170 21:55 19.12.2021
6333 Clouds 28 1016 74 10000 7.2 170 21:30 19.12.2021
6334 Clouds 28 1017 69 10000 6.69 180 20:34 19.12.2021
6335 Clouds 28 1018 69 10000 7.2 170 19:52 19.12.2021
6336 Clouds 28 1018 69 10000 7.2 170 19:32 19.12.2021
6337 Clouds 28 1019 69 10000 7.2 170 18:30 19.12.2021
6338 Clouds 28 1019 69 10000 7.72 160 17:53 19.12.2021
6339 Clouds 28 1019 69 10000 7.72 160 17:20 19.12.2021
6340 Clouds 27 1020 74 10000 7.2 170 16:26 19.12.2021
6341 Clear 27 1019 69 10000 6.69 170 15:43 19.12.2021
6342 Clear 27 1019 69 10000 6.69 170 15:20 19.12.2021
6343 Clear 26 1019 69 10000 5.14 160 14:42 19.12.2021
6344 Clear 24 1019 73 10000 4.12 160 13:22 19.12.2021
6345 Clouds 24 1018 73 10000 5.14 160 12:42 19.12.2021
6346 Clouds 24 1018 73 10000 5.14 160 12:18 19.12.2021
6347 Clouds 26 1018 74 10000 7.86 139 11:19 19.12.2021
6348 Clouds 25 1018 78 10000 5.66 150 10:25 19.12.2021
6349 Clouds 26 1017 75 10000 8.64 135 09:41 19.12.2021
6350 Clouds 26 1017 75 10000 8.89 134 08:35 19.12.2021
6351 Clouds 25 1020 83 10000 4.12 140 04:45 19.12.2021
6352 Clouds 25 1020 83 10000 4.12 140 04:45 19.12.2021
6353 Clouds 25 1019 83 10000 2.57 120 01:22 19.12.2021
6354 Clouds 24 1019 94 10000 4.63 140 00:52 19.12.2021
6355 Clouds 26 1019 73 10000 7.2 140 22:36 18.12.2021
6356 Clouds 27 1019 78 10000 7.2 140 21:57 18.12.2021
6357 Clouds 27 1019 78 10000 7.2 140 21:35 18.12.2021
6358 Clouds 27 1019 78 10000 6.69 140 20:44 18.12.2021
6359 Clouds 28 1019 69 10000 7.72 140 19:59 18.12.2021
6360 Clouds 28 1019 69 10000 7.72 140 19:20 18.12.2021
6361 Clouds 28 1021 74 10000 6.69 140 18:21 18.12.2021
6362 Clouds 24 1022 94 10000 7.2 140 17:48 18.12.2021
6363 Clouds 26 1022 78 10000 6.69 140 16:26 18.12.2021
6364 Clouds 27 1021 78 10000 5.66 120 15:26 18.12.2021
6365 Clouds 25 1021 83 10000 4.12 130 14:38 18.12.2021
6366 Clouds 24 1021 88 10000 4.63 120 13:21 18.12.2021
6367 Clouds 24 1020 88 10000 4.63 120 11:22 18.12.2021
6368 Clouds 24 1020 88 10000 3.09 100 09:40 18.12.2021
6369 Clouds 24 1020 88 10000 3.09 100 08:46 18.12.2021
6370 Clouds 24 1020 88 10000 3.09 100 08:19 18.12.2021
6371 Clear 24 1021 83 10000 3.09 100 02:51 18.12.2021
6372 Clouds 24 1021 78 10000 4.12 110 00:27 18.12.2021
6373 Clouds 25 1020 78 10000 5.66 110 23:44 17.12.2021
6374 Clouds 26 1019 72 10000 8.17 94 21:56 17.12.2021
6375 Clouds 26 1019 72 10000 8.17 94 21:56 17.12.2021
6376 Clouds 28 1020 69 10000 5.14 90 20:58 17.12.2021
6377 Clouds 28 1020 69 10000 5.14 90 20:38 17.12.2021
6378 Clouds 27 1021 69 10000 6.69 120 19:18 17.12.2021
6379 Clouds 27 1022 74 10000 5.66 120 18:38 17.12.2021
6380 Clouds 27 1023 69 10000 5.14 110 17:26 17.12.2021
6381 Clouds 27 1023 69 10000 6.17 100 16:44 17.12.2021
6382 Clouds 27 1023 69 10000 6.17 100 16:21 17.12.2021
6383 Clouds 26 1023 78 10000 5.14 110 15:20 17.12.2021
6384 Clouds 25 1022 83 10000 3.09 100 14:38 17.12.2021
6385 Clouds 24 1021 88 10000 3.6 90 12:46 17.12.2021
6386 Clouds 24 1021 88 10000 2.57 90 11:34 17.12.2021
6387 Clouds 24 1021 88 10000 3.09 90 09:59 17.12.2021
6388 Clouds 24 1021 88 10000 2.57 100 08:58 17.12.2021
6389 Clouds 24 1021 88 10000 2.57 100 08:29 17.12.2021
6390 Clouds 24 1022 83 10000 4.12 90 05:41 17.12.2021
6391 Clouds 24 1021 83 10000 4.12 90 02:52 17.12.2021
6392 Clouds 25 1020 73 10000 5.66 90 23:20 16.12.2021
6393 Clouds 26 1020 69 10000 6.17 90 22:24 16.12.2021
6394 Clouds 26 1020 69 10000 6.17 90 22:23 16.12.2021
6395 Clouds 26 1020 69 10000 6.17 90 22:23 16.12.2021
6396 Clouds 27 1020 65 10000 6.17 100 21:47 16.12.2021
6397 Clouds 27 1020 65 10000 6.17 100 21:20 16.12.2021
6398 Clouds 25 1020 68 10000 8.43 81 20:27 16.12.2021
6399 Clouds 25 1020 68 10000 8.43 81 19:36 16.12.2021
6400 Clouds 27 1022 61 10000 6.69 90 18:38 16.12.2021
6401 Clouds 26 1023 61 10000 7.72 100 17:49 16.12.2021
6402 Clouds 26 1023 61 10000 7.72 100 17:19 16.12.2021
6403 Clouds 25 1022 67 10000 9.12 83 16:20 16.12.2021
6404 Clouds 25 1022 69 10000 5.14 100 14:50 16.12.2021
6405 Clouds 23 1021 78 10000 5.14 100 12:48 16.12.2021
6406 Clear 25 1020 74 10000 11.02 85 11:19 16.12.2021
6407 Clouds 24 1020 78 10000 5.14 100 10:46 16.12.2021
6408 Clouds 24 1021 78 10000 4.63 100 09:52 16.12.2021
6409 Clouds 24 1021 78 10000 4.63 100 07:19 16.12.2021
6410 Clouds 24 1022 83 10000 6.17 100 06:19 16.12.2021
6411 Clouds 25 1021 78 10000 4.12 100 00:44 16.12.2021
6412 Clouds 26 1021 73 10000 5.66 100 23:21 15.12.2021
6413 Clouds 26 1020 73 10000 6.69 100 22:22 15.12.2021
6414 Clouds 27 1021 69 10000 7.2 100 21:46 15.12.2021
6415 Clouds 27 1021 69 10000 7.2 100 21:26 15.12.2021
6416 Clouds 27 1021 69 10000 6.17 100 19:55 15.12.2021
6417 Clouds 27 1021 69 10000 6.17 100 19:19 15.12.2021
6418 Clouds 26 1022 78 10000 5.66 90 18:26 15.12.2021
6419 Clouds 28 1023 61 10000 7.2 100 17:47 15.12.2021
6420 Clouds 28 1023 61 10000 7.2 100 17:21 15.12.2021
6421 Clouds 27 1023 69 10000 6.69 110 15:59 15.12.2021
6422 Clouds 27 1023 69 10000 6.69 110 15:41 15.12.2021
6423 Clouds 27 1023 69 10000 6.69 110 15:23 15.12.2021
6424 Clouds 22 1023 88 10000 2.06 90 13:48 15.12.2021
6425 Clouds 22 1022 94 10000 2.57 90 11:52 15.12.2021
6426 Clouds 23 1022 88 10000 2.57 90 10:22 15.12.2021
6427 Clouds 23 1022 88 10000 3.6 90 08:27 15.12.2021
6428 Clouds 24 1023 78 10000 3.6 90 05:54 15.12.2021
6429 Clouds 25 1022 78 10000 5.14 80 00:39 15.12.2021
6430 Clouds 24 1022 88 10000 5.66 90 23:31 14.12.2021
6431 Clouds 25 1022 78 10000 4.63 70 22:44 14.12.2021
6432 Clouds 26 1022 73 10000 7.72 60 21:43 14.12.2021
6433 Clouds 26 1022 73 10000 7.72 60 21:43 14.12.2021
6434 Clouds 26 1022 73 10000 6.69 90 20:23 14.12.2021
6435 Clouds 27 1023 69 10000 6.17 90 19:37 14.12.2021
6436 Clouds 27 1024 69 10000 6.17 70 18:38 14.12.2021
6437 Clouds 26 1024 73 10000 6.17 90 17:56 14.12.2021
6438 Clouds 26 1025 78 10000 3.09 100 16:47 14.12.2021
6439 Clouds 26 1025 78 10000 3.09 100 16:28 14.12.2021
6440 Clouds 24 1024 83 10000 3.09 90 14:32 14.12.2021
6441 Clouds 23 1023 88 10000 3.09 90 12:58 14.12.2021
6442 Clear 23 1023 88 10000 2.57 90 11:44 14.12.2021
6443 Clear 23 1023 88 10000 2.57 90 11:20 14.12.2021
6444 Clear 25 1022 73 10000 7.9 68 09:55 14.12.2021
6445 Clear 25 1022 73 10000 7.82 68 08:58 14.12.2021
6446 Clear 25 1022 72 10000 7.73 71 08:21 14.12.2021
6447 Clouds 23 1023 88 10000 3.09 90 07:23 14.12.2021
6448 Clouds 26 1023 73 10000 4.63 80 23:52 13.12.2021
6449 Clouds 27 1022 65 10000 4.63 80 22:26 13.12.2021
6450 Clouds 27 1022 65 10000 5.14 80 21:39 13.12.2021
6451 Clouds 27 1022 69 10000 6.17 80 20:54 13.12.2021
6452 Clouds 27 1022 69 10000 6.17 80 20:22 13.12.2021
6453 Clouds 28 1023 65 10000 5.66 90 19:49 13.12.2021
6454 Clouds 28 1023 65 10000 5.66 90 19:49 13.12.2021
6455 Clouds 27 1024 65 10000 5.66 90 17:28 13.12.2021
6456 Clouds 27 1025 69 10000 5.14 80 16:43 13.12.2021
6457 Clouds 26 1024 73 10000 4.63 80 15:43 13.12.2021
6458 Clouds 25 1024 78 10000 4.63 70 14:42 13.12.2021
6459 Clouds 25 1023 78 10000 3.6 90 13:37 13.12.2021
6460 Clouds 25 1022 78 10000 3.6 80 12:40 13.12.2021
6461 Clouds 25 1022 78 10000 4.12 80 11:52 13.12.2021
6462 Clouds 25 1022 78 10000 4.12 80 11:29 13.12.2021
6463 Clouds 25 1022 78 10000 3.09 80 10:36 13.12.2021
6464 Clouds 25 1022 83 10000 2.57 90 08:43 13.12.2021
6465 Clouds 25 1022 83 10000 2.57 90 08:43 13.12.2021
6466 Clouds 25 1022 83 10000 3.09 80 06:54 13.12.2021
6467 Clouds 25 1023 83 10000 3.6 80 04:52 13.12.2021
6468 Clouds 26 1020 78 10000 4.12 70 23:55 12.12.2021
6469 Clouds 26 1020 78 10000 4.12 70 21:58 12.12.2021
6470 Clouds 24 1020 88 10000 2.57 100 20:50 12.12.2021
6471 Clouds 25 1021 83 10000 4.12 70 19:35 12.12.2021
6472 Clouds 26 1022 83 10000 5.14 60 17:58 12.12.2021
6473 Clouds 26 1022 78 10000 3.6 80 16:29 12.12.2021
6474 Clouds 27 1022 78 10000 4.12 80 15:54 12.12.2021
6475 Clouds 27 1022 78 10000 4.12 80 15:28 12.12.2021
6476 Clouds 24 1022 88 10000 1.54 70 14:42 12.12.2021
6477 Clouds 23 1021 94 10000 1.54 60 13:47 12.12.2021
6478 Clouds 21 1020 100 10000 1.54 60 12:47 12.12.2021
6479 Clouds 22 1020 94 10000 1.54 60 11:45 12.12.2021
6480 Clouds 22 1020 94 10000 1.54 60 11:45 12.12.2021
6481 Clouds 22 1020 94 10000 1.54 60 11:25 12.12.2021
6482 Clouds 22 1020 94 10000 1.54 60 11:25 12.12.2021
6483 Clouds 22 1019 94 10000 1.03 0 10:43 12.12.2021
6484 Clouds 21 1019 94 10000 1.54 60 09:48 12.12.2021
6485 Clouds 21 1019 94 10000 0.51 0 08:42 12.12.2021
6486 Clear 25 1019 73 10000 3.15 85 06:38 12.12.2021
6487 Clouds 25 1020 83 10000 2.57 90 05:28 12.12.2021
6488 Clouds 25 1020 83 10000 2.57 90 03:58 12.12.2021
6489 Clouds 26 1019 78 10000 2.57 90 00:42 12.12.2021
6490 Clouds 27 1018 69 10000 6.17 120 22:42 11.12.2021
6491 Clouds 27 1018 69 10000 6.17 120 22:19 11.12.2021
6492 Clouds 28 1018 65 10000 6.17 130 21:24 11.12.2021
6493 Clouds 28 1019 65 10000 5.14 110 19:46 11.12.2021
6494 Clouds 28 1019 65 10000 5.14 110 19:20 11.12.2021
6495 Clouds 28 1020 65 10000 5.14 110 18:38 11.12.2021
6496 Clouds 27 1021 69 10000 5.14 100 17:41 11.12.2021
6497 Clouds 25 1021 78 10000 4.63 100 15:57 11.12.2021
6498 Clouds 25 1021 78 10000 4.63 100 15:35 11.12.2021
6499 Clouds 23 1020 88 10000 2.57 80 13:46 11.12.2021
6500 Clouds 23 1019 88 10000 2.57 90 11:55 11.12.2021
6501 Clouds 23 1019 88 10000 2.57 100 09:57 11.12.2021
6502 Clouds 23 1019 88 10000 2.57 100 09:34 11.12.2021
6503 Clouds 25 1020 78 10000 2.06 80 02:41 11.12.2021
6504 Clouds 25 1020 78 10000 2.57 70 00:44 11.12.2021
6505 Clouds 26 1019 73 10000 3.6 60 23:39 10.12.2021
6506 Clouds 27 1019 65 10000 4.12 100 22:26 10.12.2021
6507 Clouds 27 1019 74 10000 4.63 70 21:37 10.12.2021
6508 Clouds 28 1019 65 10000 4.12 110 19:23 10.12.2021
6509 Clouds 28 1020 65 10000 4.12 110 18:57 10.12.2021
6510 Clouds 27 1021 69 10000 4.63 120 17:21 10.12.2021
6511 Clouds 26 1022 78 10000 3.09 90 16:30 10.12.2021
6512 Clouds 26 1022 78 10000 2.57 100 15:42 10.12.2021
6513 Clouds 26 1022 78 10000 2.57 100 15:22 10.12.2021
6514 Clouds 20 1021 100 10000 0 0 13:52 10.12.2021
6515 Clouds 20 1021 100 10000 0 0 13:26 10.12.2021
6516 Clouds 20 1020 100 10000 0 0 12:47 10.12.2021
6517 Clouds 22 1019 94 10000 0 0 11:30 10.12.2021
6518 Clouds 22 1019 94 10000 1.03 0 10:38 10.12.2021
6519 Clouds 22 1020 94 10000 0.51 0 09:19 10.12.2021
6520 Clouds 22 1020 88 10000 0.51 0 06:59 10.12.2021
6521 Clear 23 1021 88 10000 1.54 80 02:50 10.12.2021
6522 Clouds 25 1020 78 10000 1.54 50 00:55 10.12.2021
6523 Clouds 26 1019 73 10000 2.57 40 23:23 09.12.2021
6524 Clouds 27 1019 69 10000 2.57 50 22:28 09.12.2021
6525 Clouds 27 1019 69 10000 3.6 60 21:59 09.12.2021
6526 Clouds 27 1019 69 10000 3.6 60 21:19 09.12.2021
6527 Clouds 27 1019 69 10000 3.09 30 20:28 09.12.2021
6528 Clouds 27 1020 69 10000 3.09 50 19:22 09.12.2021
6529 Clouds 27 1020 69 10000 3.09 20 18:49 09.12.2021
6530 Clouds 27 1021 74 10000 2.06 40 17:57 09.12.2021
6531 Clouds 27 1021 74 10000 2.06 40 17:27 09.12.2021
6532 Clear 25 1020 76 10000 1.89 144 16:56 09.12.2021
6533 Clouds 26 1020 78 10000 1.54 320 15:57 09.12.2021
6534 Clouds 23 1020 94 10000 0.51 0 14:50 09.12.2021
6535 Fog 20 1019 100 1000 0 0 13:25 09.12.2021
6536 Clouds 20 1019 100 10000 1.03 0 12:42 09.12.2021
6537 Clouds 20 1018 100 10000 0 0 11:24 09.12.2021
6538 Clear 25 1017 81 10000 3.13 337 09:44 09.12.2021
6539 Clear 23 1019 94 10000 1.54 340 06:50 09.12.2021
6540 Clouds 25 1019 88 10000 2.06 230 03:41 09.12.2021
6541 Clouds 26 1017 83 10000 3.6 190 23:44 08.12.2021
6542 Clouds 26 1017 83 10000 3.6 190 23:21 08.12.2021
6543 Clouds 28 1017 74 10000 4.12 200 22:48 08.12.2021
6544 Clouds 28 1017 74 10000 3.09 190 21:42 08.12.2021
6545 Clouds 28 1017 74 10000 3.09 190 21:24 08.12.2021
6546 Clouds 29 1018 65 10000 2.57 220 19:59 08.12.2021
6547 Clouds 29 1018 65 10000 2.57 220 19:34 08.12.2021
6548 Clouds 29 1019 70 10000 2.57 190 18:46 08.12.2021
6549 Clouds 28 1020 74 10000 3.6 160 17:37 08.12.2021
6550 Clouds 26 1020 83 10000 2.57 130 15:51 08.12.2021
6551 Clouds 26 1020 83 10000 2.57 130 15:28 08.12.2021
6552 Clear 25 1019 83 10000 2.06 130 14:31 08.12.2021
6553 Clouds 23 1018 94 10000 0.51 0 11:19 08.12.2021
6554 Clouds 24 1018 88 10000 2.06 60 10:31 08.12.2021
6555 Clouds 24 1018 94 10000 2.57 20 08:56 08.12.2021
6556 Clouds 24 1018 94 10000 2.06 290 07:25 08.12.2021
6557 Clouds 25 1019 88 10000 1.54 60 04:24 08.12.2021
6558 Clouds 26 1018 78 10000 2.57 50 23:33 07.12.2021
6559 Clouds 28 1018 69 10000 2.06 150 21:43 07.12.2021
6560 Clouds 28 1018 69 10000 2.06 150 21:23 07.12.2021
6561 Clouds 26 1018 89 10000 1.54 40 20:20 07.12.2021
6562 Clouds 26 1020 89 10000 2.06 30 18:43 07.12.2021
6563 Clouds 25 1020 88 10000 1.03 0 17:48 07.12.2021
6564 Clouds 25 1020 88 10000 1.03 0 17:19 07.12.2021
6565 Clouds 25 1020 88 10000 2.06 260 16:28 07.12.2021
6566 Clouds 24 1020 100 10000 3.6 200 15:33 07.12.2021
6567 Clouds 25 1019 83 10000 3.6 240 14:18 07.12.2021
6568 Clear 24 1018 100 10000 2.57 180 12:49 07.12.2021
6569 Clear 23 1018 100 10000 2.57 180 11:27 07.12.2021
6570 Clear 23 1018 100 10000 2.06 160 10:33 07.12.2021
6571 Clear 24 1019 100 10000 1.54 160 07:57 07.12.2021
6572 Clear 24 1019 100 10000 2.57 170 05:59 07.12.2021
6573 Clear 24 1019 100 10000 2.57 170 05:33 07.12.2021
6574 Clouds 26 1018 89 10000 4.63 160 23:47 06.12.2021
6575 Clouds 27 1018 78 10000 6.17 150 22:46 06.12.2021
6576 Clouds 27 1018 78 10000 6.17 150 22:23 06.12.2021
6577 Clouds 27 1018 78 10000 6.17 160 21:46 06.12.2021
6578 Clouds 29 1019 70 10000 6.17 160 20:33 06.12.2021
6579 Clouds 29 1019 70 10000 6.17 170 19:27 06.12.2021
6580 Clouds 29 1020 74 10000 6.69 160 18:59 06.12.2021
6581 Clouds 29 1022 70 10000 5.66 150 17:56 06.12.2021
6582 Clouds 29 1022 70 10000 5.66 150 17:37 06.12.2021
6583 Clouds 28 1022 78 10000 5.14 130 16:22 06.12.2021
6584 Clouds 27 1021 83 10000 4.12 130 15:38 06.12.2021
6585 Clouds 23 1020 94 10000 1.54 120 13:46 06.12.2021
6586 Clouds 23 1019 94 10000 2.57 140 12:39 06.12.2021
6587 Clouds 23 1019 94 10000 3.6 130 10:32 06.12.2021
6588 Clouds 23 1020 94 10000 3.6 140 08:35 06.12.2021
6589 Clouds 24 1021 88 10000 2.57 110 04:28 06.12.2021
6590 Clouds 27 1019 69 10000 3.6 130 22:30 05.12.2021
6591 Clouds 27 1019 65 10000 3.6 120 21:26 05.12.2021
6592 Clouds 28 1019 65 10000 4.63 160 20:59 05.12.2021
6593 Clouds 28 1019 65 10000 4.63 160 20:18 05.12.2021
6594 Clouds 28 1020 65 10000 5.14 160 19:33 05.12.2021
6595 Clouds 29 1020 54 10000 5.14 130 18:39 05.12.2021
6596 Clouds 29 1020 54 10000 5.14 130 18:19 05.12.2021
6597 Clouds 27 1021 65 10000 4.63 130 17:45 05.12.2021
6598 Clouds 26 1021 69 10000 5.14 130 16:41 05.12.2021
6599 Clouds 26 1021 69 10000 5.14 130 16:22 05.12.2021
6600 Clouds 24 1020 88 10000 2.57 100 14:48 05.12.2021
6601 Clouds 24 1020 88 10000 2.57 100 14:30 05.12.2021
6602 Clouds 21 1020 100 10000 2.57 90 13:38 05.12.2021
6603 Clouds 21 1019 94 10000 1.54 80 12:47 05.12.2021
6604 Clouds 21 1019 94 10000 1.54 80 12:29 05.12.2021
6605 Clouds 21 1019 94 10000 1.54 110 11:49 05.12.2021
6606 Clouds 22 1019 88 10000 2.06 100 10:51 05.12.2021
6607 Clouds 22 1019 88 10000 3.6 100 09:52 05.12.2021
6608 Clouds 21 1020 94 10000 2.06 110 07:33 05.12.2021
6609 Clouds 23 1020 83 10000 2.57 90 02:25 05.12.2021
6610 Clouds 24 1019 78 10000 3.09 70 23:25 04.12.2021
6611 Clouds 26 1019 69 10000 5.14 90 21:53 04.12.2021
6612 Clouds 26 1019 65 10000 5.66 70 20:47 04.12.2021
6613 Clouds 26 1020 65 10000 5.14 80 19:54 04.12.2021
6614 Clouds 26 1020 65 10000 5.14 80 19:31 04.12.2021
6615 Clouds 26 1021 61 10000 5.14 110 17:58 04.12.2021
6616 Clouds 26 1021 61 10000 5.14 110 17:36 04.12.2021
6617 Clouds 26 1021 61 10000 4.12 100 16:47 04.12.2021
6618 Clouds 26 1021 61 10000 4.12 100 16:29 04.12.2021
6619 Clouds 23 1020 73 10000 3.6 120 14:23 04.12.2021
6620 Clouds 16 1019 100 10000 0 0 11:45 04.12.2021
6621 Clouds 16 1019 100 10000 0 0 11:20 04.12.2021
6622 Clear 24 1018 66 10000 5.34 69 10:24 04.12.2021
6623 Clear 24 1018 65 10000 4.96 64 08:42 04.12.2021
6624 Clear